# Wetter Temperatur Luftdruck Luftfeuchtigkeit Sichtweite Windgeschwindigkeit Windrichtung Zeit
1 Clouds 16 1006 62 16093 2.1 120 21:20 12.07.2020
2 Clouds 15 1006 67 16093 2.1 120 20:58 12.07.2020
3 Clouds 15 1006 67 16093 2.1 120 20:39 12.07.2020
4 Clouds 14 1006 67 16093 2.1 120 20:19 12.07.2020
5 Clouds 14 1006 62 16093 1.01 156 19:54 12.07.2020
6 Clouds 14 1006 62 16093 1.01 156 19:36 12.07.2020
7 Clouds 13 1006 66 16093 1.5 110 19:18 12.07.2020
8 Clouds 12 1006 66 16093 1.5 110 18:40 12.07.2020
9 Clouds 12 1006 66 16093 1.5 110 18:19 12.07.2020
10 Clouds 11 1006 71 16093 3.1 50 17:41 12.07.2020
11 Clouds 10 1006 71 16093 3.1 50 17:22 12.07.2020
12 Clouds 10 1006 76 16093 0.83 87 16:58 12.07.2020
13 Clouds 10 1006 76 16093 0.83 87 16:40 12.07.2020
14 Clouds 9 1006 76 16093 1.09 71 16:18 12.07.2020
15 Clouds 9 1006 81 16093 1.5 60 15:43 12.07.2020
16 Clouds 8 1006 81 16093 1.5 60 15:23 12.07.2020
17 Clouds 9 1006 81 16093 1.5 30 14:44 12.07.2020
18 Clouds 9 1006 81 16093 1.5 30 14:25 12.07.2020
19 Clear 9 1005 87 16093 1.5 50 13:54 12.07.2020
20 Clear 9 1005 87 16093 1.5 50 13:36 12.07.2020
21 Clear 9 1005 87 16093 1.5 50 13:18 12.07.2020
22 Clear 10 1005 71 16093 1.3 51 12:42 12.07.2020
23 Clear 10 1005 71 16093 1.65 40 12:20 12.07.2020
24 Clear 11 1005 71 16093 1.65 40 11:58 12.07.2020
25 Clear 11 1005 71 16093 1.65 40 11:40 12.07.2020
26 Clear 12 1005 71 16093 1.65 26 11:19 12.07.2020
27 Clear 12 1005 71 16093 1.65 26 11:19 12.07.2020
28 Clear 13 1005 76 16093 1.5 50 10:42 12.07.2020
29 Clear 13 1005 76 16093 1.5 50 10:20 12.07.2020
30 Clear 14 1005 72 12874 1.02 11 09:43 12.07.2020
31 Clear 15 1005 72 12874 1.39 3 09:24 12.07.2020
32 Clear 16 1004 34 14484 1.39 3 08:58 12.07.2020
33 Clear 16 1004 34 14484 1.39 3 08:40 12.07.2020
34 Clear 17 1004 34 14484 0.96 356 08:21 12.07.2020
35 Clear 18 1004 30 14484 0.96 356 07:50 12.07.2020
36 Clear 18 1004 30 14484 0.96 356 07:31 12.07.2020
37 Clear 19 1004 30 14484 0.9 5 06:57 12.07.2020
38 Clear 19 1004 30 14484 0.9 5 06:38 12.07.2020
39 Clear 19 1004 30 14484 0.99 3 06:19 12.07.2020
40 Clouds 19 1005 34 14484 1.5 350 05:22 12.07.2020
41 Clear 20 1005 32 14484 2.6 260 04:29 12.07.2020
42 Clouds 20 1005 32 16093 2.6 320 03:48 12.07.2020
43 Clouds 20 1005 32 16093 2.6 320 03:28 12.07.2020
44 Clouds 20 1006 35 16093 1.5 190 02:45 12.07.2020
45 Clouds 20 1006 37 16093 3.1 20 01:36 12.07.2020
46 Clouds 19 1007 42 16093 0.51 14 00:41 12.07.2020
47 Clouds 18 1007 39 12874 0.75 19 00:22 12.07.2020
48 Clouds 18 1007 39 12874 0.75 19 23:55 11.07.2020
49 Clouds 18 1007 39 12874 0.75 19 23:37 11.07.2020
50 Clouds 18 1007 39 12874 1.08 29 23:18 11.07.2020
51 Clear 18 1007 48 14484 1.5 150 22:44 11.07.2020
52 Clear 18 1007 48 14484 1.5 150 22:26 11.07.2020
53 Clear 17 1007 51 16093 2.6 120 21:58 11.07.2020
54 Clear 17 1007 51 16093 2.6 120 21:40 11.07.2020
55 Clear 16 1007 51 16093 2.6 120 21:21 11.07.2020
56 Clear 15 1008 58 16093 2.03 27 20:56 11.07.2020
57 Clear 15 1008 58 16093 2.03 27 20:37 11.07.2020
58 Clear 15 1008 58 16093 2.3 34 20:19 11.07.2020
59 Clear 14 1008 66 16093 2.3 34 19:55 11.07.2020
60 Clear 14 1008 66 16093 2.3 34 19:37 11.07.2020
61 Clear 13 1008 66 16093 2.63 41 19:19 11.07.2020
62 Clear 12 1009 66 16093 2.63 41 18:54 11.07.2020
63 Clear 12 1009 66 16093 2.63 41 18:36 11.07.2020
64 Clear 12 1009 66 16093 2.6 42 18:18 11.07.2020
65 Clear 10 1008 76 16093 1.5 50 17:40 11.07.2020
66 Clear 10 1008 76 16093 1.5 50 17:21 11.07.2020
67 Clear 10 1009 81 16093 2.37 32 16:58 11.07.2020
68 Clear 9 1009 81 16093 2.37 32 16:38 11.07.2020
69 Clear 9 1009 81 16093 2.16 23 16:19 11.07.2020
70 Clear 8 1009 93 16093 2.16 23 15:42 11.07.2020
71 Clear 8 1009 93 16093 2.16 19 15:22 11.07.2020
72 Clear 8 1009 87 16093 2.16 19 14:59 11.07.2020
73 Clear 8 1009 87 16093 2.16 19 14:40 11.07.2020
74 Clear 8 1009 87 16093 2.02 18 14:22 11.07.2020
75 Clear 9 1008 76 16093 2.02 18 13:44 11.07.2020
76 Clear 9 1008 76 16093 2.18 23 13:23 11.07.2020
77 Clear 10 1008 71 16093 2.18 23 12:59 11.07.2020
78 Clear 10 1008 71 16093 2.18 23 12:41 11.07.2020
79 Clear 10 1008 71 16093 2.35 25 12:23 11.07.2020
80 Clear 11 1008 66 16093 2.35 25 11:57 11.07.2020
81 Clear 11 1008 66 16093 2.35 25 11:39 11.07.2020
82 Clear 11 1008 66 16093 2.56 27 11:19 11.07.2020
83 Clear 12 1008 54 16093 2.6 40 10:44 11.07.2020
84 Clouds 11 1008 58 16093 3.6 360 10:26 11.07.2020
85 Clear 12 1008 47 16093 2.6 20 09:56 11.07.2020
86 Clear 13 1008 47 16093 2.6 20 09:36 11.07.2020
87 Clear 13 1008 47 16093 2.6 20 09:18 11.07.2020
88 Clear 15 1008 42 16093 3.6 20 08:37 11.07.2020
89 Clear 15 1008 42 16093 3.6 20 08:19 11.07.2020
90 Clear 16 1008 39 14484 4.6 50 07:46 11.07.2020
91 Clear 16 1008 39 14484 4.6 50 07:27 11.07.2020
92 Clear 16 1008 37 16093 5.1 40 06:56 11.07.2020
93 Clear 18 1008 37 16093 5.1 40 06:22 11.07.2020
94 Clear 19 1008 37 14484 5.7 40 05:36 11.07.2020
95 Clouds 19 1008 34 16093 4.6 60 04:56 11.07.2020
96 Clouds 19 1008 34 16093 4.6 60 04:33 11.07.2020
97 Clouds 20 1008 32 14484 3.6 10 03:38 11.07.2020
98 Clear 20 1009 28 14484 2.6 340 02:48 11.07.2020
99 Clear 20 1009 30 14484 6.2 340 01:51 11.07.2020
100 Clear 20 1009 30 14484 6.2 340 01:19 11.07.2020
101 Clear 19 1009 32 16093 1.5 40 00:41 11.07.2020
102 Clear 19 1009 32 16093 1.5 40 00:22 11.07.2020
103 Clear 19 1009 34 16093 3.51 56 23:58 10.07.2020
104 Clear 19 1009 34 16093 3.51 56 23:40 10.07.2020
105 Clear 18 1009 34 16093 3.48 57 23:20 10.07.2020
106 Clear 18 1010 39 16093 3.1 310 22:46 10.07.2020
107 Clear 17 1010 39 16093 3.1 310 22:22 10.07.2020
108 Clouds 16 1010 39 16093 4.1 30 21:58 10.07.2020
109 Clouds 16 1010 39 16093 4.1 30 21:38 10.07.2020
110 Clouds 16 1010 39 16093 4.1 30 21:19 10.07.2020
111 Clouds 15 1010 47 16093 3.6 40 20:43 10.07.2020
112 Clouds 14 1010 47 16093 3.6 40 20:24 10.07.2020
113 Clouds 13 1010 62 16093 2.1 40 19:59 10.07.2020
114 Clouds 13 1010 62 16093 2.1 40 19:40 10.07.2020
115 Clouds 11 1010 62 16093 2.1 40 19:21 10.07.2020
116 Clouds 12 1010 62 16093 2.1 40 19:21 10.07.2020
117 Clear 12 1010 71 16093 1.5 70 18:42 10.07.2020
118 Clear 12 1010 71 16093 1.5 70 18:22 10.07.2020
119 Clear 11 1009 87 16093 2.19 16 17:59 10.07.2020
120 Clear 11 1009 87 16093 2.19 16 17:41 10.07.2020
121 Clear 11 1009 87 16093 1.74 6 17:22 10.07.2020
122 Clear 10 1009 93 16093 1.5 80 16:56 10.07.2020
123 Clear 11 1009 93 16093 1.5 80 16:37 10.07.2020
124 Clear 10 1009 93 16093 1.5 80 16:18 10.07.2020
125 Clouds 10 1009 93 16093 2.1 40 15:42 10.07.2020
126 Clouds 10 1009 93 16093 2.1 40 15:18 10.07.2020
127 Rain 11 1009 93 16093 1.5 250 14:43 10.07.2020
128 Rain 11 1009 93 16093 1.5 250 14:22 10.07.2020
129 Rain 11 1009 93 16093 2.6 290 13:58 10.07.2020
130 Rain 11 1009 93 16093 2.6 290 13:40 10.07.2020
131 Clouds 11 1009 93 16093 3.6 300 13:22 10.07.2020
132 Rain 12 1009 93 16093 1.5 280 12:58 10.07.2020
133 Rain 12 1009 93 16093 2.1 250 12:40 10.07.2020
134 Rain 12 1009 93 16093 2.1 250 12:21 10.07.2020
135 Rain 12 1009 93 16093 1.5 270 11:43 10.07.2020
136 Rain 12 1009 93 14484 1.81 348 11:22 10.07.2020
137 Rain 12 1009 93 8047 2.1 300 10:59 10.07.2020
138 Rain 12 1009 93 8047 2.1 300 10:41 10.07.2020
139 Mist 12 1009 93 4828 1.5 280 10:21 10.07.2020
140 Rain 12 1009 93 4828 1.5 280 09:55 10.07.2020
141 Rain 12 1009 93 4828 1.5 280 09:36 10.07.2020
142 Rain 12 1009 93 4828 1.5 280 09:18 10.07.2020
143 Rain 12 1009 93 4828 1.02 6 08:43 10.07.2020
144 Rain 12 1009 93 4023 1.5 290 08:25 10.07.2020
145 Rain 12 1008 93 16093 0.94 7 07:58 10.07.2020
146 Rain 12 1008 93 16093 2.6 310 07:39 10.07.2020
147 Rain 13 1008 93 16093 2.6 310 07:19 10.07.2020
148 Rain 13 1008 93 6437 2.1 360 06:43 10.07.2020
149 Rain 15 1008 82 16093 5.1 80 05:53 10.07.2020
150 Thunderstorm 18 1008 68 16093 1.5 170 04:31 10.07.2020
151 Clouds 17 1008 72 16093 0.76 285 03:22 10.07.2020
152 Clouds 17 1008 68 16093 2.1 40 02:41 10.07.2020
153 Rain 17 1009 82 16093 1.53 242 01:33 10.07.2020
154 Rain 14 1009 93 6437 1.98 235 00:40 10.07.2020
155 Rain 14 1009 93 6437 2.44 235 00:18 10.07.2020
156 Rain 13 1010 87 8047 2.1 340 23:39 09.07.2020
157 Rain 13 1010 87 8047 2.1 340 23:19 09.07.2020
158 Rain 13 1010 93 16093 2.31 225 22:57 09.07.2020
159 Rain 13 1010 93 16093 2.31 225 22:39 09.07.2020
160 Rain 13 1010 93 8047 1.62 206 22:20 09.07.2020
161 Rain 13 1010 87 16093 1.62 206 21:55 09.07.2020
162 Rain 13 1010 87 16093 1.5 80 21:36 09.07.2020
163 Clouds 13 1010 87 16093 1.5 80 21:18 09.07.2020
164 Clouds 13 1010 87 16093 2.1 50 20:41 09.07.2020
165 Clouds 13 1010 87 16093 2.1 50 20:23 09.07.2020
166 Clouds 12 1010 93 16093 1.37 212 19:55 09.07.2020
167 Clouds 12 1010 93 16093 1.37 212 19:37 09.07.2020
168 Clouds 12 1010 93 16093 1.2 220 19:18 09.07.2020
169 Clouds 12 1011 93 16093 1.5 70 18:41 09.07.2020
170 Clouds 11 1011 93 16093 1.5 70 18:19 09.07.2020
171 Clouds 11 1010 100 16093 1.5 70 17:55 09.07.2020
172 Clouds 11 1010 100 16093 1.5 70 17:37 09.07.2020
173 Clouds 11 1010 100 16093 1.5 70 17:18 09.07.2020
174 Clouds 11 1010 93 16093 2.6 60 16:44 09.07.2020
175 Clouds 11 1010 93 16093 2.6 60 16:20 09.07.2020
176 Clouds 10 1010 100 16093 0.5 260 15:59 09.07.2020
177 Clouds 11 1010 100 16093 0.5 260 15:41 09.07.2020
178 Clouds 11 1010 100 16093 0.5 267 15:23 09.07.2020
179 Clear 11 1010 93 16093 2.1 220 14:59 09.07.2020
180 Clear 11 1010 93 16093 2.1 220 14:40 09.07.2020
181 Clear 11 1010 93 16093 2.1 220 14:22 09.07.2020
182 Clouds 12 1011 87 16093 2.6 190 13:57 09.07.2020
183 Clouds 12 1011 87 16093 2.6 190 13:38 09.07.2020
184 Clouds 12 1011 87 16093 2.6 190 13:20 09.07.2020
185 Clouds 12 1011 87 16093 1.5 250 12:43 09.07.2020
186 Clouds 12 1010 87 16093 2.1 250 12:24 09.07.2020
187 Clouds 12 1010 87 16093 2.1 250 12:24 09.07.2020
188 Clouds 12 1010 82 16093 1.5 230 11:59 09.07.2020
189 Clouds 12 1010 82 16093 1.5 230 11:41 09.07.2020
190 Clouds 13 1010 82 16093 1.5 230 11:22 09.07.2020
191 Clouds 14 1011 72 16093 4.1 250 10:58 09.07.2020
192 Clouds 14 1011 72 16093 4.1 250 10:40 09.07.2020
193 Clouds 14 1011 72 16093 4.1 250 10:21 09.07.2020
194 Clouds 14 1010 72 16093 2.1 230 09:44 09.07.2020
195 Clouds 15 1010 72 16093 4.1 220 09:23 09.07.2020
196 Clouds 15 1010 67 16093 3.6 240 08:54 09.07.2020
197 Clouds 16 1010 67 16093 3.6 240 08:36 09.07.2020
198 Clouds 16 1010 63 16093 4.6 240 08:18 09.07.2020
199 Clouds 17 1010 59 16093 3.6 250 07:42 09.07.2020
200 Clouds 17 1010 59 16093 3.6 250 07:21 09.07.2020
201 Clear 19 1010 56 16093 2.6 270 06:21 09.07.2020
202 Clear 19 1011 56 16093 4.1 210 05:57 09.07.2020
203 Clear 19 1011 59 16093 4.1 210 04:29 09.07.2020
204 Clouds 19 1012 59 16093 2.6 220 03:24 09.07.2020
205 Clouds 17 1013 67 16093 2.52 239 01:56 09.07.2020
206 Clouds 17 1013 67 16093 2.25 238 01:21 09.07.2020
207 Clouds 15 1013 72 16093 2.25 238 00:41 09.07.2020
208 Clouds 15 1014 82 16093 1.92 224 00:23 09.07.2020
209 Clouds 15 1014 82 16093 1.92 224 23:44 08.07.2020
210 Clouds 15 1014 82 16093 1.14 210 23:25 08.07.2020
211 Clouds 14 1014 76 16093 2.6 190 22:57 08.07.2020
212 Clouds 14 1014 76 16093 2.6 190 22:38 08.07.2020
213 Clouds 14 1014 76 16093 2.6 190 22:38 08.07.2020
214 Clouds 14 1014 76 16093 2.6 190 22:20 08.07.2020
215 Clouds 14 1014 76 16093 2.6 190 22:20 08.07.2020
216 Clouds 13 1014 82 16093 2.1 250 21:56 08.07.2020
217 Clouds 13 1015 82 16093 2.6 230 21:37 08.07.2020
218 Clouds 13 1015 82 16093 2.6 230 21:37 08.07.2020
219 Clouds 13 1015 82 16093 2.6 230 21:19 08.07.2020
220 Clouds 13 1015 82 16093 2.6 220 20:42 08.07.2020
221 Clouds 12 1015 82 16093 2.6 220 20:24 08.07.2020
222 Clouds 12 1015 82 16093 3.1 250 19:57 08.07.2020
223 Clouds 12 1015 82 16093 3.1 250 19:39 08.07.2020
224 Clouds 12 1015 82 16093 3.1 250 19:20 08.07.2020
225 Clouds 12 1015 82 16093 3.1 260 18:42 08.07.2020
226 Clouds 12 1015 82 16093 3.1 260 18:21 08.07.2020
227 Clouds 12 1015 82 16093 3.6 230 17:58 08.07.2020
228 Clouds 12 1015 82 16093 3.6 220 17:39 08.07.2020
229 Clouds 12 1015 82 16093 3.6 220 17:21 08.07.2020
230 Clouds 12 1015 82 16093 4.1 220 16:58 08.07.2020
231 Clouds 12 1015 82 16093 4.1 220 16:38 08.07.2020
232 Clouds 12 1015 82 16093 4.1 220 16:19 08.07.2020
233 Clouds 12 1015 76 16093 3.6 240 15:58 08.07.2020
234 Clouds 12 1015 87 16093 2.6 230 15:38 08.07.2020
235 Clouds 12 1015 87 16093 2.6 230 15:19 08.07.2020
236 Clouds 13 1015 82 16093 5.1 230 14:44 08.07.2020
237 Clouds 13 1015 82 16093 5.1 230 14:25 08.07.2020
238 Clouds 14 1015 77 16093 5.1 240 13:58 08.07.2020
239 Clouds 14 1015 77 16093 5.1 240 13:40 08.07.2020
240 Clouds 13 1015 77 16093 5.1 240 13:18 08.07.2020
241 Clouds 14 1015 82 16093 4.1 220 12:41 08.07.2020
242 Clouds 14 1015 82 16093 4.1 220 12:20 08.07.2020
243 Clouds 14 1015 82 16093 4.1 210 11:56 08.07.2020
244 Clouds 14 1015 82 16093 3.6 200 11:37 08.07.2020
245 Clouds 15 1015 82 16093 3.6 200 11:19 08.07.2020
246 Clouds 15 1014 72 16093 4.1 240 10:43 08.07.2020
247 Clouds 15 1014 77 16093 5.1 250 10:24 08.07.2020
248 Clouds 16 1014 63 14484 4.1 260 09:46 08.07.2020
249 Clouds 16 1014 77 16093 5.1 250 09:25 08.07.2020
250 Clouds 17 1013 68 14484 4.1 260 08:56 08.07.2020
251 Clouds 17 1013 68 14484 4.1 260 08:38 08.07.2020
252 Clouds 17 1013 68 14484 4.1 260 08:19 08.07.2020
253 Clear 19 1013 60 14484 5.7 290 07:42 08.07.2020
254 Clouds 20 1013 53 14484 7.7 270 07:19 08.07.2020
255 Clouds 20 1013 53 14484 7.7 270 06:45 08.07.2020
256 Clouds 21 1013 53 14484 7.7 270 06:25 08.07.2020
257 Clouds 22 1013 38 12874 5.1 280 05:45 08.07.2020
258 Clouds 23 1013 33 16093 5.7 290 04:44 08.07.2020
259 Clouds 23 1013 36 14484 4.1 280 03:33 08.07.2020
260 Clouds 23 1013 36 14484 3.6 280 02:19 08.07.2020
261 Clear 23 1013 43 14484 4.1 220 01:38 08.07.2020
262 Clouds 22 1014 46 14484 4.1 250 00:51 08.07.2020
263 Clouds 22 1014 46 14484 4.1 250 00:20 08.07.2020
264 Clear 22 1014 40 14484 4.1 250 23:43 07.07.2020
265 Clear 22 1014 40 14484 4.1 250 23:22 07.07.2020
266 Clouds 21 1014 40 14484 3.1 250 22:56 07.07.2020
267 Clouds 21 1014 40 14484 3.1 250 22:38 07.07.2020
268 Clouds 21 1014 40 14484 3.1 250 22:19 07.07.2020
269 Clouds 20 1014 45 14484 1.51 245 21:56 07.07.2020
270 Clouds 20 1014 45 14484 1.51 245 21:38 07.07.2020
271 Clouds 19 1014 45 14484 1.21 224 21:18 07.07.2020
272 Clouds 18 1015 48 16093 1.56 238 20:42 07.07.2020
273 Clouds 18 1015 48 16093 1.24 211 20:23 07.07.2020
274 Clouds 17 1015 59 14484 2.1 70 19:59 07.07.2020
275 Clouds 16 1015 59 14484 2.1 70 19:39 07.07.2020
276 Clouds 15 1015 67 16093 2.6 50 19:20 07.07.2020
277 Clouds 15 1015 67 16093 2.6 50 18:55 07.07.2020
278 Clouds 15 1015 67 16093 2.6 50 18:37 07.07.2020
279 Clouds 15 1015 67 16093 2.6 50 18:19 07.07.2020
280 Clouds 14 1014 72 16093 1.5 70 17:55 07.07.2020
281 Clouds 14 1014 72 16093 1.5 70 17:36 07.07.2020
282 Clouds 14 1014 72 16093 1.5 70 17:18 07.07.2020
283 Clouds 13 1014 87 16093 1.5 100 16:42 07.07.2020
284 Clouds 13 1014 87 16093 1.5 100 16:22 07.07.2020
285 Clouds 13 1014 93 16093 1.1 43 15:55 07.07.2020
286 Clouds 13 1014 93 16093 1.1 43 15:37 07.07.2020
287 Clouds 12 1014 93 16093 1.4 37 15:18 07.07.2020
288 Clouds 12 1013 93 16093 2.1 60 14:43 07.07.2020
289 Clouds 13 1013 93 16093 2.1 60 14:24 07.07.2020
290 Clear 13 1013 93 16093 2.1 60 13:43 07.07.2020
291 Clear 13 1013 93 16093 2.1 60 13:21 07.07.2020
292 Clear 14 1012 93 16093 1.5 70 12:57 07.07.2020
293 Clear 14 1012 93 16093 1.5 70 12:37 07.07.2020
294 Clear 15 1012 93 16093 1.5 70 12:18 07.07.2020
295 Clouds 15 1012 82 16093 0.98 1 11:43 07.07.2020
296 Clouds 15 1012 82 16093 1.15 321 11:22 07.07.2020
297 Clouds 16 1012 77 16093 2.6 50 10:58 07.07.2020
298 Clouds 16 1012 77 16093 2.6 50 10:40 07.07.2020
299 Clouds 16 1012 77 16093 2.6 50 10:21 07.07.2020
300 Clear 17 1011 68 14484 1.5 80 09:43 07.07.2020
301 Clear 18 1011 68 14484 1.5 80 09:22 07.07.2020
302 Clouds 19 1011 60 14484 2.1 110 08:58 07.07.2020
303 Clouds 19 1011 60 14484 2.1 110 08:39 07.07.2020
304 Clouds 19 1011 60 14484 2.1 110 08:19 07.07.2020
305 Clouds 20 1011 60 16093 1.5 110 07:38 07.07.2020
306 Clouds 20 1011 60 16093 1.5 110 07:19 07.07.2020
307 Thunderstorm 20 1011 49 12874 2.6 160 06:46 07.07.2020
308 Thunderstorm 21 1011 49 12874 2.6 160 06:26 07.07.2020
309 Clouds 22 1011 46 14484 2.46 297 05:43 07.07.2020
310 Clouds 21 1011 52 14484 3.1 80 04:53 07.07.2020
311 Clouds 22 1011 49 14484 5.7 80 03:49 07.07.2020
312 Clouds 22 1011 49 14484 5.7 80 03:30 07.07.2020
313 Clouds 22 1011 49 14484 5.7 80 03:30 07.07.2020
314 Clouds 23 1011 53 16093 3.1 240 01:50 07.07.2020
315 Clouds 21 1012 56 16093 3.1 250 01:00 07.07.2020
316 Clouds 21 1012 56 16093 3.1 250 00:40 07.07.2020
317 Clouds 21 1012 56 16093 3.1 250 00:20 07.07.2020
318 Clouds 20 1012 60 16093 2.6 230 23:44 06.07.2020
319 Clouds 20 1012 60 16093 2.6 230 23:44 06.07.2020
320 Clouds 20 1012 60 16093 2.6 230 23:25 06.07.2020
321 Clouds 19 1012 59 16093 2.1 220 22:59 06.07.2020
322 Clouds 19 1012 59 16093 2.1 220 22:39 06.07.2020
323 Clouds 19 1012 59 16093 2.1 220 22:18 06.07.2020
324 Clouds 18 1012 63 16093 1.79 255 21:56 06.07.2020
325 Clouds 18 1012 63 16093 1.79 255 21:37 06.07.2020
326 Clear 18 1013 63 16093 1.16 252 21:18 06.07.2020
327 Clear 18 1013 63 16093 1.16 252 20:41 06.07.2020
328 Clear 17 1013 63 16093 0.8 246 20:22 06.07.2020
329 Clouds 17 1013 63 16093 1.5 110 19:59 06.07.2020
330 Clouds 17 1013 63 16093 1.5 110 19:41 06.07.2020
331 Clouds 17 1013 63 16093 1.5 110 19:23 06.07.2020
332 Clear 16 1013 67 16093 2.6 90 18:58 06.07.2020
333 Clear 16 1013 67 16093 2.6 90 18:40 06.07.2020
334 Clear 16 1013 67 16093 2.6 90 18:22 06.07.2020
335 Clear 14 1013 76 16093 2.6 70 17:56 06.07.2020
336 Clear 13 1013 76 16093 2.6 70 17:37 06.07.2020
337 Clear 13 1013 76 16093 2.6 70 17:19 06.07.2020
338 Clear 12 1013 87 16093 1.5 40 16:43 06.07.2020
339 Clear 12 1013 87 16093 1.5 40 16:23 06.07.2020
340 Clear 12 1013 81 16093 2.1 80 15:55 06.07.2020
341 Clear 12 1013 81 16093 2.1 80 15:37 06.07.2020
342 Clear 12 1013 81 16093 2.1 80 15:37 06.07.2020
343 Clear 11 1013 81 16093 2.1 80 15:18 06.07.2020
344 Clear 12 1013 87 16093 0.52 91 14:41 06.07.2020
345 Clear 12 1013 87 16093 0.41 182 14:23 06.07.2020
346 Clear 12 1013 87 16093 0.41 182 13:59 06.07.2020
347 Clear 12 1013 87 16093 0.41 182 13:40 06.07.2020
348 Clear 13 1013 87 16093 0.57 179 13:21 06.07.2020
349 Clear 13 1013 81 16093 0.57 179 12:44 06.07.2020
350 Clear 13 1013 81 16093 0.19 145 12:20 06.07.2020
351 Clear 14 1012 82 12874 1.5 60 11:59 06.07.2020
352 Clear 14 1012 82 12874 1.5 60 11:40 06.07.2020
353 Clear 14 1012 82 12874 1.5 60 11:22 06.07.2020
354 Clear 15 1012 72 12874 0.57 297 10:58 06.07.2020
355 Clear 15 1012 72 12874 0.57 297 10:58 06.07.2020
356 Clear 15 1012 72 12874 0.57 297 10:40 06.07.2020
357 Clear 16 1012 72 12874 1.07 274 10:19 06.07.2020
358 Clouds 16 1012 67 14484 1.07 274 09:46 06.07.2020
359 Clouds 17 1012 67 14484 1.4 259 09:22 06.07.2020
360 Clear 18 1012 43 14484 1.4 259 08:59 06.07.2020
361 Clouds 18 1012 55 16093 1.5 190 08:40 06.07.2020
362 Clear 18 1012 43 14484 1.66 244 08:20 06.07.2020
363 Clear 20 1012 43 16093 2.6 230 07:47 06.07.2020
364 Clear 20 1012 43 16093 2.6 230 07:29 06.07.2020
365 Clear 20 1013 40 14484 4.6 260 06:55 06.07.2020
366 Clear 21 1013 40 14484 4.6 260 06:36 06.07.2020
367 Clear 22 1013 38 16093 3.1 260 05:47 06.07.2020
368 Clear 22 1013 38 16093 3.1 260 05:26 06.07.2020
369 Clear 23 1014 33 14484 3.1 290 03:53 06.07.2020
370 Clear 23 1014 31 16093 4.1 230 02:29 06.07.2020
371 Clear 23 1015 33 16093 4.6 220 01:54 06.07.2020
372 Clouds 23 1015 33 16093 7.2 250 00:49 06.07.2020
373 Clear 22 1015 35 14484 3.1 290 00:23 06.07.2020
374 Clear 22 1016 37 14484 4.1 250 23:56 05.07.2020
375 Clear 21 1016 37 14484 4.1 250 23:38 05.07.2020
376 Clear 21 1016 37 14484 4.1 250 23:19 05.07.2020
377 Clear 21 1016 49 14484 2.1 210 22:41 05.07.2020
378 Clear 21 1016 49 14484 2.1 210 22:21 05.07.2020
379 Clear 20 1017 52 14484 2.75 232 21:58 05.07.2020
380 Clear 20 1017 52 14484 2.75 232 21:40 05.07.2020
381 Clear 19 1017 52 14484 2.21 226 21:19 05.07.2020
382 Clear 18 1017 67 16093 2.21 226 20:58 05.07.2020
383 Clear 18 1017 67 16093 2.21 226 20:40 05.07.2020
384 Clear 17 1017 67 16093 1.63 222 20:21 05.07.2020
385 Clouds 17 1017 72 16093 1.63 222 19:55 05.07.2020
386 Clouds 16 1017 72 16093 1.22 217 19:37 05.07.2020
387 Clouds 15 1017 72 16093 1.22 217 19:18 05.07.2020
388 Clouds 14 1018 82 16093 1.22 217 18:42 05.07.2020
389 Clouds 14 1018 82 16093 0.85 210 18:22 05.07.2020
390 Clear 13 1018 82 16093 0.85 210 17:56 05.07.2020
391 Clear 13 1018 82 16093 0.85 210 17:38 05.07.2020
392 Clear 12 1018 82 16093 0.46 209 17:19 05.07.2020
393 Clear 12 1018 87 16093 1.5 110 16:44 05.07.2020
394 Clear 12 1018 87 16093 1.5 110 16:25 05.07.2020
395 Clouds 11 1017 87 16093 0.46 228 15:56 05.07.2020
396 Clouds 11 1017 87 16093 0.46 228 15:37 05.07.2020
397 Clouds 11 1017 87 16093 0.8 256 15:18 05.07.2020
398 Clouds 11 1017 93 16093 0.8 256 14:41 05.07.2020
399 Clouds 11 1017 93 16093 1.16 260 14:22 05.07.2020
400 Clouds 12 1017 87 16093 1.16 260 13:43 05.07.2020
401 Clouds 13 1017 87 16093 1.31 268 13:24 05.07.2020
402 Clear 12 1017 87 16093 1.31 268 12:56 05.07.2020
403 Clear 12 1017 87 16093 1.31 268 12:38 05.07.2020
404 Clear 13 1017 87 16093 1.33 280 12:20 05.07.2020
405 Clear 14 1017 77 11265 1.33 280 11:54 05.07.2020
406 Clear 14 1017 77 11265 1.33 280 11:36 05.07.2020
407 Clear 15 1017 77 11265 1.58 289 11:18 05.07.2020
408 Clear 16 1016 59 14484 1.58 289 10:42 05.07.2020
409 Clear 16 1016 59 14484 1.98 277 10:19 05.07.2020
410 Clear 18 1016 49 14484 2.6 290 09:58 05.07.2020
411 Clear 18 1016 49 14484 2.6 290 09:40 05.07.2020
412 Clear 18 1016 49 14484 2.6 290 09:20 05.07.2020
413 Clouds 19 1016 43 14484 3.6 270 08:47 05.07.2020
414 Clouds 19 1016 43 14484 3.6 270 08:29 05.07.2020
415 Clear 20 1016 40 14484 4.1 270 07:48 05.07.2020
416 Clear 21 1016 40 14484 4.1 270 07:29 05.07.2020
417 Clear 21 1016 36 16093 4.6 250 06:53 05.07.2020
418 Clear 22 1016 38 14484 4.6 260 05:48 05.07.2020
419 Clouds 24 1016 38 16093 4.1 290 03:35 05.07.2020
420 Clouds 23 1017 49 14484 3.1 330 02:43 05.07.2020
421 Clouds 23 1017 49 14484 3.1 330 02:25 05.07.2020
422 Clouds 23 1017 44 16093 2.6 340 01:41 05.07.2020
423 Clouds 22 1017 44 16093 2.6 340 01:18 05.07.2020
424 Clear 21 1017 46 16093 4.1 230 00:40 05.07.2020
425 Clear 21 1017 46 16093 4.1 230 00:21 05.07.2020
426 Clear 21 1018 56 16093 3.6 220 23:47 04.07.2020
427 Clear 21 1018 56 16093 3.6 220 23:28 04.07.2020
428 Clouds 21 1018 60 16093 1.5 150 22:57 04.07.2020
429 Clouds 20 1018 60 16093 1.5 150 22:37 04.07.2020
430 Clouds 20 1018 60 16093 1.5 150 22:19 04.07.2020
431 Clouds 19 1018 68 16093 3.1 220 21:43 04.07.2020
432 Clouds 19 1018 68 16093 3.1 220 21:23 04.07.2020
433 Clear 18 1018 72 16093 2.91 261 20:59 04.07.2020
434 Clear 17 1018 72 16093 2.91 261 20:41 04.07.2020
435 Clear 17 1018 72 16093 2.25 252 20:20 04.07.2020
436 Clear 16 1019 82 16093 2.25 252 19:45 04.07.2020
437 Clouds 15 1019 87 16093 1.87 232 19:22 04.07.2020
438 Clouds 14 1019 87 16093 1.87 232 18:59 04.07.2020
439 Clouds 13 1019 87 16093 1.87 232 18:41 04.07.2020
440 Clouds 13 1018 87 16093 1.61 226 18:21 04.07.2020
441 Clouds 12 1018 87 16093 1.61 226 17:44 04.07.2020
442 Clouds 12 1018 87 16093 1.16 216 17:26 04.07.2020
443 Clouds 12 1018 93 16093 1.16 216 16:58 04.07.2020
444 Clouds 12 1018 93 16093 1.16 216 16:38 04.07.2020
445 Clouds 12 1018 93 16093 0.92 221 16:20 04.07.2020
446 Clouds 12 1018 93 16093 0.92 221 15:56 04.07.2020
447 Clouds 12 1018 93 16093 0.92 221 15:37 04.07.2020
448 Clouds 11 1018 93 16093 0.72 237 15:19 04.07.2020
449 Clear 11 1017 93 16093 0.72 237 14:38 04.07.2020
450 Clear 12 1017 93 16093 0.86 248 14:20 04.07.2020
451 Clear 12 1017 93 16093 0.97 245 13:59 04.07.2020
452 Clear 12 1017 93 16093 0.97 245 13:41 04.07.2020
453 Clear 12 1017 93 16093 1.06 247 13:18 04.07.2020
454 Clear 13 1017 87 16093 1.06 247 12:43 04.07.2020
455 Clear 13 1017 87 16093 1.18 264 12:22 04.07.2020
456 Clouds 14 1016 82 16093 1.18 264 11:57 04.07.2020
457 Clouds 14 1016 82 16093 1.18 264 11:38 04.07.2020
458 Clouds 14 1016 82 16093 1.17 265 11:19 04.07.2020
459 Clouds 16 1016 72 16093 1.17 265 10:42 04.07.2020
460 Clouds 16 1016 72 16093 1.31 252 10:22 04.07.2020
461 Clouds 17 1016 59 16093 1.31 252 09:59 04.07.2020
462 Clouds 16 1016 68 16093 1.31 252 09:40 04.07.2020
463 Clouds 17 1016 59 16093 1.4 243 09:20 04.07.2020
464 Clouds 18 1016 56 16093 1.5 300 08:49 04.07.2020
465 Clouds 18 1016 56 16093 1.5 300 08:30 04.07.2020
466 Clouds 18 1016 56 16093 2.6 320 07:54 04.07.2020
467 Clouds 18 1016 56 16093 2.6 320 07:35 04.07.2020
468 Clouds 19 1016 49 16093 3.1 260 06:56 04.07.2020
469 Clouds 20 1016 49 16093 3.1 260 06:23 04.07.2020
470 Clouds 20 1016 43 16093 4.1 250 05:41 04.07.2020
471 Clouds 20 1016 46 16093 4.1 250 04:57 04.07.2020
472 Clear 21 1016 40 16093 3.1 250 03:34 04.07.2020
473 Clouds 21 1016 40 16093 4.1 220 02:35 04.07.2020
474 Clear 21 1017 40 16093 1.5 200 01:38 04.07.2020
475 Clear 20 1017 42 16093 2.96 248 00:47 04.07.2020
476 Clear 20 1017 42 16093 3.22 248 00:29 04.07.2020
477 Clear 20 1018 48 16093 3.22 248 23:54 03.07.2020
478 Clear 19 1018 48 16093 3.22 248 23:36 03.07.2020
479 Clear 19 1018 48 16093 3.07 246 23:18 03.07.2020
480 Clear 18 1018 55 16093 3.07 246 22:41 03.07.2020
481 Clear 18 1018 55 16093 2.76 238 22:23 03.07.2020
482 Clear 18 1018 55 16093 2.76 238 21:56 03.07.2020
483 Clear 18 1018 55 16093 2.76 238 21:37 03.07.2020
484 Clear 17 1018 55 16093 2.59 226 21:18 03.07.2020
485 Clear 17 1018 55 16093 2.46 231 21:18 03.07.2020
486 Clouds 16 1019 62 16093 1.5 110 20:42 03.07.2020
487 Clouds 15 1019 62 16093 1.5 110 20:24 03.07.2020
488 Clouds 14 1017 75 0 1.95 222 19:42 03.07.2020
489 Clear 13 1019 71 16093 2.6 70 19:21 03.07.2020
490 Clear 12 1019 71 16093 2.6 70 18:58 03.07.2020
491 Clear 12 1019 71 16093 2.6 70 18:40 03.07.2020
492 Clear 12 1019 71 16093 2.6 70 18:22 03.07.2020
493 Clear 10 1019 81 16093 2.1 80 17:45 03.07.2020
494 Clear 10 1019 81 16093 2.1 80 17:23 03.07.2020
495 Clear 8 1019 87 16093 2.6 50 16:58 03.07.2020
496 Clouds 9 1019 81 16093 2.1 50 16:39 03.07.2020
497 Clear 8 1019 87 16093 2.6 50 16:19 03.07.2020
498 Clear 8 1019 87 16093 2.6 70 15:39 03.07.2020
499 Clear 7 1019 87 16093 2.6 70 15:20 03.07.2020
500 Clear 7 1019 93 16093 1.5 90 14:55 03.07.2020
501 Clear 7 1019 93 16093 1.5 90 14:36 03.07.2020
502 Clear 7 1019 93 16093 1.5 90 14:18 03.07.2020
503 Clear 8 1019 87 16093 2.1 60 13:41 03.07.2020
504 Clear 8 1019 87 16093 2.1 60 13:22 03.07.2020
505 Clear 9 1019 93 16093 0.46 252 12:44 03.07.2020
506 Clear 9 1019 93 16093 1.25 262 12:23 03.07.2020
507 Clear 10 1018 81 16093 1.25 262 11:56 03.07.2020
508 Clear 10 1018 81 16093 1.25 262 11:38 03.07.2020
509 Clear 11 1018 81 16093 1.7 266 11:19 03.07.2020
510 Clear 12 1019 71 16093 1.7 266 10:42 03.07.2020
511 Clear 13 1019 71 16093 2.02 256 10:21 03.07.2020
512 Clear 14 1018 48 16093 2.6 230 09:59 03.07.2020
513 Clouds 14 1018 59 16093 2.1 270 09:40 03.07.2020
514 Clear 14 1018 48 16093 2.6 230 09:22 03.07.2020
515 Clouds 15 1018 39 16093 2.1 240 08:57 03.07.2020
516 Clouds 15 1018 39 16093 2.1 240 08:38 03.07.2020
517 Clear 16 1018 37 16093 3.1 230 08:18 03.07.2020
518 Clear 17 1018 37 16093 3.6 200 07:47 03.07.2020
519 Clear 17 1018 37 16093 3.6 200 07:22 03.07.2020
520 Clear 18 1019 32 14484 3.1 230 06:38 03.07.2020
521 Clear 18 1019 30 16093 4.1 200 05:55 03.07.2020
522 Clear 18 1019 30 16093 4.1 200 05:55 03.07.2020
523 Clear 18 1019 30 16093 4.1 200 05:55 03.07.2020
524 Clear 19 1019 32 14484 3.6 200 04:28 03.07.2020
525 Clear 19 1020 36 12874 4.1 230 02:57 03.07.2020
526 Clear 18 1020 36 12874 4.1 230 02:32 03.07.2020
527 Clear 18 1021 42 16093 4.1 230 01:51 03.07.2020
528 Clear 18 1021 42 16093 4.1 230 01:22 03.07.2020
529 Clouds 16 1021 51 16093 3.1 220 00:42 03.07.2020
530 Clouds 15 1021 51 16093 3.1 220 00:18 03.07.2020
531 Clouds 14 1022 58 16093 2.1 260 23:43 02.07.2020
532 Clouds 14 1022 58 16093 2.1 260 23:20 02.07.2020
533 Clouds 14 1022 62 16093 2.1 260 22:57 02.07.2020
534 Clouds 14 1022 62 16093 2.1 260 22:38 02.07.2020
535 Clouds 14 1022 62 16093 2.1 260 22:20 02.07.2020
536 Clouds 13 1022 62 14484 0.28 101 21:54 02.07.2020
537 Clouds 13 1022 62 14484 0.28 101 21:36 02.07.2020
538 Clouds 13 1022 62 14484 0.73 119 21:18 02.07.2020
539 Clouds 13 1023 62 16093 0.73 119 20:41 02.07.2020
540 Clouds 13 1023 62 16093 0.79 101 20:20 02.07.2020
541 Clouds 13 1023 66 16093 1.5 130 19:56 02.07.2020
542 Clouds 13 1023 66 16093 1.5 130 19:38 02.07.2020
543 Clouds 12 1023 66 16093 1.5 130 19:19 02.07.2020
544 Clouds 11 1024 71 16093 1.5 90 18:55 02.07.2020
545 Clouds 11 1024 71 16093 1.5 90 18:37 02.07.2020
546 Clouds 10 1024 71 16093 1.5 90 18:18 02.07.2020
547 Clear 9 1024 81 16093 2.1 70 17:39 02.07.2020
548 Clear 9 1024 81 16093 2.1 70 17:20 02.07.2020
549 Clear 8 1024 87 16093 1.01 70 16:55 02.07.2020
550 Clear 8 1024 87 16093 1.01 70 16:55 02.07.2020
551 Clear 8 1024 87 16093 1.01 70 16:37 02.07.2020
552 Clear 7 1024 87 16093 1.18 63 16:19 02.07.2020
553 Clear 6 1024 93 16093 1.18 63 15:39 02.07.2020
554 Clear 6 1024 93 16093 1.27 54 15:21 02.07.2020
555 Clear 6 1025 93 16093 1.27 54 14:46 02.07.2020
556 Clear 6 1025 93 16093 0.74 61 14:28 02.07.2020
557 Clear 7 1025 93 16093 0.74 61 13:58 02.07.2020
558 Clear 7 1025 93 16093 0.74 61 13:58 02.07.2020
559 Clear 7 1025 93 16093 0.74 61 13:40 02.07.2020
560 Clear 7 1025 93 16093 0.76 42 13:20 02.07.2020
561 Clear 7 1025 93 16093 0.76 42 12:59 02.07.2020
562 Clear 7 1025 93 16093 0.76 42 12:39 02.07.2020
563 Clear 8 1025 93 16093 0.55 360 12:21 02.07.2020
564 Clear 9 1025 87 16093 0.55 360 11:44 02.07.2020
565 Clear 9 1025 87 16093 0.64 296 11:26 02.07.2020
566 Clear 11 1025 76 16093 0.64 296 10:50 02.07.2020
567 Clear 11 1025 76 16093 1.02 267 10:29 02.07.2020
568 Clouds 11 1025 58 16093 1.02 267 09:59 02.07.2020
569 Clear 12 1025 58 16093 1.02 267 09:41 02.07.2020
570 Clear 13 1025 58 16093 1.35 220 09:21 02.07.2020
571 Clouds 13 1025 51 14484 1.35 220 08:57 02.07.2020
572 Clouds 13 1025 51 14484 1.35 220 08:38 02.07.2020
573 Clouds 14 1025 51 14484 1.66 218 08:18 02.07.2020
574 Clouds 14 1025 42 14484 1.66 218 07:41 02.07.2020
575 Clouds 14 1025 42 14484 2.36 231 07:20 02.07.2020
576 Clouds 15 1025 39 14484 1.5 20 06:41 02.07.2020
577 Clouds 16 1025 39 14484 1.5 20 06:20 02.07.2020
578 Clouds 16 1025 39 16093 3.1 340 05:46 02.07.2020
579 Clouds 16 1025 36 14484 1.5 360 04:49 02.07.2020
580 Clouds 16 1026 39 16093 2.1 300 03:33 02.07.2020
581 Clear 16 1026 36 16093 2.71 265 01:48 02.07.2020
582 Clear 16 1026 36 16093 1.5 190 00:27 02.07.2020
583 Clear 16 1027 38 16093 2.44 259 23:55 01.07.2020
584 Clear 16 1027 38 16093 2.44 259 23:37 01.07.2020
585 Clear 16 1027 38 16093 1.98 252 23:18 01.07.2020
586 Clouds 15 1027 41 16093 1.98 252 22:54 01.07.2020
587 Clouds 15 1027 41 16093 1.98 252 22:36 01.07.2020
588 Clouds 15 1027 41 16093 1.66 250 22:18 01.07.2020
589 Clouds 14 1027 50 16093 1.66 250 21:54 01.07.2020
590 Clouds 14 1027 50 16093 1.66 250 21:36 01.07.2020
591 Clouds 13 1027 50 16093 1.2 229 21:18 01.07.2020
592 Clouds 12 1027 62 16093 1.3 244 20:43 01.07.2020
593 Clouds 12 1027 62 16093 0.76 188 20:25 01.07.2020
594 Clear 11 1027 66 16093 1.5 100 19:56 01.07.2020
595 Clear 11 1027 66 16093 1.5 100 19:38 01.07.2020
596 Clear 10 1027 66 16093 1.5 100 19:19 01.07.2020
597 Clear 9 1028 81 16093 2.1 70 18:42 01.07.2020
598 Clear 8 1028 81 16093 2.1 70 18:21 01.07.2020
599 Clear 7 1028 93 16093 1.5 60 17:59 01.07.2020
600 Clear 7 1028 93 16093 1.5 60 17:40 01.07.2020
601 Clear 7 1028 93 16093 1.5 60 17:19 01.07.2020
602 Clear 5 1028 100 16093 1.5 60 16:47 01.07.2020
603 Clear 5 1028 100 16093 1.5 60 16:29 01.07.2020
604 Clouds 4 1027 100 16093 2.1 50 15:57 01.07.2020
605 Clouds 4 1027 100 16093 2.1 50 15:39 01.07.2020
606 Clouds 4 1027 100 16093 2.1 50 15:20 01.07.2020
607 Clouds 4 1027 100 16093 1.5 60 14:44 01.07.2020
608 Clouds 4 1027 100 16093 1.5 60 14:22 01.07.2020
609 Clear 4 1027 93 16093 0.8 79 13:59 01.07.2020
610 Clear 5 1027 93 16093 0.8 79 13:39 01.07.2020
611 Clear 5 1027 93 16093 0.64 90 13:20 01.07.2020
612 Clear 5 1027 93 16093 0.64 90 12:57 01.07.2020
613 Clear 6 1027 93 16093 0.64 90 12:38 01.07.2020
614 Clear 5 1027 93 16093 0.64 83 12:20 01.07.2020
615 Clear 6 1026 93 16093 0.64 83 11:44 01.07.2020
616 Clear 6 1026 93 16093 0.64 83 11:44 01.07.2020
617 Clear 6 1026 93 16093 0.63 36 11:24 01.07.2020
618 Clear 6 1026 93 16093 0.63 36 10:58 01.07.2020
619 Clear 7 1026 93 16093 0.63 36 10:40 01.07.2020
620 Clear 7 1026 93 16093 0.62 355 10:21 01.07.2020
621 Clear 8 1026 81 16093 0.62 355 09:54 01.07.2020
622 Clear 8 1026 81 16093 0.62 355 09:36 01.07.2020
623 Clear 9 1026 81 16093 1.38 260 09:18 01.07.2020
624 Clear 10 1025 71 16093 1.38 260 08:41 01.07.2020
625 Clear 10 1025 71 16093 1.78 251 08:22 01.07.2020
626 Clouds 11 1025 71 16093 1.78 251 07:57 01.07.2020
627 Clouds 11 1025 71 16093 1.78 251 07:36 01.07.2020
628 Clouds 11 1025 71 16093 2.64 259 07:18 01.07.2020
629 Rain 10 1025 76 16093 2.6 330 06:48 01.07.2020
630 Rain 12 1025 76 16093 2.6 330 06:27 01.07.2020
631 Clouds 12 1024 71 16093 4.1 230 04:31 01.07.2020
632 Rain 11 1024 71 16093 2.6 260 03:46 01.07.2020
633 Rain 11 1024 76 16093 4.6 230 03:26 01.07.2020
634 Rain 11 1024 76 16093 6.2 220 02:41 01.07.2020
635 Rain 12 1023 62 14484 10.8 260 01:47 01.07.2020
636 Rain 12 1023 58 12874 10.3 240 00:42 01.07.2020
637 Rain 12 1023 58 12874 10.3 240 00:23 01.07.2020
638 Rain 13 1023 66 16093 4.6 230 23:41 30.06.2020
639 Rain 12 1023 66 16093 4.6 230 23:22 30.06.2020
640 Rain 11 1023 54 11265 5.1 260 22:56 30.06.2020
641 Rain 12 1022 62 16093 6.2 290 22:38 30.06.2020
642 Rain 11 1022 62 16093 6.2 290 22:18 30.06.2020
643 Clouds 12 1022 62 16093 3.1 200 21:40 30.06.2020
644 Rain 12 1022 62 16093 5.1 220 21:19 30.06.2020
645 Clouds 11 1023 66 16093 3.1 210 20:43 30.06.2020
646 Clouds 11 1023 66 16093 3.1 210 20:21 30.06.2020
647 Clouds 10 1022 81 16093 2.6 210 19:59 30.06.2020
648 Clouds 10 1022 81 16093 2.6 210 19:59 30.06.2020
649 Clouds 10 1022 81 16093 2.6 210 19:39 30.06.2020
650 Clouds 10 1022 81 16093 2.6 210 19:19 30.06.2020
651 Clouds 9 1022 76 16093 3.1 220 18:42 30.06.2020
652 Clouds 9 1022 76 16093 3.1 220 18:21 30.06.2020
653 Clouds 9 1022 81 16093 2.1 240 17:57 30.06.2020
654 Clouds 8 1022 81 16093 2.1 240 17:37 30.06.2020
655 Clouds 8 1022 81 16093 2.1 240 17:18 30.06.2020
656 Clouds 8 1022 81 16093 2.1 240 17:18 30.06.2020
657 Clouds 8 1021 93 16093 3.1 250 16:41 30.06.2020
658 Clouds 8 1021 93 16093 3.1 250 16:23 30.06.2020
659 Clouds 7 1020 81 16093 2.2 234 15:57 30.06.2020
660 Clouds 7 1020 81 16093 2.2 234 15:39 30.06.2020
661 Clouds 8 1020 81 16093 2.22 245 15:20 30.06.2020
662 Clouds 8 1020 87 16093 2.6 240 14:47 30.06.2020
663 Clouds 8 1020 87 16093 2.6 240 14:47 30.06.2020
664 Clouds 8 1020 87 16093 2.6 240 14:22 30.06.2020
665 Clouds 8 1019 87 16093 2.6 250 13:59 30.06.2020
666 Clouds 9 1019 87 16093 2.6 250 13:39 30.06.2020
667 Clouds 8 1019 87 16093 2.6 250 13:20 30.06.2020
668 Rain 8 1019 87 16093 2.1 240 12:57 30.06.2020
669 Rain 8 1019 87 16093 2.1 240 12:39 30.06.2020
670 Rain 8 1019 87 16093 2.1 240 12:20 30.06.2020
671 Clouds 9 1018 81 16093 2.6 250 11:57 30.06.2020
672 Clouds 9 1018 81 16093 2.6 250 11:38 30.06.2020
673 Clouds 9 1018 81 16093 2.6 250 11:19 30.06.2020
674 Clouds 9 1018 81 16093 3.1 220 10:55 30.06.2020
675 Clear 13 1011 66 16093 2.6 70 16:38 28.06.2020
676 Clear 12 1011 66 16093 2.6 70 16:19 28.06.2020
677 Clear 12 1011 71 16093 4.1 70 15:55 28.06.2020
678 Clear 12 1011 71 16093 4.1 70 15:37 28.06.2020
679 Clear 11 1011 71 16093 4.1 70 15:18 28.06.2020
680 Clear 11 1012 76 16093 2.6 80 14:42 28.06.2020
681 Clear 11 1012 76 16093 2.6 80 14:24 28.06.2020
682 Clear 12 1012 71 16093 3.1 80 13:55 28.06.2020
683 Clear 12 1012 71 16093 3.1 80 13:36 28.06.2020
684 Clear 12 1012 71 16093 3.1 80 13:18 28.06.2020
685 Clear 13 1013 62 16093 3.6 80 12:55 28.06.2020
686 Clear 13 1013 62 16093 3.6 80 12:55 28.06.2020
687 Clear 13 1013 62 16093 3.6 80 12:36 28.06.2020
688 Clear 13 1013 62 16093 3.6 80 12:18 28.06.2020
689 Clear 14 1013 58 16093 3.6 70 11:42 28.06.2020
690 Clear 14 1013 58 16093 3.6 70 11:21 28.06.2020
691 Clear 14 1013 58 16093 3.6 70 11:21 28.06.2020
692 Clear 14 1013 59 14484 2.6 60 10:59 28.06.2020
693 Clear 15 1013 59 14484 2.6 60 10:41 28.06.2020
694 Clear 15 1013 59 14484 2.6 60 10:22 28.06.2020
695 Clouds 15 1013 55 16093 2.6 360 09:42 28.06.2020
696 Clear 16 1013 52 12874 2.1 50 09:23 28.06.2020
697 Clear 16 1013 52 12874 2.1 50 09:23 28.06.2020
698 Clear 17 1014 45 12874 1.5 30 08:57 28.06.2020
699 Clouds 17 1014 48 16093 3.1 40 08:39 28.06.2020
700 Clouds 17 1014 48 16093 3.1 40 08:20 28.06.2020
701 Clear 18 1014 37 12874 2.1 40 07:37 28.06.2020
702 Clear 19 1015 35 12874 1.5 40 06:57 28.06.2020
703 Clear 19 1015 35 12874 1.5 40 06:32 28.06.2020
704 Clear 20 1015 35 12874 1.45 92 05:54 28.06.2020
705 Clear 20 1016 37 12874 1.12 127 04:36 28.06.2020
706 Clear 20 1016 37 14484 1.54 196 03:18 28.06.2020
707 Clear 19 1017 34 16093 1.67 192 02:23 28.06.2020
708 Clear 19 1017 39 16093 1.5 200 01:46 28.06.2020
709 Clear 19 1017 39 16093 1.5 200 01:22 28.06.2020
710 Clear 19 1018 45 16093 1.84 223 00:31 28.06.2020
711 Clear 18 1018 48 14484 3.1 190 23:58 27.06.2020
712 Clear 18 1018 48 14484 3.1 190 23:40 27.06.2020
713 Clear 18 1018 48 14484 3.1 190 23:21 27.06.2020
714 Clouds 18 1018 48 14484 4.1 200 22:54 27.06.2020
715 Clouds 18 1018 48 16093 3.6 160 22:36 27.06.2020
716 Clear 17 1018 59 14484 3.1 220 22:18 27.06.2020
717 Clear 17 1018 59 14484 3.1 220 21:42 27.06.2020
718 Clear 17 1018 59 14484 3.1 220 21:20 27.06.2020
719 Clear 16 1018 67 14484 1.5 100 20:56 27.06.2020
720 Clear 15 1018 67 14484 1.5 100 20:37 27.06.2020
721 Clear 15 1018 67 14484 1.5 100 20:18 27.06.2020
722 Clouds 14 1018 76 16093 1.81 237 19:38 27.06.2020
723 Clouds 13 1018 76 16093 1.62 235 19:19 27.06.2020
724 Clear 12 1018 81 16093 1.62 235 18:57 27.06.2020
725 Clear 12 1018 81 16093 1.62 235 18:38 27.06.2020
726 Clear 12 1018 81 16093 1.62 235 18:38 27.06.2020
727 Clear 11 1018 81 16093 1.54 240 18:19 27.06.2020
728 Clear 10 1017 93 16093 2.6 60 17:41 27.06.2020
729 Clear 10 1017 93 16093 2.6 60 17:41 27.06.2020
730 Clear 9 1017 93 16093 2.6 60 17:21 27.06.2020
731 Clouds 9 1017 93 16093 1.5 60 16:57 27.06.2020
732 Clouds 9 1017 93 16093 1.5 60 16:38 27.06.2020
733 Clouds 9 1017 93 16093 1.5 60 16:19 27.06.2020
734 Clear 8 1016 100 16093 1.77 242 15:43 27.06.2020
735 Clear 8 1016 100 16093 1.66 237 15:24 27.06.2020
736 Clear 8 1016 87 16093 1.66 237 14:57 27.06.2020
737 Clear 9 1016 87 16093 1.9 240 14:38 27.06.2020
738 Clear 9 1016 87 16093 1.85 244 14:19 27.06.2020
739 Clear 9 1015 81 16093 2.6 210 13:42 27.06.2020
740 Clear 9 1015 81 16093 2.6 210 13:20 27.06.2020
741 Clear 10 1014 76 16093 2.6 240 12:58 27.06.2020
742 Clear 10 1014 76 16093 2.6 240 12:40 27.06.2020
743 Clear 10 1014 76 16093 2.6 240 12:21 27.06.2020
744 Clouds 10 1013 71 16093 2.1 250 11:58 27.06.2020
745 Clouds 11 1013 71 16093 2.1 250 11:38 27.06.2020
746 Clear 11 1013 71 16093 4.6 230 11:19 27.06.2020
747 Clouds 12 1012 62 16093 2.1 210 10:41 27.06.2020
748 Clouds 13 1012 58 16093 3.6 250 10:19 27.06.2020
749 Clear 13 1012 62 16093 4.1 250 09:57 27.06.2020
750 Clear 13 1012 62 16093 4.1 250 09:38 27.06.2020
751 Clear 14 1012 62 16093 4.1 250 09:20 27.06.2020
752 Clear 15 1011 55 16093 5.1 230 08:42 27.06.2020
753 Clear 15 1011 55 16093 5.1 230 08:22 27.06.2020
754 Clouds 16 1010 48 16093 4.6 230 07:47 27.06.2020
755 Clouds 16 1010 48 16093 4.6 230 07:25 27.06.2020
756 Clear 16 1010 52 16093 3.1 220 06:51 27.06.2020
757 Clear 17 1010 52 16093 3.1 220 06:33 27.06.2020
758 Clouds 17 1009 48 16093 7.2 240 04:24 27.06.2020
759 Clouds 18 1009 45 16093 4.6 210 03:59 27.06.2020
760 Clouds 18 1009 45 16093 4.6 210 03:41 27.06.2020
761 Rain 18 1009 55 16093 4.1 210 02:39 27.06.2020
762 Clouds 18 1009 48 16093 4.1 340 02:20 27.06.2020
763 Clouds 18 1009 48 16093 4.1 340 01:24 27.06.2020
764 Rain 18 1009 39 14484 2.1 270 00:41 27.06.2020
765 Clouds 17 1009 62 11265 3.1 30 23:47 26.06.2020
766 Rain 17 1009 41 9656 3.1 60 23:27 26.06.2020
767 Rain 17 1009 41 9656 3.1 60 23:27 26.06.2020
768 Rain 17 1009 45 9656 12.9 260 22:58 26.06.2020
769 Rain 17 1009 45 9656 12.9 260 22:39 26.06.2020
770 Clear 18 1009 48 14484 1.5 270 22:20 26.06.2020
771 Clear 17 1009 55 16093 2.1 230 21:58 26.06.2020
772 Clear 17 1009 55 16093 2.1 230 21:38 26.06.2020
773 Clear 17 1009 55 16093 2.1 230 21:20 26.06.2020
774 Clear 17 1009 55 16093 2.1 230 21:20 26.06.2020
775 Clear 16 1009 58 14484 1.53 274 20:47 26.06.2020
776 Clear 16 1009 58 14484 1.28 261 20:26 26.06.2020
777 Clear 14 1009 66 16093 1.28 261 19:47 26.06.2020
778 Clear 13 1009 66 16093 1.05 252 19:25 26.06.2020
779 Clear 12 1009 76 16093 1.5 100 18:59 26.06.2020
780 Clear 12 1009 76 16093 1.5 100 18:40 26.06.2020
781 Clear 11 1009 76 16093 1.5 100 18:21 26.06.2020
782 Clear 10 1009 81 16093 1.5 90 17:44 26.06.2020
783 Clear 10 1009 81 16093 1.5 90 17:26 26.06.2020
784 Clear 9 1008 87 16093 0.28 316 16:55 26.06.2020
785 Clear 9 1008 87 16093 0.28 316 16:36 26.06.2020
786 Clear 9 1008 87 16093 0.53 330 16:18 26.06.2020
787 Clear 8 1008 87 16093 0.53 330 15:41 26.06.2020
788 Clear 8 1008 87 16093 0.52 294 15:21 26.06.2020
789 Clear 8 1007 87 16093 0.52 294 14:57 26.06.2020
790 Clear 8 1007 87 16093 0.52 294 14:38 26.06.2020
791 Clear 9 1007 87 16093 0.58 239 14:20 26.06.2020
792 Clouds 9 1007 81 16093 0.58 239 13:44 26.06.2020
793 Clouds 10 1007 81 16093 0.33 318 13:23 26.06.2020
794 Rain 11 1006 76 16093 2.6 50 12:56 26.06.2020
795 Rain 11 1006 76 16093 2.6 50 12:38 26.06.2020
796 Clouds 11 1006 76 16093 2.6 50 12:19 26.06.2020
797 Rain 12 1006 62 16093 2.1 240 11:56 26.06.2020
798 Rain 12 1006 62 16093 2.1 240 11:56 26.06.2020
799 Rain 12 1006 62 16093 2.1 240 11:37 26.06.2020
800 Clouds 12 1006 62 16093 2.1 240 11:18 26.06.2020
801 Clouds 12 1006 54 14484 1.5 330 10:55 26.06.2020
802 Clouds 12 1006 54 14484 1.5 330 10:37 26.06.2020
803 Clouds 12 1006 54 14484 1.5 330 10:18 26.06.2020
804 Clouds 13 1005 48 16093 3.6 360 09:41 26.06.2020
805 Clouds 14 1005 48 16093 3.6 360 09:20 26.06.2020
806 Clouds 14 1005 45 12874 2.6 80 08:46 26.06.2020
807 Clouds 15 1005 45 12874 2.6 80 08:27 26.06.2020
808 Clear 16 1004 45 14484 4.1 20 07:48 26.06.2020
809 Clear 16 1004 45 14484 4.1 20 07:23 26.06.2020
810 Clouds 16 1003 39 16093 4.6 350 06:52 26.06.2020
811 Clear 18 1004 28 14484 3.1 250 06:30 26.06.2020
812 Clouds 19 1004 28 14484 2.1 150 05:53 26.06.2020
813 Clouds 19 1004 28 14484 2.1 150 05:29 26.06.2020
814 Clear 19 1004 32 14484 2.26 297 02:40 26.06.2020
815 Clear 18 1005 39 16093 2.6 270 01:39 26.06.2020
816 Clear 18 1005 39 16093 3.6 280 00:52 26.06.2020
817 Clear 18 1005 39 16093 3.6 280 00:31 26.06.2020
818 Clear 17 1006 45 16093 2.1 250 23:48 25.06.2020
819 Clear 17 1006 45 16093 2.1 250 23:22 25.06.2020
820 Clear 17 1006 41 14484 2.6 290 22:58 25.06.2020
821 Clear 17 1006 41 14484 2.6 290 22:39 25.06.2020
822 Clear 16 1006 41 14484 2.6 290 22:20 25.06.2020
823 Clear 16 1006 48 14484 2.39 226 21:58 25.06.2020
824 Clear 16 1006 48 14484 2.39 226 21:40 25.06.2020
825 Clear 16 1006 48 14484 1.86 204 21:21 25.06.2020
826 Clear 14 1007 58 16093 1.86 204 20:57 25.06.2020
827 Clear 14 1007 58 16093 1.86 204 20:39 25.06.2020
828 Clear 13 1007 58 16093 1.65 183 20:21 25.06.2020
829 Clear 12 1007 66 16093 1.65 183 19:54 25.06.2020
830 Clear 13 1007 66 16093 1.65 183 19:36 25.06.2020
831 Clear 11 1007 81 16093 1.3 160 19:18 25.06.2020
832 Clear 11 1007 81 16093 1.3 160 18:39 25.06.2020
833 Clear 10 1007 81 16093 1.1 144 18:21 25.06.2020
834 Clear 9 1007 87 16093 1.5 60 17:45 25.06.2020
835 Clear 9 1007 87 16093 1.5 60 17:20 25.06.2020
836 Clear 8 1007 93 16093 2.6 60 16:59 25.06.2020
837 Clear 8 1007 93 16093 2.6 60 16:40 25.06.2020
838 Clear 8 1007 93 16093 2.6 60 16:19 25.06.2020
839 Clear 7 1007 100 16093 1.26 135 15:43 25.06.2020
840 Clear 8 1007 100 16093 1.33 119 15:25 25.06.2020
841 Clear 7 1006 100 16093 1.33 119 14:56 25.06.2020
842 Clear 7 1006 100 16093 1.33 119 14:37 25.06.2020
843 Clear 8 1006 100 16093 1.06 107 14:19 25.06.2020
844 Clear 8 1006 93 16093 1.06 107 13:42 25.06.2020
845 Clear 8 1006 93 16093 0.82 85 13:20 25.06.2020
846 Clear 9 1006 87 16093 1.5 280 12:59 25.06.2020
847 Clear 9 1006 87 16093 1.5 280 12:59 25.06.2020
848 Clear 9 1006 87 16093 1.5 280 12:40 25.06.2020
849 Clear 9 1006 87 16093 1.5 280 12:20 25.06.2020
850 Clouds 10 1005 76 16093 2.1 240 11:43 25.06.2020
851 Clouds 11 1005 76 16093 1.05 52 11:22 25.06.2020
852 Clouds 11 1005 81 16093 1.05 52 10:45 25.06.2020
853 Clouds 11 1005 81 16093 1.14 68 10:26 25.06.2020
854 -273 0 0 0 0 0 09:59 25.06.2020
855 Clouds 11 1004 76 16093 2.6 10 09:40 25.06.2020
856 Clouds 11 1004 76 16093 2.6 10 09:20 25.06.2020
857 Clouds 12 1004 71 16093 1.5 40 08:43 25.06.2020
858 Clouds 12 1004 71 16093 1.5 40 08:19 25.06.2020
859 Rain 13 1004 62 14484 3.1 20 07:45 25.06.2020
860 Rain 14 1004 62 14484 3.1 20 07:26 25.06.2020
861 Clouds 14 1005 67 16093 4.1 280 06:48 25.06.2020
862 Clouds 16 1004 51 16093 3.1 70 06:27 25.06.2020
863 Clouds 16 1005 45 14484 3.6 90 05:51 25.06.2020
864 Clouds 16 1006 51 16093 1.5 70 03:57 25.06.2020
865 Clouds 16 1006 51 16093 1.5 70 03:32 25.06.2020
866 Clouds 16 1006 59 16093 2.1 100 02:42 25.06.2020
867 Clouds 16 1007 67 16093 3.1 90 01:55 25.06.2020
868 Clouds 15 1007 72 16093 2.1 100 01:20 25.06.2020
869 Clouds 14 1007 72 16093 2.1 100 00:43 25.06.2020
870 Clouds 14 1007 72 16093 2.1 100 00:20 25.06.2020
871 Clouds 14 1007 71 16093 2.1 80 23:44 24.06.2020
872 Clouds 13 1007 82 16093 2.1 80 23:25 24.06.2020
873 Clouds 13 1007 82 16093 2.1 80 22:58 24.06.2020
874 Rain 13 1007 82 16093 2.1 80 22:40 24.06.2020
875 Rain 12 1007 82 16093 2.1 80 22:20 24.06.2020
876 Clouds 11 1008 93 16093 2.6 90 21:55 24.06.2020
877 Clouds 11 1008 93 16093 2.6 90 21:36 24.06.2020
878 Clouds 11 1008 93 16093 2.6 90 21:18 24.06.2020
879 Clouds 11 1008 87 16093 2.1 100 20:57 24.06.2020
880 Clouds 10 1008 93 16093 1.5 90 20:38 24.06.2020
881 Clouds 10 1008 93 16093 1.5 90 20:20 24.06.2020
882 Rain 10 1007 93 16093 1.5 90 19:55 24.06.2020
883 Rain 10 1007 100 14484 2.1 110 19:36 24.06.2020
884 Rain 9 1007 100 14484 2.1 110 19:18 24.06.2020
885 Rain 9 1007 93 11265 1.5 100 18:57 24.06.2020
886 Rain 9 1007 93 11265 1.5 100 18:38 24.06.2020
887 Rain 9 1007 93 11265 1.5 100 18:19 24.06.2020
888 Rain 9 1007 93 11265 1.5 100 17:43 24.06.2020
889 Rain 9 1007 93 11265 1.5 100 17:21 24.06.2020
890 Rain 9 1007 93 11265 1.5 90 16:59 24.06.2020
891 Rain 9 1007 93 11265 1.5 90 16:40 24.06.2020
892 Rain 9 1007 93 11265 1.5 90 16:22 24.06.2020
893 Rain 9 1007 93 9656 2.6 140 15:58 24.06.2020
894 Rain 9 1007 93 9656 2.6 140 15:39 24.06.2020
895 Rain 9 1007 93 9656 2.6 140 15:39 24.06.2020
896 Rain 9 1007 93 9656 2.6 140 15:20 24.06.2020
897 Rain 9 1007 93 12874 2.6 80 14:54 24.06.2020
898 Rain 9 1007 93 12874 2.6 80 14:36 24.06.2020
899 Rain 9 1007 93 12874 2.6 80 14:18 24.06.2020
900 Rain 9 1006 100 14484 2.6 60 13:41 24.06.2020
901 Rain 9 1006 100 14484 2.6 60 13:20 24.06.2020
902 Rain 9 1006 100 12874 2.6 60 12:41 24.06.2020
903 Rain 9 1006 100 12874 2.6 60 12:21 24.06.2020
904 Rain 10 1006 100 12874 2.6 60 11:57 24.06.2020
905 Rain 10 1006 100 12874 2.6 60 11:39 24.06.2020
906 Rain 9 1006 100 12874 2.6 60 11:21 24.06.2020
907 Rain 10 1006 93 12874 2.1 40 10:44 24.06.2020
908 Rain 10 1006 93 12874 2.1 40 10:19 24.06.2020
909 Rain 10 1006 93 11265 2.6 90 09:45 24.06.2020
910 Rain 10 1006 93 11265 2.6 90 09:23 24.06.2020
911 Rain 11 1005 87 14484 0.95 154 08:54 24.06.2020
912 Rain 11 1005 87 14484 0.95 154 08:36 24.06.2020
913 Rain 11 1005 87 14484 0.8 100 08:18 24.06.2020
914 Rain 11 1005 87 16093 2.6 100 07:42 24.06.2020
915 Rain 11 1005 87 16093 2.6 100 07:23 24.06.2020
916 Clouds 12 1005 82 16093 4.6 130 06:40 24.06.2020
917 Clouds 12 1005 82 16093 4.6 130 06:22 24.06.2020
918 Clouds 14 1005 76 16093 4.6 120 05:38 24.06.2020
919 Clouds 13 1005 82 16093 3.6 130 04:38 24.06.2020
920 Rain 12 1005 76 11265 3.1 180 03:37 24.06.2020
921 Rain 12 1005 76 11265 3.1 180 02:53 24.06.2020
922 Rain 12 1005 76 16093 3.1 190 01:59 24.06.2020
923 Rain 11 1005 87 14484 2.21 150 00:51 24.06.2020
924 Rain 11 1005 87 14484 2.21 150 00:33 24.06.2020
925 Rain 11 1005 87 16093 2.6 210 23:47 23.06.2020
926 Mist 10 1005 93 9656 1.5 60 23:21 23.06.2020
927 Rain 10 1005 93 14484 1.5 50 22:57 23.06.2020
928 Clouds 10 1005 93 16093 2.63 182 22:39 23.06.2020
929 Clouds 10 1005 93 16093 2.94 193 22:18 23.06.2020
930 Rain 10 1004 100 16093 2.6 120 21:43 23.06.2020
931 Clouds 9 1004 100 16093 2.6 120 21:20 23.06.2020
932 Clouds 9 1004 93 16093 2.1 140 20:57 23.06.2020
933 Rain 9 1004 93 16093 2.1 200 20:39 23.06.2020
934 Mist 9 1004 93 9656 2.1 170 20:19 23.06.2020
935 Rain 9 1004 93 9656 2.1 170 19:59 23.06.2020
936 Drizzle 9 1004 93 9656 3.1 190 19:40 23.06.2020
937 Rain 9 1004 93 9656 3.1 190 19:22 23.06.2020
938 Rain 9 1004 93 11265 3.6 200 18:38 23.06.2020
939 Rain 9 1003 93 4828 3.1 200 18:18 23.06.2020
940 Rain 9 1003 93 4828 3.1 200 18:18 23.06.2020
941 Rain 9 1003 93 11265 4.1 200 17:42 23.06.2020
942 Rain 9 1003 93 11265 4.1 200 17:24 23.06.2020
943 Rain 9 1003 87 16093 5.1 210 16:57 23.06.2020
944 Rain 9 1003 87 16093 5.1 210 16:57 23.06.2020
945 Clouds 10 1003 87 16093 5.1 220 16:38 23.06.2020
946 Clouds 10 1003 87 16093 5.1 220 16:20 23.06.2020
947 Clouds 10 1003 87 16093 6.2 250 15:57 23.06.2020
948 Rain 9 1004 93 0 2.11 196 15:39 23.06.2020
949 Clouds 10 1003 87 16093 5.7 250 15:18 23.06.2020
950 Clouds 10 1003 87 16093 5.7 250 14:43 23.06.2020
951 Clouds 10 1003 87 16093 5.7 250 14:19 23.06.2020
952 Clouds 10 1003 87 16093 6.2 250 13:57 23.06.2020
953 Clouds 10 1003 87 16093 6.2 250 13:39 23.06.2020
954 Clouds 10 1003 87 16093 4.6 250 13:20 23.06.2020
955 Clouds 10 1003 87 16093 4.6 250 12:44 23.06.2020
956 Clouds 10 1003 87 16093 4.6 250 12:23 23.06.2020
957 Clouds 10 1003 87 16093 4.1 250 11:58 23.06.2020
958 Clouds 10 1003 87 16093 4.1 250 11:40 23.06.2020
959 Clouds 10 1003 87 16093 4.1 250 11:19 23.06.2020
960 Clouds 10 1003 87 16093 6.2 250 10:56 23.06.2020
961 Clouds 10 1003 87 16093 5.1 240 10:38 23.06.2020
962 Clouds 10 1003 87 16093 5.1 240 10:20 23.06.2020
963 Clouds 10 1003 87 16093 5.1 240 09:42 23.06.2020
964 Drizzle 10 1003 87 8047 4.6 250 09:20 23.06.2020
965 Clouds 10 1003 93 16093 3.1 260 08:58 23.06.2020
966 Drizzle 10 1003 93 6437 3.6 250 08:39 23.06.2020
967 Drizzle 10 1003 93 6437 3.6 250 08:20 23.06.2020
968 Mist 10 1003 93 6437 4.6 250 07:40 23.06.2020
969 Mist 10 1003 93 6437 4.6 250 07:21 23.06.2020
970 Mist 10 1003 93 6437 5.7 230 06:49 23.06.2020
971 Rain 10 1003 93 6437 5.7 230 06:31 23.06.2020
972 Rain 10 1003 93 3219 4.6 220 05:42 23.06.2020
973 Clouds 11 1003 100 16093 5.7 230 03:39 23.06.2020
974 Clouds 11 1003 100 16093 5.7 230 02:56 23.06.2020
975 Drizzle 11 1004 100 9656 5.1 230 02:37 23.06.2020
976 Drizzle 11 1004 100 9656 5.1 230 02:19 23.06.2020
977 Drizzle 11 1004 100 9656 4.6 230 01:37 23.06.2020
978 Drizzle 11 1004 100 9656 4.6 230 01:18 23.06.2020
979 Drizzle 11 1004 93 9656 3.6 220 00:24 23.06.2020
980 Clouds 11 1004 93 14484 4.1 230 23:57 22.06.2020
981 Clouds 11 1004 93 16093 4.1 230 23:38 22.06.2020
982 Clouds 11 1004 93 16093 4.1 230 23:19 22.06.2020
983 Clouds 10 1004 100 16093 3.6 230 22:57 22.06.2020
984 Clouds 11 1004 100 16093 3.6 230 22:38 22.06.2020
985 Clouds 10 1004 100 16093 3.6 230 22:19 22.06.2020
986 Clouds 10 1004 93 16093 4.1 240 21:57 22.06.2020
987 Clouds 10 1004 93 16093 4.1 230 21:38 22.06.2020
988 Clouds 10 1004 93 16093 4.1 230 21:20 22.06.2020
989 Clouds 10 1004 93 16093 4.1 230 21:20 22.06.2020
990 Clouds 10 1004 93 16093 4.1 220 20:41 22.06.2020
991 Clouds 10 1004 93 16093 4.1 220 20:23 22.06.2020
992 Clouds 10 1004 93 16093 4.1 230 19:57 22.06.2020
993 Clouds 10 1004 93 16093 4.6 220 19:37 22.06.2020
994 Clouds 10 1004 93 16093 4.6 220 19:18 22.06.2020
995 Clouds 10 1005 93 16093 4.6 210 18:40 22.06.2020
996 Rain 10 1005 93 16093 4.6 210 18:22 22.06.2020
997 Rain 10 1005 93 16093 4.6 210 17:57 22.06.2020
998 Rain 10 1005 93 16093 4.6 210 17:38 22.06.2020
999 Clouds 10 1005 93 16093 4.6 210 17:20 22.06.2020
1000 Clouds 10 1005 93 16093 4.1 230 16:56 22.06.2020
1001 Clouds 10 1005 93 16093 3.6 210 16:38 22.06.2020
1002 Clouds 10 1005 93 16093 3.6 210 16:18 22.06.2020
1003 Clouds 10 1005 93 16093 3.1 210 15:44 22.06.2020
1004 Clouds 10 1005 93 16093 3.1 210 15:25 22.06.2020
1005 Clouds 10 1005 93 16093 3.1 220 14:57 22.06.2020
1006 Clouds 10 1005 93 16093 3.6 230 14:37 22.06.2020
1007 Clouds 10 1005 93 16093 3.6 230 14:18 22.06.2020
1008 Rain 10 1006 93 16093 5.1 230 13:40 22.06.2020
1009 Rain 10 1006 93 16093 5.1 230 13:21 22.06.2020
1010 Rain 10 1006 93 16093 4.6 230 12:59 22.06.2020
1011 Rain 10 1006 93 16093 4.6 230 12:59 22.06.2020
1012 Rain 10 1006 93 16093 4.6 230 12:40 22.06.2020
1013 Rain 10 1006 93 16093 4.6 230 12:22 22.06.2020
1014 Rain 10 1007 100 14484 5.1 220 11:38 22.06.2020
1015 Rain 10 1007 100 14484 5.1 220 11:19 22.06.2020
1016 Rain 10 1007 100 11265 2.6 220 10:57 22.06.2020
1017 Rain 10 1007 100 11265 2.6 220 10:38 22.06.2020
1018 Rain 10 1007 100 11265 2.6 220 10:19 22.06.2020
1019 Rain 10 1007 93 9656 3.6 220 09:57 22.06.2020
1020 Rain 10 1007 93 9656 3.6 220 09:39 22.06.2020
1021 Rain 10 1007 93 9656 3.1 230 09:19 22.06.2020
1022 Rain 10 1007 93 9656 3.1 230 08:56 22.06.2020
1023 Rain 10 1007 93 9656 3.1 230 08:38 22.06.2020
1024 Rain 10 1007 93 9656 3.1 230 08:18 22.06.2020
1025 Rain 10 1007 93 9656 4.1 220 07:46 22.06.2020
1026 Rain 10 1007 93 9656 4.1 220 07:25 22.06.2020
1027 Rain 11 1007 93 12874 5.7 230 06:39 22.06.2020
1028 Clouds 11 1007 100 16093 3.6 240 06:20 22.06.2020
1029 Rain 11 1007 100 9656 4.6 250 05:42 22.06.2020
1030 Rain 11 1007 93 11265 4.6 240 03:47 22.06.2020
1031 Rain 11 1007 93 11265 6.7 240 02:19 22.06.2020
1032 Rain 11 1007 100 8047 4.1 230 00:59 22.06.2020
1033 Rain 11 1007 93 12874 5.7 230 00:38 22.06.2020
1034 Rain 11 1007 93 16093 4.6 240 23:57 21.06.2020
1035 Rain 11 1007 93 16093 5.1 230 23:38 21.06.2020
1036 Rain 11 1006 93 12874 5.7 230 23:20 21.06.2020
1037 Rain 11 1006 93 12874 5.7 230 22:56 21.06.2020
1038 Rain 11 1006 93 12874 5.1 230 22:37 21.06.2020
1039 Rain 11 1006 93 12874 5.1 230 22:19 21.06.2020
1040 Rain 11 1006 93 16093 6.2 230 21:56 21.06.2020
1041 Rain 11 1006 93 16093 6.2 230 21:56 21.06.2020
1042 Rain 11 1006 93 16093 5.7 230 21:37 21.06.2020
1043 Clouds 11 1006 93 16093 5.7 240 21:19 21.06.2020
1044 Clouds 11 1006 93 16093 5.7 240 20:57 21.06.2020
1045 Rain 11 1006 93 16093 6.7 230 20:36 21.06.2020
1046 Rain 11 1006 93 16093 6.2 230 20:18 21.06.2020
1047 Rain 11 1006 93 16093 6.2 240 19:41 21.06.2020
1048 Rain 11 1006 93 16093 6.2 240 19:23 21.06.2020
1049 Rain 11 1006 93 16093 4.6 230 18:59 21.06.2020
1050 Rain 11 1005 93 16093 6.7 240 18:40 21.06.2020
1051 Rain 11 1005 100 11265 5.7 230 18:21 21.06.2020
1052 Rain 12 1005 100 11265 5.7 230 17:58 21.06.2020
1053 Rain 12 1005 100 11265 5.7 230 17:38 21.06.2020
1054 Rain 12 1005 100 11265 5.7 230 17:19 21.06.2020
1055 Rain 12 1005 100 11265 5.7 230 17:19 21.06.2020
1056 Mist 12 1004 100 9656 3.6 250 16:41 21.06.2020
1057 Rain 13 1004 100 9656 3.6 250 16:23 21.06.2020
1058 Rain 13 1004 93 11265 3.1 0 15:57 21.06.2020
1059 Rain 13 1004 100 11265 2.6 240 15:37 21.06.2020
1060 Rain 13 1004 100 11265 2.6 240 15:18 21.06.2020
1061 Rain 13 1004 100 8047 2.6 230 14:39 21.06.2020
1062 Rain 13 1004 100 8047 2.6 230 14:20 21.06.2020
1063 Mist 13 1004 100 8047 3.1 270 13:57 21.06.2020
1064 Rain 13 1004 93 14484 0.6 191 13:39 21.06.2020
1065 Rain 13 1004 93 14484 0.42 161 13:19 21.06.2020
1066 Rain 14 1004 93 12874 2.1 270 12:44 21.06.2020
1067 Rain 14 1004 93 12874 2.1 270 12:26 21.06.2020
1068 Rain 14 1004 93 12874 2.1 270 12:26 21.06.2020
1069 Rain 14 1004 93 11265 1.5 300 11:58 21.06.2020
1070 Rain 14 1004 93 11265 1.5 300 11:40 21.06.2020
1071 Rain 14 1004 93 11265 1.5 300 11:22 21.06.2020
1072 Rain 14 1004 100 11265 1.5 280 10:56 21.06.2020
1073 Rain 14 1004 100 11265 1.5 280 10:38 21.06.2020
1074 Rain 14 1004 100 11265 1.5 280 10:20 21.06.2020
1075 Rain 14 1003 100 14484 0.43 78 09:41 21.06.2020
1076 Rain 14 1003 100 14484 0.45 305 09:19 21.06.2020
1077 Clouds 15 1003 87 14484 0.45 305 08:56 21.06.2020
1078 Rain 15 1003 87 16093 1.5 140 08:38 21.06.2020
1079 Rain 15 1003 87 16093 1.5 140 08:19 21.06.2020
1080 Rain 15 1003 87 16093 0.03 227 07:41 21.06.2020
1081 Rain 15 1003 87 16093 0.61 14 07:22 21.06.2020
1082 Rain 15 1003 87 9656 1.5 320 06:49 21.06.2020
1083 Rain 15 1003 87 11265 2.1 10 06:18 21.06.2020
1084 Rain 15 1003 87 11265 2.1 10 05:54 21.06.2020
1085 Clouds 17 1002 63 16093 4.6 360 03:40 21.06.2020
1086 Rain 17 1002 72 16093 3.1 360 03:18 21.06.2020
1087 Rain 17 1002 82 11265 3.1 310 02:20 21.06.2020
1088 Rain 17 1002 72 14484 3.1 360 01:32 21.06.2020
1089 Rain 18 1002 68 14484 4.1 350 00:56 21.06.2020
1090 Rain 21 1001 46 14484 2.6 270 00:38 21.06.2020
1091 Clouds 22 1002 49 16093 2.1 260 00:19 21.06.2020
1092 Clouds 21 1002 49 16093 2.1 260 23:44 20.06.2020
1093 Clouds 21 1002 49 16093 2.1 260 23:22 20.06.2020
1094 Clouds 21 1002 52 16093 2.6 310 22:56 20.06.2020
1095 Clouds 20 1002 52 16093 2.6 310 22:38 20.06.2020
1096 Clouds 20 1002 52 16093 2.6 310 22:18 20.06.2020
1097 Clouds 19 1002 55 16093 2.1 320 21:56 20.06.2020
1098 Clouds 18 1002 55 16093 2.1 320 21:38 20.06.2020
1099 Clouds 18 1002 55 16093 2.1 320 21:19 20.06.2020
1100 Clouds 17 1002 67 16093 2.1 300 20:57 20.06.2020
1101 Clouds 16 1002 67 16093 2.1 300 20:38 20.06.2020
1102 Clear 16 1003 77 16093 3.1 320 20:19 20.06.2020
1103 Clear 14 1003 77 16093 3.1 320 19:44 20.06.2020
1104 Clear 14 1003 77 16093 3.1 320 19:25 20.06.2020
1105 Clouds 13 1003 82 16093 1.06 282 18:58 20.06.2020
1106 Clouds 13 1003 82 16093 1.06 282 18:40 20.06.2020
1107 Clear 13 1003 93 16093 0.81 258 18:19 20.06.2020
1108 Clear 12 1003 93 16093 0.81 258 17:56 20.06.2020
1109 Clear 12 1003 93 16093 0.81 258 17:38 20.06.2020
1110 Clear 12 1003 93 16093 0.56 281 17:19 20.06.2020
1111 Clear 12 1003 93 16093 0.56 281 16:41 20.06.2020
1112 Clear 11 1003 93 16093 0.98 320 16:19 20.06.2020
1113 Clear 11 1003 93 16093 0.98 320 15:57 20.06.2020
1114 Clear 10 1003 93 16093 0.98 320 15:38 20.06.2020
1115 Clear 10 1003 100 16093 1.08 347 15:18 20.06.2020
1116 Clear 10 1003 100 16093 1.08 347 14:42 20.06.2020
1117 Clear 10 1003 93 16093 1.11 3 14:21 20.06.2020
1118 Clear 10 1003 93 16093 1.11 3 13:42 20.06.2020
1119 Clear 10 1003 93 16093 1.3 11 13:21 20.06.2020
1120 Clear 11 1002 93 16093 1.3 11 12:57 20.06.2020
1121 Clear 11 1002 93 16093 1.3 11 12:38 20.06.2020
1122 Clear 10 1002 93 16093 1.33 6 12:19 20.06.2020
1123 Clear 11 1002 87 16093 1.33 6 11:55 20.06.2020
1124 Clear 11 1002 87 16093 1.33 6 11:36 20.06.2020
1125 Clear 11 1002 87 16093 1.25 8 11:18 20.06.2020
1126 Clear 12 1002 87 16093 1.25 8 10:42 20.06.2020
1127 Clear 12 1002 87 16093 1.01 21 10:20 20.06.2020
1128 Clear 13 1002 82 16093 2.1 20 09:54 20.06.2020
1129 Clear 13 1002 82 16093 2.1 20 09:36 20.06.2020
1130 Clear 13 1002 82 16093 2.1 20 09:18 20.06.2020
1131 Clouds 13 1002 82 16093 2.1 360 08:43 20.06.2020
1132 Clouds 13 1002 82 16093 2.1 360 08:25 20.06.2020
1133 Clouds 15 1002 72 16093 1.5 90 07:51 20.06.2020
1134 Clouds 15 1002 72 16093 1.5 90 07:26 20.06.2020
1135 Clear 15 1002 77 16093 0.49 111 06:51 20.06.2020
1136 Clear 15 1002 77 16093 0.14 252 06:23 20.06.2020
1137 Clouds 15 1002 72 16093 2.1 130 05:49 20.06.2020
1138 Rain 15 1002 77 16093 0.88 216 04:49 20.06.2020
1139 Rain 13 1003 93 11265 4.1 230 02:23 20.06.2020
1140 Rain 13 1003 93 11265 4.6 210 01:46 20.06.2020
1141 Rain 13 1003 93 9656 3.1 200 00:52 20.06.2020
1142 Rain 13 1002 100 4828 4.6 210 00:21 20.06.2020
1143 Rain 13 1002 93 12874 6.7 220 23:49 19.06.2020
1144 Rain 13 1002 93 12874 6.7 220 23:22 19.06.2020
1145 Rain 13 1002 93 12874 4.6 230 22:59 19.06.2020
1146 Rain 13 1002 93 12874 4.6 230 22:40 19.06.2020
1147 Rain 13 1002 93 12874 4.6 230 22:22 19.06.2020
1148 Rain 13 1002 93 11265 4.1 210 21:58 19.06.2020
1149 Rain 13 1002 93 11265 4.1 210 21:38 19.06.2020
1150 Rain 13 1002 93 11265 4.1 210 21:38 19.06.2020
1151 Rain 13 1002 93 11265 4.1 210 21:18 19.06.2020
1152 Rain 14 1002 100 11265 3.6 200 20:58 19.06.2020
1153 Rain 13 1002 87 8047 2.6 210 20:40 19.06.2020
1154 Rain 14 1002 87 8047 2.6 210 20:20 19.06.2020
1155 Clouds 14 1002 93 14484 1.5 190 19:55 19.06.2020
1156 Rain 14 1003 93 16093 2.1 180 19:37 19.06.2020
1157 Rain 14 1003 93 16093 2.1 180 19:37 19.06.2020
1158 Rain 14 1003 93 16093 2.1 180 19:18 19.06.2020
1159 Rain 14 1003 93 4023 0.8 254 18:40 19.06.2020
1160 Rain 13 1003 93 4023 1.07 265 18:21 19.06.2020
1161 Clouds 13 1003 93 14484 1.5 150 17:55 19.06.2020
1162 Clouds 13 1003 93 14484 0.87 241 17:36 19.06.2020
1163 Rain 13 1003 93 14484 0.87 241 17:18 19.06.2020
1164 Rain 13 1003 93 9656 0.87 241 16:41 19.06.2020
1165 Rain 13 1003 93 9656 0.38 209 16:23 19.06.2020
1166 Rain 13 1003 93 14484 0.38 209 15:59 19.06.2020
1167 Clouds 13 1003 100 16093 0.38 209 15:40 19.06.2020
1168 Clouds 13 1003 100 16093 1.1 293 15:20 19.06.2020
1169 Clouds 13 1003 93 16093 1.1 293 14:55 19.06.2020
1170 Clouds 13 1003 93 16093 1.5 20 14:37 19.06.2020
1171 Clouds 13 1003 93 16093 0.63 317 14:18 19.06.2020
1172 Clouds 13 1003 100 16093 0.63 317 13:42 19.06.2020
1173 Clouds 13 1003 100 16093 0.25 257 13:24 19.06.2020
1174 Rain 13 1004 93 16093 0.25 257 12:47 19.06.2020
1175 Rain 13 1004 93 16093 0.67 40 12:22 19.06.2020
1176 Rain 13 1004 93 16093 1.5 350 11:57 19.06.2020
1177 Rain 14 1004 93 14484 0.67 40 11:38 19.06.2020
1178 Rain 14 1004 93 14484 1.09 319 11:18 19.06.2020
1179 Rain 14 1004 93 8047 2.1 60 10:46 19.06.2020
1180 Rain 14 1004 93 8047 2.1 60 10:26 19.06.2020
1181 Rain 14 1004 93 6437 3.1 70 09:59 19.06.2020
1182 Rain 15 1004 82 11265 3.1 50 09:41 19.06.2020
1183 Rain 15 1004 82 11265 3.1 50 09:20 19.06.2020
1184 Rain 17 1003 68 12874 4.6 100 08:44 19.06.2020
1185 Rain 18 1003 68 12874 4.6 100 08:26 19.06.2020
1186 Rain 21 1003 40 16093 5.1 90 07:56 19.06.2020
1187 Clouds 21 1002 33 16093 5.7 230 07:38 19.06.2020
1188 Clouds 22 1002 33 16093 5.7 230 07:20 19.06.2020
1189 Clouds 23 1003 33 16093 6.2 230 06:25 19.06.2020
1190 Clouds 23 1003 35 16093 3.1 240 05:44 19.06.2020
1191 Clouds 23 1004 29 16093 3.1 250 04:27 19.06.2020
1192 Clear 23 1006 27 16093 2.13 316 02:51 19.06.2020
1193 Clear 23 1007 31 16093 1.5 290 00:56 19.06.2020
1194 Clear 23 1007 31 16093 1.5 290 00:37 19.06.2020
1195 Clear 23 1007 31 16093 1.5 290 00:18 19.06.2020
1196 Clear 22 1008 33 16093 1.5 230 23:41 18.06.2020
1197 Clear 22 1008 33 16093 1.5 230 23:23 18.06.2020
1198 Clear 22 1008 35 16093 1.56 245 22:59 18.06.2020
1199 Clear 22 1008 35 16093 1.56 245 22:37 18.06.2020
1200 Clear 22 1008 35 16093 1.67 249 22:18 18.06.2020
1201 Clear 21 1009 40 16093 1.67 249 21:39 18.06.2020
1202 Clouds 19 1009 45 16093 1.71 264 21:20 18.06.2020
1203 Clouds 19 1009 45 16093 1.72 261 20:58 18.06.2020
1204 Clouds 19 1009 45 16093 1.72 261 20:38 18.06.2020
1205 Clouds 18 1009 45 16093 1.81 269 20:19 18.06.2020
1206 Clouds 17 1010 55 16093 1.81 269 19:42 18.06.2020
1207 Clouds 16 1010 55 16093 2.15 271 19:22 18.06.2020
1208 Clouds 15 1010 62 16093 2.1 70 18:58 18.06.2020
1209 Clouds 15 1010 62 16093 2.1 70 18:37 18.06.2020
1210 Clouds 15 1010 62 16093 2.1 70 18:19 18.06.2020
1211 Clouds 14 1010 71 16093 1.99 251 17:45 18.06.2020
1212 Clouds 13 1010 71 16093 1.73 211 17:25 18.06.2020
1213 Clouds 13 1010 71 16093 1.73 211 17:25 18.06.2020
1214 Clear 13 1010 71 16093 2.1 70 16:56 18.06.2020
1215 Clear 13 1010 71 16093 2.1 70 16:37 18.06.2020
1216 Clear 13 1010 71 16093 2.1 70 16:18 18.06.2020
1217 Clear 13 1010 66 16093 1.5 50 15:55 18.06.2020
1218 Clear 14 1010 66 16093 1.5 50 15:37 18.06.2020
1219 Clear 14 1010 66 16093 1.5 50 15:18 18.06.2020
1220 Clouds 15 1010 42 16093 2.1 250 14:41 18.06.2020
1221 Clouds 16 1010 42 16093 2.1 250 14:23 18.06.2020
1222 Clouds 16 1010 42 16093 2.1 260 13:59 18.06.2020
1223 Clouds 16 1010 42 16093 2.1 260 13:41 18.06.2020
1224 Clouds 16 1010 42 16093 2.1 260 13:20 18.06.2020
1225 Clouds 16 1009 42 16093 2.6 240 12:55 18.06.2020
1226 Clouds 16 1009 42 16093 2.6 240 12:37 18.06.2020
1227 Clouds 17 1009 39 16093 2.6 250 12:19 18.06.2020
1228 Clouds 17 1009 39 16093 2.6 250 11:46 18.06.2020
1229 Clouds 17 1009 39 16093 2.6 250 11:21 18.06.2020
1230 Clouds 18 1008 40 16093 3.1 250 10:41 18.06.2020
1231 Clouds 18 1008 40 16093 3.1 250 10:20 18.06.2020
1232 Clouds 18 1008 35 16093 3.6 250 09:59 18.06.2020
1233 Clouds 19 1008 35 16093 3.6 250 09:41 18.06.2020
1234 Clouds 19 1008 35 16093 3.6 250 09:22 18.06.2020
1235 Clouds 20 1008 30 16093 5.1 240 08:41 18.06.2020
1236 Clouds 20 1008 30 16093 5.1 240 08:23 18.06.2020
1237 Clouds 21 1007 28 12874 7.7 220 07:58 18.06.2020
1238 Clouds 21 1007 28 12874 7.7 220 07:40 18.06.2020
1239 Clouds 21 1007 30 16093 4.1 240 07:21 18.06.2020
1240 Clouds 22 1007 25 12874 5.7 230 06:28 18.06.2020
1241 Clear 24 1007 25 12874 5.7 260 04:27 18.06.2020
1242 Clouds 24 1007 27 16093 5.7 220 03:26 18.06.2020
1243 Clear 24 1007 33 16093 3.1 260 01:39 18.06.2020
1244 Clear 24 1007 36 16093 2.6 240 01:18 18.06.2020
1245 Clear 24 1007 36 16093 2.6 240 00:48 18.06.2020
1246 Clear 24 1007 36 16093 2.6 240 00:24 18.06.2020
1247 Clear 23 1007 35 16093 2.1 230 23:46 17.06.2020
1248 Clear 23 1007 35 16093 2.1 230 23:22 17.06.2020
1249 Clear 23 1008 37 16093 1.5 220 22:59 17.06.2020
1250 Clear 23 1008 37 16093 1.5 220 22:40 17.06.2020
1251 Clear 22 1008 37 16093 1.5 220 22:21 17.06.2020
1252 Clear 21 1008 43 16093 2.1 280 21:58 17.06.2020
1253 Clear 22 1008 43 16093 2.1 280 21:39 17.06.2020
1254 Clear 20 1008 43 16093 2.1 280 21:20 17.06.2020
1255 Clouds 20 1008 45 16093 1.27 183 20:55 17.06.2020
1256 Clouds 19 1008 45 16093 1.27 183 20:36 17.06.2020
1257 Clouds 19 1008 45 16093 0.99 175 20:18 17.06.2020
1258 Clouds 18 1008 55 16093 0.99 175 19:41 17.06.2020
1259 Clouds 17 1008 67 16093 0.93 181 19:19 17.06.2020
1260 Clouds 17 1008 67 16093 0.93 181 18:46 17.06.2020
1261 Clouds 16 1008 67 16093 0.98 183 18:28 17.06.2020
1262 Rain 14 1008 76 16093 1.5 80 17:47 17.06.2020
1263 Rain 14 1008 76 16093 1.5 80 17:23 17.06.2020
1264 Rain 14 1008 76 16093 1.5 80 16:59 17.06.2020
1265 Clouds 13 1008 76 16093 2.1 60 16:41 17.06.2020
1266 Clouds 13 1008 76 16093 2.1 60 16:21 17.06.2020
1267 Clouds 12 1008 81 16093 2.1 100 15:59 17.06.2020
1268 Clouds 13 1008 81 16093 2.1 100 15:39 17.06.2020
1269 Clouds 12 1008 81 16093 2.1 100 15:21 17.06.2020
1270 Clouds 11 1008 87 16093 0.17 338 14:58 17.06.2020
1271 Clouds 12 1008 87 16093 0.5 149 14:40 17.06.2020
1272 Clouds 12 1008 87 16093 0.09 43 14:19 17.06.2020
1273 Clear 13 1007 87 16093 0.09 43 13:58 17.06.2020
1274 Clear 12 1007 87 16093 0.09 43 13:39 17.06.2020
1275 Clear 13 1007 87 16093 0.47 333 13:21 17.06.2020
1276 Clear 14 1007 87 16093 1.5 120 12:55 17.06.2020
1277 Clear 14 1007 87 16093 1.5 120 12:36 17.06.2020
1278 Clear 14 1007 87 16093 1.5 120 12:18 17.06.2020
1279 Clear 15 1007 77 16093 1.5 30 11:43 17.06.2020
1280 Clear 16 1007 77 16093 1.5 30 11:23 17.06.2020
1281 Clear 16 1006 67 14484 0.92 325 10:39 17.06.2020
1282 Clear 17 1006 67 14484 1.36 299 10:19 17.06.2020
1283 Clear 18 1006 43 12874 2.1 230 09:59 17.06.2020
1284 Clear 18 1006 43 12874 2.1 230 09:41 17.06.2020
1285 Clear 19 1006 43 12874 2.1 230 09:21 17.06.2020
1286 Clear 20 1006 35 14484 3.1 220 08:55 17.06.2020
1287 Clear 20 1006 35 14484 3.1 220 08:36 17.06.2020
1288 Clear 20 1006 35 14484 3.1 220 08:18 17.06.2020
1289 Clear 21 1005 33 14484 3.1 240 07:42 17.06.2020
1290 Clouds 22 1005 31 14484 4.6 270 07:21 17.06.2020
1291 Clouds 22 1005 31 14484 4.6 270 06:55 17.06.2020
1292 Clouds 22 1005 31 14484 4.6 270 06:37 17.06.2020
1293 Clouds 23 1005 31 14484 4.6 270 06:19 17.06.2020
1294 Clear 23 1005 33 14484 4.6 290 04:58 17.06.2020
1295 Clouds 24 1006 36 16093 4.6 240 02:59 17.06.2020
1296 Clouds 23 1006 40 16093 1.11 210 01:43 17.06.2020
1297 Clouds 23 1006 40 16093 1.31 266 00:41 17.06.2020
1298 Clouds 23 1006 40 16093 1.6 284 00:23 17.06.2020
1299 Clouds 22 1006 40 16093 2.6 170 23:56 16.06.2020
1300 Clouds 22 1006 40 16093 2.6 170 23:56 16.06.2020
1301 Clouds 22 1006 40 16093 2.6 170 23:37 16.06.2020
1302 Clear 22 1006 52 16093 2.6 210 23:19 16.06.2020
1303 Clear 21 1006 52 16093 2.6 210 22:54 16.06.2020
1304 Clear 21 1006 52 16093 2.6 210 22:36 16.06.2020
1305 Clear 20 1006 64 14484 1.3 265 22:18 16.06.2020
1306 Clear 20 1006 64 14484 1.3 265 21:45 16.06.2020
1307 Clear 20 1006 64 14484 0.86 70 21:23 16.06.2020
1308 Clouds 18 1007 72 16093 1.5 180 20:57 16.06.2020
1309 Clouds 18 1007 72 16093 1.5 180 20:39 16.06.2020
1310 Clouds 18 1007 72 16093 1.5 180 20:19 16.06.2020
1311 Clouds 17 1007 77 16093 1.5 110 19:56 16.06.2020
1312 Clouds 17 1007 77 16093 1.5 110 19:38 16.06.2020
1313 Clouds 16 1007 82 16093 0.68 77 19:19 16.06.2020
1314 Clouds 15 1007 82 16093 0.68 77 18:45 16.06.2020
1315 Clouds 15 1007 82 16093 0.89 87 18:22 16.06.2020
1316 Clouds 14 1007 87 16093 0.89 87 17:59 16.06.2020
1317 Clouds 14 1007 87 16093 0.89 87 17:39 16.06.2020
1318 Clouds 13 1007 93 16093 1.12 127 17:21 16.06.2020
1319 Clouds 13 1007 93 16093 1.12 127 16:59 16.06.2020
1320 Clouds 13 1007 93 16093 1.12 127 16:41 16.06.2020
1321 Clouds 13 1007 93 16093 1.04 126 16:20 16.06.2020
1322 Clouds 13 1007 87 16093 1.04 126 15:57 16.06.2020
1323 Clouds 13 1007 87 16093 1.04 126 15:39 16.06.2020
1324 Clouds 13 1007 87 16093 0.6 119 15:21 16.06.2020
1325 Clouds 13 1006 93 16093 1.5 140 14:56 16.06.2020
1326 Clouds 13 1006 93 16093 1.5 140 14:38 16.06.2020
1327 Clouds 13 1006 93 16093 1.5 140 14:20 16.06.2020
1328 Clouds 13 1006 87 16093 0.08 266 13:46 16.06.2020
1329 Clouds 13 1006 87 16093 1.21 278 13:25 16.06.2020
1330 Clouds 13 1006 82 16093 1.21 278 12:55 16.06.2020
1331 Clouds 13 1006 82 16093 1.21 278 12:37 16.06.2020
1332 Clouds 13 1006 82 16093 0.79 231 12:18 16.06.2020
1333 Clouds 14 1006 82 16093 0.79 231 11:41 16.06.2020
1334 Clouds 14 1006 77 16093 3.1 340 11:23 16.06.2020
1335 Clouds 14 1006 82 16093 2.1 350 10:59 16.06.2020
1336 Clouds 14 1006 82 16093 5.1 320 10:40 16.06.2020
1337 Clouds 14 1006 82 16093 2.1 350 10:20 16.06.2020
1338 Clouds 14 1006 82 16093 2.6 120 09:47 16.06.2020
1339 Clouds 15 1006 72 16093 2.1 230 09:24 16.06.2020
1340 Clouds 15 1006 77 16093 2.6 90 08:58 16.06.2020
1341 Clouds 15 1006 77 16093 2.6 90 08:58 16.06.2020
1342 Clouds 15 1006 77 16093 2.6 90 08:40 16.06.2020
1343 Clouds 15 1006 77 16093 2.6 90 08:22 16.06.2020
1344 Rain 16 1006 77 14484 2.6 110 07:42 16.06.2020
1345 Rain 16 1006 77 14484 2.6 110 07:24 16.06.2020
1346 Rain 15 1006 77 14484 2.6 60 06:44 16.06.2020
1347 Rain 15 1006 77 14484 2.6 60 06:19 16.06.2020
1348 Rain 14 1007 77 16093 5.1 30 05:26 16.06.2020
1349 Clouds 15 1007 63 16093 3.6 30 04:26 16.06.2020
1350 Clear 23 1006 41 16093 1.5 250 02:49 16.06.2020
1351 Clouds 23 1006 44 16093 3.1 230 01:44 16.06.2020
1352 Clouds 23 1006 44 16093 3.1 230 01:19 16.06.2020
1353 Clear 23 1007 53 16093 0.46 8 00:37 16.06.2020
1354 Clouds 22 1008 56 14484 2.1 260 00:18 16.06.2020
1355 Clouds 22 1008 56 14484 2.1 260 23:41 15.06.2020
1356 Clouds 22 1008 56 14484 2.1 260 23:21 15.06.2020
1357 Clouds 21 1008 63 16093 1.1 331 22:55 15.06.2020
1358 Clouds 21 1008 63 16093 1.1 331 22:36 15.06.2020
1359 Clouds 20 1008 72 16093 0.88 327 22:18 15.06.2020
1360 Clouds 19 1008 72 16093 0.88 327 21:55 15.06.2020
1361 Clouds 19 1008 72 16093 0.88 327 21:36 15.06.2020
1362 Clouds 18 1008 77 16093 1.56 291 21:18 15.06.2020
1363 Clouds 17 1008 77 16093 1.56 291 20:54 15.06.2020
1364 Clouds 17 1008 77 16093 1.56 291 20:36 15.06.2020
1365 Clouds 16 1009 87 16093 1.5 80 20:18 15.06.2020
1366 Clouds 16 1009 87 16093 1.5 80 19:41 15.06.2020
1367 Clouds 14 1009 87 16093 1.5 80 19:22 15.06.2020
1368 Clouds 14 1009 82 16093 0.96 270 18:58 15.06.2020
1369 Clouds 14 1009 82 16093 0.96 270 18:40 15.06.2020
1370 Clouds 13 1009 93 16093 0.93 244 18:20 15.06.2020
1371 Clouds 13 1009 93 16093 0.93 244 17:58 15.06.2020
1372 Clouds 13 1009 93 16093 0.93 244 17:40 15.06.2020
1373 Clouds 13 1009 93 16093 0.35 216 17:19 15.06.2020
1374 Clouds 12 1008 93 16093 0.35 216 16:54 15.06.2020
1375 Clouds 13 1008 93 16093 0.35 216 16:36 15.06.2020
1376 Clouds 12 1008 93 16093 1.5 20 16:18 15.06.2020
1377 Clouds 12 1008 93 16093 1.5 20 15:40 15.06.2020
1378 Clouds 12 1008 100 16093 0.63 5 15:20 15.06.2020
1379 Clouds 12 1008 100 16093 0.63 5 14:57 15.06.2020
1380 Clouds 12 1008 100 16093 0.63 5 14:39 15.06.2020
1381 Clouds 12 1008 100 16093 0.84 5 14:19 15.06.2020
1382 Clouds 12 1008 100 16093 0.78 50 13:56 15.06.2020
1383 Clouds 12 1008 100 16093 0.78 50 13:37 15.06.2020
1384 Clouds 12 1008 100 16093 0.78 50 13:37 15.06.2020
1385 Clear 13 1007 87 16093 0.74 18 13:18 15.06.2020
1386 Clear 13 1007 87 16093 0.74 18 12:41 15.06.2020
1387 Clear 13 1007 87 16093 0.65 38 12:22 15.06.2020
1388 Clear 14 1007 93 16093 1.5 50 11:47 15.06.2020
1389 Clear 14 1007 93 16093 1.5 50 11:27 15.06.2020
1390 Clear 14 1007 77 16093 0.62 20 10:59 15.06.2020
1391 Clear 14 1007 77 16093 0.62 20 10:41 15.06.2020
1392 Clouds 15 1007 68 16093 1.5 250 10:21 15.06.2020
1393 Clouds 15 1007 68 16093 1.5 250 09:44 15.06.2020
1394 Clear 17 1007 59 16093 0.28 358 09:23 15.06.2020
1395 Clear 17 1007 56 16093 1.5 220 08:48 15.06.2020
1396 Clear 18 1007 56 16093 1.5 220 08:27 15.06.2020
1397 Clear 17 1006 56 16093 1.5 200 07:57 15.06.2020
1398 Clear 18 1006 56 16093 1.5 200 07:39 15.06.2020
1399 Clouds 18 1006 56 12874 2.6 170 07:19 15.06.2020
1400 Clouds 20 1006 56 12874 2.6 170 06:28 15.06.2020
1401 Clear 19 1006 63 16093 1.5 270 05:51 15.06.2020
1402 Clear 19 1006 63 16093 1.5 270 05:29 15.06.2020
1403 Clouds 18 1007 68 16093 1.81 269 04:22 15.06.2020
1404 Clouds 17 1007 72 16093 1.81 269 03:49 15.06.2020
1405 Clouds 16 1007 82 16093 2.1 70 02:58 15.06.2020
1406 Clouds 16 1007 82 16093 2.1 70 02:32 15.06.2020
1407 Rain 15 1008 87 16093 1.68 259 01:47 15.06.2020
1408 Rain 15 1008 87 16093 0.92 261 01:27 15.06.2020
1409 Rain 14 1008 93 16093 0.92 261 00:45 15.06.2020
1410 Rain 14 1008 93 16093 0.65 255 00:23 15.06.2020
1411 Rain 13 1008 93 8047 2.6 220 23:58 14.06.2020
1412 Rain 13 1008 93 4023 0.65 255 23:40 14.06.2020
1413 Rain 13 1008 93 4023 0.65 228 23:22 14.06.2020
1414 Rain 14 1008 82 12874 2.6 150 22:57 14.06.2020
1415 Rain 14 1008 82 12874 2.6 150 22:38 14.06.2020
1416 Rain 14 1008 82 12874 2.6 150 22:18 14.06.2020
1417 Rain 15 1008 77 14484 3.1 170 21:56 14.06.2020
1418 Clouds 15 1007 77 16093 3.1 170 21:38 14.06.2020
1419 Clouds 15 1007 82 16093 2.1 100 21:19 14.06.2020
1420 Clouds 15 1007 82 16093 2.1 100 20:57 14.06.2020
1421 Clouds 15 1007 82 16093 2.1 100 20:38 14.06.2020
1422 Clouds 15 1007 82 16093 2.1 100 20:19 14.06.2020
1423 Clouds 15 1007 82 16093 1.5 70 19:56 14.06.2020
1424 Clouds 15 1007 82 16093 1.5 70 19:37 14.06.2020
1425 Clouds 15 1007 87 16093 1.5 150 19:19 14.06.2020
1426 Clouds 14 1007 87 16093 1.5 150 18:56 14.06.2020
1427 Clouds 14 1007 87 16093 1.5 150 18:37 14.06.2020
1428 Clouds 14 1007 87 16093 1.5 150 18:19 14.06.2020
1429 Clouds 14 1006 82 16093 2.1 170 17:55 14.06.2020
1430 Clouds 14 1006 82 16093 2.1 170 17:37 14.06.2020
1431 Clouds 13 1006 87 16093 0.66 102 17:18 14.06.2020
1432 Clouds 12 1006 87 16093 0.66 102 16:40 14.06.2020
1433 Clouds 13 1006 87 16093 0.82 89 16:20 14.06.2020
1434 Clouds 12 1006 87 16093 2.1 90 15:57 14.06.2020
1435 Clouds 12 1006 87 16093 2.1 90 15:39 14.06.2020
1436 Clouds 12 1006 93 16093 2.6 70 15:18 14.06.2020
1437 Clouds 12 1006 93 16093 2.6 70 14:57 14.06.2020
1438 Clouds 12 1006 93 16093 2.6 70 14:37 14.06.2020
1439 Clouds 13 1006 93 16093 2.6 70 14:18 14.06.2020
1440 Clouds 13 1005 87 16093 1.09 81 13:41 14.06.2020
1441 Clouds 13 1005 87 16093 1.11 22 13:22 14.06.2020
1442 Clouds 14 1005 82 16093 1.5 140 12:59 14.06.2020
1443 Clouds 14 1005 82 16093 1.5 140 12:40 14.06.2020
1444 Clouds 14 1005 82 16093 1.5 140 12:22 14.06.2020
1445 Clouds 14 1005 82 16093 1.17 32 11:59 14.06.2020
1446 Clouds 14 1005 82 16093 1.17 32 11:40 14.06.2020
1447 Clouds 14 1005 82 16093 1.33 14 11:21 14.06.2020
1448 Clouds 15 1005 63 16093 1.33 14 10:57 14.06.2020
1449 Clouds 15 1005 63 16093 1.33 14 10:38 14.06.2020
1450 Clouds 15 1005 77 16093 2.1 310 10:18 14.06.2020
1451 Clear 16 1005 63 16093 3.1 80 09:42 14.06.2020
1452 Clear 16 1005 63 16093 3.1 80 09:23 14.06.2020
1453 Clear 17 1004 68 16093 2.1 80 08:42 14.06.2020
1454 Clouds 17 1005 77 16093 1.5 30 08:22 14.06.2020
1455 Clouds 17 1005 77 16093 1.5 30 07:53 14.06.2020
1456 Clouds 17 1005 77 16093 1.5 30 07:35 14.06.2020
1457 Clouds 17 1005 72 16093 3.95 68 06:54 14.06.2020
1458 Clouds 16 1005 72 16093 1.5 300 05:54 14.06.2020
1459 Rain 16 1005 72 11265 2.1 290 05:29 14.06.2020
1460 Rain 20 1006 63 14484 4.1 50 04:38 14.06.2020
1461 Rain 20 1006 67 9656 4.6 60 03:55 14.06.2020
1462 Clear 25 1006 33 16093 3.1 300 02:40 14.06.2020
1463 Clear 24 1006 33 16093 3.1 300 02:18 14.06.2020
1464 Clear 23 1007 36 16093 2.6 270 01:27 14.06.2020
1465 Clouds 24 1007 35 16093 2.6 220 00:48 14.06.2020
1466 Clouds 24 1007 35 16093 2.6 220 00:21 14.06.2020
1467 Clouds 23 1008 38 16093 3.6 200 23:46 13.06.2020
1468 Clouds 23 1008 38 16093 3.6 200 23:26 13.06.2020
1469 Clear 23 1009 40 16093 1.98 86 22:59 13.06.2020
1470 Clear 23 1009 40 16093 1.98 86 22:38 13.06.2020
1471 Clear 21 1010 49 16093 1.5 190 22:19 13.06.2020
1472 Clear 21 1010 49 16093 1.5 190 21:57 13.06.2020
1473 Clear 21 1010 49 16093 1.5 190 21:39 13.06.2020
1474 Clear 20 1010 49 16093 1.5 190 21:21 13.06.2020
1475 Clear 18 1011 55 16093 2.16 89 20:44 13.06.2020
1476 Clear 19 1011 55 16093 2.44 81 20:21 13.06.2020
1477 Clear 18 1011 59 16093 2.44 81 19:59 13.06.2020
1478 Clear 18 1011 59 16093 2.44 81 19:38 13.06.2020
1479 Clear 18 1011 59 16093 2.44 81 19:38 13.06.2020
1480 Clear 17 1011 59 16093 2.03 60 19:19 13.06.2020
1481 Clouds 17 1012 63 16093 2.03 60 18:58 13.06.2020
1482 Clouds 17 1012 63 16093 2.03 60 18:58 13.06.2020
1483 Clouds 16 1012 63 16093 2.03 60 18:39 13.06.2020
1484 Clear 15 1012 67 16093 1.5 80 18:20 13.06.2020
1485 Clear 15 1012 67 16093 1.5 80 17:56 13.06.2020
1486 Clear 14 1012 67 16093 1.5 80 17:37 13.06.2020
1487 Clear 14 1012 67 16093 1.5 80 17:19 13.06.2020
1488 Clear 13 1012 76 16093 2.1 50 16:41 13.06.2020
1489 Clouds 12 1012 76 16093 2.1 70 16:20 13.06.2020
1490 Clouds 13 1012 76 16093 2.1 70 15:59 13.06.2020
1491 Clouds 13 1012 76 16093 2.1 70 15:41 13.06.2020
1492 Clouds 12 1012 76 16093 2.1 70 15:21 13.06.2020
1493 Clouds 13 1012 81 16093 2.1 50 15:21 13.06.2020
1494 Clouds 13 1012 81 16093 2.1 50 14:44 13.06.2020
1495 Clouds 12 1012 81 16093 2.1 50 14:23 13.06.2020
1496 Clouds 12 1012 81 16093 1.5 80 13:57 13.06.2020
1497 Clouds 12 1012 81 16093 1.5 80 13:37 13.06.2020
1498 Clouds 13 1012 81 16093 1.5 80 13:18 13.06.2020
1499 Clouds 13 1012 81 14484 2.1 60 12:43 13.06.2020
1500 Clouds 13 1012 81 14484 2.1 60 12:25 13.06.2020
1501 Clouds 14 1012 67 16093 1.92 11 11:57 13.06.2020
1502 Clouds 15 1012 67 16093 1.92 11 11:37 13.06.2020
1503 Clouds 15 1013 67 16093 1.87 21 11:19 13.06.2020
1504 Clouds 15 1013 67 16093 1.87 21 10:54 13.06.2020
1505 Clouds 15 1013 67 16093 1.56 4 10:28 13.06.2020
1506 Clear 16 1013 48 16093 1.5 330 09:57 13.06.2020
1507 Clear 16 1013 48 16093 1.5 330 09:39 13.06.2020
1508 Clear 17 1013 48 16093 1.5 330 09:20 13.06.2020
1509 Clear 18 1013 49 16093 2.6 250 08:45 13.06.2020
1510 Clear 18 1013 49 16093 2.6 250 08:26 13.06.2020
1511 Clear 18 1013 48 16093 3.6 250 07:45 13.06.2020
1512 Clear 18 1013 48 16093 3.6 250 07:27 13.06.2020
1513 Clear 19 1013 52 16093 1.5 100 06:45 13.06.2020
1514 Clear 20 1013 52 16093 1.5 100 06:26 13.06.2020
1515 Clear 20 1013 40 16093 1.5 110 05:30 13.06.2020
1516 Thunderstorm 21 1013 28 16093 3.6 100 04:46 13.06.2020
1517 Clear 22 1014 33 16093 3.6 60 03:44 13.06.2020
1518 Clouds 21 1014 37 14484 5.1 50 02:53 13.06.2020
1519 Clouds 20 1015 37 16093 6.2 40 02:18 13.06.2020
1520 Clouds 22 1014 31 16093 5.1 340 01:25 13.06.2020
1521 Clear 23 1014 33 16093 1.5 280 00:56 13.06.2020
1522 Clear 24 1014 33 16093 1.5 280 00:37 13.06.2020
1523 Clear 22 1015 37 16093 1.11 303 00:19 13.06.2020
1524 Clear 22 1015 37 16093 1.11 303 23:39 12.06.2020
1525 Clouds 22 1015 45 16093 1.5 290 23:18 12.06.2020
1526 Clouds 22 1015 45 16093 1.5 290 23:18 12.06.2020
1527 Clouds 21 1015 45 16093 1.5 290 22:55 12.06.2020
1528 Clouds 21 1015 45 16093 1.5 290 22:55 12.06.2020
1529 Clouds 21 1015 45 16093 1.5 290 22:36 12.06.2020
1530 Clouds 18 1016 55 16093 1.5 10 22:18 12.06.2020
1531 Clouds 18 1016 55 16093 1.5 10 21:42 12.06.2020
1532 Clouds 18 1016 55 16093 1.5 10 21:23 12.06.2020
1533 Clouds 18 1016 55 16093 1.5 10 21:23 12.06.2020
1534 Clouds 16 1016 72 16093 0.98 242 20:57 12.06.2020
1535 Clouds 16 1016 72 16093 0.98 242 20:38 12.06.2020
1536 Clouds 14 1016 71 16093 0.7 207 20:19 12.06.2020
1537 Clouds 14 1016 71 16093 0.7 207 19:44 12.06.2020
1538 Clouds 14 1016 71 16093 0.65 165 19:22 12.06.2020
1539 Clouds 13 1016 76 16093 0.65 165 18:58 12.06.2020
1540 Clouds 13 1016 76 16093 0.65 165 18:37 12.06.2020
1541 Clouds 12 1016 81 16093 0.58 132 18:18 12.06.2020
1542 Clouds 12 1016 81 16093 0.58 132 17:43 12.06.2020
1543 Clouds 12 1016 81 16093 0.62 103 17:25 12.06.2020
1544 Clouds 12 1016 81 16093 0.62 103 16:47 12.06.2020
1545 Clouds 11 1016 81 16093 0.94 89 16:23 12.06.2020
1546 Clouds 11 1016 81 16093 0.94 89 15:53 12.06.2020
1547 Clouds 11 1016 81 16093 1.04 68 15:29 12.06.2020
1548 Clouds 11 1015 87 16093 2.6 80 14:59 12.06.2020
1549 Clouds 11 1015 87 16093 2.6 80 14:41 12.06.2020
1550 Clouds 11 1015 87 16093 2.6 80 14:22 12.06.2020
1551 Clear 11 1015 76 16093 1.11 62 13:56 12.06.2020
1552 Clear 11 1015 76 16093 1.11 62 13:56 12.06.2020
1553 Clear 11 1015 76 16093 1.11 62 13:37 12.06.2020
1554 Clear 12 1014 71 16093 2.6 80 13:18 12.06.2020
1555 Clear 13 1014 71 16093 2.6 80 12:39 12.06.2020
1556 Clear 13 1014 71 16093 2.6 80 12:19 12.06.2020
1557 Clear 13 1014 71 16093 2.6 80 12:19 12.06.2020
1558 Clear 14 1014 67 16093 3.1 80 11:44 12.06.2020
1559 Clear 14 1014 67 16093 3.1 80 11:23 12.06.2020
1560 Clear 15 1013 59 14484 2.6 70 10:56 12.06.2020
1561 Clear 15 1013 59 14484 2.6 70 10:38 12.06.2020
1562 Clouds 16 1013 52 16093 2.1 110 10:19 12.06.2020
1563 Clouds 16 1013 52 16093 2.1 110 09:44 12.06.2020
1564 Clear 17 1013 40 16093 3.1 70 09:20 12.06.2020
1565 Clear 18 1013 40 16093 3.1 70 08:41 12.06.2020
1566 Clear 18 1013 40 16093 3.1 70 08:23 12.06.2020
1567 Clear 19 1013 37 16093 4.6 90 07:42 12.06.2020
1568 Clear 19 1013 37 16093 4.6 90 07:24 12.06.2020
1569 Clear 20 1012 37 16093 6.7 70 06:43 12.06.2020
1570 Clear 21 1012 37 16093 6.7 70 06:22 12.06.2020
1571 Clear 22 1012 27 16093 2.1 270 05:49 12.06.2020
1572 Clear 23 1012 25 14484 2.6 210 05:24 12.06.2020
1573 Clear 22 1012 27 16093 1.5 160 03:55 12.06.2020
1574 Clear 22 1013 28 16093 2.1 290 02:43 12.06.2020
1575 Clear 22 1013 28 16093 3.6 210 01:47 12.06.2020
1576 Clear 22 1013 32 16093 2.6 260 01:19 12.06.2020
1577 Clear 21 1013 32 16093 2.6 260 00:39 12.06.2020
1578 Clear 21 1013 32 16093 2.6 260 00:39 12.06.2020
1579 Clear 21 1013 32 16093 2.6 260 00:20 12.06.2020
1580 Clear 21 1014 35 16093 2.1 340 23:57 11.06.2020
1581 Clear 21 1014 35 16093 2.1 340 23:39 11.06.2020
1582 Clear 21 1014 35 16093 2.1 340 23:20 11.06.2020
1583 Clear 21 1014 40 16093 2.41 254 22:55 11.06.2020
1584 Clear 20 1014 40 16093 2.41 254 22:37 11.06.2020
1585 Clear 20 1014 40 16093 2.47 245 22:19 11.06.2020
1586 Clouds 19 1014 48 16093 2.47 245 21:43 11.06.2020
1587 Clear 17 1014 55 16093 2.6 200 21:20 11.06.2020
1588 Clear 17 1014 55 16093 2.6 200 20:57 11.06.2020
1589 Clear 17 1014 55 16093 2.6 200 20:39 11.06.2020
1590 Clear 16 1014 55 16093 2.6 200 20:20 11.06.2020
1591 Clouds 16 1014 63 16093 2.1 220 19:43 11.06.2020
1592 Clouds 15 1014 63 16093 2.1 220 19:22 11.06.2020
1593 Clouds 15 1015 67 16093 1.77 250 18:57 11.06.2020
1594 Clouds 14 1015 67 16093 1.77 250 18:39 11.06.2020
1595 Clouds 13 1015 67 16093 1.94 247 18:19 11.06.2020
1596 Clouds 12 1014 76 16093 2.1 170 17:55 11.06.2020
1597 Clouds 12 1014 76 16093 2.1 170 17:37 11.06.2020
1598 Clouds 12 1014 76 16093 2.1 170 17:18 11.06.2020
1599 Clouds 11 1014 76 16093 1.5 220 16:43 11.06.2020
1600 Clouds 12 1014 76 16093 1.5 220 16:25 11.06.2020
1601 Clouds 11 1013 76 16093 2.6 260 15:58 11.06.2020
1602 Clouds 12 1013 76 16093 2.6 260 15:39 11.06.2020
1603 Clouds 12 1013 76 16093 2.6 260 15:21 11.06.2020
1604 Clear 12 1013 67 16093 4.1 220 14:46 11.06.2020
1605 Clear 12 1013 67 16093 4.1 220 14:21 11.06.2020
1606 Clouds 13 1012 76 16093 1.94 220 13:57 11.06.2020
1607 Clouds 13 1012 76 16093 1.94 220 13:39 11.06.2020
1608 Clouds 13 1012 76 16093 1.68 237 13:20 11.06.2020
1609 Clouds 14 1012 63 16093 4.1 260 12:57 11.06.2020
1610 Clouds 14 1012 63 16093 4.1 260 12:39 11.06.2020
1611 Clouds 14 1012 63 16093 4.1 260 12:19 11.06.2020
1612 Clouds 14 1012 63 16093 5.7 220 11:57 11.06.2020
1613 Clouds 14 1012 63 16093 5.7 220 11:38 11.06.2020
1614 Clouds 15 1012 63 16093 5.7 220 11:20 11.06.2020
1615 Clear 15 1010 59 16093 3.6 220 10:57 11.06.2020
1616 Clear 16 1010 59 16093 3.6 220 10:38 11.06.2020
1617 Clear 16 1010 59 16093 3.6 220 10:18 11.06.2020
1618 Clear 17 1009 48 16093 2.6 260 09:41 11.06.2020
1619 Clear 18 1009 48 16093 2.6 260 09:23 11.06.2020
1620 Clear 19 1008 37 16093 3.6 310 08:44 11.06.2020
1621 Clear 19 1008 37 16093 3.6 310 08:20 11.06.2020
1622 Clouds 20 1007 40 16093 5.7 290 07:42 11.06.2020
1623 Clear 21 1007 31 16093 5.1 300 07:24 11.06.2020
1624 Clear 22 1006 32 12874 2.6 230 06:52 11.06.2020
1625 Clear 23 1006 21 12874 2.6 230 06:28 11.06.2020
1626 Clear 24 1006 20 12874 3.1 240 05:36 11.06.2020
1627 Clear 25 1007 22 12874 2.1 140 03:30 11.06.2020
1628 Clear 24 1007 23 16093 1.73 196 02:52 11.06.2020
1629 Clear 24 1007 23 16093 1.76 169 02:32 11.06.2020
1630 Clear 24 1008 27 14484 1.5 130 01:47 11.06.2020
1631 Clear 24 1008 27 14484 1.5 130 01:24 11.06.2020
1632 Clear 23 1008 27 16093 1.5 150 00:49 11.06.2020
1633 Clear 23 1008 27 16093 1.5 150 00:27 11.06.2020
1634 Clear 23 1008 27 14484 2 146 23:46 10.06.2020
1635 Clear 23 1008 27 14484 2.17 137 23:27 10.06.2020
1636 Clear 22 1008 30 14484 3.1 110 22:56 10.06.2020
1637 Clear 22 1008 30 14484 3.1 110 22:38 10.06.2020
1638 Clear 21 1008 30 14484 3.1 110 22:19 10.06.2020
1639 Clear 21 1008 34 16093 1.5 90 21:56 10.06.2020
1640 Clear 20 1008 34 16093 1.5 90 21:38 10.06.2020
1641 Clear 20 1008 34 16093 1.5 90 21:18 10.06.2020
1642 Clear 18 1009 48 14484 1.94 128 20:56 10.06.2020
1643 Clear 19 1009 48 14484 1.94 128 20:38 10.06.2020
1644 Clear 18 1009 48 14484 1.58 124 20:20 10.06.2020
1645 Clear 16 1009 51 16093 1.58 124 19:41 10.06.2020
1646 Clear 15 1009 58 16093 1.22 122 19:20 10.06.2020
1647 Clear 14 1009 58 16093 1.22 122 18:58 10.06.2020
1648 Clear 14 1009 58 16093 1.22 122 18:58 10.06.2020
1649 Clear 14 1009 58 16093 1.22 122 18:40 10.06.2020
1650 Clear 12 1008 62 16093 1.11 113 18:19 10.06.2020
1651 Clear 12 1008 62 16093 1.11 113 17:56 10.06.2020
1652 Clear 12 1008 62 16093 1.11 113 17:37 10.06.2020
1653 Clear 12 1008 62 16093 1.11 113 17:37 10.06.2020
1654 Clear 12 1008 62 16093 1.1 78 17:19 10.06.2020
1655 Clear 10 1008 76 16093 2.1 40 16:57 10.06.2020
1656 Clear 10 1008 76 16093 2.1 40 16:39 10.06.2020
1657 Clear 10 1008 76 16093 2.1 40 16:19 10.06.2020
1658 Clear 9 1007 81 16093 1.5 120 15:40 10.06.2020
1659 Clear 9 1007 81 16093 1.5 120 15:22 10.06.2020
1660 Clear 9 1007 93 16093 1.5 100 14:56 10.06.2020
1661 Clouds 9 1007 87 16093 1.88 41 14:38 10.06.2020
1662 Clear 10 1007 87 16093 1.56 39 14:20 10.06.2020
1663 Clear 8 1007 87 16093 1.56 39 13:40 10.06.2020
1664 Clear 11 1007 87 16093 1.77 44 13:21 10.06.2020
1665 Clear 9 1006 87 16093 1.77 44 12:45 10.06.2020
1666 Clear 11 1006 87 16093 2.28 49 12:23 10.06.2020
1667 Clear 12 1006 93 16093 2.28 49 11:58 10.06.2020
1668 Clear 12 1006 93 16093 2.28 49 11:40 10.06.2020
1669 Clear 13 1006 93 16093 2.58 57 11:19 10.06.2020
1670 Clear 13 1006 87 16093 1.5 90 10:57 10.06.2020
1671 Clear 13 1006 87 16093 1.5 90 10:39 10.06.2020
1672 Clouds 13 1005 87 16093 2.43 50 10:20 10.06.2020
1673 Clouds 14 1005 87 16093 2.43 50 09:42 10.06.2020
1674 Clouds 14 1005 87 16093 1.82 35 09:23 10.06.2020
1675 Clouds 17 1004 63 16093 1.5 290 08:57 10.06.2020
1676 Clouds 17 1004 63 16093 1.5 290 08:38 10.06.2020
1677 Clouds 17 1004 55 12874 1.5 150 08:20 10.06.2020
1678 Clouds 17 1004 55 12874 1.5 150 07:39 10.06.2020
1679 Clouds 17 1004 55 12874 1.5 150 07:20 10.06.2020
1680 Clouds 18 1004 55 16093 1.5 220 06:44 10.06.2020
1681 Clouds 19 1004 55 16093 1.5 220 06:23 10.06.2020
1682 Clouds 18 1005 59 12874 2.27 5 05:56 10.06.2020
1683 Clouds 18 1004 52 14484 2.6 320 05:26 10.06.2020
1684 Clouds 18 1004 52 14484 2.6 320 04:35 10.06.2020
1685 Rain 18 1005 51 6437 3.1 320 02:57 10.06.2020
1686 Rain 18 1005 55 14484 4.6 30 02:21 10.06.2020
1687 Thunderstorm 21 1004 33 12874 3.1 240 01:37 10.06.2020
1688 Clouds 22 1004 37 14484 2.1 160 00:40 10.06.2020
1689 Clouds 22 1004 37 14484 2.1 160 00:22 10.06.2020
1690 Clear 22 1005 49 14484 1.5 190 23:57 09.06.2020
1691 Clear 21 1005 49 14484 1.5 190 23:38 09.06.2020
1692 Clear 21 1005 49 14484 1.5 190 23:20 09.06.2020
1693 Clouds 19 1006 52 14484 2.1 280 22:56 09.06.2020
1694 Clouds 19 1006 52 14484 2.1 280 22:37 09.06.2020
1695 Clouds 18 1006 52 14484 2.1 280 22:19 09.06.2020
1696 Clouds 16 1006 55 14484 1.5 250 21:56 09.06.2020
1697 Clouds 16 1006 55 14484 1.5 250 21:38 09.06.2020
1698 Clouds 17 1006 55 14484 1.5 250 21:19 09.06.2020
1699 Clouds 15 1006 62 16093 2.1 100 20:56 09.06.2020
1700 Clouds 15 1006 62 16093 2.1 100 20:38 09.06.2020
1701 Clouds 13 1006 76 16093 0.37 198 20:18 09.06.2020
1702 Clouds 13 1006 76 16093 0.37 198 19:56 09.06.2020
1703 Clouds 13 1006 76 16093 0.37 198 19:38 09.06.2020
1704 Clouds 13 1006 76 16093 0.38 157 19:20 09.06.2020
1705 Clouds 12 1006 76 16093 2.6 90 18:45 09.06.2020
1706 Clouds 12 1006 76 16093 2.6 90 18:26 09.06.2020
1707 Clouds 12 1006 76 16093 2.1 60 17:58 09.06.2020
1708 Clouds 12 1006 76 16093 2.1 60 17:40 09.06.2020
1709 Clouds 12 1006 76 16093 2.1 60 17:22 09.06.2020
1710 Clouds 12 1006 71 16093 1.5 70 16:58 09.06.2020
1711 Clouds 12 1006 71 16093 1.5 70 16:39 09.06.2020
1712 Clouds 12 1006 71 16093 1.5 70 16:20 09.06.2020
1713 Clouds 12 1005 76 16093 2.6 60 15:41 09.06.2020
1714 Clouds 12 1005 76 16093 2.6 60 15:23 09.06.2020
1715 Clouds 13 1005 67 16093 1.5 250 14:59 09.06.2020
1716 Clouds 13 1005 67 16093 1.5 250 14:39 09.06.2020
1717 Clouds 13 1005 67 16093 1.5 250 14:19 09.06.2020
1718 Clouds 14 1005 62 16093 2.1 250 13:57 09.06.2020
1719 Clouds 14 1005 62 16093 2.1 250 13:57 09.06.2020
1720 Clouds 14 1005 62 16093 2.1 250 13:38 09.06.2020
1721 Clouds 14 1005 71 16093 0.69 248 13:20 09.06.2020
1722 Clouds 14 1005 71 16093 0.69 248 12:42 09.06.2020
1723 Clouds 14 1005 71 16093 0.83 260 12:21 09.06.2020
1724 Clouds 15 1005 59 16093 5.7 180 11:58 09.06.2020
1725 Clouds 15 1005 59 16093 5.7 180 11:40 09.06.2020
1726 Clouds 15 1005 59 16093 5.7 180 11:40 09.06.2020
1727 Clouds 16 1005 59 16093 5.7 180 11:20 09.06.2020
1728 Clouds 16 1004 48 16093 1.4 261 10:55 09.06.2020
1729 Clouds 16 1004 48 16093 1.4 261 10:55 09.06.2020
1730 Clouds 16 1004 48 16093 1.4 261 10:36 09.06.2020
1731 Clouds 17 1004 48 16093 1.8 247 10:18 09.06.2020
1732 Clouds 17 1004 39 14484 2.1 270 09:41 09.06.2020
1733 Clouds 17 1004 48 16093 1.5 257 09:22 09.06.2020
1734 Clouds 17 1004 42 14484 2.1 240 08:56 09.06.2020
1735 Clouds 17 1004 42 14484 2.1 240 08:37 09.06.2020
1736 Clouds 18 1004 42 14484 2.1 240 08:18 09.06.2020
1737 Clouds 18 1004 40 14484 2.1 280 07:37 09.06.2020
1738 Clouds 18 1004 40 14484 2.1 280 07:18 09.06.2020
1739 Clouds 18 1004 42 14484 2.6 290 06:52 09.06.2020
1740 Clouds 20 1004 42 14484 2.6 290 06:28 09.06.2020
1741 Clouds 21 1004 42 14484 4.1 290 04:57 09.06.2020
1742 Clouds 20 1005 35 12874 7.2 310 02:52 09.06.2020
1743 Clouds 21 1005 32 14484 5.7 30 01:41 09.06.2020
1744 Clouds 22 1005 35 14484 3.1 230 01:19 09.06.2020
1745 Clouds 22 1005 35 14484 3.1 230 00:45 09.06.2020
1746 Clouds 21 1006 42 14484 3.6 210 00:20 09.06.2020
1747 Clouds 21 1006 42 14484 3.6 210 23:54 08.06.2020
1748 Clouds 21 1006 42 14484 3.6 210 23:36 08.06.2020
1749 Clouds 20 1006 42 14484 3.6 210 23:18 08.06.2020
1750 Clear 19 1006 52 12874 3.1 250 22:41 08.06.2020
1751 Clear 19 1006 52 12874 3.1 250 22:21 08.06.2020
1752 Clouds 17 1006 55 16093 0.97 211 21:58 08.06.2020
1753 Clouds 17 1006 55 16093 0.97 211 21:39 08.06.2020
1754 Clouds 17 1006 55 16093 0.95 254 21:21 08.06.2020
1755 Clouds 16 1006 67 16093 0.95 254 20:56 08.06.2020
1756 Clouds 15 1006 67 16093 0.95 254 20:37 08.06.2020
1757 Clouds 15 1006 67 16093 0.93 256 20:19 08.06.2020
1758 Clouds 13 1006 71 16093 0.93 256 19:44 08.06.2020
1759 Clouds 13 1006 66 16093 0.7 274 19:22 08.06.2020
1760 Clouds 13 1006 66 16093 0.7 274 18:58 08.06.2020
1761 Clouds 13 1006 66 16093 0.7 274 18:58 08.06.2020
1762 Clouds 12 1006 66 16093 0.7 274 18:39 08.06.2020
1763 Clouds 12 1007 71 16093 0.26 296 18:18 08.06.2020
1764 Clouds 12 1007 71 16093 0.26 296 17:55 08.06.2020
1765 Clouds 12 1007 71 16093 0.26 296 17:36 08.06.2020
1766 Clouds 12 1007 71 16093 0.31 30 17:18 08.06.2020
1767 Clouds 11 1006 76 16093 2.1 70 16:42 08.06.2020
1768 Clouds 11 1006 76 16093 2.1 70 16:23 08.06.2020
1769 Clouds 11 1006 71 16093 3.1 70 15:45 08.06.2020
1770 Clouds 11 1006 71 16093 3.1 70 15:23 08.06.2020
1771 Clouds 11 1006 66 16093 0.94 15 14:59 08.06.2020
1772 Clouds 12 1006 66 16093 0.94 15 14:41 08.06.2020
1773 Clouds 12 1006 66 16093 1.03 10 14:21 08.06.2020
1774 Clouds 13 1006 62 16093 3.1 250 13:44 08.06.2020
1775 Clouds 13 1006 62 16093 3.1 250 13:26 08.06.2020
1776 Clouds 13 1006 54 16093 3.1 260 12:54 08.06.2020
1777 Clouds 13 1006 54 16093 3.1 260 12:36 08.06.2020
1778 Clouds 13 1006 54 16093 3.1 260 12:18 08.06.2020
1779 Clouds 14 1005 48 16093 2.6 280 11:42 08.06.2020
1780 Clouds 14 1005 48 16093 2.6 280 11:23 08.06.2020
1781 Clouds 16 1005 39 16093 2.6 220 10:59 08.06.2020
1782 Clouds 16 1005 39 16093 2.6 220 10:40 08.06.2020
1783 Clouds 16 1005 39 16093 2.6 220 10:21 08.06.2020
1784 Clouds 17 1005 30 16093 2.6 290 09:58 08.06.2020
1785 Clouds 17 1005 30 16093 2.6 290 09:58 08.06.2020
1786 Clouds 17 1005 30 16093 2.6 290 09:58 08.06.2020
1787 Clouds 17 1005 30 16093 2.6 290 09:40 08.06.2020
1788 Clouds 18 1005 30 16093 2.6 290 09:22 08.06.2020
1789 Clouds 18 1005 26 12874 3.1 260 08:47 08.06.2020
1790 Clouds 18 1005 26 12874 3.1 260 08:47 08.06.2020
1791 Clouds 19 1005 26 12874 3.1 260 08:23 08.06.2020
1792 Rain 18 1004 30 16093 2.1 200 07:46 08.06.2020
1793 Clear 19 1004 26 16093 1.5 120 07:24 08.06.2020
1794 Clear 19 1005 26 14484 2.6 110 06:54 08.06.2020
1795 Clear 20 1005 26 14484 2.6 110 06:35 08.06.2020
1796 Clear 22 1005 24 16093 2.6 130 05:53 08.06.2020
1797 Clear 21 1005 22 14484 1.04 18 04:29 08.06.2020
1798 Clouds 22 1005 22 14484 4.6 340 02:46 08.06.2020
1799 Clouds 22 1005 21 14484 4.6 340 02:21 08.06.2020
1800 Clouds 22 1005 21 16093 1.5 260 01:34 08.06.2020
1801 Clouds 22 1006 24 16093 1.5 0 00:33 08.06.2020
1802 Clear 21 1006 32 16093 0.68 131 23:59 07.06.2020
1803 Clear 21 1006 32 16093 0.68 131 23:37 07.06.2020
1804 Clear 21 1006 32 16093 0.71 129 23:18 07.06.2020
1805 Clear 19 1007 39 16093 0.71 129 22:40 07.06.2020
1806 Clear 19 1007 39 16093 0.7 146 22:20 07.06.2020
1807 -273 0 0 0 0 0 22:00 07.06.2020
1808 Clear 18 1007 48 16093 0.7 146 21:41 07.06.2020
1809 Clear 18 1007 48 16093 0.59 122 21:23 07.06.2020
1810 Clear 16 1008 58 16093 0.59 122 20:57 07.06.2020
1811 Clear 16 1008 58 16093 0.77 80 20:38 07.06.2020
1812 Clear 16 1008 58 16093 0.76 99 20:20 07.06.2020
1813 Clear 14 1008 66 16093 1.5 150 19:56 07.06.2020
1814 Clear 14 1008 66 16093 1.5 150 19:38 07.06.2020
1815 Clear 13 1008 71 16093 2.1 100 19:19 07.06.2020
1816 Clear 13 1008 71 16093 2.1 100 18:55 07.06.2020
1817 Clear 12 1008 71 16093 2.1 100 18:37 07.06.2020
1818 Clear 11 1008 76 16093 2.6 50 18:18 07.06.2020
1819 Clear 10 1008 76 16093 2.6 50 17:55 07.06.2020
1820 Clear 10 1008 76 16093 2.6 50 17:37 07.06.2020
1821 Clear 10 1008 76 16093 2.6 50 17:19 07.06.2020
1822 Clear 9 1008 75 16093 2.1 140 16:42 07.06.2020
1823 Clear 9 1008 75 16093 2.1 140 16:21 07.06.2020
1824 Clear 9 1008 75 16093 2.1 140 16:21 07.06.2020
1825 Clear 8 1008 87 16093 1.71 41 15:40 07.06.2020
1826 Clear 8 1008 87 16093 2.03 36 15:21 07.06.2020
1827 Clear 7 1008 93 16093 2.03 36 14:40 07.06.2020
1828 Clear 8 1008 93 16093 2.15 34 14:21 07.06.2020
1829 Clear 9 1008 81 16093 2.15 34 13:48 07.06.2020
1830 Clear 9 1008 81 16093 2.22 39 13:21 07.06.2020
1831 Clear 9 1008 87 16093 2.22 39 12:55 07.06.2020
1832 Clear 9 1008 87 16093 2.22 39 12:37 07.06.2020
1833 Clear 11 1007 71 16093 2.31 43 12:18 07.06.2020
1834 Clear 11 1007 71 16093 2.31 43 11:55 07.06.2020
1835 Clear 11 1007 71 16093 2.31 43 11:36 07.06.2020
1836 Clear 11 1007 71 16093 2.75 48 11:18 07.06.2020
1837 Clear 11 1007 71 16093 2.75 48 10:44 07.06.2020
1838 Clear 12 1007 71 16093 2.92 49 10:20 07.06.2020
1839 Clouds 12 1007 76 16093 2.92 49 09:58 07.06.2020
1840 Clouds 13 1007 76 16093 2.92 49 09:39 07.06.2020
1841 Clear 14 1007 58 16093 1.5 50 09:20 07.06.2020
1842 Clear 16 1007 55 16093 3.35 49 08:57 07.06.2020
1843 Clear 16 1007 55 16093 3.35 49 08:39 07.06.2020
1844 Clear 16 1007 55 16093 2.48 48 08:20 07.06.2020
1845 Clear 16 1007 42 14484 1.97 64 07:32 07.06.2020
1846 Clear 16 1008 48 16093 1.5 60 06:52 07.06.2020
1847 Rain 16 1008 59 16093 2.1 350 05:52 07.06.2020
1848 Rain 16 1008 39 14484 7.2 70 04:21 07.06.2020
1849 Clouds 20 1007 24 16093 2.6 130 03:33 07.06.2020
1850 Clouds 21 1007 22 16093 2.6 130 02:18 07.06.2020
1851 Clouds 20 1008 30 16093 3.6 120 01:25 07.06.2020
1852 Clouds 19 1008 36 16093 3.6 50 00:47 07.06.2020
1853 Clouds 19 1008 36 16093 3.6 50 00:20 07.06.2020
1854 Clouds 21 1008 37 12874 5.1 360 23:58 06.06.2020
1855 Clouds 21 1008 32 16093 1.2 35 23:37 06.06.2020
1856 Clouds 21 1008 32 16093 1.2 35 23:37 06.06.2020
1857 Clouds 21 1008 32 16093 0.99 63 23:19 06.06.2020
1858 Clear 20 1009 39 14484 0.99 63 22:56 06.06.2020
1859 Clear 19 1009 39 14484 0.99 63 22:38 06.06.2020
1860 Clear 19 1009 39 14484 0.94 87 22:19 06.06.2020
1861 Clear 19 1009 45 16093 1.5 140 21:47 06.06.2020
1862 Clear 18 1009 45 16093 1.5 140 21:22 06.06.2020
1863 Clear 17 1010 51 16093 1.94 72 20:58 06.06.2020
1864 Clear 17 1010 51 16093 1.94 72 20:40 06.06.2020
1865 Clear 16 1010 51 16093 1.98 78 20:19 06.06.2020
1866 Clear 15 1010 62 14484 1.98 78 19:57 06.06.2020
1867 Clear 15 1010 62 14484 1.98 78 19:38 06.06.2020
1868 Clear 14 1010 62 14484 1.74 77 19:20 06.06.2020
1869 Clear 13 1011 71 16093 1.74 77 18:55 06.06.2020
1870 Clear 13 1011 71 16093 1.74 77 18:36 06.06.2020
1871 Clear 12 1011 71 16093 1.34 58 18:18 06.06.2020
1872 Rain 12 1010 66 16093 2.1 50 17:41 06.06.2020
1873 Rain 11 1010 66 16093 2.1 50 17:19 06.06.2020
1874 Clouds 10 1010 81 16093 1.5 100 16:55 06.06.2020
1875 Clouds 10 1010 81 16093 1.5 100 16:37 06.06.2020
1876 Clear 10 1011 87 16093 1.6 26 16:19 06.06.2020
1877 Clear 10 1011 87 16093 1.6 26 15:44 06.06.2020
1878 Clear 10 1011 87 16093 1.8 27 15:20 06.06.2020
1879 Clouds 10 1011 81 16093 2.1 120 14:56 06.06.2020
1880 Clouds 10 1011 81 16093 2.1 120 14:37 06.06.2020
1881 Clouds 11 1011 81 16093 2.1 120 14:19 06.06.2020
1882 Clouds 12 1011 62 16093 1.5 290 13:46 06.06.2020
1883 Clouds 12 1011 54 16093 1.5 240 13:19 06.06.2020
1884 Clouds 12 1011 54 16093 1.5 240 12:56 06.06.2020
1885 Clouds 12 1011 54 16093 1.5 240 12:38 06.06.2020
1886 Clouds 13 1011 54 16093 1.5 240 12:18 06.06.2020
1887 Clouds 13 1010 44 16093 1.5 160 11:40 06.06.2020
1888 Clouds 13 1010 44 16093 1.5 160 11:21 06.06.2020
1889 Clouds 13 1010 44 16093 1.5 160 11:21 06.06.2020
1890 Clouds 13 1010 44 16093 1.5 160 11:21 06.06.2020
1891 Clear 13 1010 47 16093 4.1 360 10:59 06.06.2020
1892 Clear 14 1010 47 16093 4.1 360 10:40 06.06.2020
1893 Clear 13 1010 47 16093 4.1 360 10:22 06.06.2020
1894 Clouds 14 1010 39 16093 3.6 330 09:59 06.06.2020
1895 Clouds 14 1010 39 16093 3.6 330 09:41 06.06.2020
1896 Clouds 14 1010 44 16093 5.7 10 09:22 06.06.2020
1897 Clouds 16 1009 39 14484 2.6 40 08:45 06.06.2020
1898 Clouds 16 1009 39 14484 2.6 40 08:24 06.06.2020
1899 Clouds 16 1009 39 14484 2.6 40 08:24 06.06.2020
1900 Clouds 16 1009 39 16093 2.1 80 07:56 06.06.2020
1901 Clouds 16 1009 39 16093 2.1 80 07:37 06.06.2020
1902 Clouds 18 1009 32 14484 2.84 22 07:19 06.06.2020
1903 Clouds 18 1009 30 14484 2.6 80 06:43 06.06.2020
1904 Clouds 18 1009 30 14484 2.6 80 06:24 06.06.2020
1905 Clouds 19 1009 34 14484 2.1 40 05:32 06.06.2020
1906 Clouds 19 1010 28 14484 3.6 40 04:50 06.06.2020
1907 Clouds 20 1010 28 14484 3.1 360 03:29 06.06.2020
1908 Clear 21 1011 26 16093 3.1 320 02:26 06.06.2020
1909 Clouds 19 1011 36 16093 3.6 160 01:23 06.06.2020
1910 Clouds 19 1012 34 14484 5.7 110 00:57 06.06.2020
1911 Clouds 19 1012 34 14484 5.7 110 00:39 06.06.2020
1912 Clouds 19 1012 34 14484 5.7 110 00:20 06.06.2020
1913 Clear 20 1011 32 16093 2.6 190 23:40 05.06.2020
1914 Clear 20 1011 32 16093 2.6 190 23:20 05.06.2020
1915 Clear 20 1011 32 16093 2.6 190 23:20 05.06.2020
1916 Clear 20 1012 42 16093 2.1 240 22:56 05.06.2020
1917 Clear 20 1012 42 16093 2.1 240 22:38 05.06.2020
1918 Clear 19 1012 42 16093 2.1 240 22:20 05.06.2020
1919 Clear 18 1013 51 16093 0.87 159 21:43 05.06.2020
1920 Clear 17 1013 51 16093 0.61 207 21:23 05.06.2020
1921 Clear 16 1013 62 16093 0.83 218 20:59 05.06.2020
1922 Clear 16 1013 62 16093 0.83 218 20:41 05.06.2020
1923 Clear 15 1013 62 16093 0.93 220 20:22 05.06.2020
1924 Clear 14 1014 62 16093 0.93 220 19:44 05.06.2020
1925 Clear 13 1014 62 16093 0.76 207 19:24 05.06.2020
1926 Clear 12 1014 66 16093 0.76 207 18:59 05.06.2020
1927 Clear 12 1014 66 16093 0.76 207 18:39 05.06.2020
1928 Clear 12 1014 66 16093 0.46 197 18:20 05.06.2020
1929 Clear 11 1014 71 16093 2.6 50 17:58 05.06.2020
1930 -273 0 0 0 0 0 17:58 05.06.2020
1931 Clear 11 1014 71 16093 2.6 50 17:40 05.06.2020
1932 Clear 10 1014 71 16093 2.6 50 17:19 05.06.2020
1933 Clear 9 1014 81 16093 0.29 221 16:41 05.06.2020
1934 Clear 8 1014 81 16093 0.61 41 16:23 05.06.2020
1935 Clouds 8 1014 81 16093 1.5 80 15:57 05.06.2020
1936 Clouds 8 1014 81 16093 1.5 80 15:38 05.06.2020
1937 Clouds 8 1014 81 16093 1.5 80 15:20 05.06.2020
1938 Clouds 8 1014 75 16093 1.5 40 14:56 05.06.2020
1939 Clouds 8 1014 75 16093 1.5 40 14:38 05.06.2020
1940 Clouds 9 1014 75 16093 1.5 40 14:19 05.06.2020
1941 Clouds 9 1013 76 16093 3.1 40 13:43 05.06.2020
1942 Clouds 9 1013 76 16093 3.1 40 13:24 05.06.2020
1943 Clouds 10 1013 71 16093 2.6 60 12:55 05.06.2020
1944 Clouds 10 1013 71 16093 2.6 60 12:37 05.06.2020
1945 Clouds 11 1013 71 16093 2.6 60 12:18 05.06.2020
1946 Clouds 11 1012 71 16093 1.5 70 11:42 05.06.2020
1947 Clouds 12 1012 71 16093 1.5 70 11:22 05.06.2020
1948 Clouds 12 1012 66 16093 1.45 65 10:56 05.06.2020
1949 Clouds 13 1012 66 16093 1.45 65 10:38 05.06.2020
1950 Clouds 13 1012 66 16093 1.99 73 10:19 05.06.2020
1951 Clouds 14 1012 48 16093 2.1 190 09:55 05.06.2020
1952 Rain 14 1012 51 16093 2.1 190 09:37 05.06.2020
1953 Rain 15 1012 51 16093 2.1 190 09:18 05.06.2020
1954 Clouds 15 1011 39 16093 2.1 240 08:55 05.06.2020
1955 Clouds 15 1011 42 16093 2.6 210 08:36 05.06.2020
1956 Clouds 16 1011 39 16093 2.1 240 08:18 05.06.2020
1957 Clouds 17 1011 39 16093 0.7 46 07:42 05.06.2020
1958 Clouds 18 1011 35 16093 2.1 350 07:20 05.06.2020
1959 Clouds 20 1011 21 12874 4.1 50 05:58 05.06.2020
1960 Clouds 20 1011 21 12874 4.1 50 05:19 05.06.2020
1961 Clouds 20 1011 28 14484 3.1 230 03:54 05.06.2020
1962 Clouds 20 1011 30 14484 4.6 250 02:53 05.06.2020
1963 Clouds 20 1011 30 14484 4.6 250 02:24 05.06.2020
1964 Clear 19 1012 28 14484 3.6 210 01:55 05.06.2020
1965 Clear 19 1012 28 14484 3.6 210 01:26 05.06.2020
1966 Clouds 19 1012 52 12874 3.1 240 00:42 05.06.2020
1967 Clouds 19 1012 52 12874 3.1 240 00:20 05.06.2020
1968 Clouds 18 1013 59 16093 0.44 342 23:46 04.06.2020
1969 Clouds 17 1013 59 16093 0.32 111 23:27 04.06.2020
1970 Clear 15 1014 71 14484 0.32 111 22:55 04.06.2020
1971 Clear 16 1014 71 14484 0.32 111 22:36 04.06.2020
1972 Clear 15 1014 71 14484 0.8 90 22:18 04.06.2020
1973 Clouds 13 1014 82 14484 2.1 140 21:56 04.06.2020
1974 Clouds 13 1014 82 14484 2.1 140 21:36 04.06.2020
1975 Clouds 13 1014 82 14484 2.1 140 21:18 04.06.2020
1976 Clouds 12 1014 87 14484 0.44 75 20:40 04.06.2020
1977 Clouds 11 1014 87 14484 0.16 275 20:21 04.06.2020
1978 Clouds 10 1014 93 16093 1.5 50 19:59 04.06.2020
1979 Clouds 10 1014 93 16093 1.5 50 19:39 04.06.2020
1980 Clouds 10 1014 93 14484 2.1 70 19:21 04.06.2020
1981 Clouds 9 1014 93 14484 2.1 50 18:56 04.06.2020
1982 Clouds 9 1014 93 14484 2.1 50 18:37 04.06.2020
1983 Clouds 9 1014 93 14484 2.1 50 18:19 04.06.2020
1984 Mist 8 1014 93 8047 0.2 288 17:42 04.06.2020
1985 Clouds 8 1014 100 16093 0.21 295 17:21 04.06.2020
1986 Clouds 8 1014 100 16093 0.21 295 16:55 04.06.2020
1987 Clouds 8 1014 100 16093 0.21 295 16:37 04.06.2020
1988 Clouds 8 1014 100 16093 0.08 53 16:18 04.06.2020
1989 Clouds 7 1014 100 16093 2.6 60 15:41 04.06.2020
1990 Clouds 7 1014 100 16093 2.6 60 15:22 04.06.2020
1991 Clouds 7 1014 100 16093 2.6 60 14:39 04.06.2020
1992 Clouds 7 1014 100 16093 2.6 60 14:20 04.06.2020
1993 Clear 7 1014 100 16093 0.36 92 13:56 04.06.2020
1994 Clear 7 1014 100 16093 0.36 92 13:38 04.06.2020
1995 Clouds 8 1013 93 16093 2.1 200 13:19 04.06.2020
1996 Clouds 8 1013 93 16093 2.1 200 12:55 04.06.2020
1997 Clouds 8 1013 93 16093 2.1 200 12:36 04.06.2020
1998 Clouds 8 1013 93 16093 2.1 200 12:18 04.06.2020
1999 Clouds 9 1013 87 11265 3.1 230 11:40 04.06.2020
2000 Clouds 10 1013 87 11265 3.1 230 11:20 04.06.2020
2001 Clouds 11 1013 76 16093 3.1 200 10:59 04.06.2020
2002 Clouds 11 1013 76 16093 3.1 200 10:38 04.06.2020
2003 Clouds 11 1013 76 16093 3.1 200 10:38 04.06.2020
2004 Clouds 11 1013 76 16093 3.1 200 10:20 04.06.2020
2005 Clouds 13 1013 54 16093 2.1 40 09:46 04.06.2020
2006 Rain 12 1012 71 16093 3.1 180 09:28 04.06.2020
2007 Clouds 13 1012 58 16093 3.1 240 08:51 04.06.2020
2008 Clouds 13 1012 58 16093 3.1 240 08:31 04.06.2020
2009 Clouds 14 1011 67 16093 2.1 250 07:59 04.06.2020
2010 Clouds 14 1011 67 16093 2.1 250 07:31 04.06.2020
2011 Clouds 14 1011 59 16093 3.6 200 06:45 04.06.2020
2012 Clouds 14 1011 59 16093 3.6 200 06:45 04.06.2020
2013 Clouds 14 1011 59 16093 3.6 200 06:26 04.06.2020
2014 Clear 15 1011 62 16093 2.1 250 05:51 04.06.2020
2015 Clear 14 1011 62 16093 2.1 250 05:31 04.06.2020
2016 Clouds 15 1011 59 16093 3.1 170 03:31 04.06.2020
2017 Clouds 15 1011 59 16093 1.5 150 02:19 04.06.2020
2018 Clouds 14 1011 71 16093 2.7 159 01:20 04.06.2020
2019 Clouds 14 1011 71 16093 2.7 159 00:53 04.06.2020
2020 Clouds 14 1011 82 16093 4.1 170 23:58 03.06.2020
2021 Clouds 13 1011 82 16093 4.1 170 23:36 03.06.2020
2022 Clouds 13 1011 82 16093 4.1 170 23:18 03.06.2020
2023 Clouds 12 1011 81 16093 2.6 180 22:40 03.06.2020
2024 Clouds 12 1011 81 16093 2.6 180 22:19 03.06.2020
2025 Clouds 12 1011 81 16093 2.6 180 22:19 03.06.2020
2026 Clouds 12 1010 87 16093 3.1 190 21:59 03.06.2020
2027 Clouds 12 1010 87 16093 4.6 210 21:41 03.06.2020
2028 Clouds 12 1010 87 16093 4.6 210 21:22 03.06.2020
2029 Rain 11 1010 93 8047 3.1 200 20:58 03.06.2020
2030 Rain 11 1010 93 8047 3.1 200 20:40 03.06.2020
2031 Rain 11 1010 93 8047 3.1 200 20:20 03.06.2020
2032 Rain 11 1010 93 14484 4.1 220 19:57 03.06.2020
2033 Clouds 11 1009 87 16093 2.6 190 19:38 03.06.2020
2034 Clouds 11 1009 93 16093 2.1 180 19:19 03.06.2020
2035 Clouds 11 1009 93 16093 2.1 180 18:56 03.06.2020
2036 Clouds 11 1009 100 16093 2.1 190 18:38 03.06.2020
2037 Clouds 11 1009 93 14484 0.96 188 18:18 03.06.2020
2038 Rain 10 1008 93 14484 0.96 188 17:42 03.06.2020
2039 Rain 10 1008 93 14484 0.91 162 17:22 03.06.2020
2040 Rain 10 1008 93 14484 0.91 162 17:22 03.06.2020
2041 Rain 10 1008 93 16093 2.1 70 16:56 03.06.2020
2042 Rain 10 1008 93 14484 1.5 60 16:38 03.06.2020
2043 Rain 10 1008 93 14484 1.5 60 16:38 03.06.2020
2044 Rain 10 1008 93 14484 1.5 60 16:19 03.06.2020
2045 Rain 10 1008 93 14484 1.5 60 16:19 03.06.2020
2046 Rain 10 1007 93 14484 2.1 70 15:41 03.06.2020
2047 Clouds 10 1007 93 16093 1.5 110 15:21 03.06.2020
2048 Clouds 9 1007 93 16093 1.5 60 14:59 03.06.2020
2049 Clouds 10 1007 93 16093 1.5 60 14:40 03.06.2020
2050 Clouds 10 1007 93 16093 1.5 60 14:21 03.06.2020
2051 Rain 10 1006 87 11265 1.07 39 13:39 03.06.2020
2052 Rain 10 1005 87 14484 1.5 120 13:20 03.06.2020
2053 Rain 10 1005 87 14484 1.5 120 12:43 03.06.2020
2054 Rain 10 1005 87 14484 1.5 120 12:23 03.06.2020
2055 Clouds 10 1005 87 16093 1.5 60 11:57 03.06.2020
2056 Clouds 11 1005 87 16093 1.5 60 11:39 03.06.2020
2057 Clouds 11 1005 87 16093 1.5 60 11:21 03.06.2020
2058 Clouds 11 1004 81 16093 2.1 60 10:42 03.06.2020
2059 Clouds 11 1004 81 16093 2.1 60 10:24 03.06.2020
2060 Clouds 12 1004 76 16093 2.1 60 09:45 03.06.2020
2061 Clouds 12 1004 76 16093 2.1 60 09:21 03.06.2020
2062 Clouds 13 1003 71 16093 2.6 40 08:59 03.06.2020
2063 Clouds 13 1003 71 16093 2.6 40 08:40 03.06.2020
2064 Clouds 13 1003 71 16093 2.6 40 08:19 03.06.2020
2065 Clouds 14 1003 59 16093 4.6 80 07:43 03.06.2020
2066 Clouds 15 1003 63 16093 0.94 130 07:20 03.06.2020
2067 Clouds 15 1003 63 16093 0.94 130 06:54 03.06.2020
2068 Clouds 15 1003 63 16093 1.23 147 06:32 03.06.2020
2069 Clouds 15 1002 62 16093 3.1 140 05:47 03.06.2020
2070 Clouds 16 1002 51 16093 2.14 148 04:59 03.06.2020
2071 Clouds 17 1002 55 16093 2.84 143 03:51 03.06.2020
2072 Rain 16 1002 55 16093 2.78 145 03:21 03.06.2020
2073 Rain 16 1002 67 9656 4.6 50 02:23 03.06.2020
2074 Rain 16 1001 71 14484 5.1 360 00:47 03.06.2020
2075 Rain 17 1001 71 14484 5.1 360 00:25 03.06.2020
2076 Rain 17 1001 71 2816 3.6 340 23:52 02.06.2020
2077 Rain 17 1001 71 2816 3.6 340 23:52 02.06.2020
2078 Rain 17 1000 48 12874 4.1 20 23:28 02.06.2020
2079 Clear 18 1000 48 14484 1.5 80 22:58 02.06.2020
2080 Clear 18 1000 48 14484 1.5 80 22:39 02.06.2020
2081 Clear 17 1000 48 14484 1.5 80 22:19 02.06.2020
2082 Clear 17 1000 48 14484 1.5 80 22:19 02.06.2020
2083 Clear 17 1000 55 16093 2.6 120 21:56 02.06.2020
2084 Clear 17 1000 55 16093 2.6 120 21:38 02.06.2020
2085 Clear 16 1000 55 16093 2.6 120 21:19 02.06.2020
2086 Clear 15 1000 62 14484 1.5 130 20:58 02.06.2020
2087 Clear 15 1000 62 14484 1.5 130 20:58 02.06.2020
2088 Clear 15 1000 62 14484 1.5 130 20:39 02.06.2020
2089 Clear 14 1000 62 14484 1.5 130 20:20 02.06.2020
2090 Clear 14 1001 71 16093 2.16 82 19:44 02.06.2020
2091 Clear 13 1001 71 16093 2.02 72 19:25 02.06.2020
2092 Clear 12 1000 81 16093 2.02 72 18:58 02.06.2020
2093 Clear 12 1000 81 16093 2.02 72 18:39 02.06.2020
2094 Clear 11 1000 81 16093 1.64 63 18:20 02.06.2020
2095 Clear 10 1000 87 16093 1.5 100 17:55 02.06.2020
2096 Clear 10 1000 87 16093 1.5 100 17:37 02.06.2020
2097 Clear 10 1000 87 16093 1.5 100 17:37 02.06.2020
2098 Clear 10 1000 87 16093 1.5 100 17:18 02.06.2020
2099 Clear 9 1000 100 16093 1.5 40 16:54 02.06.2020
2100 Clear 8 1000 100 16093 1.5 40 16:36 02.06.2020
2101 Clear 8 1000 100 16093 1.5 40 16:18 02.06.2020
2102 Clear 8 1000 93 16093 1.66 41 15:40 02.06.2020
2103 Clear 8 1000 93 16093 1.6 39 15:20 02.06.2020
2104 Mist 8 1000 100 4828 1.6 39 14:46 02.06.2020
2105 Mist 8 1000 100 8047 1.55 42 14:27 02.06.2020
2106 Clouds 9 1000 93 16093 1.43 45 13:55 02.06.2020
2107 Clouds 9 1000 93 16093 1.43 45 13:36 02.06.2020
2108 Clouds 9 1000 93 16093 1.18 56 13:18 02.06.2020
2109 Clouds 10 1000 100 16093 2.1 30 12:55 02.06.2020
2110 Clouds 10 1000 100 16093 2.1 30 12:37 02.06.2020
2111 Clouds 10 1000 100 16093 2.1 30 12:18 02.06.2020
2112 Mist 10 1000 100 8047 0.93 84 11:41 02.06.2020
2113 Mist 10 1000 100 8047 0.92 84 11:22 02.06.2020
2114 Rain 11 999 93 16093 0.92 84 10:55 02.06.2020
2115 Rain 11 999 93 16093 0.92 84 10:37 02.06.2020
2116 Rain 11 999 93 16093 0.46 75 10:19 02.06.2020
2117 Rain 12 1000 87 16093 2.1 300 09:42 02.06.2020
2118 Rain 13 1000 87 16093 2.1 300 09:21 02.06.2020
2119 Rain 13 1000 82 14484 0.4 129 08:53 02.06.2020
2120 Rain 14 999 72 14484 2.6 100 08:28 02.06.2020
2121 Clouds 15 999 72 16093 2.6 100 07:58 02.06.2020
2122 Clouds 15 999 59 16093 3.1 150 07:33 02.06.2020
2123 Smoke 15 998 48 16093 1.7 157 06:59 02.06.2020
2124 Smoke 16 998 48 16093 1.7 157 06:37 02.06.2020
2125 Clouds 17 999 51 16093 2.1 190 05:37 02.06.2020
2126 Smoke 17 999 51 8047 2.1 190 04:20 02.06.2020
2127 Rain 18 998 59 12874 4.1 160 02:37 02.06.2020
2128 Rain 20 998 40 14484 2.1 110 01:53 02.06.2020
2129 Clouds 20 999 45 16093 3.1 200 00:46 02.06.2020
2130 Clouds 20 999 45 16093 3.1 200 00:20 02.06.2020
2131 Clouds 19 999 45 16093 1.52 72 23:39 01.06.2020
2132 Clouds 19 999 45 16093 1.34 100 23:19 01.06.2020
2133 Clouds 20 1000 48 16093 3.1 280 22:56 01.06.2020
2134 Clouds 19 1000 48 16093 3.1 280 22:38 01.06.2020
2135 Clouds 19 1000 48 16093 3.1 280 22:19 01.06.2020
2136 Clouds 19 1000 48 16093 3.1 280 22:19 01.06.2020
2137 Clouds 18 1000 55 16093 1.5 240 21:42 01.06.2020
2138 Clouds 17 1000 55 16093 1.5 240 21:21 01.06.2020
2139 Clouds 17 1000 59 16093 1.51 120 20:59 01.06.2020
2140 Clear 17 999 66 0 0.45 194 20:41 01.06.2020
2141 Clouds 16 1000 71 16093 2.1 50 20:20 01.06.2020
2142 Clouds 15 1000 71 16093 2.1 50 19:58 01.06.2020
2143 Clouds 15 1000 71 16093 2.1 50 19:39 01.06.2020
2144 Clouds 14 1000 81 16093 1.5 40 19:20 01.06.2020
2145 Clouds 13 1000 81 16093 1.5 40 18:57 01.06.2020
2146 Clouds 12 1000 81 16093 1.5 40 18:38 01.06.2020
2147 Clouds 12 1000 81 16093 1.5 40 18:19 01.06.2020
2148 Clouds 11 1000 76 16093 1.5 40 17:41 01.06.2020
2149 Clouds 11 1002 76 11265 1.18 46 17:21 01.06.2020
2150 Clouds 11 1002 76 11265 1.18 46 16:58 01.06.2020
2151 Clouds 11 1002 76 11265 1.18 46 16:39 01.06.2020
2152 Clouds 10 1000 87 16093 2.1 70 16:19 01.06.2020
2153 Clouds 10 1000 87 16093 2.1 70 15:54 01.06.2020
2154 Clouds 10 1000 87 16093 2.1 70 15:36 01.06.2020
2155 Clouds 10 1000 87 16093 2.1 70 15:18 01.06.2020
2156 Clouds 9 1000 93 16093 1.5 30 14:41 01.06.2020
2157 Clouds 10 1000 93 16093 1.5 30 14:23 01.06.2020
2158 Clouds 10 1000 93 16093 1.88 33 13:58 01.06.2020
2159 Clouds 10 1000 93 16093 1.88 33 13:39 01.06.2020
2160 Clouds 11 1000 93 16093 2.3 31 13:20 01.06.2020
2161 Clouds 11 1000 87 16093 2.3 31 12:58 01.06.2020
2162 Clouds 11 1000 87 16093 2.3 31 12:39 01.06.2020
2163 Clouds 12 1000 87 16093 2.68 41 12:20 01.06.2020
2164 Clouds 12 999 87 16093 2.68 41 11:42 01.06.2020
2165 Clouds 12 999 87 16093 3.67 44 11:23 01.06.2020
2166 Clouds 12 999 87 16093 3.67 44 10:59 01.06.2020
2167 Clouds 13 999 87 16093 3.67 44 10:39 01.06.2020
2168 Clouds 13 999 87 16093 3.69 43 10:20 01.06.2020
2169 Clouds 13 999 77 16093 3.69 43 09:57 01.06.2020
2170 Clouds 13 999 77 16093 3.69 43 09:39 01.06.2020
2171 Clouds 15 1001 67 11265 4.8 47 09:20 01.06.2020
2172 Rain 16 999 72 16093 4.8 47 08:50 01.06.2020
2173 Rain 16 999 72 16093 3.53 46 08:25 01.06.2020
2174 Rain 16 1000 72 16093 3.53 46 07:45 01.06.2020
2175 Rain 16 1000 72 16093 3.62 56 07:27 01.06.2020
2176 Rain 16 999 67 16093 2.6 50 06:58 01.06.2020
2177 Rain 16 999 67 16093 2.6 50 06:24 01.06.2020
2178 Rain 15 1000 76 16093 3.1 0 05:53 01.06.2020
2179 Rain 14 1000 71 9656 7.2 170 04:25 01.06.2020
2180 Thunderstorm 15 999 59 11265 9.8 170 03:47 01.06.2020
2181 Rain 19 999 48 11265 4.1 230 03:24 01.06.2020
2182 Rain 21 999 35 16093 4.6 120 02:19 01.06.2020
2183 Rain 21 1000 48 12874 4.99 102 01:34 01.06.2020
2184 Clear 23 999 27 16093 2.6 40 00:58 01.06.2020
2185 Clear 23 999 27 16093 2.6 40 00:39 01.06.2020
2186 Clear 23 999 27 16093 2.6 40 00:21 01.06.2020
2187 Clear 23 999 27 16093 2.6 40 00:21 01.06.2020
2188 Clear 23 1000 27 16093 2.6 140 23:56 31.05.2020
2189 Clear 23 1000 27 16093 2.6 140 23:38 31.05.2020
2190 Clear 24 1000 27 16093 2.6 140 23:20 31.05.2020
2191 Clear 23 1001 31 16093 4.6 90 22:45 31.05.2020
2192 Clear 23 1001 31 16093 4.6 90 22:27 31.05.2020
2193 Clear 22 1001 33 16093 3.6 90 21:59 31.05.2020
2194 Clear 22 1001 33 16093 3.6 90 21:41 31.05.2020
2195 Clear 21 1001 33 16093 3.6 90 21:23 31.05.2020
2196 Clear 20 1002 34 16093 3.6 60 20:57 31.05.2020
2197 Clear 20 1002 34 16093 3.6 60 20:57 31.05.2020
2198 Clear 19 1002 34 16093 3.6 60 20:38 31.05.2020
2199 Clear 18 1002 42 16093 2.6 100 20:19 31.05.2020
2200 Clear 18 1002 42 16093 2.6 100 19:55 31.05.2020
2201 Clear 18 1002 42 16093 2.6 100 19:36 31.05.2020
2202 Clouds 17 1003 51 16093 1.5 60 19:18 31.05.2020
2203 Clouds 16 1003 51 16093 1.5 60 18:43 31.05.2020
2204 Clouds 16 1003 51 16093 1.5 60 18:25 31.05.2020
2205 Clouds 14 1003 50 16093 3.11 73 17:46 31.05.2020
2206 Clouds 14 1003 50 16093 3.51 64 17:25 31.05.2020
2207 Clouds 13 1003 50 16093 3.1 50 16:59 31.05.2020
2208 Clouds 13 1003 50 16093 3.1 50 16:40 31.05.2020
2209 Clouds 13 1003 44 16093 3.08 57 16:21 31.05.2020
2210 Clouds 13 1003 44 16093 3.08 57 15:40 31.05.2020
2211 Clouds 13 1004 47 16093 2.6 50 15:21 31.05.2020
2212 Clouds 12 1004 47 16093 2.6 50 14:47 31.05.2020
2213 Clouds 13 1004 47 16093 2.6 50 14:23 31.05.2020
2214 Clear 13 1004 66 16093 3.6 110 13:57 31.05.2020
2215 Clear 13 1004 66 16093 3.6 110 13:38 31.05.2020
2216 Clear 13 1004 66 16093 3.6 110 13:20 31.05.2020
2217 Clouds 14 1003 38 16093 2.6 70 12:58 31.05.2020
2218 Clouds 15 1003 38 16093 2.6 70 12:39 31.05.2020
2219 Clouds 15 1003 38 16093 2.6 70 12:21 31.05.2020
2220 Clouds 14 1003 62 16093 2.1 20 11:49 31.05.2020
2221 Clouds 15 1003 62 16093 2.1 20 11:24 31.05.2020
2222 Clouds 15 1004 51 16093 1.5 90 10:57 31.05.2020
2223 Clouds 16 1004 51 16093 1.5 90 10:39 31.05.2020
2224 Clouds 16 1004 51 16093 1.5 90 10:21 31.05.2020
2225 Clouds 17 1003 37 16093 3.1 170 09:42 31.05.2020
2226 Clouds 18 1004 37 14484 2.1 360 09:23 31.05.2020
2227 Clouds 19 1004 37 14484 1.5 20 08:59 31.05.2020
2228 Clouds 19 1003 28 14484 3.1 40 08:40 31.05.2020
2229 Clouds 20 1003 28 14484 3.1 40 08:21 31.05.2020
2230 Clear 20 1003 24 14484 3.6 40 07:46 31.05.2020
2231 Clear 21 1003 24 14484 3.6 40 07:21 31.05.2020
2232 Clouds 21 1003 20 14484 4.1 40 06:54 31.05.2020
2233 Clouds 22 1003 20 14484 4.1 40 06:34 31.05.2020
2234 Clouds 22 1004 27 16093 5.7 50 05:46 31.05.2020
2235 Clouds 22 1004 26 16093 5.7 50 05:27 31.05.2020
2236 Clouds 23 1004 19 16093 4.6 90 03:56 31.05.2020
2237 Clouds 24 1005 26 14484 7.2 70 02:59 31.05.2020
2238 Clouds 24 1005 26 14484 7.2 70 02:33 31.05.2020
2239 Clouds 24 1005 25 14484 4.6 90 01:39 31.05.2020
2240 Clouds 24 1006 24 14484 4.6 80 00:33 31.05.2020
2241 Clouds 24 1007 20 16093 5.1 80 23:59 30.05.2020
2242 Clouds 24 1007 20 16093 5.1 80 23:41 30.05.2020
2243 Clouds 24 1007 20 16093 5.1 80 23:23 30.05.2020
2244 Clouds 23 1007 22 14484 6.2 100 22:42 30.05.2020
2245 Clouds 23 1007 22 14484 6.2 100 22:23 30.05.2020
2246 Clouds 23 1008 23 16093 5.1 60 21:58 30.05.2020
2247 Clouds 23 1008 23 16093 5.1 60 21:58 30.05.2020
2248 Clouds 22 1008 23 16093 5.1 60 21:39 30.05.2020
2249 Clouds 21 1008 23 16093 5.1 60 21:20 30.05.2020
2250 Clouds 21 1008 25 16093 5.1 70 20:57 30.05.2020
2251 Clouds 21 1008 25 16093 5.1 70 20:39 30.05.2020
2252 Clouds 20 1008 32 16093 2.6 340 20:20 30.05.2020
2253 Clouds 19 1009 37 14484 3.28 67 19:43 30.05.2020
2254 Clouds 18 1009 37 14484 3.44 64 19:22 30.05.2020
2255 Clouds 16 1010 51 14484 3.44 64 18:56 30.05.2020
2256 Clouds 16 1010 51 14484 3.44 64 18:38 30.05.2020
2257 Clouds 15 1010 58 16093 3.36 60 18:18 30.05.2020
2258 Clouds 15 1010 58 16093 3.36 60 17:39 30.05.2020
2259 Clouds 14 1010 58 16093 3.21 54 17:21 30.05.2020
2260 Clouds 14 1010 62 16093 3.21 54 16:45 30.05.2020
2261 Clouds 14 1010 62 16093 2.71 42 16:24 30.05.2020
2262 Clouds 13 1011 47 16093 2.71 42 15:59 30.05.2020
2263 Clouds 14 1011 47 16093 2.71 42 15:41 30.05.2020
2264 Clouds 13 1011 47 16093 2.78 39 15:22 30.05.2020
2265 Clear 13 1011 47 16093 3.6 60 14:43 30.05.2020
2266 Clear 13 1011 47 16093 3.6 60 14:23 30.05.2020
2267 Clouds 14 1011 41 16093 3.6 60 13:43 30.05.2020
2268 Clouds 13 1011 41 16093 3.6 60 13:22 30.05.2020
2269 Clear 14 1011 36 16093 3.6 60 12:42 30.05.2020
2270 Clear 15 1011 36 16093 3.6 60 12:20 30.05.2020
2271 Clouds 15 1011 33 16093 3.6 50 11:57 30.05.2020
2272 Clouds 16 1011 33 16093 3.6 50 11:39 30.05.2020
2273 Clouds 16 1011 33 16093 3.6 50 11:20 30.05.2020
2274 Clear 16 1012 39 16093 2.6 50 10:40 30.05.2020
2275 Clear 17 1012 39 16093 2.6 50 10:21 30.05.2020
2276 Clear 18 1012 34 16093 2.6 40 09:49 30.05.2020
2277 Clear 18 1012 34 16093 2.6 40 09:31 30.05.2020
2278 Clouds 18 1012 37 16093 2.6 360 08:51 30.05.2020
2279 Clouds 18 1012 37 16093 2.6 360 08:51 30.05.2020
2280 Clouds 18 1012 37 16093 2.6 360 08:32 30.05.2020
2281 Clouds 20 1012 28 16093 2.1 20 07:45 30.05.2020
2282 Clouds 20 1012 28 16093 2.1 20 07:25 30.05.2020
2283 Clouds 20 1013 28 14484 2.6 100 06:52 30.05.2020
2284 Clouds 22 1013 28 14484 2.6 100 06:23 30.05.2020
2285 Clouds 23 1013 25 14484 7.2 140 05:49 30.05.2020
2286 Clouds 23 1013 23 16093 4.1 30 03:57 30.05.2020
2287 Clouds 23 1014 23 16093 3.1 20 02:30 30.05.2020
2288 Clouds 22 1015 33 16093 2.1 280 01:50 30.05.2020
2289 Rain 21 1015 43 16093 3.6 290 00:40 30.05.2020
2290 Rain 21 1015 43 16093 3.6 290 00:21 30.05.2020
2291 Rain 21 1015 26 16093 4.6 20 23:58 29.05.2020
2292 Rain 22 1015 25 14484 3.6 70 23:38 29.05.2020
2293 Clouds 22 1016 33 11265 4.6 360 23:18 29.05.2020
2294 Clouds 22 1016 33 11265 4.6 360 22:41 29.05.2020
2295 Clouds 22 1016 33 11265 4.6 360 22:20 29.05.2020
2296 Clouds 21 1017 40 12874 1.5 160 21:59 29.05.2020
2297 Clouds 21 1017 40 12874 1.5 160 21:39 29.05.2020
2298 Clouds 21 1017 40 12874 1.5 160 21:20 29.05.2020
2299 Clear 19 1017 40 12874 3.1 50 20:54 29.05.2020
2300 Clear 19 1017 40 12874 3.1 50 20:36 29.05.2020
2301 Clouds 18 1018 45 12874 4.92 61 20:18 29.05.2020
2302 Clouds 18 1018 45 12874 4.92 61 19:42 29.05.2020
2303 Clouds 17 1018 45 12874 4.54 60 19:23 29.05.2020
2304 Clear 16 1018 58 14484 1.5 20 18:47 29.05.2020
2305 Clear 15 1018 58 14484 1.5 20 18:21 29.05.2020
2306 Clear 15 1019 62 16093 3.1 51 17:57 29.05.2020
2307 Clear 14 1019 62 16093 3.1 51 17:38 29.05.2020
2308 Clear 14 1019 62 16093 3.1 51 17:38 29.05.2020
2309 Clear 14 1019 62 16093 2.31 37 17:19 29.05.2020
2310 Clouds 13 1019 81 14484 2.31 37 16:45 29.05.2020
2311 Clouds 13 1019 81 14484 2.08 21 16:27 29.05.2020
2312 Clouds 12 1019 87 16093 2.08 21 15:57 29.05.2020
2313 Clouds 12 1019 87 16093 2.08 21 15:39 29.05.2020
2314 Clouds 11 1019 87 16093 2.12 23 15:20 29.05.2020
2315 Clouds 11 1020 87 16093 2.12 23 14:51 29.05.2020
2316 Clouds 11 1020 87 16093 2.14 23 14:24 29.05.2020
2317 Clouds 11 1020 81 16093 2.6 150 13:58 29.05.2020
2318 Clouds 11 1020 81 16093 2.6 150 13:40 29.05.2020
2319 Clouds 11 1020 81 16093 2.6 150 13:21 29.05.2020
2320 Clouds 12 1020 71 16093 2.51 8 12:44 29.05.2020
2321 Clouds 12 1020 71 16093 2.45 5 12:25 29.05.2020
2322 Clouds 12 1020 76 16093 2.1 60 11:46 29.05.2020
2323 Clouds 12 1020 76 16093 2.1 60 11:27 29.05.2020
2324 Clouds 14 1020 58 14484 1.5 100 10:59 29.05.2020
2325 Clouds 13 1020 58 14484 1.5 100 10:40 29.05.2020
2326 Clouds 14 1020 58 14484 1.5 100 10:21 29.05.2020
2327 Clouds 14 1020 55 14484 1.5 60 09:55 29.05.2020
2328 Clouds 14 1020 55 14484 1.5 60 09:55 29.05.2020
2329 Clouds 14 1020 55 14484 1.5 60 09:37 29.05.2020
2330 Clouds 14 1020 55 14484 1.5 60 09:18 29.05.2020
2331 Clouds 14 1021 59 14484 4.6 40 08:44 29.05.2020
2332 Clouds 15 1021 59 14484 4.6 40 08:21 29.05.2020
2333 Clouds 17 1020 48 14484 2.1 40 07:46 29.05.2020
2334 Clouds 17 1020 48 14484 2.1 40 07:27 29.05.2020
2335 Clouds 18 1020 42 14484 2.6 80 06:49 29.05.2020
2336 Clouds 18 1020 42 14484 2.6 80 06:29 29.05.2020
2337 Clouds 18 1020 45 12874 1.5 50 05:56 29.05.2020
2338 Clouds 18 1020 39 12874 1.5 350 04:53 29.05.2020
2339 Clouds 19 1021 34 12874 4.1 310 01:48 29.05.2020
2340 Clouds 20 1021 34 12874 4.1 310 01:25 29.05.2020
2341 Clouds 20 1022 34 16093 1.5 300 00:49 29.05.2020
2342 Clouds 20 1022 34 16093 1.5 300 00:23 29.05.2020
2343 Clouds 19 1022 37 16093 2.6 10 23:41 28.05.2020
2344 Clouds 19 1022 37 16093 2.6 10 23:41 28.05.2020
2345 Clouds 18 1022 37 16093 2.6 10 23:19 28.05.2020
2346 Clouds 18 1022 37 16093 2.6 10 23:19 28.05.2020
2347 Clouds 17 1023 45 14484 2.67 322 22:59 28.05.2020
2348 Clouds 17 1023 45 14484 2.67 322 22:39 28.05.2020
2349 Clouds 16 1023 45 14484 2.86 314 22:18 28.05.2020
2350 Clouds 15 1023 58 14484 2.86 314 21:54 28.05.2020
2351 Clouds 14 1023 58 14484 2.86 314 21:36 28.05.2020
2352 Clouds 14 1023 58 14484 2.16 312 21:18 28.05.2020
2353 Clouds 13 1024 62 16093 1.68 335 20:40 28.05.2020
2354 Clouds 12 1024 62 16093 1.5 343 20:19 28.05.2020
2355 Clouds 12 1024 76 16093 1.5 343 19:58 28.05.2020
2356 Clouds 12 1024 76 16093 1.5 343 19:58 28.05.2020
2357 Clouds 11 1024 76 16093 1.5 343 19:40 28.05.2020
2358 Clouds 11 1024 76 16093 1.91 341 19:20 28.05.2020
2359 Clouds 10 1024 70 16093 1.91 341 18:54 28.05.2020
2360 Clouds 10 1024 70 16093 1.91 341 18:36 28.05.2020
2361 Clouds 10 1024 87 16093 1.84 344 18:18 28.05.2020
2362 Clouds 9 1024 87 16093 1.84 344 17:40 28.05.2020
2363 Clear 8 1024 86 16093 2.1 120 17:21 28.05.2020
2364 Clear 8 1024 86 16093 2.1 120 16:46 28.05.2020
2365 Clouds 9 1024 65 16093 1.5 70 16:21 28.05.2020
2366 Clouds 9 1024 70 16093 1.47 333 15:55 28.05.2020
2367 Clouds 9 1024 70 16093 1.47 333 15:36 28.05.2020
2368 Clouds 9 1024 70 16093 1.72 358 15:18 28.05.2020
2369 Clouds 9 1024 65 16093 1.5 50 14:42 28.05.2020
2370 Clear 8 1024 93 16093 1.81 22 14:22 28.05.2020
2371 Clouds 9 1024 70 16093 3.1 50 13:46 28.05.2020
2372 Clouds 9 1024 70 16093 3.1 50 13:27 28.05.2020
2373 Clear 9 1024 81 16093 0.72 66 12:44 28.05.2020
2374 Clear 9 1024 76 16093 2.1 280 12:20 28.05.2020
2375 Clear 9 1024 76 16093 2.1 280 11:57 28.05.2020
2376 Clear 9 1024 76 16093 2.1 280 11:39 28.05.2020
2377 Clear 10 1024 76 16093 2.1 280 11:20 28.05.2020
2378 Clear 11 1024 66 16093 0.6 56 10:46 28.05.2020
2379 Clear 11 1024 66 16093 0.31 77 10:28 28.05.2020
2380 Clear 12 1023 47 14484 1.5 330 09:57 28.05.2020
2381 Clear 12 1023 47 14484 1.5 330 09:38 28.05.2020
2382 Clear 12 1023 47 14484 1.5 330 09:18 28.05.2020
2383 Clear 13 1023 38 12874 2.1 330 08:44 28.05.2020
2384 Clouds 14 1023 33 12874 3.6 290 08:24 28.05.2020
2385 Clouds 15 1023 33 12874 3.6 290 07:43 28.05.2020
2386 Clouds 15 1023 33 12874 3.6 290 07:23 28.05.2020
2387 Clear 15 1023 31 14484 0.14 116 06:45 28.05.2020
2388 Clear 16 1023 31 14484 0.07 16 06:27 28.05.2020
2389 Clear 16 1023 33 14484 1.5 120 05:40 28.05.2020
2390 Clouds 16 1024 33 14484 2.6 10 04:39 28.05.2020
2391 Clouds 17 1024 33 14484 2.6 10 04:20 28.05.2020
2392 Clear 17 1024 33 16093 3.1 210 02:59 28.05.2020
2393 Clear 17 1024 33 16093 3.1 210 02:38 28.05.2020
2394 Clouds 17 1025 36 16093 3.6 210 01:45 28.05.2020
2395 Clouds 16 1025 38 16093 0.88 260 00:50 28.05.2020
2396 Clouds 15 1026 47 14484 2.1 300 00:21 28.05.2020
2397 Clouds 15 1026 47 14484 2.1 300 23:56 27.05.2020
2398 Clouds 14 1026 47 14484 2.1 300 23:38 27.05.2020
2399 Clouds 15 1026 47 14484 2.1 300 23:19 27.05.2020
2400 Clouds 14 1026 54 16093 1.47 257 22:43 27.05.2020
2401 Clouds 13 1026 54 16093 1.76 255 22:23 27.05.2020
2402 Clouds 13 1026 58 16093 1.76 255 21:57 27.05.2020
2403 Clouds 12 1026 58 16093 1.76 255 21:39 27.05.2020
2404 Clouds 12 1026 58 16093 1.81 251 21:20 27.05.2020
2405 Clouds 12 1026 62 16093 1.81 251 20:58 27.05.2020
2406 Clouds 11 1026 62 16093 1.81 251 20:39 27.05.2020
2407 Clouds 11 1026 62 16093 1.81 251 20:39 27.05.2020
2408 Clouds 11 1026 62 16093 1.79 246 20:20 27.05.2020
2409 Clouds 10 1026 71 16093 1.79 246 19:46 27.05.2020
2410 Clouds 9 1026 71 16093 1.83 242 19:21 27.05.2020
2411 Clouds 9 1026 81 16093 1.83 242 18:56 27.05.2020
2412 Clouds 9 1026 81 16093 1.83 242 18:37 27.05.2020
2413 Clouds 8 1025 81 16093 1.66 236 18:18 27.05.2020
2414 Clouds 7 1025 81 16093 1.66 236 17:42 27.05.2020
2415 Clouds 7 1025 81 16093 1.09 223 17:24 27.05.2020
2416 Clouds 6 1025 86 16093 2.1 50 16:57 27.05.2020
2417 Clouds 6 1025 86 16093 2.1 50 16:38 27.05.2020
2418 Clouds 6 1025 86 16093 2.1 50 16:20 27.05.2020
2419 Clouds 6 1025 93 16093 0.97 199 15:49 27.05.2020
2420 Clouds 5 1025 93 16093 1 216 15:23 27.05.2020
2421 Clear 5 1024 93 16093 1 216 14:58 27.05.2020
2422 Clear 5 1024 93 16093 0.87 198 14:39 27.05.2020
2423 Clear 5 1024 93 16093 1.07 228 14:20 27.05.2020
2424 Clouds 5 1024 93 16093 0.91 214 13:42 27.05.2020
2425 Clear 6 1023 86 16093 1.5 160 13:24 27.05.2020
2426 Clear 6 1023 86 16093 1.5 160 12:43 27.05.2020
2427 Clear 6 1023 86 16093 1.5 160 12:24 27.05.2020
2428 Clear 7 1022 87 16093 1.1 247 11:59 27.05.2020
2429 Clear 7 1022 87 16093 1.1 247 11:37 27.05.2020
2430 Clear 7 1022 87 16093 1.41 237 11:19 27.05.2020
2431 Clear 8 1022 76 16093 1.41 237 10:55 27.05.2020
2432 Clear 8 1022 76 16093 1.41 237 10:37 27.05.2020
2433 Clear 9 1022 76 16093 1.66 229 10:18 27.05.2020
2434 Clear 10 1021 54 16093 1.66 229 09:40 27.05.2020
2435 Clear 11 1021 54 16093 1.94 238 09:21 27.05.2020
2436 Clear 11 1020 47 14484 4.6 270 08:55 27.05.2020
2437 Clear 12 1020 47 14484 4.6 270 08:36 27.05.2020
2438 Clear 12 1020 47 14484 4.6 270 08:18 27.05.2020
2439 Clear 13 1019 41 14484 5.1 260 07:41 27.05.2020
2440 Clear 14 1019 41 14484 5.1 260 07:23 27.05.2020
2441 Clouds 14 1019 38 14484 5.7 280 06:45 27.05.2020
2442 Clouds 14 1018 38 14484 5.7 240 06:20 27.05.2020
2443 Clouds 15 1018 38 14484 5.7 240 05:48 27.05.2020
2444 Clouds 15 1018 41 16093 7.2 230 04:24 27.05.2020
2445 Clouds 15 1017 39 14484 5.1 210 02:32 27.05.2020
2446 Clouds 16 1017 41 16093 6.2 270 01:53 27.05.2020
2447 Clouds 15 1016 41 16093 5.1 280 01:25 27.05.2020
2448 Clouds 15 1016 41 16093 5.1 280 00:46 27.05.2020
2449 Clouds 15 1016 41 16093 5.1 280 00:20 27.05.2020
2450 Clouds 14 1016 47 16093 2.6 240 23:45 26.05.2020
2451 Clouds 13 1016 47 16093 2.6 240 23:26 26.05.2020
2452 Clouds 13 1016 66 16093 2.1 210 23:00 26.05.2020
2453 Clouds 13 1016 66 16093 2.1 210 22:40 26.05.2020
2454 Clouds 13 1016 66 16093 2.1 210 22:21 26.05.2020
2455 Clouds 12 1015 66 16093 2.1 230 21:58 26.05.2020
2456 Clouds 12 1015 66 16093 2.1 230 21:39 26.05.2020
2457 Clouds 11 1015 66 16093 2.1 230 21:20 26.05.2020
2458 Clouds 10 1015 71 16093 2.1 210 20:43 26.05.2020
2459 Clouds 10 1015 71 16093 2.1 210 20:22 26.05.2020
2460 Clouds 10 1014 81 16093 1.62 218 19:58 26.05.2020
2461 Clouds 10 1014 81 16093 1.62 218 19:38 26.05.2020
2462 Clouds 10 1014 81 16093 1.45 191 19:19 26.05.2020
2463 Rain 9 1013 87 14484 1.45 191 18:43 26.05.2020
2464 Rain 9 1013 87 14484 1.28 168 18:23 26.05.2020
2465 Clouds 9 1013 100 16093 1.5 60 17:59 26.05.2020
2466 Clouds 9 1013 100 16093 1.5 60 17:38 26.05.2020
2467 Clouds 9 1013 100 16093 1.5 60 17:20 26.05.2020
2468 Clouds 8 1012 93 16093 1.07 148 16:42 26.05.2020
2469 Clouds 8 1012 93 16093 0.9 150 16:20 26.05.2020
2470 Clouds 8 1011 100 16093 0.9 150 15:55 26.05.2020
2471 Clouds 8 1011 100 16093 0.9 150 15:37 26.05.2020
2472 Clouds 8 1011 100 14484 1.5 120 15:18 26.05.2020
2473 Rain 9 1011 93 16093 1.13 151 14:43 26.05.2020
2474 Clouds 8 1010 93 16093 1.1 149 14:23 26.05.2020
2475 Clouds 8 1010 93 16093 1.22 160 13:56 26.05.2020
2476 Clouds 9 1010 93 16093 1.22 160 13:37 26.05.2020
2477 Clouds 9 1010 93 16093 1.07 166 13:18 26.05.2020
2478 Clouds 9 1009 93 16093 1.07 166 12:42 26.05.2020
2479 Clouds 9 1009 93 16093 1.19 183 12:20 26.05.2020
2480 Clouds 9 1009 93 16093 1.19 183 11:58 26.05.2020
2481 Clouds 9 1009 93 16093 1.19 183 11:40 26.05.2020
2482 Clouds 9 1009 93 16093 1.46 189 11:18 26.05.2020
2483 Clouds 10 1008 76 16093 1.46 189 10:42 26.05.2020
2484 Clouds 10 1008 76 16093 1.55 185 10:19 26.05.2020
2485 Clouds 10 1008 76 16093 1.5 230 09:40 26.05.2020
2486 Clouds 10 1008 76 16093 1.5 230 09:20 26.05.2020
2487 Clouds 10 1007 76 16093 1.56 150 08:43 26.05.2020
2488 Clouds 10 1007 76 16093 1.56 150 08:43 26.05.2020
2489 Clouds 11 1007 76 16093 1.51 124 08:22 26.05.2020
2490 Rain 11 1007 71 16093 2.6 250 07:58 26.05.2020
2491 Clouds 11 1007 71 16093 4.6 240 07:39 26.05.2020
2492 Clouds 11 1007 71 16093 4.1 250 07:21 26.05.2020
2493 Clouds 11 1007 71 16093 4.1 250 06:46 26.05.2020
2494 Clouds 11 1007 71 16093 4.1 250 06:19 26.05.2020
2495 Clouds 11 1006 76 16093 2.1 220 05:35 26.05.2020
2496 Clouds 12 1006 76 16093 2.6 250 04:56 26.05.2020
2497 Clouds 12 1006 76 16093 2.6 250 04:34 26.05.2020
2498 Clouds 12 1006 82 16093 3.6 250 03:59 26.05.2020
2499 Rain 12 1006 82 16093 3.6 250 02:51 26.05.2020
2500 Rain 12 1006 82 11265 4.1 230 01:49 26.05.2020
2501 Rain 12 1006 82 11265 4.1 230 01:29 26.05.2020
2502 Rain 11 1006 87 11265 4.1 240 00:39 26.05.2020
2503 Rain 11 1006 87 11265 4.1 240 00:19 26.05.2020
2504 Rain 11 1006 87 11265 4.1 250 23:56 25.05.2020
2505 Rain 11 1006 87 11265 4.1 250 23:38 25.05.2020
2506 Rain 11 1006 87 11265 4.1 250 23:19 25.05.2020
2507 Rain 11 1006 87 11265 4.1 250 23:19 25.05.2020
2508 Rain 11 1006 81 11265 3.1 260 22:55 25.05.2020
2509 Rain 10 1006 81 11265 3.1 260 22:36 25.05.2020
2510 Rain 10 1006 81 11265 3.1 260 22:36 25.05.2020
2511 Rain 10 1006 81 11265 3.1 260 22:36 25.05.2020
2512 Rain 11 1006 81 11265 3.1 260 22:18 25.05.2020
2513 Rain 10 1006 87 12874 4.1 250 21:56 25.05.2020
2514 Rain 10 1006 87 12874 4.1 250 21:36 25.05.2020
2515 Rain 10 1006 87 12874 4.1 250 21:36 25.05.2020
2516 Rain 10 1006 87 12874 4.1 250 21:18 25.05.2020
2517 Rain 9 1006 93 16093 6.2 240 20:42 25.05.2020
2518 Rain 9 1006 93 16093 6.2 240 20:22 25.05.2020
2519 Clouds 9 1006 93 16093 6.2 230 19:59 25.05.2020
2520 Rain 9 1006 100 16093 5.1 230 19:41 25.05.2020
2521 Rain 9 1006 93 12874 5.7 240 19:19 25.05.2020
2522 Rain 9 1006 93 12874 5.7 240 18:57 25.05.2020
2523 Rain 9 1006 93 12874 4.6 240 18:38 25.05.2020
2524 Rain 9 1006 93 12874 4.6 240 18:20 25.05.2020
2525 Rain 9 1005 93 12874 5.1 230 17:44 25.05.2020
2526 Rain 9 1005 93 12874 5.1 230 17:44 25.05.2020
2527 Rain 9 1005 93 12874 5.1 230 17:23 25.05.2020
2528 Rain 9 1005 93 12874 4.6 230 16:58 25.05.2020
2529 Rain 9 1005 93 12874 4.6 230 16:40 25.05.2020
2530 Rain 9 1005 93 12874 4.6 230 16:20 25.05.2020
2531 Rain 9 1005 93 12874 5.1 260 15:45 25.05.2020
2532 Rain 9 1005 93 12874 5.1 260 15:20 25.05.2020
2533 Rain 9 1004 87 14484 4.6 250 14:59 25.05.2020
2534 Rain 10 1004 87 14484 4.6 250 14:39 25.05.2020
2535 Rain 10 1004 87 14484 4.6 250 14:21 25.05.2020
2536 Rain 10 1004 93 4828 3.6 240 13:40 25.05.2020
2537 Rain 10 1004 93 4828 3.6 240 13:21 25.05.2020
2538 Rain 10 1003 93 16093 2.1 200 12:59 25.05.2020
2539 Rain 11 1003 100 16093 3.7 248 12:39 25.05.2020
2540 Rain 11 1003 93 16093 3.49 246 12:20 25.05.2020
2541 Clouds 11 1003 93 16093 3.49 246 11:56 25.05.2020
2542 Rain 11 1002 100 14484 1.5 40 11:37 25.05.2020
2543 Rain 11 1002 93 16093 3.75 249 11:18 25.05.2020
2544 Rain 11 1002 93 16093 3.75 249 10:41 25.05.2020
2545 Rain 11 1002 93 16093 3.75 249 10:41 25.05.2020
2546 Clouds 11 1002 93 16093 2.98 242 10:20 25.05.2020
2547 Clouds 11 1001 93 16093 2.98 242 09:55 25.05.2020
2548 Clouds 12 1001 93 16093 2.98 242 09:36 25.05.2020
2549 Clouds 12 1001 93 16093 1.29 103 09:18 25.05.2020
2550 Clouds 12 1001 93 16093 1.29 103 09:18 25.05.2020
2551 Clouds 12 1001 93 16093 1.29 103 08:43 25.05.2020
2552 Clouds 12 1001 93 16093 1.29 70 08:24 25.05.2020
2553 Clouds 13 1000 93 16093 3.1 50 07:58 25.05.2020
2554 Clouds 13 1000 93 16093 3.1 50 07:39 25.05.2020
2555 Rain 13 1000 82 11265 1.5 50 07:19 25.05.2020
2556 Rain 14 1000 82 11265 1.5 50 06:41 25.05.2020
2557 Rain 14 1000 82 11265 1.5 50 06:41 25.05.2020
2558 Rain 14 1000 82 11265 1.5 50 06:21 25.05.2020
2559 Rain 15 999 67 11265 0.59 25 03:32 25.05.2020
2560 Rain 15 998 72 11265 2.6 40 02:57 25.05.2020
2561 Rain 15 998 72 11265 2.6 40 02:36 25.05.2020
2562 Rain 16 998 59 11265 1.18 77 01:42 25.05.2020
2563 Rain 17 998 48 14484 1.46 78 00:49 25.05.2020
2564 Clouds 17 998 48 16093 1.46 78 00:31 25.05.2020
2565 Clouds 16 997 51 16093 2.6 270 23:59 24.05.2020
2566 Rain 16 998 51 14484 2.1 240 23:39 24.05.2020
2567 Rain 16 998 51 14484 2.1 240 23:39 24.05.2020
2568 Rain 16 998 51 14484 2.1 240 23:21 24.05.2020
2569 Clouds 15 997 48 16093 3.1 210 22:58 24.05.2020
2570 Clouds 15 997 48 16093 3.1 210 22:39 24.05.2020
2571 Clouds 15 997 48 16093 3.1 210 22:18 24.05.2020
2572 Clouds 15 997 54 16093 2.1 110 21:55 24.05.2020
2573 Clouds 16 997 54 16093 2.1 110 21:37 24.05.2020
2574 Clouds 15 997 54 16093 2.1 110 21:18 24.05.2020
2575 Clouds 15 996 58 16093 0.97 129 20:43 24.05.2020
2576 Clouds 15 996 58 16093 0.88 180 20:21 24.05.2020
2577 Clouds 13 996 66 16093 0.88 180 19:56 24.05.2020
2578 Clouds 13 996 66 16093 0.88 180 19:38 24.05.2020
2579 Clouds 12 996 66 16093 0.12 202 19:19 24.05.2020
2580 Clear 12 995 66 16093 0.12 202 18:43 24.05.2020
2581 Clear 12 995 66 16093 0.83 293 18:23 24.05.2020
2582 Clouds 11 995 66 16093 0.83 293 17:59 24.05.2020
2583 Clouds 11 995 66 16093 0.83 293 17:40 24.05.2020
2584 Clouds 11 995 66 16093 1.03 290 17:21 24.05.2020
2585 Clear 13 995 62 16093 2.6 80 16:56 24.05.2020
2586 Clear 12 995 62 16093 2.6 80 16:38 24.05.2020
2587 Clear 12 995 62 16093 2.6 80 16:19 24.05.2020
2588 Clear 11 994 66 16093 2.1 50 15:56 24.05.2020
2589 Clear 12 994 66 16093 2.1 50 15:38 24.05.2020
2590 Clear 10 994 71 16093 1.5 230 15:18 24.05.2020
2591 Clear 10 994 71 16093 1.5 230 14:44 24.05.2020
2592 Clear 11 994 71 16093 0.74 201 14:24 24.05.2020
2593 Clouds 11 994 76 16093 0.69 233 13:57 24.05.2020
2594 Clouds 11 994 76 16093 0.69 233 13:39 24.05.2020
2595 Clear 13 994 47 16093 1.5 160 13:21 24.05.2020
2596 Clear 13 994 47 16093 1.5 160 12:58 24.05.2020
2597 Clear 13 994 47 16093 1.5 160 12:40 24.05.2020
2598 Clear 13 994 47 16093 1.5 160 12:22 24.05.2020
2599 Clear 14 994 58 16093 2.1 80 11:56 24.05.2020
2600 Clear 14 994 58 16093 2.1 80 11:38 24.05.2020
2601 Clear 14 994 58 16093 2.1 80 11:20 24.05.2020
2602 Clouds 16 994 32 16093 2.1 300 10:55 24.05.2020
2603 Clouds 16 994 32 16093 2.1 300 10:37 24.05.2020
2604 Clouds 17 994 32 16093 2.1 300 10:18 24.05.2020
2605 Clouds 17 995 30 16093 2.6 300 09:41 24.05.2020
2606 Clouds 18 995 30 16093 2.6 300 09:18 24.05.2020
2607 Clouds 18 995 42 16093 1.5 290 08:56 24.05.2020
2608 Clouds 18 995 42 16093 1.5 290 08:37 24.05.2020
2609 Clouds 19 995 25 16093 2.6 260 08:19 24.05.2020
2610 Clouds 20 995 25 16093 2.6 260 07:42 24.05.2020
2611 Clouds 20 995 25 16093 2.6 260 07:24 24.05.2020
2612 Clouds 21 996 26 16093 3.6 260 06:48 24.05.2020
2613 Clouds 21 996 26 16093 3.6 260 06:25 24.05.2020
2614 Clouds 22 997 23 16093 4.1 280 04:54 24.05.2020
2615 Clouds 22 998 23 16093 2.06 161 03:41 24.05.2020
2616 Clear 22 999 22 14484 3.1 170 02:42 24.05.2020
2617 Clear 22 999 22 14484 1.5 230 01:46 24.05.2020
2618 Clear 21 1000 23 14484 2.29 114 00:39 24.05.2020
2619 Clear 21 1000 25 14484 2.22 112 00:21 24.05.2020
2620 Clear 20 1001 28 16093 4.1 130 23:44 23.05.2020
2621 Clear 20 1001 28 16093 4.1 130 23:24 23.05.2020
2622 Clear 19 1002 29 16093 2.6 20 22:58 23.05.2020
2623 Clear 19 1002 29 16093 2.6 20 22:38 23.05.2020
2624 Clear 19 1002 29 16093 2.6 20 22:20 23.05.2020
2625 Clear 18 1003 36 16093 1.58 89 21:57 23.05.2020
2626 Clear 17 1003 36 16093 1.58 89 21:38 23.05.2020
2627 Clear 17 1003 36 16093 0.78 63 21:20 23.05.2020
2628 Clear 17 1003 36 16093 0.78 63 21:20 23.05.2020
2629 Clear 17 1003 36 16093 0.78 63 21:20 23.05.2020
2630 Clear 17 1003 36 16093 0.78 63 21:20 23.05.2020
2631 Clear 15 1003 44 16093 0.78 63 20:58 23.05.2020
2632 Clear 15 1003 44 16093 0.78 63 20:38 23.05.2020
2633 Clear 14 1004 50 16093 0.58 71 20:19 23.05.2020
2634 Clear 12 1004 50 16093 0.58 71 19:42 23.05.2020
2635 Clear 12 1004 50 16093 0.56 102 19:20 23.05.2020
2636 Clear 12 1004 50 16093 0.56 102 19:20 23.05.2020
2637 Clear 11 1004 57 16093 1.5 70 18:59 23.05.2020
2638 Clear 11 1004 57 16093 1.5 70 18:40 23.05.2020
2639 Clear 11 1004 57 16093 1.5 70 18:40 23.05.2020
2640 Clear 10 1004 57 16093 1.5 70 18:22 23.05.2020
2641 Clear 8 1005 70 16093 2.1 40 17:56 23.05.2020
2642 Clear 8 1005 70 16093 2.1 40 17:38 23.05.2020
2643 Clear 8 1005 70 16093 2.1 40 17:19 23.05.2020
2644 Clear 8 1005 75 16093 0.27 77 16:56 23.05.2020
2645 Clear 7 1005 75 16093 0.27 77 16:38 23.05.2020
2646 Clear 7 1005 75 16093 0.41 23 16:19 23.05.2020
2647 Clear 7 1005 80 16093 0.41 23 15:42 23.05.2020
2648 Clear 6 1005 80 16093 0.48 333 15:24 23.05.2020
2649 Clear 6 1005 75 16093 0.48 333 14:58 23.05.2020
2650 Clear 6 1005 75 16093 0.48 333 14:39 23.05.2020
2651 Clear 6 1005 75 16093 0.44 343 14:21 23.05.2020
2652 Clear 7 1005 70 16093 3.1 60 13:40 23.05.2020
2653 Clear 8 1005 70 16093 3.1 60 13:19 23.05.2020
2654 Clouds 8 1005 65 16093 0.62 316 12:56 23.05.2020
2655 Clouds 9 1005 65 16093 0.62 316 12:37 23.05.2020
2656 Clouds 9 1005 65 16093 0.92 300 12:18 23.05.2020
2657 Clouds 10 1005 66 16093 1.5 110 11:43 23.05.2020
2658 Clouds 10 1005 66 16093 1.5 110 11:21 23.05.2020
2659 Clouds 11 1005 46 16093 1.5 290 10:57 23.05.2020
2660 Clouds 11 1005 46 16093 1.5 290 10:39 23.05.2020
2661 Clouds 11 1005 46 16093 1.5 290 10:20 23.05.2020
2662 Clouds 12 1004 55 16093 3.1 300 09:56 23.05.2020
2663 Clouds 12 1004 55 16093 3.1 300 09:38 23.05.2020
2664 Clouds 12 1004 49 16093 3.1 300 09:20 23.05.2020
2665 Clouds 13 1004 49 16093 4.1 280 08:42 23.05.2020
2666 Clouds 14 1004 43 16093 5.1 270 08:19 23.05.2020
2667 Clouds 14 1004 38 16093 4.1 250 07:47 23.05.2020
2668 Clouds 14 1004 43 16093 5.1 270 07:29 23.05.2020
2669 Clouds 15 1003 39 16093 6.7 260 06:55 23.05.2020
2670 Clouds 15 1003 39 16093 6.7 260 06:36 23.05.2020
2671 Clouds 17 1003 36 16093 5.7 270 04:56 23.05.2020
2672 Clouds 18 1003 29 14484 5.1 230 03:30 23.05.2020
2673 Clouds 18 1003 28 16093 5.7 240 02:57 23.05.2020
2674 Clouds 18 1003 29 16093 5.1 230 01:57 23.05.2020
2675 Clouds 19 1003 28 16093 5.1 230 01:21 23.05.2020
2676 Clouds 19 1003 28 16093 4.1 240 00:46 23.05.2020
2677 Clouds 19 1003 29 16093 4.1 240 00:25 23.05.2020
2678 Clouds 19 1003 25 14484 1.5 190 23:57 22.05.2020
2679 Clouds 19 1003 25 14484 1.5 190 23:38 22.05.2020
2680 Clouds 19 1003 25 14484 1.5 190 23:18 22.05.2020
2681 Clouds 19 1003 25 16093 2.1 200 22:43 22.05.2020
2682 Clouds 19 1003 25 16093 2.1 200 22:21 22.05.2020
2683 Clear 18 1004 25 16093 1.32 142 21:57 22.05.2020
2684 Clear 18 1004 25 16093 1.32 142 21:38 22.05.2020
2685 Clear 17 1004 25 16093 0.21 146 21:20 22.05.2020
2686 Clear 16 1004 31 16093 0.21 146 20:45 22.05.2020
2687 Clear 16 1004 31 16093 0.66 183 20:21 22.05.2020
2688 Clear 15 1005 41 16093 0.66 183 19:59 22.05.2020
2689 Clear 14 1005 41 16093 0.66 183 19:37 22.05.2020
2690 Clear 13 1005 46 16093 0.88 151 19:18 22.05.2020
2691 Clear 13 1005 46 16093 0.88 151 18:39 22.05.2020
2692 Clear 12 1005 46 16093 0.73 100 18:19 22.05.2020
2693 Clear 11 1005 50 16093 0.73 100 17:56 22.05.2020
2694 Clear 11 1005 50 16093 0.73 100 17:36 22.05.2020
2695 Clear 10 1005 50 16093 0.82 96 17:18 22.05.2020
2696 Clear 9 1005 70 16093 0.82 96 16:41 22.05.2020
2697 Clear 9 1005 75 16093 0.93 91 16:20 22.05.2020
2698 Clear 9 1005 75 16093 0.93 91 15:57 22.05.2020
2699 Clear 9 1005 75 16093 0.93 91 15:39 22.05.2020
2700 Clear 9 1005 58 16093 1.11 91 15:19 22.05.2020
2701 Clear 9 1005 58 16093 1.11 91 14:43 22.05.2020
2702 Clear 9 1005 55 16093 1.54 72 14:24 22.05.2020
2703 Clear 9 1005 65 16093 2.6 80 13:45 22.05.2020
2704 Clear 9 1005 65 16093 2.6 80 13:20 22.05.2020
2705 Clear 10 1005 66 16093 1.38 64 12:44 22.05.2020
2706 Clear 10 1005 66 16093 1.61 68 12:26 22.05.2020
2707 Clear 10 1005 66 16093 1.5 50 11:59 22.05.2020
2708 Clear 10 1005 66 16093 1.5 50 11:40 22.05.2020
2709 Clear 10 1005 66 16093 1.5 50 11:20 22.05.2020
2710 Clouds 12 1005 47 16093 1.5 58 10:55 22.05.2020
2711 Clouds 12 1005 47 16093 1.5 58 10:36 22.05.2020
2712 Clouds 12 1005 47 16093 1.41 41 10:18 22.05.2020
2713 Clear 13 1005 38 14484 1.41 41 09:41 22.05.2020
2714 Clear 14 1005 38 14484 1.16 6 09:19 22.05.2020
2715 Clear 15 1005 31 14484 2.1 290 08:43 22.05.2020
2716 Clear 15 1005 31 14484 2.1 290 08:21 22.05.2020
2717 Clear 16 1005 43 14484 3.1 260 07:56 22.05.2020
2718 Clear 17 1005 36 14484 3.1 260 07:27 22.05.2020
2719 Clear 18 1005 36 16093 4.1 260 06:57 22.05.2020
2720 Clear 18 1005 36 16093 4.1 260 06:36 22.05.2020
2721 Clouds 19 1005 29 14484 4.1 260 05:39 22.05.2020
2722 Clouds 19 1005 26 16093 5.7 260 04:51 22.05.2020
2723 Clouds 19 1005 26 16093 5.7 260 04:28 22.05.2020
2724 Clouds 20 1006 29 16093 4.1 240 03:47 22.05.2020
2725 Clouds 20 1006 19 14484 2.6 180 02:59 22.05.2020
2726 Clear 20 1007 21 16093 2.82 138 01:56 22.05.2020
2727 Clear 21 1007 21 16093 2.44 150 01:28 22.05.2020
2728 Clouds 20 1007 24 14484 2.6 120 00:48 22.05.2020
2729 Clouds 20 1007 24 14484 2.6 120 00:28 22.05.2020
2730 Clear 20 1008 28 16093 2.6 210 23:43 21.05.2020
2731 Clear 20 1008 28 16093 2.6 210 23:25 21.05.2020
2732 Clear 19 1008 29 16093 2.6 130 22:58 21.05.2020
2733 Clear 19 1008 29 16093 2.6 130 22:38 21.05.2020
2734 Clear 18 1009 28 16093 1.5 120 22:20 21.05.2020
2735 Clear 18 1009 28 16093 1.5 120 21:58 21.05.2020
2736 Clear 18 1009 28 16093 1.5 120 21:39 21.05.2020
2737 Clear 16 1009 31 16093 1.5 150 21:19 21.05.2020
2738 Clear 16 1009 31 16093 1.5 150 20:43 21.05.2020
2739 Clear 15 1009 31 16093 1.5 150 20:22 21.05.2020
2740 Clear 15 1009 31 16093 1.5 150 20:22 21.05.2020
2741 Clouds 14 1010 33 16093 2.6 40 19:41 21.05.2020
2742 Clouds 14 1010 33 16093 2.6 40 19:21 21.05.2020
2743 Clouds 12 1011 40 16093 1.74 93 18:59 21.05.2020
2744 Clouds 12 1011 40 16093 1.74 93 18:39 21.05.2020
2745 Clouds 10 1011 46 16093 2.6 60 18:19 21.05.2020
2746 Clouds 9 1011 65 16093 1.65 81 17:57 21.05.2020
2747 Clouds 8 1011 46 16093 2.6 60 17:39 21.05.2020
2748 Clear 8 1011 54 16093 3.6 60 17:21 21.05.2020
2749 Clear 7 1011 54 16093 3.6 60 16:45 21.05.2020
2750 Clear 7 1011 60 16093 3.6 60 16:23 21.05.2020
2751 Clear 6 1011 75 16093 1.15 77 15:45 21.05.2020
2752 Clear 6 1011 75 16093 1.13 63 15:24 21.05.2020
2753 Clear 7 1011 65 16093 1.13 63 14:56 21.05.2020
2754 Clear 7 1011 65 16093 1.13 63 14:37 21.05.2020
2755 Clear 7 1011 65 16093 1.12 62 14:18 21.05.2020
2756 Clouds 7 1011 70 16093 3.1 50 13:40 21.05.2020
2757 Clouds 7 1011 70 16093 3.1 50 13:22 21.05.2020
2758 Clouds 9 1010 65 16093 1.5 70 12:55 21.05.2020
2759 Clouds 9 1010 65 16093 1.5 70 12:36 21.05.2020
2760 Clouds 10 1010 66 16093 0.82 11 12:18 21.05.2020
2761 Clouds 10 1010 66 16093 0.82 11 11:41 21.05.2020
2762 Clouds 10 1010 66 16093 0.34 16 11:23 21.05.2020
2763 Clouds 11 1010 54 16093 0.34 16 10:55 21.05.2020
2764 Clouds 11 1010 54 16093 0.34 16 10:37 21.05.2020
2765 Clouds 14 1010 36 16093 2.6 180 10:18 21.05.2020
2766 Clouds 14 1010 36 16093 2.6 180 09:42 21.05.2020
2767 Clouds 15 1010 36 16093 2.6 180 09:24 21.05.2020
2768 Clouds 16 1010 27 16093 2.1 210 08:58 21.05.2020
2769 Clouds 17 1010 27 16093 2.1 210 08:40 21.05.2020
2770 Clouds 16 1010 27 16093 2.1 210 08:22 21.05.2020
2771 Clouds 17 1010 22 14484 2.1 250 07:43 21.05.2020
2772 Clouds 16 1010 22 14484 2.1 250 07:24 21.05.2020
2773 Clear 17 1010 22 14484 2.6 300 06:45 21.05.2020
2774 Clouds 18 1010 22 16093 2.1 270 05:52 21.05.2020
2775 -273 0 0 0 0 0 04:29 21.05.2020
2776 Clear 19 1010 20 14484 1.1 241 03:21 21.05.2020
2777 Clear 19 1010 20 14484 1.1 241 03:21 21.05.2020
2778 Clear 19 1010 20 14484 1.1 241 03:21 21.05.2020
2779 Clear 19 1011 20 16093 3.6 310 02:33 21.05.2020
2780 Clouds 18 1011 23 14484 2.1 320 01:58 21.05.2020
2781 Clouds 19 1011 23 14484 2.1 320 01:39 21.05.2020
2782 Clouds 18 1011 23 14484 2.1 320 01:18 21.05.2020
2783 Clouds 18 1011 17 16093 4.1 340 00:41 21.05.2020
2784 Clouds 17 1012 19 16093 1.5 10 00:19 21.05.2020
2785 Clouds 17 1012 19 16093 1.5 10 23:40 20.05.2020
2786 Clouds 17 1012 19 16093 1.5 10 23:19 20.05.2020
2787 Clear 16 1012 21 16093 1.24 280 22:55 20.05.2020
2788 Clear 16 1012 21 16093 1.24 280 22:37 20.05.2020
2789 Clear 16 1012 21 16093 1.21 278 22:19 20.05.2020
2790 Clouds 15 1012 22 16093 1.21 278 21:40 20.05.2020
2791 Clouds 14 1012 22 16093 0.89 288 21:20 20.05.2020
2792 Clouds 13 1012 23 16093 1.5 130 20:44 20.05.2020
2793 Clouds 12 1012 23 16093 1.5 130 20:24 20.05.2020
2794 Clear 11 1012 29 16093 0.66 114 19:54 20.05.2020
2795 Clear 12 1012 29 16093 0.66 114 19:36 20.05.2020
2796 Clear 11 1012 29 16093 0.88 71 19:18 20.05.2020
2797 Clear 9 1012 34 16093 1.5 10 18:42 20.05.2020
2798 Clear 8 1012 34 16093 1.5 10 18:22 20.05.2020
2799 Clear 7 1012 39 16093 1.5 50 17:41 20.05.2020
2800 Clear 7 1012 39 16093 1.5 50 17:22 20.05.2020
2801 Clear 6 1011 55 16093 1.5 50 16:56 20.05.2020
2802 Clear 6 1011 55 16093 1.5 50 16:38 20.05.2020
2803 Clear 5 1011 55 16093 1.5 50 16:19 20.05.2020
2804 Clouds 6 1011 33 16093 5.1 10 15:43 20.05.2020
2805 Clear 4 1011 69 16093 1.93 28 15:25 20.05.2020
2806 Clear 5 1010 64 16093 1.93 28 14:45 20.05.2020
2807 Clear 5 1010 64 16093 2.13 31 14:24 20.05.2020
2808 Clear 6 1010 60 16093 2.13 31 13:56 20.05.2020
2809 Clear 6 1010 60 16093 2.13 31 13:37 20.05.2020
2810 Clear 6 1010 60 16093 2.31 32 13:18 20.05.2020
2811 Clear 7 1009 52 16093 2.31 32 12:42 20.05.2020
2812 Clear 7 1009 52 16093 2.33 30 12:21 20.05.2020
2813 Clear 8 1009 34 16093 2.33 30 11:38 20.05.2020
2814 Clear 8 1009 34 16093 2.4 28 11:20 20.05.2020
2815 Clear 9 1008 27 16093 2.4 28 10:44 20.05.2020
2816 Clear 9 1008 27 16093 2.54 25 10:23 20.05.2020
2817 Clear 9 1008 27 16093 2.54 25 10:23 20.05.2020
2818 Clear 10 1008 27 16093 2.1 50 09:58 20.05.2020
2819 Clear 11 1008 27 16093 2.1 50 09:40 20.05.2020
2820 Clear 11 1008 27 16093 2.1 50 09:20 20.05.2020
2821 Clear 12 1007 22 16093 4.6 40 08:42 20.05.2020
2822 Clear 12 1007 22 16093 4.6 40 08:19 20.05.2020
2823 Clear 13 1006 21 16093 5.7 40 07:50 20.05.2020
2824 Clear 14 1006 21 16093 5.7 40 07:23 20.05.2020
2825 Clouds 15 1006 20 16093 5.1 30 06:52 20.05.2020
2826 Clouds 15 1006 20 16093 5.1 30 06:18 20.05.2020
2827 Clouds 16 1005 20 12874 5.7 50 04:38 20.05.2020
2828 Clouds 17 1005 20 12874 5.7 50 04:18 20.05.2020
2829 Clear 17 1004 22 14484 1.5 70 03:29 20.05.2020
2830 Clear 18 1004 20 14484 5.7 70 01:41 20.05.2020
2831 Clear 17 1004 20 14484 5.7 70 01:23 20.05.2020
2832 Clear 18 1004 20 14484 4.1 60 00:40 20.05.2020
2833 Clear 17 1004 20 14484 4.1 60 00:20 20.05.2020
2834 Clouds 16 1004 21 14484 4.6 70 23:36 19.05.2020
2835 Clouds 16 1004 21 14484 4.6 70 23:18 19.05.2020
2836 Clear 16 1004 23 14484 6.2 80 22:55 19.05.2020
2837 Clear 16 1004 23 14484 6.2 80 22:36 19.05.2020
2838 Clear 15 1004 22 16093 4.6 80 22:18 19.05.2020
2839 Clear 15 1004 22 16093 4.6 80 21:55 19.05.2020
2840 Clear 15 1004 22 16093 4.6 80 21:36 19.05.2020
2841 Clear 15 1004 22 16093 4.6 80 21:18 19.05.2020
2842 Clear 13 1004 24 16093 5.7 60 20:54 19.05.2020
2843 Clear 13 1004 24 16093 5.7 60 20:36 19.05.2020
2844 Clear 13 1004 24 16093 5.7 60 20:36 19.05.2020
2845 Clear 14 1004 24 16093 5.7 60 20:18 19.05.2020
2846 Clouds 11 1004 25 16093 3.6 50 19:37 19.05.2020
2847 Clouds 10 1004 27 16093 5.7 10 19:19 19.05.2020
2848 Clear 9 1004 34 16093 2.6 40 18:44 19.05.2020
2849 Clear 8 1004 34 16093 2.6 40 18:22 19.05.2020
2850 Clouds 7 1003 39 16093 2.6 50 17:57 19.05.2020
2851 Clouds 7 1003 39 16093 2.6 50 17:39 19.05.2020
2852 Clouds 7 1003 39 16093 2.6 50 17:20 19.05.2020
2853 Clear 6 1003 41 16093 3.1 70 16:41 19.05.2020
2854 Clear 6 1003 41 16093 3.1 70 16:23 19.05.2020
2855 Clouds 6 1003 39 16093 2.6 50 15:56 19.05.2020
2856 Clouds 6 1003 39 16093 2.6 50 15:38 19.05.2020
2857 Clouds 6 1003 39 16093 2.6 50 15:20 19.05.2020
2858 Clouds 6 1003 39 16093 2.6 60 14:54 19.05.2020
2859 Clouds 6 1003 39 16093 2.6 60 14:54 19.05.2020
2860 Clouds 6 1003 39 16093 2.6 60 14:36 19.05.2020
2861 Clouds 6 1003 39 16093 2.6 60 14:18 19.05.2020
2862 Clouds 7 1003 36 16093 3.6 60 13:40 19.05.2020
2863 Clouds 6 1003 36 16093 3.6 60 13:22 19.05.2020
2864 Clouds 6 1003 34 16093 4.1 50 12:59 19.05.2020
2865 Clouds 7 1003 34 16093 4.1 50 12:40 19.05.2020
2866 Clouds 7 1003 34 16093 4.1 50 12:22 19.05.2020
2867 Clouds 7 1003 34 16093 4.1 50 12:22 19.05.2020
2868 Clouds 8 1003 34 16093 5.7 30 11:59 19.05.2020
2869 Clouds 8 1003 34 16093 5.7 30 11:40 19.05.2020
2870 Clouds 8 1003 34 16093 5.7 30 11:21 19.05.2020
2871 Clouds 9 1003 29 16093 6.2 30 10:49 19.05.2020
2872 Clear 8 1001 39 0 0.45 184 10:29 19.05.2020
2873 Clouds 9 1002 25 16093 6.2 30 09:59 19.05.2020
2874 Clear 9 1001 36 0 4.57 45 09:41 19.05.2020
2875 Clouds 10 1002 25 16093 6.2 30 09:23 19.05.2020
2876 Clouds 11 1002 26 16093 6.2 40 08:44 19.05.2020
2877 Clouds 11 1002 24 16093 6.2 40 08:24 19.05.2020
2878 Clouds 11 1002 24 16093 6.2 40 08:24 19.05.2020
2879 Clouds 12 1002 24 16093 6.7 30 07:44 19.05.2020
2880 Clouds 12 1002 24 16093 6.7 30 07:26 19.05.2020
2881 Clear 12 1004 31 0 0.45 30 06:51 19.05.2020
2882 Clear 14 1003 19 14484 6.2 50 06:25 19.05.2020
2883 Clear 14 1003 19 14484 6.2 50 05:41 19.05.2020
2884 Clear 15 1003 20 16093 5.1 50 04:56 19.05.2020
2885 Clear 15 1003 20 16093 5.1 50 04:32 19.05.2020
2886 Clear 15 1005 18 16093 4.6 110 01:32 19.05.2020
2887 Clear 15 1005 19 16093 3.6 100 00:47 19.05.2020
2888 Clear 15 1005 19 16093 3.6 100 00:25 19.05.2020
2889 Clear 14 1006 22 14484 4.1 120 23:58 18.05.2020
2890 Clear 14 1006 22 14484 4.1 120 23:39 18.05.2020
2891 Clear 14 1006 22 14484 4.1 120 23:19 18.05.2020
2892 Clear 13 1007 24 16093 4.1 30 22:41 18.05.2020
2893 Clear 13 1007 24 16093 4.1 30 22:22 18.05.2020
2894 Clear 12 1007 25 16093 2.1 60 21:56 18.05.2020
2895 Clear 12 1007 25 16093 2.1 60 21:56 18.05.2020
2896 Clear 11 1007 25 16093 2.1 60 21:38 18.05.2020
2897 Clear 11 1007 25 16093 2.1 60 21:19 18.05.2020
2898 Clear 10 1008 29 16093 4.1 80 20:43 18.05.2020
2899 Clear 9 1008 31 16093 4.6 80 20:22 18.05.2020
2900 Clear 8 1008 31 16093 4.6 80 19:59 18.05.2020
2901 Clear 8 1008 31 16093 4.6 80 19:40 18.05.2020
2902 Clear 7 1009 38 16093 3.1 60 19:19 18.05.2020
2903 Clear 6 1009 38 16093 3.1 60 18:46 18.05.2020
2904 Clear 5 1009 38 16093 3.1 60 18:25 18.05.2020
2905 Clear 4 1009 47 16093 2.6 40 17:55 18.05.2020
2906 Clear 3 1009 47 16093 2.6 40 17:37 18.05.2020
2907 Clear 2 1010 55 16093 2.44 37 17:18 18.05.2020
2908 Clear 2 1010 55 16093 2.44 37 16:43 18.05.2020
2909 Clear 1 1010 55 16093 2.28 28 16:21 18.05.2020
2910 Clear 1 1010 74 16093 2.28 28 15:58 18.05.2020
2911 Clear 1 1010 74 16093 2.28 28 15:39 18.05.2020
2912 Clear 0 1010 74 16093 2.21 24 15:21 18.05.2020
2913 Clear 0 1010 68 16093 2.21 24 14:57 18.05.2020
2914 Clear 0 1010 68 16093 2.21 24 14:38 18.05.2020
2915 Clear 1 1010 68 16093 2.42 29 14:20 18.05.2020
2916 Clear 1 1010 51 16093 2.41 28 13:41 18.05.2020
2917 Clear 1 1010 51 16093 2.41 23 13:21 18.05.2020
2918 Clear 1 1010 51 16093 2.41 23 13:21 18.05.2020
2919 Clear 1 1010 51 16093 2.41 23 13:21 18.05.2020
2920 Clear 2 1011 41 16093 2.41 23 12:58 18.05.2020
2921 Clear 2 1011 41 16093 2.41 23 12:40 18.05.2020
2922 Clear 2 1011 41 16093 2.48 19 12:19 18.05.2020
2923 Clear 3 1011 38 16093 2.6 50 11:59 18.05.2020
2924 Clear 3 1011 38 16093 2.6 50 11:59 18.05.2020
2925 Clear 3 1011 38 16093 2.6 50 11:40 18.05.2020
2926 Clear 3 1011 38 16093 2.6 50 11:21 18.05.2020
2927 Clear 4 1011 33 16093 3.1 50 10:46 18.05.2020
2928 Clear 4 1011 33 16093 3.1 50 10:23 18.05.2020
2929 Clear 4 1011 33 16093 3.1 50 10:23 18.05.2020
2930 Clear 5 1011 30 16093 3.1 40 09:45 18.05.2020
2931 Clear 5 1011 30 16093 3.1 40 09:26 18.05.2020
2932 Clear 7 1011 26 14484 4.1 30 08:56 18.05.2020
2933 Clear 7 1011 26 14484 4.1 30 08:38 18.05.2020
2934 Clear 8 1011 26 14484 4.1 30 08:19 18.05.2020
2935 Haze 8 1011 21 8047 5.7 30 07:42 18.05.2020
2936 Haze 9 1011 21 8047 5.7 30 07:21 18.05.2020
2937 Haze 10 1011 20 6437 4.6 30 06:47 18.05.2020
2938 Haze 10 1011 20 6437 4.6 30 06:21 18.05.2020
2939 Haze 10 1011 20 6437 2.1 90 05:42 18.05.2020
2940 Haze 11 1012 22 6437 4.1 60 03:37 18.05.2020
2941 Haze 11 1013 23 6437 1.5 70 02:31 18.05.2020
2942 Haze 11 1013 23 6437 1.5 70 01:34 18.05.2020
2943 Haze 10 1013 25 6437 3.1 50 00:28 18.05.2020
2944 Haze 9 1014 26 6437 3.1 20 23:59 17.05.2020
2945 -273 0 0 0 0 0 23:59 17.05.2020
2946 Haze 9 1014 26 6437 3.1 20 23:40 17.05.2020
2947 Haze 9 1014 26 6437 3.1 20 23:20 17.05.2020
2948 Haze 8 1014 28 6437 2.34 39 22:59 17.05.2020
2949 Haze 8 1014 28 6437 2.34 39 22:39 17.05.2020
2950 Haze 8 1014 28 6437 2.5 37 22:21 17.05.2020
2951 Haze 8 1015 33 8047 3.6 40 21:59 17.05.2020
2952 Haze 7 1015 33 8047 3.6 40 21:40 17.05.2020
2953 Haze 7 1015 33 8047 3.6 40 21:19 17.05.2020
2954 Haze 6 1015 35 6437 3.1 20 20:43 17.05.2020
2955 Haze 6 1015 35 6437 3.1 20 20:22 17.05.2020
2956 Haze 5 1016 38 6437 3.6 50 19:58 17.05.2020
2957 Haze 4 1016 38 6437 3.6 50 19:40 17.05.2020
2958 Haze 4 1016 38 6437 3.6 50 19:22 17.05.2020
2959 Haze 3 1016 41 8047 3.6 60 18:55 17.05.2020
2960 Haze 3 1016 41 8047 3.6 60 18:37 17.05.2020
2961 Haze 3 1016 41 8047 3.6 60 18:37 17.05.2020
2962 Haze 2 1016 41 8047 3.6 60 18:19 17.05.2020
2963 Haze 1 1016 51 4828 3.05 26 17:40 17.05.2020
2964 Haze 1 1016 51 4828 3.05 26 17:40 17.05.2020
2965 Haze 1 1016 51 4828 3.05 26 17:40 17.05.2020
2966 Haze 0 1016 51 4828 3 15 17:21 17.05.2020
2967 Haze 0 1016 55 4828 3 15 16:55 17.05.2020
2968 Haze 0 1016 55 6437 3 15 16:37 17.05.2020
2969 Haze 0 1016 55 6437 2.95 12 16:19 17.05.2020
2970 Haze -1 1016 74 6437 2.95 12 15:41 17.05.2020
2971 Haze -2 1016 74 6437 2.83 8 15:23 17.05.2020
2972 Haze -1 1016 87 6437 2.1 270 14:57 17.05.2020
2973 Haze -1 1016 87 6437 2.1 270 14:38 17.05.2020
2974 Haze -1 1016 86 6437 2.1 270 14:19 17.05.2020
2975 Haze 0 1016 55 8047 2.94 10 13:41 17.05.2020
2976 Haze 0 1016 55 8047 2.97 13 13:20 17.05.2020
2977 Haze 10 1014 25 9656 6.7 60 05:22 17.05.2020
2978 Clouds 12 1014 24 16093 6.7 40 03:31 17.05.2020
2979 Clear 13 1014 24 16093 5.7 30 02:26 17.05.2020
2980 Clear 13 1014 26 16093 6.2 10 01:53 17.05.2020
2981 Clear 13 1014 30 16093 6.2 20 00:46 17.05.2020
2982 Clear 13 1014 30 16093 6.2 20 00:26 17.05.2020
2983 Clouds 13 1014 30 16093 6.2 10 23:42 16.05.2020
2984 Clouds 12 1014 30 16093 6.2 10 23:23 16.05.2020
2985 Clouds 12 1014 34 16093 3.1 50 22:59 16.05.2020
2986 Clouds 12 1014 34 16093 3.1 50 22:41 16.05.2020
2987 Clouds 12 1014 34 16093 3.1 50 22:22 16.05.2020
2988 Clear 12 1014 34 16093 2.6 80 21:56 16.05.2020
2989 Clear 11 1014 34 16093 2.6 80 21:37 16.05.2020
2990 Clear 11 1014 34 16093 2.6 80 21:19 16.05.2020
2991 Clear 11 1014 37 16093 2.1 330 20:55 16.05.2020
2992 Clear 11 1014 37 16093 2.1 330 20:36 16.05.2020
2993 Clear 10 1014 37 16093 2.1 330 20:18 16.05.2020
2994 Clear 9 1014 39 16093 1.5 50 19:42 16.05.2020
2995 Clear 8 1014 39 16093 1.5 50 19:23 16.05.2020
2996 Clear 8 1014 39 16093 1.5 50 19:23 16.05.2020
2997 Clear 8 1014 42 16093 2.1 60 18:57 16.05.2020
2998 Clear 8 1014 42 16093 2.1 60 18:38 16.05.2020
2999 Clear 7 1014 56 16093 2.84 15 18:20 16.05.2020
3000 Clear 6 1014 56 16093 2.84 15 17:41 16.05.2020
3001 Clear 5 1014 56 16093 2.73 11 17:21 16.05.2020
3002 Clear 5 1014 80 16093 1.5 30 16:44 16.05.2020
3003 Clear 5 1014 80 16093 1.5 30 16:25 16.05.2020
3004 Clear 4 1014 74 16093 2.23 8 15:59 16.05.2020
3005 Clear 4 1014 74 16093 2.23 8 15:41 16.05.2020
3006 Clear 4 1014 74 16093 2.14 11 15:21 16.05.2020
3007 Clear 4 1014 64 16093 2.14 11 14:56 16.05.2020
3008 Clouds 5 1013 74 16093 2.1 20 14:38 16.05.2020
3009 Clouds 4 1013 74 16093 2.1 20 14:19 16.05.2020
3010 Clouds 5 1013 69 16093 2.6 50 13:42 16.05.2020
3011 Clear 5 1013 52 16093 1.66 12 13:24 16.05.2020
3012 Clear 6 1013 52 16093 1.66 12 12:59 16.05.2020
3013 Clear 6 1013 52 16093 1.66 12 12:40 16.05.2020
3014 Clear 6 1013 52 16093 1.92 2 12:19 16.05.2020
3015 Clear 8 1013 32 16093 2.6 350 11:42 16.05.2020
3016 Clear 8 1013 32 16093 2.6 350 11:23 16.05.2020
3017 Clear 9 1013 30 16093 2.1 350 10:58 16.05.2020
3018 Clear 9 1013 30 16093 2.1 350 10:39 16.05.2020
3019 Clear 10 1013 30 16093 2.1 350 10:20 16.05.2020
3020 Clear 11 1012 28 16093 2.6 330 09:47 16.05.2020
3021 Clear 11 1012 28 16093 2.6 330 09:28 16.05.2020
3022 Clear 13 1012 25 16093 4.1 330 08:56 16.05.2020
3023 Clear 12 1012 25 16093 4.1 330 08:36 16.05.2020
3024 Clear 13 1012 25 16093 4.1 330 08:18 16.05.2020
3025 Clear 14 1012 23 16093 4.6 310 07:43 16.05.2020
3026 Clear 15 1012 23 16093 4.6 310 07:21 16.05.2020
3027 Clear 15 1012 22 16093 5.1 290 06:47 16.05.2020
3028 Clear 16 1012 22 16093 5.1 290 06:21 16.05.2020
3029 Clear 16 1012 23 16093 4.6 300 05:43 16.05.2020
3030 Clear 17 1012 23 16093 4.6 300 05:24 16.05.2020
3031 Clouds 18 1013 24 16093 4.6 270 03:29 16.05.2020
3032 Clouds 18 1013 25 16093 5.1 240 02:47 16.05.2020
3033 Clouds 18 1013 25 16093 5.1 240 02:19 16.05.2020
3034 Clear 18 1014 23 14484 1.5 210 01:40 16.05.2020
3035 Clear 18 1014 25 16093 2.1 260 00:58 16.05.2020
3036 Clear 18 1014 25 16093 2.1 260 00:40 16.05.2020
3037 Clear 18 1014 25 16093 2.1 260 00:20 16.05.2020
3038 Clear 17 1015 25 16093 2.1 270 23:40 15.05.2020
3039 Clear 17 1015 25 16093 2.1 270 23:19 15.05.2020
3040 Clouds 16 1015 24 16093 0.44 353 22:42 15.05.2020
3041 Clouds 16 1015 24 16093 0.62 29 22:22 15.05.2020
3042 Clear 15 1015 24 16093 0.62 29 21:58 15.05.2020
3043 Clear 15 1015 24 16093 0.62 29 21:39 15.05.2020
3044 Clear 14 1015 24 16093 1.29 39 21:21 15.05.2020
3045 Clear 13 1016 24 16093 3.1 80 20:56 15.05.2020
3046 Clear 13 1016 24 16093 3.1 80 20:38 15.05.2020
3047 Clear 13 1016 24 16093 3.1 80 20:19 15.05.2020
3048 Clear 12 1016 25 16093 4.1 60 19:44 15.05.2020
3049 Clouds 11 1016 31 16093 4.1 70 19:24 15.05.2020
3050 Clouds 10 1016 31 16093 4.1 70 18:58 15.05.2020
3051 Clouds 11 1016 31 16093 4.1 70 18:39 15.05.2020
3052 Clouds 8 1016 34 16093 3.1 60 18:18 15.05.2020
3053 Clouds 8 1016 34 16093 3.1 60 17:39 15.05.2020
3054 Clouds 8 1016 34 16093 3.1 60 17:19 15.05.2020
3055 Clouds 6 1015 42 16093 2.6 50 16:56 15.05.2020
3056 Clouds 6 1015 42 16093 2.6 50 16:38 15.05.2020
3057 Clouds 7 1015 39 16093 1.5 60 16:19 15.05.2020
3058 Clouds 7 1015 39 16093 1.5 60 15:41 15.05.2020
3059 Clouds 7 1015 39 16093 1.5 60 15:22 15.05.2020
3060 Clouds 7 1015 33 16093 4.6 360 14:59 15.05.2020
3061 Clouds 7 1015 33 16093 4.6 360 14:41 15.05.2020
3062 Clouds 8 1015 36 16093 1.5 50 14:23 15.05.2020
3063 Clouds 8 1015 36 16093 1.5 50 13:58 15.05.2020
3064 Clouds 7 1015 36 16093 1.5 50 13:38 15.05.2020
3065 Clouds 7 1015 33 16093 2.1 40 13:19 15.05.2020
3066 Clouds 7 1015 33 16093 2.1 40 12:39 15.05.2020
3067 Clouds 8 1014 29 16093 4.6 60 12:18 15.05.2020
3068 Clouds 8 1014 29 16093 4.6 60 11:56 15.05.2020
3069 Clouds 8 1014 29 16093 4.6 60 11:38 15.05.2020
3070 Clouds 8 1014 29 16093 4.6 60 11:19 15.05.2020
3071 Clouds 8 1014 26 16093 3.6 50 10:57 15.05.2020
3072 Clouds 8 1014 26 16093 3.6 50 10:38 15.05.2020
3073 Clouds 9 1013 23 16093 4.1 50 10:20 15.05.2020
3074 Clouds 10 1013 23 16093 4.1 50 09:41 15.05.2020
3075 Clouds 9 1013 23 16093 4.1 50 09:20 15.05.2020
3076 Clouds 10 1013 20 16093 4.6 50 08:59 15.05.2020
3077 Clouds 10 1013 20 16093 4.6 50 08:38 15.05.2020
3078 Clouds 10 1013 20 16093 4.6 50 08:20 15.05.2020
3079 Clouds 11 1012 19 16093 4.6 50 07:46 15.05.2020
3080 Clouds 11 1012 19 16093 4.6 50 07:46 15.05.2020
3081 Clouds 11 1012 19 16093 4.6 50 07:28 15.05.2020
3082 Clouds 12 1012 16 16093 5.1 30 06:59 15.05.2020
3083 Clouds 12 1012 16 16093 6.2 30 05:56 15.05.2020
3084 Clouds 13 1011 15 16093 6.7 40 04:39 15.05.2020
3085 Clear 13 1011 15 16093 7.2 40 03:50 15.05.2020
3086 Clear 13 1011 16 16093 6.7 20 02:55 15.05.2020
3087 Clear 13 1012 15 16093 5.7 60 01:37 15.05.2020
3088 Clear 14 1012 15 16093 5.7 30 01:18 15.05.2020
3089 Clear 13 1012 15 16093 5.7 90 00:40 15.05.2020
3090 Clear 13 1012 15 16093 6.2 60 00:21 15.05.2020
3091 Clear 12 1012 15 16093 6.2 60 23:41 14.05.2020
3092 Clear 12 1012 15 16093 6.2 60 23:19 14.05.2020
3093 Clear 12 1011 17 16093 5.1 70 22:42 14.05.2020
3094 Clear 11 1011 17 16093 5.1 70 22:24 14.05.2020
3095 Clear 11 1011 17 16093 5.1 70 22:24 14.05.2020
3096 Clear 11 1012 20 16093 5.1 60 21:59 14.05.2020
3097 Clear 11 1012 20 16093 5.1 60 21:40 14.05.2020
3098 Clear 11 1012 20 16093 5.1 60 21:20 14.05.2020
3099 Clear 9 1012 23 16093 6.2 70 20:57 14.05.2020
3100 Clear 8 1012 23 16093 6.2 70 20:39 14.05.2020
3101 Clear 8 1012 23 16093 6.2 70 20:19 14.05.2020
3102 Clear 7 1012 26 16093 5.1 50 19:57 14.05.2020
3103 Clear 7 1012 26 16093 5.1 50 19:38 14.05.2020
3104 Clear 7 1012 26 16093 5.1 50 19:19 14.05.2020
3105 Clear 6 1012 30 16093 5.1 60 18:56 14.05.2020
3106 Clear 6 1012 30 16093 5.1 60 18:38 14.05.2020
3107 Clear 6 1012 30 16093 5.1 60 18:38 14.05.2020
3108 Clear 4 1012 35 16093 3.1 60 18:19 14.05.2020
3109 Clear 4 1012 35 16093 3.1 60 17:56 14.05.2020
3110 Clear 4 1012 35 16093 3.1 60 17:56 14.05.2020
3111 Clear 3 1012 35 16093 3.1 60 17:37 14.05.2020
3112 Clear 3 1012 35 16093 3.1 60 17:18 14.05.2020
3113 Clear 2 1012 40 16093 1.5 60 16:39 14.05.2020
3114 Clear 2 1012 40 16093 1.5 60 16:39 14.05.2020
3115 Clear 2 1012 40 16093 1.5 60 16:21 14.05.2020
3116 Clear 2 1012 40 16093 1.5 60 15:59 14.05.2020
3117 Clear 2 1012 40 16093 1.5 60 15:40 14.05.2020
3118 Clear 2 1012 40 16093 1.5 60 15:40 14.05.2020
3119 Clear 2 1012 40 16093 1.5 60 15:40 14.05.2020
3120 Clear 2 1012 40 16093 1.5 60 15:20 14.05.2020
3121 Clear 2 1012 38 16093 3.1 40 14:56 14.05.2020
3122 Clear 3 1012 38 16093 3.1 40 14:38 14.05.2020
3123 Clear 2 1012 38 16093 3.1 40 14:20 14.05.2020
3124 Clear 3 1012 35 16093 4.6 50 13:57 14.05.2020
3125 Clear 3 1012 35 16093 4.6 50 13:38 14.05.2020
3126 Clear 3 1012 35 16093 4.6 50 13:19 14.05.2020
3127 Clouds 4 1011 33 16093 4.1 60 12:57 14.05.2020
3128 Clouds 4 1011 33 16093 4.1 60 12:37 14.05.2020
3129 Clouds 4 1011 33 16093 4.1 60 12:18 14.05.2020
3130 Clouds 5 1011 30 16093 7.2 50 11:56 14.05.2020
3131 Clouds 5 1011 30 16093 7.2 50 11:37 14.05.2020
3132 Clouds 5 1011 30 16093 7.2 50 11:37 14.05.2020
3133 Clouds 5 1011 30 16093 7.2 50 11:19 14.05.2020
3134 Clear 6 1011 31 16093 7.2 50 10:42 14.05.2020
3135 Clear 6 1011 31 16093 7.2 50 10:24 14.05.2020
3136 Clear 7 1010 29 16093 6.7 50 09:56 14.05.2020
3137 Clear 7 1010 29 16093 6.7 50 09:37 14.05.2020
3138 Clear 8 1010 27 16093 7.2 50 09:18 14.05.2020
3139 Clear 9 1010 27 16093 7.2 50 08:39 14.05.2020
3140 Clear 9 1010 27 16093 7.2 50 08:19 14.05.2020
3141 Clear 10 1010 25 16093 8.2 40 07:45 14.05.2020
3142 Clear 10 1010 25 16093 8.2 40 07:22 14.05.2020
3143 Clear 11 1009 22 16093 9.3 40 06:48 14.05.2020
3144 Clear 12 1009 22 16093 9.3 40 06:26 14.05.2020
3145 Clear 12 1009 22 16093 8.2 60 05:42 14.05.2020
3146 Clear 12 1009 22 16093 8.2 60 05:22 14.05.2020
3147 Clear 14 1009 26 16093 8.2 30 03:52 14.05.2020
3148 Clear 14 1009 26 16093 7.7 70 03:21 14.05.2020
3149 Clear 14 1009 28 16093 8.7 70 02:40 14.05.2020
3150 Clear 14 1009 30 16093 7.7 60 01:53 14.05.2020
3151 Clear 14 1009 30 16093 7.7 70 00:58 14.05.2020
3152 Clear 14 1009 33 16093 8.2 30 00:30 14.05.2020
3153 Clear 13 1009 33 16093 7.2 20 23:57 13.05.2020
3154 Clear 13 1009 33 16093 7.2 50 23:38 13.05.2020
3155 Clear 13 1009 33 16093 7.2 50 23:18 13.05.2020
3156 Clear 13 1009 35 16093 6.7 40 22:42 13.05.2020
3157 Clear 13 1009 35 16093 6.7 40 22:23 13.05.2020
3158 Clear 12 1009 35 16093 5.7 30 21:59 13.05.2020
3159 Clear 12 1009 35 16093 5.7 30 21:40 13.05.2020
3160 Clear 13 1009 35 16093 5.7 30 21:19 13.05.2020
3161 Clear 12 1009 37 16093 5.7 40 20:58 13.05.2020
3162 Clear 12 1009 37 16093 5.7 40 20:39 13.05.2020
3163 Clear 11 1009 40 16093 7.2 50 20:21 13.05.2020
3164 Clear 11 1009 40 16093 7.2 50 19:43 13.05.2020
3165 Clear 11 1009 40 16093 7.2 50 19:24 13.05.2020
3166 Clear 9 1009 43 16093 6.2 30 18:45 13.05.2020
3167 Clear 11 1009 43 16093 6.2 30 18:22 13.05.2020
3168 -273 0 0 0 0 0 17:59 13.05.2020
3169 Clouds 10 1009 46 16093 5.7 50 17:38 13.05.2020
3170 Clouds 9 1009 46 16093 3.6 50 17:19 13.05.2020
3171 Clouds 9 1009 46 16093 3.6 50 17:18 13.05.2020
3172 Clouds 9 1009 46 16093 3.6 50 16:41 13.05.2020
3173 Clouds 9 1009 46 16093 3.6 50 16:20 13.05.2020
3174 Clouds 9 1009 68 16093 3.6 40 15:59 13.05.2020
3175 Clouds 9 1009 68 16093 3.6 40 15:41 13.05.2020
3176 Clouds 9 1009 67 16093 3.6 40 15:18 13.05.2020
3177 Clouds 9 1009 50 16093 4.6 40 14:55 13.05.2020
3178 Clouds 9 1009 50 16093 4.6 40 14:37 13.05.2020
3179 Rain 10 1008 53 16093 2.73 23 14:19 13.05.2020
3180 Clouds 9 1009 53 16093 3.6 360 13:43 13.05.2020
3181 Clouds 10 1009 57 16093 1.5 40 13:23 13.05.2020
3182 Clouds 10 1009 57 16093 1.5 40 12:59 13.05.2020
3183 Clouds 10 1009 57 16093 1.5 40 12:41 13.05.2020
3184 Clouds 10 1009 57 16093 1.5 40 12:21 13.05.2020
3185 Clouds 10 1009 71 16093 2.53 18 11:56 13.05.2020
3186 Clouds 10 1009 71 16093 2.53 18 11:38 13.05.2020
3187 Clouds 10 1009 71 16093 2.4 11 11:20 13.05.2020
3188 Clouds 11 1009 62 16093 2.4 11 10:58 13.05.2020
3189 Clouds 10 1009 54 16093 4.6 360 10:38 13.05.2020
3190 Clouds 10 1009 62 16093 1.5 310 10:19 13.05.2020
3191 Clouds 11 1009 62 16093 1.5 310 09:49 13.05.2020
3192 Clouds 11 1009 62 16093 1.5 310 09:49 13.05.2020
3193 Clouds 11 1009 62 16093 1.5 310 09:24 13.05.2020
3194 Clouds 11 1009 66 16093 2.1 270 08:59 13.05.2020
3195 Clouds 11 1009 66 16093 2.1 270 08:39 13.05.2020
3196 Clouds 11 1009 66 16093 2.1 270 08:20 13.05.2020
3197 Rain 11 1009 62 16093 2.1 310 07:52 13.05.2020
3198 Rain 11 1009 62 16093 2.1 310 07:33 13.05.2020
3199 Rain 11 1009 66 16093 2.1 310 06:55 13.05.2020
3200 Rain 11 1009 66 16093 2.1 310 06:35 13.05.2020
3201 Clouds 12 1009 77 0 1.83 354 05:43 13.05.2020
3202 Rain 13 1010 62 12874 2.1 290 04:20 13.05.2020
3203 Rain 13 1011 58 14484 1.93 352 02:38 13.05.2020
3204 Clouds 13 1011 62 16093 2.6 150 01:46 13.05.2020
3205 Clouds 13 1011 66 16093 1.5 0 00:58 13.05.2020
3206 Clouds 13 1011 66 16093 2.29 306 00:25 13.05.2020
3207 Clouds 13 1011 66 16093 2.29 306 23:59 12.05.2020
3208 Clouds 13 1011 66 16093 2.29 306 23:59 12.05.2020
3209 Clouds 13 1012 76 16093 2.29 306 23:39 12.05.2020
3210 Clouds 12 1012 76 16093 2.3 285 23:20 12.05.2020
3211 Rain 12 1012 76 16093 2.3 285 22:42 12.05.2020
3212 Rain 12 1012 76 16093 2.07 272 22:22 12.05.2020
3213 Clouds 11 1012 87 16093 2.07 272 21:57 12.05.2020
3214 Clouds 11 1012 87 16093 2.07 272 21:38 12.05.2020
3215 Clouds 11 1012 87 16093 2.07 272 21:38 12.05.2020
3216 Clouds 11 1012 87 16093 1.85 260 21:20 12.05.2020
3217 Rain 10 1012 93 16093 2.6 230 20:59 12.05.2020
3218 Rain 10 1012 93 16093 2.6 230 20:59 12.05.2020
3219 Rain 10 1012 93 16093 3.1 210 20:40 12.05.2020
3220 Rain 10 1012 93 16093 3.1 210 20:21 12.05.2020
3221 Rain 10 1012 87 12874 1.5 220 19:58 12.05.2020
3222 Rain 10 1012 87 12874 1.5 220 19:40 12.05.2020
3223 Rain 9 1012 87 12874 1.5 220 19:21 12.05.2020
3224 Rain 9 1011 87 16093 3.6 220 18:56 12.05.2020
3225 Rain 9 1011 87 16093 3.6 220 18:38 12.05.2020
3226 Rain 9 1011 87 16093 3.6 220 18:20 12.05.2020
3227 Rain 9 1011 87 12874 2.02 248 17:43 12.05.2020
3228 Rain 9 1011 87 12874 2.76 253 17:24 12.05.2020
3229 Rain 10 1011 71 12874 1.5 250 16:47 12.05.2020
3230 Rain 10 1011 71 12874 1.5 250 16:26 12.05.2020
3231 Clouds 11 1011 62 16093 4.6 260 15:57 12.05.2020
3232 Clouds 11 1011 62 16093 4.6 260 15:39 12.05.2020
3233 Clouds 11 1011 62 16093 4.6 260 15:39 12.05.2020
3234 Clouds 11 1011 62 16093 4.6 260 15:19 12.05.2020
3235 Clouds 11 1010 54 16093 4.1 240 14:57 12.05.2020
3236 Clouds 11 1010 54 16093 4.1 240 14:38 12.05.2020
3237 Clouds 12 1010 54 16093 4.1 240 14:20 12.05.2020
3238 Clouds 12 1009 50 16093 5.7 250 13:58 12.05.2020
3239 Clouds 12 1009 50 16093 5.7 250 13:40 12.05.2020
3240 Clouds 12 1009 50 16093 5.7 250 13:20 12.05.2020
3241 Clouds 13 1009 47 16093 4.6 250 12:58 12.05.2020
3242 Clouds 13 1009 47 16093 4.6 250 12:39 12.05.2020
3243 Clouds 13 1009 47 16093 4.6 250 12:21 12.05.2020
3244 Clouds 14 1008 36 16093 9.8 250 11:58 12.05.2020
3245 Clouds 14 1008 36 16093 9.8 250 11:39 12.05.2020
3246 Clouds 14 1008 36 16093 9.8 250 11:21 12.05.2020
3247 Clouds 15 1007 36 16093 6.7 270 10:58 12.05.2020
3248 Clouds 15 1007 36 16093 6.7 270 10:40 12.05.2020
3249 Clouds 16 1006 31 14484 2.6 190 10:22 12.05.2020
3250 Clouds 16 1006 31 14484 2.6 190 09:59 12.05.2020
3251 Clouds 17 1006 31 14484 2.6 190 09:39 12.05.2020
3252 Clouds 17 1006 31 14484 2.6 190 09:21 12.05.2020
3253 Clouds 17 1006 31 16093 5.1 210 08:57 12.05.2020
3254 Clouds 18 1005 28 14484 7.7 250 08:38 12.05.2020
3255 Clouds 18 1005 28 14484 7.7 250 08:19 12.05.2020
3256 Clouds 20 1004 24 16093 3.1 250 07:41 12.05.2020
3257 Clouds 20 1004 24 16093 3.1 250 07:22 12.05.2020
3258 Clouds 21 1004 23 14484 5.1 50 06:47 12.05.2020
3259 Clouds 22 1004 23 14484 5.1 50 06:27 12.05.2020
3260 Clouds 22 1004 23 16093 5.1 50 05:50 12.05.2020
3261 Clouds 23 1004 23 16093 5.1 50 05:30 12.05.2020
3262 Clouds 25 1004 16 14484 1.5 160 03:26 12.05.2020
3263 Clouds 25 1005 17 14484 2.6 80 02:41 12.05.2020
3264 Clouds 25 1005 17 14484 2.6 80 02:18 12.05.2020
3265 Clear 25 1006 24 11265 4.1 140 01:26 12.05.2020
3266 Clear 24 1007 26 14484 3.6 80 00:26 12.05.2020
3267 Clear 24 1007 26 16093 2.6 100 23:58 11.05.2020
3268 Clear 24 1007 26 16093 2.6 100 23:40 11.05.2020
3269 Clear 23 1007 29 16093 2.6 100 23:20 11.05.2020
3270 Clear 23 1009 24 14484 1.67 90 22:58 11.05.2020
3271 Clear 23 1009 24 14484 1.67 90 22:40 11.05.2020
3272 Clear 22 1009 24 14484 1.27 81 22:20 11.05.2020
3273 Clear 22 1009 24 14484 1.27 81 22:20 11.05.2020
3274 Clouds 21 1009 29 16093 1.27 81 21:57 11.05.2020
3275 Clouds 20 1009 29 16093 1.27 81 21:39 11.05.2020
3276 Clear 19 1010 36 16093 1.18 99 21:19 11.05.2020
3277 Clear 19 1010 36 16093 1.18 99 20:57 11.05.2020
3278 Clear 18 1010 36 16093 1.18 99 20:38 11.05.2020
3279 Clear 18 1011 38 16093 1.5 70 20:19 11.05.2020
3280 Clear 17 1011 38 16093 1.5 70 19:54 11.05.2020
3281 Clear 16 1011 38 16093 1.5 70 19:36 11.05.2020
3282 Clear 15 1011 38 16093 1.5 70 19:18 11.05.2020
3283 Clear 14 1011 43 16093 1.19 95 18:55 11.05.2020
3284 Clear 14 1011 43 16093 1.19 95 18:36 11.05.2020
3285 Clear 13 1011 43 16093 1.16 79 18:18 11.05.2020
3286 Clear 11 1012 50 16093 2.1 140 17:41 11.05.2020
3287 Clear 12 1012 50 16093 2.1 140 17:22 11.05.2020
3288 Clear 11 1012 62 16093 2.6 90 16:58 11.05.2020
3289 Clear 11 1012 62 16093 2.6 90 16:38 11.05.2020
3290 Clear 11 1012 68 16093 2.6 90 16:20 11.05.2020
3291 Clear 10 1012 68 16093 0.95 46 15:57 11.05.2020
3292 Clear 11 1012 68 16093 0.95 46 15:38 11.05.2020
3293 Clear 11 1012 68 16093 1.25 43 15:18 11.05.2020
3294 Clear 10 1012 68 16093 4.1 60 14:42 11.05.2020
3295 Clear 10 1012 66 16093 4.1 60 14:22 11.05.2020
3296 Clear 10 1012 66 16093 4.1 60 14:22 11.05.2020
3297 Clear 11 1012 50 16093 4.6 60 13:59 11.05.2020
3298 Clear 10 1012 50 16093 4.6 60 13:40 11.05.2020
3299 Clear 10 1012 53 16093 1.87 26 13:18 11.05.2020
3300 Clear 10 1012 50 16093 4.6 60 13:18 11.05.2020
3301 Clear 10 1012 50 16093 4.6 60 13:18 11.05.2020
3302 Clear 10 1012 53 16093 1.87 26 12:56 11.05.2020
3303 Clear 10 1012 53 16093 1.87 26 12:56 11.05.2020
3304 Clear 11 1012 53 16093 1.87 26 12:38 11.05.2020
3305 Clear 11 1012 53 16093 1.57 22 12:19 11.05.2020
3306 Clear 12 1012 50 16093 2.1 60 11:54 11.05.2020
3307 Clear 12 1012 50 16093 2.1 60 11:36 11.05.2020
3308 Clear 13 1012 50 16093 2.1 60 11:18 11.05.2020
3309 Clear 14 1013 38 16093 2.1 60 10:54 11.05.2020
3310 Clear 15 1013 38 16093 2.1 60 10:36 11.05.2020
3311 Clear 16 1013 38 16093 2.1 60 10:18 11.05.2020
3312 Clear 17 1013 29 14484 3.1 50 09:41 11.05.2020
3313 Clear 19 1013 24 11265 2.1 60 09:20 11.05.2020
3314 Clear 20 1013 24 11265 2.1 60 08:57 11.05.2020
3315 Clear 20 1013 24 11265 2.1 60 08:38 11.05.2020
3316 Clear 22 1013 19 12874 4.6 80 08:18 11.05.2020
3317 Clear 22 1013 19 12874 4.6 80 07:47 11.05.2020
3318 Clear 23 1013 19 12874 4.6 80 07:28 11.05.2020
3319 Clear 24 1013 34 12874 6.2 90 06:52 11.05.2020
3320 Clear 24 1013 28 12874 6.2 90 06:18 11.05.2020
3321 Clear 25 1013 24 12874 5.7 80 05:28 11.05.2020
3322 Clear 26 1014 18 12874 6.2 90 04:43 11.05.2020
3323 Clear 27 1014 23 12874 4.6 100 03:35 11.05.2020
3324 Clear 27 1015 22 12874 5.1 160 02:34 11.05.2020
3325 Clear 26 1015 18 12874 6.7 150 01:46 11.05.2020
3326 Clear 26 1016 20 12874 1.5 90 00:54 11.05.2020
3327 Clear 26 1016 20 12874 1.5 90 00:22 11.05.2020
3328 Clear 24 1017 23 12874 4.1 140 23:45 10.05.2020
3329 Clear 24 1017 23 12874 4.1 140 23:26 10.05.2020
3330 Clear 24 1018 22 14484 2.6 110 22:57 10.05.2020
3331 Clear 24 1018 22 14484 2.6 110 22:39 10.05.2020
3332 Clear 24 1018 22 14484 2.6 110 22:20 10.05.2020
3333 Clear 22 1018 24 12874 4.1 60 21:44 10.05.2020
3334 Clear 22 1018 24 12874 4.1 60 21:20 10.05.2020
3335 Clear 20 1019 29 14484 2.1 90 20:56 10.05.2020
3336 Clear 20 1019 29 14484 2.1 90 20:38 10.05.2020
3337 Clear 19 1019 29 14484 2.1 90 20:20 10.05.2020
3338 Clear 17 1019 36 16093 1.24 82 19:41 10.05.2020
3339 Clear 17 1019 36 16093 1.08 68 19:23 10.05.2020
3340 Clear 14 1020 43 16093 1.08 68 18:57 10.05.2020
3341 Clear 13 1020 43 16093 1.08 68 18:38 10.05.2020
3342 Clear 13 1020 43 16093 1 49 18:20 10.05.2020
3343 Clear 10 1020 61 16093 1 49 17:59 10.05.2020
3344 Clear 10 1020 61 16093 1 49 17:41 10.05.2020
3345 Clear 9 1020 61 16093 1.31 36 17:22 10.05.2020
3346 Clear 9 1021 65 16093 1.31 36 16:59 10.05.2020
3347 Clear 8 1021 65 16093 1.31 36 16:40 10.05.2020
3348 Clear 8 1021 65 16093 1.51 46 16:19 10.05.2020
3349 Clear 8 1021 70 16093 1.5 50 15:55 10.05.2020
3350 Clear 8 1021 70 16093 1.5 50 15:36 10.05.2020
3351 Clear 8 1021 70 16093 1.5 50 15:18 10.05.2020
3352 Clear 10 1021 57 16093 1.59 54 14:39 10.05.2020
3353 Clear 10 1021 57 16093 1.68 58 14:20 10.05.2020
3354 Clear 10 1021 57 16093 1.68 58 14:20 10.05.2020
3355 Clouds 10 1021 53 16093 2.6 60 13:59 10.05.2020
3356 Clouds 10 1021 53 16093 2.6 60 13:59 10.05.2020
3357 Clouds 10 1021 53 16093 2.6 60 13:59 10.05.2020
3358 Clouds 10 1021 53 16093 2.6 60 13:39 10.05.2020
3359 Clouds 10 1021 53 16093 2.6 60 13:21 10.05.2020
3360 Clear 11 1021 53 16093 1.8 53 12:58 10.05.2020
3361 Clear 11 1021 53 16093 1.8 53 12:40 10.05.2020
3362 Clear 11 1021 53 16093 1.9 43 12:21 10.05.2020
3363 Clear 11 1021 54 16093 2.6 60 11:58 10.05.2020
3364 Clear 11 1021 54 16093 2.6 60 11:58 10.05.2020
3365 Clear 12 1021 54 16093 2.6 60 11:39 10.05.2020
3366 Clear 12 1021 54 16093 2.6 60 11:20 10.05.2020
3367 Clear 13 1021 47 14484 2.6 70 10:48 10.05.2020
3368 Clear 14 1021 47 14484 2.6 70 10:29 10.05.2020
3369 Haze 15 1021 41 9656 1.7 33 09:59 10.05.2020
3370 Haze 16 1021 41 9656 1.7 33 09:40 10.05.2020
3371 Clouds 17 1021 30 16093 2.6 350 09:21 10.05.2020
3372 Clear 18 1021 52 11265 1.5 360 08:52 10.05.2020
3373 Clouds 18 1021 30 16093 2.6 350 08:24 10.05.2020
3374 Haze 21 1021 44 9656 1.5 350 07:56 10.05.2020
3375 Haze 21 1021 44 9656 1.5 350 07:37 10.05.2020
3376 Haze 21 1021 39 9656 1.5 350 07:19 10.05.2020
3377 Clear 21 1021 39 11265 2.1 300 06:48 10.05.2020
3378 Clear 22 1021 32 11265 2.1 300 06:21 10.05.2020
3379 Clear 22 1021 20 11265 2.1 230 05:43 10.05.2020
3380 Clear 22 1021 20 11265 2.16 143 04:41 10.05.2020
3381 Clear 23 1021 20 11265 2.36 134 04:22 10.05.2020
3382 Haze 23 1022 20 9656 1.5 20 03:41 10.05.2020
3383 Clear 22 1022 29 11265 2.31 131 02:54 10.05.2020
3384 Clear 22 1022 30 11265 2.42 129 02:24 10.05.2020
3385 Clear 22 1022 29 11265 2.52 123 02:24 10.05.2020
3386 Clear 22 1022 29 11265 2.52 123 02:24 10.05.2020
3387 Clear 21 1023 29 11265 2.52 123 01:43 10.05.2020
3388 Clear 21 1023 31 11265 2.61 121 01:23 10.05.2020
3389 Clear 21 1023 24 11265 2.1 190 00:58 10.05.2020
3390 Clear 21 1023 24 11265 2.1 190 00:37 10.05.2020
3391 Clear 20 1023 24 11265 2.1 190 00:19 10.05.2020
3392 Clear 20 1024 32 11265 1.5 90 23:39 09.05.2020
3393 Clear 19 1024 35 11265 1.5 90 23:21 09.05.2020
3394 Clear 18 1024 35 11265 1.5 140 22:54 09.05.2020
3395 Clear 18 1024 35 11265 1.5 140 22:36 09.05.2020
3396 Clear 18 1024 37 11265 1.5 140 22:18 09.05.2020
3397 Clear 17 1024 37 12874 2.1 130 21:55 09.05.2020
3398 Clear 17 1024 37 12874 2.1 130 21:36 09.05.2020
3399 Clear 17 1024 37 12874 2.1 130 21:36 09.05.2020
3400 Clear 15 1025 43 14484 2.1 130 21:18 09.05.2020
3401 Clear 14 1025 43 14484 2.1 130 20:54 09.05.2020
3402 Clear 14 1025 43 14484 2.1 130 20:36 09.05.2020
3403 Clear 13 1025 43 14484 2.1 130 20:18 09.05.2020
3404 Clear 12 1025 46 12874 2.6 90 19:39 09.05.2020
3405 Clear 11 1025 51 12874 2.6 90 19:20 09.05.2020
3406 Clear 9 1025 51 14484 2.1 60 18:54 09.05.2020
3407 Clear 9 1025 51 14484 2.1 60 18:54 09.05.2020
3408 Clear 9 1025 51 14484 2.1 60 18:36 09.05.2020
3409 Clear 8 1025 57 14484 2.1 60 18:18 09.05.2020
3410 Clear 7 1025 70 16093 1.5 60 17:40 09.05.2020
3411 Clear 7 1025 70 16093 1.5 60 17:21 09.05.2020
3412 Clear 7 1025 62 14484 1.12 63 16:41 09.05.2020
3413 Clear 8 1025 66 14484 0.93 53 16:20 09.05.2020
3414 Clear 8 1025 52 11265 0.93 53 15:46 09.05.2020
3415 Clear 9 1025 52 11265 1.27 28 15:27 09.05.2020
3416 Clear 8 1025 66 14484 1.27 28 14:59 09.05.2020
3417 Clear 8 1025 66 14484 1.27 28 14:41 09.05.2020
3418 Clear 8 1025 65 14484 1.01 356 14:20 09.05.2020
3419 Clear 8 1024 68 12874 2.1 40 13:58 09.05.2020
3420 Clear 9 1024 68 12874 2.1 40 13:40 09.05.2020
3421 Clear 9 1024 66 12874 2.1 40 13:20 09.05.2020
3422 Clouds 9 1024 65 12874 1.5 50 12:43 09.05.2020
3423 Clouds 9 1024 65 12874 1.5 50 12:23 09.05.2020
3424 Clear 10 1024 63 12874 1.5 40 11:59 09.05.2020
3425 Clear 9 1024 63 12874 1.5 40 11:41 09.05.2020
3426 Clear 10 1024 61 12874 1.5 40 11:19 09.05.2020
3427 Clear 11 1023 57 12874 2.6 80 10:47 09.05.2020
3428 Clear 11 1023 57 12874 2.6 80 10:26 09.05.2020
3429 Clear 12 1023 56 11265 1.5 50 09:58 09.05.2020
3430 Clear 11 1023 56 11265 1.5 50 09:40 09.05.2020
3431 Clear 13 1023 51 11265 1.5 50 09:19 09.05.2020
3432 Haze 14 1022 33 8047 1.5 60 08:51 09.05.2020
3433 Haze 14 1022 33 8047 1.5 60 08:33 09.05.2020
3434 Haze 16 1021 23 9656 1.3 63 07:54 09.05.2020
3435 Haze 16 1021 23 9656 1.3 63 07:36 09.05.2020
3436 Haze 17 1021 23 9656 2.14 71 07:18 09.05.2020
3437 Haze 18 1021 22 9656 3.6 140 06:26 09.05.2020
3438 Haze 19 1021 19 9656 3.1 130 05:49 09.05.2020
3439 Clouds 19 1021 20 16093 2.6 140 04:43 09.05.2020
3440 Clouds 19 1021 18 16093 3.1 90 03:38 09.05.2020
3441 Clouds 19 1021 17 16093 3.6 150 02:50 09.05.2020
3442 Clouds 19 1021 16 11265 3.1 140 01:54 09.05.2020
3443 Clouds 19 1021 16 11265 3.1 140 01:26 09.05.2020
3444 Clouds 18 1021 18 11265 2.6 80 00:59 09.05.2020
3445 Clouds 18 1021 18 11265 2.6 80 00:38 09.05.2020
3446 Clouds 18 1021 20 11265 5.1 90 23:58 08.05.2020
3447 Clouds 17 1021 20 11265 5.1 90 23:39 08.05.2020
3448 Clouds 17 1021 20 11265 5.1 90 23:19 08.05.2020
3449 Clouds 17 1021 23 11265 7.7 90 22:54 08.05.2020
3450 Clouds 16 1021 23 11265 7.7 90 22:36 08.05.2020
3451 Clouds 16 1021 25 11265 6.2 110 22:18 08.05.2020
3452 Clouds 15 1021 25 11265 6.2 110 21:42 08.05.2020
3453 Clouds 14 1021 30 11265 5.1 90 21:19 08.05.2020
3454 Clouds 15 1021 30 11265 5.1 90 20:59 08.05.2020
3455 Clouds 15 1021 30 11265 5.1 90 20:41 08.05.2020
3456 Clouds 15 1021 30 11265 5.1 90 20:23 08.05.2020
3457 Clouds 14 1021 33 11265 6.2 80 19:55 08.05.2020
3458 Clouds 14 1021 33 11265 6.2 80 19:37 08.05.2020
3459 Clouds 14 1021 33 11265 6.2 80 19:19 08.05.2020
3460 Haze 13 1021 37 9656 3.6 90 18:43 08.05.2020
3461 Haze 13 1021 37 9656 3.6 90 18:25 08.05.2020
3462 Haze 12 1021 35 9656 5.1 70 17:42 08.05.2020
3463 Haze 12 1021 35 9656 5.1 70 17:20 08.05.2020
3464 Clear 10 1021 46 11265 4.1 80 16:54 08.05.2020
3465 Clear 10 1021 46 11265 4.1 80 16:36 08.05.2020
3466 Clear 10 1022 46 11265 4.1 70 16:18 08.05.2020
3467 Clear 10 1022 46 11265 4.1 70 15:42 08.05.2020
3468 Clear 10 1022 46 11265 4.1 70 15:19 08.05.2020
3469 Clear 10 1022 54 11265 3.6 60 14:55 08.05.2020
3470 Clear 10 1022 54 11265 3.6 60 14:37 08.05.2020
3471 Clear 10 1022 57 11265 3.6 60 14:18 08.05.2020
3472 Clear 10 1022 57 12874 3.6 60 13:41 08.05.2020
3473 Clear 10 1022 58 12874 3.6 60 13:20 08.05.2020
3474 Clear 11 1023 58 14484 4.1 60 12:55 08.05.2020
3475 Clear 11 1023 58 14484 4.1 60 12:37 08.05.2020
3476 Clear 11 1023 60 14484 4.1 60 12:18 08.05.2020
3477 Clear 11 1023 60 12874 3.6 70 11:44 08.05.2020
3478 Clear 11 1023 60 12874 3.6 70 11:44 08.05.2020
3479 Clear 11 1023 61 12874 3.6 70 11:23 08.05.2020
3480 Clear 12 1023 61 12874 3.1 60 10:58 08.05.2020
3481 Clear 12 1023 61 12874 3.1 60 10:40 08.05.2020
3482 Haze 13 1023 60 9656 4.1 60 10:19 08.05.2020
3483 Haze 13 1023 60 9656 4.1 60 09:56 08.05.2020
3484 Haze 13 1023 60 9656 4.1 60 09:37 08.05.2020
3485 Haze 14 1023 53 9656 4.1 60 09:18 08.05.2020
3486 Haze 15 1023 53 9656 3.1 70 08:40 08.05.2020
3487 Haze 15 1023 47 9656 3.1 70 08:21 08.05.2020
3488 Haze 16 1023 25 9656 4.1 70 07:43 08.05.2020
3489 Haze 16 1023 25 9656 4.1 70 07:23 08.05.2020
3490 Haze 18 1023 22 9656 3.1 50 06:51 08.05.2020
3491 Haze 18 1023 22 9656 3.1 50 06:23 08.05.2020
3492 Haze 18 1023 20 9656 5.1 60 05:42 08.05.2020
3493 Haze 19 1023 23 9656 3.39 51 04:32 08.05.2020
3494 Haze 19 1024 20 9656 2.6 210 02:33 08.05.2020
3495 Clouds 19 1025 23 11265 1.5 270 01:47 08.05.2020
3496 Clouds 18 1025 23 11265 1.5 270 01:27 08.05.2020
3497 Clouds 19 1025 23 11265 0.84 92 00:52 08.05.2020
3498 Clouds 18 1025 23 11265 0.84 92 00:29 08.05.2020
3499 Clouds 18 1025 29 11265 1.04 108 23:59 07.05.2020
3500 Clouds 18 1025 29 11265 1.04 108 23:40 07.05.2020
3501 Clouds 18 1025 29 11265 1.04 108 23:40 07.05.2020
3502 Clouds 18 1025 29 11265 1.24 106 23:21 07.05.2020
3503 Clear 17 1025 36 11265 3.1 170 22:56 07.05.2020
3504 Clear 17 1025 36 11265 3.1 170 22:37 07.05.2020
3505 Clear 17 1025 40 11265 3.1 170 22:19 07.05.2020
3506 Clear 16 1025 40 11265 1.27 94 21:55 07.05.2020
3507 Clear 15 1025 40 11265 1.27 94 21:36 07.05.2020
3508 Clear 15 1025 44 11265 1.05 82 21:18 07.05.2020
3509 Clear 14 1025 43 12874 0.97 95 20:42 07.05.2020
3510 Clear 13 1025 48 12874 0.9 92 20:23 07.05.2020
3511 Clear 12 1025 46 11265 3.1 100 19:56 07.05.2020
3512 Clear 11 1025 46 11265 3.1 100 19:38 07.05.2020
3513 Clear 10 1025 46 11265 3.1 100 19:19 07.05.2020
3514 Clouds 8 1024 56 12874 2.1 70 18:44 07.05.2020
3515 Clouds 7 1024 56 12874 2.1 70 18:26 07.05.2020
3516 Clouds 5 1024 69 12874 2.1 60 17:44 07.05.2020
3517 Clouds 4 1024 69 12874 2.1 60 17:22 07.05.2020
3518 Clouds 4 1024 80 14484 1.35 51 16:59 07.05.2020
3519 Clouds 4 1024 80 14484 1.35 51 16:40 07.05.2020
3520 Clouds 4 1024 80 14484 1.59 41 16:18 07.05.2020
3521 Clear 4 1023 69 14484 1.59 41 15:56 07.05.2020
3522 Clear 5 1023 69 14484 1.59 41 15:37 07.05.2020
3523 Clouds 5 1023 52 14484 1.76 37 15:18 07.05.2020
3524 Clouds 4 1023 52 14484 1.76 37 14:44 07.05.2020
3525 Clouds 5 1023 52 14484 1.87 42 14:21 07.05.2020
3526 Clouds 6 1022 52 16093 1.5 10 13:45 07.05.2020
3527 Clouds 6 1022 52 16093 1.5 10 13:26 07.05.2020
3528 Clouds 6 1022 56 14484 2.6 70 12:55 07.05.2020
3529 Clouds 7 1022 56 14484 2.6 70 12:37 07.05.2020
3530 Clouds 7 1022 56 14484 2.6 70 12:18 07.05.2020
3531 Clouds 8 1021 45 16093 2.1 360 11:39 07.05.2020
3532 Clouds 8 1021 45 16093 2.1 360 11:21 07.05.2020
3533 Clouds 8 1021 49 16093 2.1 350 10:44 07.05.2020
3534 Clouds 9 1021 37 11265 1.5 50 10:25 07.05.2020
3535 Clouds 10 1021 37 11265 1.5 50 09:57 07.05.2020
3536 Clouds 10 1021 37 11265 1.5 50 09:38 07.05.2020
3537 Clouds 10 1021 37 11265 1.5 50 09:18 07.05.2020
3538 Clouds 12 1020 30 11265 2.6 360 08:43 07.05.2020
3539 Clouds 13 1020 26 11265 4.1 20 08:22 07.05.2020
3540 Clouds 13 1020 26 11265 4.1 20 07:58 07.05.2020
3541 Clouds 13 1020 26 11265 4.1 20 07:39 07.05.2020
3542 Haze 14 1019 23 9656 2.6 340 07:19 07.05.2020
3543 Haze 14 1019 23 9656 2.6 340 07:19 07.05.2020
3544 Haze 15 1019 23 9656 2.6 340 06:37 07.05.2020
3545 Haze 15 1019 23 9656 1.26 356 05:58 07.05.2020
3546 Clear 16 1019 25 11265 3.1 360 04:27 07.05.2020
3547 Haze 16 1019 25 9656 5.7 330 03:31 07.05.2020
3548 Clouds 16 1019 26 11265 0.38 282 02:59 07.05.2020
3549 Clouds 17 1019 26 11265 0.22 218 02:26 07.05.2020
3550 Rain 16 1019 21 11265 0.11 257 01:28 07.05.2020
3551 Rain 16 1019 21 11265 1.5 150 00:55 07.05.2020
3552 Rain 16 1019 21 11265 1.5 150 00:37 07.05.2020
3553 Rain 16 1019 21 11265 1.5 150 00:18 07.05.2020
3554 Rain 16 1019 30 11265 0.24 287 23:41 06.05.2020
3555 Rain 16 1019 30 11265 0.38 283 23:22 06.05.2020
3556 Clouds 15 1019 35 11265 0.38 283 22:55 06.05.2020
3557 Clouds 15 1019 35 11265 0.38 283 22:37 06.05.2020
3558 Clouds 14 1019 40 11265 0.34 259 22:18 06.05.2020
3559 Clouds 14 1019 40 11265 0.34 259 21:55 06.05.2020
3560 Clouds 13 1019 40 11265 0.34 259 21:36 06.05.2020
3561 Clouds 12 1019 40 11265 0.32 205 21:18 06.05.2020
3562 Clear 11 1019 43 11265 2.1 110 20:39 06.05.2020
3563 Clear 10 1019 43 11265 2.1 110 20:21 06.05.2020
3564 Clear 8 1019 52 12874 1.5 120 19:56 06.05.2020
3565 Clear 8 1019 52 12874 1.5 120 19:38 06.05.2020
3566 Clear 7 1019 52 12874 1.5 120 19:19 06.05.2020
3567 Clear 7 1019 65 14484 0.44 128 18:58 06.05.2020
3568 Clear 7 1019 65 14484 0.44 128 18:58 06.05.2020
3569 Clear 6 1019 65 14484 0.44 128 18:38 06.05.2020
3570 Clear 6 1019 65 14484 0.44 128 18:38 06.05.2020
3571 Clear 5 1019 65 14484 0.45 101 18:20 06.05.2020
3572 Clear 3 1019 69 14484 1.5 60 17:55 06.05.2020
3573 Clear 3 1019 69 14484 1.5 60 17:37 06.05.2020
3574 Clear 3 1019 69 14484 1.5 60 17:37 06.05.2020
3575 Clear 3 1019 69 14484 1.5 60 17:37 06.05.2020
3576 Clear 3 1019 69 14484 1.5 60 17:18 06.05.2020
3577 Clear 3 1018 80 14484 2.6 70 16:58 06.05.2020
3578 Clear 2 1018 80 14484 2.6 70 16:40 06.05.2020
3579 Clear 2 1018 80 14484 2.6 70 16:20 06.05.2020
3580 Clear 2 1018 79 14484 2.1 70 15:56 06.05.2020
3581 Clear 2 1018 79 14484 2.1 70 15:38 06.05.2020
3582 Clear 2 1018 79 14484 2.1 70 15:18 06.05.2020
3583 Clear 3 1018 74 14484 1.5 90 14:40 06.05.2020
3584 Clear 3 1018 74 14484 1.5 90 14:19 06.05.2020
3585 Clear 4 1017 74 16093 1.5 50 13:59 06.05.2020
3586 Clear 4 1017 74 16093 1.5 50 13:39 06.05.2020
3587 Clear 4 1017 74 16093 1.5 50 13:19 06.05.2020
3588 Clear 4 1017 74 16093 1.5 50 13:19 06.05.2020
3589 Clear 4 1017 74 16093 0.36 302 12:43 06.05.2020
3590 Clear 5 1017 74 16093 0.37 317 12:25 06.05.2020
3591 Clear 5 1017 69 16093 0.37 317 11:55 06.05.2020
3592 Clear 5 1017 69 16093 0.37 317 11:36 06.05.2020
3593 Clear 5 1017 69 16093 0.99 350 11:18 06.05.2020
3594 Clear 6 1016 60 14484 1.5 90 10:55 06.05.2020
3595 Clear 6 1016 60 14484 1.5 90 10:36 06.05.2020
3596 Clear 8 1016 40 11265 1.36 333 10:18 06.05.2020
3597 Clear 9 1016 40 11265 1.36 333 09:39 06.05.2020
3598 Clear 9 1016 40 11265 1.47 317 09:20 06.05.2020
3599 Clouds 11 1016 32 11265 2.6 360 08:44 06.05.2020
3600 Clouds 11 1016 32 11265 2.6 360 08:21 06.05.2020
3601 Clouds 11 1016 32 11265 2.6 360 08:21 06.05.2020
3602 Haze 12 1015 26 9656 3.1 80 07:58 06.05.2020
3603 Haze 12 1015 26 9656 3.1 80 07:39 06.05.2020
3604 Haze 13 1015 26 9656 3.1 80 07:19 06.05.2020
3605 Haze 13 1015 26 9656 4.1 330 06:49 06.05.2020
3606 Haze 14 1015 26 9656 4.1 330 06:21 06.05.2020
3607 Clouds 14 1015 30 11265 1.68 299 05:50 06.05.2020
3608 Clouds 14 1015 30 11265 1.68 299 05:32 06.05.2020
3609 Haze 15 1015 29 9656 2.6 260 03:55 06.05.2020
3610 Haze 15 1015 29 9656 2.6 260 03:34 06.05.2020
3611 Clear 15 1016 28 11265 1.71 256 02:58 06.05.2020
3612 Clear 15 1016 28 11265 1.82 250 02:28 06.05.2020
3613 Clear 15 1016 28 11265 1.9 246 02:28 06.05.2020
3614 Clear 15 1016 28 11265 1.9 246 01:53 06.05.2020
3615 Clear 15 1016 28 11265 1.86 244 01:27 06.05.2020
3616 Clouds 15 1016 30 11265 3.1 250 00:45 06.05.2020
3617 Clouds 14 1016 30 11265 3.1 250 00:23 06.05.2020
3618 Clouds 14 1016 32 11265 1.72 246 23:42 05.05.2020
3619 Clouds 14 1016 32 11265 1.67 246 23:20 05.05.2020
3620 Clouds 13 1016 37 11265 1.67 246 22:57 05.05.2020
3621 Clouds 13 1016 37 11265 1.67 246 22:39 05.05.2020
3622 Clouds 12 1016 37 11265 1.51 246 22:19 05.05.2020
3623 Clouds 12 1016 40 12874 3.1 240 21:55 05.05.2020
3624 Clouds 12 1016 40 12874 3.1 240 21:37 05.05.2020
3625 Clouds 11 1016 48 12874 3.1 240 21:19 05.05.2020
3626 Clouds 9 1016 48 11265 1.5 220 20:56 05.05.2020
3627 Clouds 9 1016 48 11265 1.5 220 20:37 05.05.2020
3628 Clouds 9 1016 55 11265 1.5 220 20:18 05.05.2020
3629 Clouds 8 1016 55 12874 0.44 259 19:41 05.05.2020
3630 Clouds 8 1016 61 12874 0.22 274 19:23 05.05.2020
3631 Clear 6 1016 61 16093 0.22 274 18:57 05.05.2020
3632 Clear 6 1016 61 16093 0.22 274 18:39 05.05.2020
3633 Clouds 4 1016 68 14484 0.35 10 18:20 05.05.2020
3634 Clouds 3 1016 68 14484 0.35 10 17:57 05.05.2020
3635 Clouds 3 1016 68 14484 0.35 10 17:39 05.05.2020
3636 Clouds 3 1016 77 14484 0.81 18 17:20 05.05.2020
3637 Clouds 3 1016 74 16093 1 120 16:54 05.05.2020
3638 Clouds 3 1016 74 16093 1 120 16:36 05.05.2020
3639 Clouds 2 1016 74 16093 1 120 16:18 05.05.2020
3640 Clouds 2 1016 74 16093 1.01 32 15:40 05.05.2020
3641 Clouds 2 1016 74 16093 1.15 42 15:21 05.05.2020
3642 Clouds 2 1015 74 16093 1.15 42 14:56 05.05.2020
3643 Clouds 2 1015 74 16093 1.15 42 14:38 05.05.2020
3644 Clouds 3 1015 74 16093 1.3 43 14:19 05.05.2020
3645 Clouds 3 1015 69 16093 1.3 43 13:57 05.05.2020
3646 Clouds 2 1015 74 16093 1.3 43 13:38 05.05.2020
3647 Clouds 4 1015 64 16093 0.5 40 13:19 05.05.2020
3648 Clouds 4 1015 64 16093 0.5 40 12:58 05.05.2020
3649 Clouds 4 1015 64 16093 0.5 40 12:38 05.05.2020
3650 Clouds 4 1015 64 16093 0.5 40 12:19 05.05.2020
3651 Clouds 5 1014 69 16093 1 80 11:42 05.05.2020
3652 Clouds 5 1014 69 16093 1 80 11:20 05.05.2020
3653 Clouds 6 1014 65 16093 2.1 220 10:59 05.05.2020
3654 Clouds 6 1014 65 16093 2.1 220 10:38 05.05.2020
3655 Clouds 6 1014 65 16093 2.1 220 10:19 05.05.2020
3656 Clouds 9 1014 43 16093 2.1 230 09:55 05.05.2020
3657 Clouds 9 1014 43 16093 2.1 230 09:37 05.05.2020
3658 Clouds 9 1014 43 16093 2.1 230 09:19 05.05.2020
3659 Clouds 11 1014 30 16093 0.5 0 08:41 05.05.2020
3660 Clouds 11 1014 30 16093 0.5 0 08:20 05.05.2020
3661 Clouds 12 1013 25 16093 0.5 0 07:57 05.05.2020
3662 Clouds 13 1013 25 16093 0.5 0 07:38 05.05.2020
3663 Clouds 13 1013 25 16093 0.5 0 07:18 05.05.2020
3664 Rain 13 1014 33 16093 2.1 110 06:42 05.05.2020
3665 Rain 13 1014 33 16093 2.1 110 06:20 05.05.2020
3666 Rain 13 1013 35 16093 4.1 80 05:34 05.05.2020
3667 Clouds 14 1013 30 16093 2.6 120 03:24 05.05.2020
3668 Clouds 15 1012 30 11265 2.1 360 01:25 05.05.2020
3669 Clouds 15 1013 33 16093 1.5 360 00:50 05.05.2020
3670 Clouds 14 1012 35 11265 1.68 68 00:19 05.05.2020
3671 Clouds 13 1012 35 11265 1.68 68 23:43 04.05.2020
3672 Clouds 13 1012 35 11265 1.68 68 23:43 04.05.2020
3673 Clouds 13 1012 35 11265 2.2 63 23:21 04.05.2020
3674 Clouds 13 1012 37 11265 2.2 63 22:56 04.05.2020
3675 Clouds 13 1012 37 11265 2.2 63 22:56 04.05.2020
3676 Clouds 13 1012 37 11265 2.2 63 22:37 04.05.2020
3677 Clouds 11 1012 43 11265 6.2 60 22:19 04.05.2020
3678 Clouds 10 1012 43 11265 6.2 60 21:52 04.05.2020
3679 Clouds 10 1012 43 11265 6.2 60 21:52 04.05.2020
3680 Clouds 10 1012 43 11265 6.2 60 21:52 04.05.2020
3681 Clouds 10 1012 43 11265 6.2 60 21:52 04.05.2020
3682 Clouds 10 1012 43 11265 6.2 60 21:52 04.05.2020
3683 Clouds 10 1012 43 11265 6.2 60 21:30 04.05.2020
3684 Clouds 10 1012 43 11265 6.2 60 21:30 04.05.2020
3685 Clouds 10 1012 43 11265 6.2 60 21:30 04.05.2020
3686 Clouds 8 1012 42 14484 4.6 60 20:44 04.05.2020
3687 Clouds 8 1012 42 14484 4.6 60 20:23 04.05.2020
3688 Clouds 6 1012 36 16093 3.1 50 19:59 04.05.2020
3689 Clouds 6 1012 36 16093 3.1 50 19:40 04.05.2020
3690 Clouds 6 1012 36 16093 3.1 50 19:20 04.05.2020
3691 Clouds 5 1012 44 16093 2.1 30 18:55 04.05.2020
3692 Clouds 5 1012 44 16093 2.1 30 18:37 04.05.2020
3693 Clouds 6 1012 44 16093 2.1 30 18:18 04.05.2020
3694 Clouds 5 1012 44 16093 2.1 20 17:55 04.05.2020
3695 Clouds 5 1012 44 16093 2.1 20 17:55 04.05.2020
3696 Clouds 4 1012 44 16093 2.1 20 17:36 04.05.2020
3697 Clouds 4 1011 41 16093 3.1 20 17:18 04.05.2020
3698 Clouds 4 1011 41 16093 3.1 20 16:42 04.05.2020
3699 Clouds 4 1011 41 16093 3.1 20 16:21 04.05.2020
3700 Clouds 4 1011 44 16093 4.1 360 15:46 04.05.2020
3701 Clouds 4 1011 44 16093 4.1 360 15:46 04.05.2020
3702 Clouds 4 1011 44 16093 4.1 360 15:25 04.05.2020
3703 Clouds 4 1011 47 16093 2.6 60 14:56 04.05.2020
3704 Clouds 4 1011 47 16093 2.6 60 14:56 04.05.2020
3705 Clouds 3 1011 47 16093 2.6 60 14:38 04.05.2020
3706 Clouds 3 1011 47 16093 2.6 60 14:38 04.05.2020
3707 Clouds 3 1011 47 16093 2.6 60 14:38 04.05.2020
3708 Clouds 3 1011 47 16093 2.6 60 14:38 04.05.2020
3709 Clouds 3 1011 47 16093 2.6 60 14:38 04.05.2020
3710 Clouds 3 1011 41 16093 4.1 360 13:42 04.05.2020
3711 Clouds 3 1011 41 16093 4.1 360 13:42 04.05.2020
3712 Clear 3 1011 41 16093 4.6 60 12:46 04.05.2020
3713 Clear 3 1011 41 16093 4.6 60 12:46 04.05.2020
3714 Clear 3 1011 41 16093 4.6 60 12:46 04.05.2020
3715 Clear 3 1011 41 16093 4.6 60 12:46 04.05.2020
3716 Clear 3 1011 41 16093 4.1 60 12:01 04.05.2020
3717 Clear 5 1011 35 14484 5.1 50 09:32 04.05.2020
3718 Clear 6 1011 33 12874 6.2 50 08:51 04.05.2020
3719 Clear 6 1011 33 12874 6.2 50 08:50 04.05.2020
3720 Clear 6 1011 33 12874 6.2 50 08:50 04.05.2020
3721 Clear 6 1011 33 12874 6.2 50 08:50 04.05.2020
3722 Clear 6 1011 33 12874 6.2 50 08:50 04.05.2020
3723 Clouds 6 1011 33 16093 6.7 40 07:44 04.05.2020
3724 Clouds 6 1011 33 16093 6.7 40 07:44 04.05.2020
3725 Clear 7 1011 27 12874 7.2 50 07:00 04.05.2020
3726 Clear 7 1011 27 12874 7.2 50 07:00 04.05.2020
3727 Clear 7 1011 27 12874 7.2 50 07:00 04.05.2020
3728 Clear 9 1012 27 12874 7.2 40 04:55 04.05.2020
3729 Clear 9 1012 27 12874 8.2 40 03:18 04.05.2020
3730 Clear 10 1012 25 12874 7.7 40 02:30 04.05.2020
3731 Clear 9 1012 23 12874 7.2 50 00:38 04.05.2020
3732 Clear 9 1013 23 14484 6.2 40 23:46 03.05.2020
3733 Clear 9 1013 23 14484 6.2 40 23:24 03.05.2020
3734 Clear 8 1013 24 12874 8.2 60 22:56 03.05.2020
3735 Clear 8 1013 24 12874 8.2 60 22:56 03.05.2020
3736 Clear 8 1013 24 12874 8.2 60 22:38 03.05.2020
3737 Clear 8 1013 24 12874 8.2 60 22:19 03.05.2020
3738 Clear 7 1013 24 12874 6.7 60 21:41 03.05.2020
3739 Clear 7 1013 24 12874 6.7 60 21:41 03.05.2020
3740 Clear 7 1013 24 12874 6.7 60 21:20 03.05.2020
3741 Clear 6 1013 28 14484 6.2 40 20:47 03.05.2020
3742 Clear 6 1013 28 14484 6.2 40 20:23 03.05.2020
3743 Clear 5 1013 32 14484 5.7 50 19:55 03.05.2020
3744 Clear 5 1013 32 14484 5.7 50 19:37 03.05.2020
3745 Clear 5 1013 32 14484 5.7 50 19:18 03.05.2020
3746 Clear 4 1013 35 14484 5.7 50 18:39 03.05.2020
3747 Clear 3 1013 35 14484 5.7 50 18:20 03.05.2020
3748 Clear 2 1013 37 16093 5.1 50 17:54 03.05.2020
3749 Clear 2 1013 37 16093 5.1 50 17:36 03.05.2020
3750 Clear 2 1013 37 16093 5.1 50 17:18 03.05.2020
3751 Clear 1 1014 43 16093 3.6 50 16:40 03.05.2020
3752 Clear 1 1014 43 16093 3.6 50 16:19 03.05.2020
3753 Clear 1 1014 47 16093 2.6 60 15:56 03.05.2020
3754 Clear 1 1014 47 16093 2.6 60 15:38 03.05.2020
3755 Clear 0 1014 47 16093 2.6 60 15:19 03.05.2020
3756 Clear 0 1014 43 16093 3.1 50 14:55 03.05.2020
3757 Clear 0 1014 43 16093 3.1 50 14:37 03.05.2020
3758 Clear 1 1014 43 16093 3.1 50 14:18 03.05.2020
3759 Clear 1 1014 37 16093 4.1 50 13:37 03.05.2020
3760 Clear 1 1014 37 16093 4.1 50 13:37 03.05.2020
3761 Clear 2 1014 35 16093 3.6 50 12:52 03.05.2020
3762 Clear 2 1014 35 16093 3.6 50 12:29 03.05.2020
3763 Clear 2 1014 35 16093 3.6 50 12:29 03.05.2020
3764 Clear 2 1014 35 16093 4.6 50 11:58 03.05.2020
3765 Clear 2 1014 35 16093 4.6 50 11:40 03.05.2020
3766 Clear 2 1014 35 16093 4.6 50 11:40 03.05.2020
3767 Clear 2 1014 35 16093 4.6 50 11:40 03.05.2020
3768 Clear 2 1014 35 16093 4.6 50 11:40 03.05.2020
3769 Clear 2 1014 35 16093 4.6 50 11:20 03.05.2020
3770 Clear 3 1014 32 16093 4.6 50 10:54 03.05.2020
3771 Clear 3 1014 32 16093 4.6 50 10:25 03.05.2020
3772 Clear 3 1014 32 14484 4.6 40 09:41 03.05.2020
3773 Clear 3 1014 32 14484 4.6 40 09:41 03.05.2020
3774 Clear 3 1014 32 14484 4.6 40 09:41 03.05.2020
3775 Clear 3 1014 32 14484 4.6 40 09:41 03.05.2020
3776 Clear 3 1014 32 14484 4.6 40 09:41 03.05.2020
3777 Clear 4 1014 30 12874 4.1 50 09:00 03.05.2020
3778 Clear 4 1014 30 12874 4.1 50 08:59 03.05.2020
3779 Clear 4 1014 30 12874 4.1 50 08:59 03.05.2020
3780 Clear 4 1014 30 12874 4.1 50 08:59 03.05.2020
3781 Clear 4 1014 30 12874 4.1 50 08:35 03.05.2020
3782 Clear 6 1014 24 12874 4.6 40 07:45 03.05.2020
3783 Clear 6 1014 24 12874 4.6 40 07:45 03.05.2020
3784 Clear 6 1014 24 12874 4.6 40 07:45 03.05.2020
3785 Clear 6 1014 24 12874 4.6 40 07:45 03.05.2020
3786 Clear 6 1014 24 12874 4.6 40 07:44 03.05.2020
3787 Clear 7 1013 21 12874 7.2 40 06:54 03.05.2020
3788 Clear 7 1013 21 12874 7.2 40 06:54 03.05.2020
3789 Clear 7 1013 21 12874 7.2 40 06:54 03.05.2020
3790 Clear 7 1013 21 12874 7.2 40 06:54 03.05.2020
3791 Clear 8 1013 21 12874 7.7 40 05:56 03.05.2020
3792 Clear 8 1013 21 12874 7.7 40 05:37 03.05.2020
3793 Clear 9 1014 23 12874 6.7 50 04:28 03.05.2020
3794 Clear 9 1014 23 12874 5.1 50 03:41 03.05.2020
3795 Clear 10 1014 23 14484 3.6 40 02:32 03.05.2020
3796 Clear 10 1014 25 12874 4.1 70 01:59 03.05.2020
3797 Clear 10 1014 25 12874 4.1 70 01:39 03.05.2020
3798 Clear 10 1014 25 12874 4.1 70 01:21 03.05.2020
3799 Clear 10 1015 25 12874 3.6 110 00:38 03.05.2020
3800 Clear 9 1015 26 12874 1.5 130 00:20 03.05.2020
3801 Clear 9 1015 25 12874 3.6 110 00:20 03.05.2020
3802 Clear 9 1015 26 12874 1.5 130 23:46 02.05.2020
3803 Clear 9 1015 26 12874 1.5 130 23:28 02.05.2020
3804 Clear 8 1015 28 12874 1.5 250 22:57 02.05.2020
3805 Clear 8 1015 28 12874 1.5 250 22:39 02.05.2020
3806 Clear 8 1015 28 12874 1.5 250 22:20 02.05.2020
3807 Clear 7 1016 28 14484 1.3 41 21:43 02.05.2020
3808 Clear 7 1016 28 14484 1.15 28 21:20 02.05.2020
3809 Clear 5 1016 38 14484 1.15 28 20:58 02.05.2020
3810 Clear 5 1016 38 14484 1.15 28 20:39 02.05.2020
3811 Clear 5 1016 38 14484 1.13 21 20:20 02.05.2020
3812 Clear 5 1016 38 14484 1.13 21 20:20 02.05.2020
3813 Clear 4 1016 47 16093 1.13 21 19:59 02.05.2020
3814 Clear 4 1016 47 16093 1.13 21 19:39 02.05.2020
3815 Clear 3 1016 47 16093 1.13 19 19:20 02.05.2020
3816 Clear 2 1016 64 16093 1.13 19 18:56 02.05.2020
3817 Clear 2 1016 64 16093 1.13 19 18:38 02.05.2020
3818 Clear 0 1016 74 16093 1.11 20 18:20 02.05.2020
3819 Clear 0 1016 74 16093 1.11 20 18:20 02.05.2020
3820 Clear 1 1016 74 16093 1.11 20 18:19 02.05.2020
3821 Clear -1 1016 74 16093 1.11 20 17:56 02.05.2020
3822 Clear -1 1016 74 16093 1.11 20 17:38 02.05.2020
3823 Clear -1 1016 74 16093 1.13 22 17:19 02.05.2020
3824 Clear -2 1016 68 16093 1.13 22 16:46 02.05.2020
3825 Clear -2 1016 68 16093 1.35 19 16:27 02.05.2020
3826 Clear -2 1016 63 16093 1.35 19 15:56 02.05.2020
3827 Clear -1 1016 63 16093 1.35 19 15:38 02.05.2020
3828 Clear -2 1016 63 16093 1.52 19 15:19 02.05.2020
3829 Clear -2 1016 73 16093 2.6 60 14:42 02.05.2020
3830 Clear -1 1016 73 16093 2.6 60 14:24 02.05.2020
3831 Clear -1 1016 63 16093 1.58 23 13:58 02.05.2020
3832 Clear -1 1016 63 16093 1.58 23 13:39 02.05.2020
3833 Clear -1 1016 63 16093 1.55 25 13:19 02.05.2020
3834 Clear 0 1016 68 16093 1.55 25 12:41 02.05.2020
3835 Clear 0 1016 68 16093 1.42 19 12:21 02.05.2020
3836 Clear 1 1015 47 16093 1.42 19 11:57 02.05.2020
3837 Clear 1 1015 47 16093 1.42 19 11:39 02.05.2020
3838 Clear 1 1015 47 16093 1.43 11 11:20 02.05.2020
3839 Clear 2 1015 40 16093 1.43 11 10:40 02.05.2020
3840 Clear 2 1015 40 16093 1.49 7 10:22 02.05.2020
3841 Clear 2 1015 38 14484 1.5 100 09:59 02.05.2020
3842 Clear 3 1015 38 14484 1.5 100 09:41 02.05.2020
3843 Clear 3 1015 38 14484 1.5 100 09:23 02.05.2020
3844 Clear 5 1014 28 14484 2.6 10 08:57 02.05.2020
3845 Clear 4 1014 28 14484 2.6 10 08:38 02.05.2020
3846 Clear 5 1014 28 14484 2.6 10 08:19 02.05.2020
3847 Clear 6 1014 26 12874 2.6 340 07:45 02.05.2020
3848 Clear 6 1014 26 12874 2.6 340 07:27 02.05.2020
3849 Clear 7 1014 24 12874 3.1 340 06:43 02.05.2020
3850 Clear 8 1013 24 14484 3.1 310 05:28 02.05.2020
3851 Clear 9 1013 25 14484 4.1 260 04:31 02.05.2020
3852 Clear 9 1013 27 12874 5.7 260 03:56 02.05.2020
3853 Clear 9 1013 27 12874 3.6 300 02:42 02.05.2020
3854 Clear 10 1013 29 12874 2.1 270 01:58 02.05.2020
3855 Clear 9 1013 29 12874 2.1 270 01:27 02.05.2020
3856 Clear 9 1014 31 12874 1.91 290 00:43 02.05.2020
3857 Clear 8 1014 31 12874 1.56 292 00:24 02.05.2020
3858 Clear 8 1014 30 14484 2.1 250 23:56 01.05.2020
3859 Clear 8 1014 30 14484 2.1 250 23:37 01.05.2020
3860 Clear 7 1014 30 14484 2.1 250 23:18 01.05.2020
3861 Clear 7 1014 35 14484 2.1 280 22:39 01.05.2020
3862 Clear 6 1014 35 14484 2.1 280 22:20 01.05.2020
3863 Clear 5 1014 38 16093 0.76 270 21:57 01.05.2020
3864 Clear 5 1014 38 16093 0.76 270 21:39 01.05.2020
3865 Clear 4 1014 37 16093 0.32 269 21:20 01.05.2020
3866 Clear 3 1014 37 16093 0.32 269 20:57 01.05.2020
3867 Clear 3 1014 37 16093 0.32 269 20:39 01.05.2020
3868 Clear 3 1014 37 16093 0.17 53 20:20 01.05.2020
3869 Clear 2 1013 47 16093 1.5 60 19:56 01.05.2020
3870 Clear 2 1013 47 16093 1.5 60 19:38 01.05.2020
3871 Clear 1 1013 47 16093 1.5 60 19:19 01.05.2020
3872 Clear 0 1013 50 16093 2.1 50 18:55 01.05.2020
3873 Clear 0 1013 50 16093 2.1 50 18:37 01.05.2020
3874 Clear -1 1013 50 16093 2.1 50 18:18 01.05.2020
3875 Clouds -2 1012 58 16093 1.02 41 17:40 01.05.2020
3876 Clouds -2 1012 58 16093 1.21 30 17:21 01.05.2020
3877 Clouds -3 1012 79 16093 1.21 30 16:57 01.05.2020
3878 Clouds -3 1012 79 16093 1.21 30 16:39 01.05.2020
3879 Clouds -3 1012 79 16093 1.46 31 16:20 01.05.2020
3880 Clear -3 1011 63 16093 2.1 40 15:57 01.05.2020
3881 Clear -3 1011 63 16093 2.1 40 15:39 01.05.2020
3882 Clear -3 1011 63 16093 2.1 40 15:19 01.05.2020
3883 Clear -3 1011 63 16093 2.1 40 15:19 01.05.2020
3884 Clear -3 1011 58 16093 2.1 40 14:43 01.05.2020
3885 Clear -3 1011 58 16093 2.1 40 14:24 01.05.2020
3886 Clear -3 1011 63 16093 1.5 40 13:56 01.05.2020
3887 Clear -3 1011 63 16093 1.5 40 13:38 01.05.2020
3888 Clear -3 1011 63 16093 1.5 40 13:19 01.05.2020
3889 Clear -2 1010 58 16093 1.5 30 12:54 01.05.2020
3890 Clear -2 1010 58 16093 1.5 30 12:36 01.05.2020
3891 Clear -2 1009 54 16093 1.5 60 12:18 01.05.2020
3892 Clear -2 1009 54 16093 1.5 60 11:41 01.05.2020
3893 Clear -2 1009 54 16093 1.5 60 11:23 01.05.2020
3894 Clear -2 1009 54 16093 1.5 50 10:57 01.05.2020
3895 Clear -2 1009 54 16093 1.5 50 10:38 01.05.2020
3896 Clear -1 1009 54 16093 1.5 50 10:19 01.05.2020
3897 Clouds -1 1009 47 16093 4.6 10 09:44 01.05.2020
3898 Clear -1 1008 43 16093 3.6 50 09:19 01.05.2020
3899 Clear 0 1008 43 16093 3.6 50 08:55 01.05.2020
3900 Clear 0 1008 43 16093 3.6 50 08:37 01.05.2020
3901 Clear 0 1008 43 16093 3.6 50 08:19 01.05.2020
3902 Clear 1 1008 40 16093 4.1 50 07:42 01.05.2020
3903 Clear 2 1008 40 16093 4.1 50 07:22 01.05.2020
3904 Clear 3 1007 38 16093 6.7 40 06:39 01.05.2020
3905 Clear 4 1007 35 14484 6.7 30 05:32 01.05.2020
3906 Clear 5 1007 33 16093 6.2 40 04:21 01.05.2020
3907 Clear 5 1007 30 14484 5.1 40 03:23 01.05.2020
3908 Clear 5 1007 30 14484 5.1 30 02:42 01.05.2020
3909 Clear 5 1007 30 16093 5.7 50 01:59 01.05.2020
3910 Clear 5 1007 30 16093 5.7 50 01:28 01.05.2020
3911 Clear 4 1007 27 14484 4.6 60 00:56 01.05.2020
3912 Clear 5 1007 27 14484 4.6 60 00:36 01.05.2020
3913 Clear 4 1007 29 16093 5.7 40 00:18 01.05.2020
3914 Clear 4 1007 29 16093 5.7 40 23:54 30.04.2020
3915 Clear 4 1007 29 16093 5.7 40 23:36 30.04.2020
3916 Clear 3 1008 32 16093 3.1 50 23:18 30.04.2020
3917 Clear 3 1008 32 16093 3.1 50 22:40 30.04.2020
3918 Clear 2 1008 37 16093 5.7 40 22:19 30.04.2020
3919 Clear 2 1008 37 16093 5.7 40 21:55 30.04.2020
3920 Clear 1 1008 37 16093 5.7 40 21:37 30.04.2020
3921 Clear 1 1008 37 16093 5.7 40 21:18 30.04.2020
3922 Clear 1 1008 73 16093 5.7 70 20:41 30.04.2020
3923 Clear 0 1008 80 16093 5.7 70 20:19 30.04.2020
3924 Clear -1 1008 39 16093 5.7 60 19:58 30.04.2020
3925 Clear -1 1008 39 16093 5.7 60 19:38 30.04.2020
3926 Clear -2 1009 46 16093 5.1 60 19:18 30.04.2020
3927 Clear -3 1009 46 16093 5.1 60 18:40 30.04.2020
3928 Clear -2 1009 46 16093 5.1 60 18:21 30.04.2020
3929 Clear -3 1009 58 16093 3.6 60 17:59 30.04.2020
3930 Clear -4 1009 58 16093 3.6 60 17:40 30.04.2020
3931 Clear -4 1009 58 16093 3.6 60 17:22 30.04.2020
3932 Clear -5 1009 58 16093 3.6 70 16:58 30.04.2020
3933 Clear -5 1009 58 16093 3.6 70 16:40 30.04.2020
3934 Clear -5 1009 58 16093 3.6 70 16:19 30.04.2020
3935 Clear -5 1009 58 16093 4.1 60 15:48 30.04.2020
3936 Clear -5 1009 58 16093 4.1 60 15:25 30.04.2020
3937 Clear -5 1008 58 16093 4.6 60 14:59 30.04.2020
3938 Clear -5 1008 58 16093 4.6 60 14:39 30.04.2020
3939 Clear -5 1008 58 16093 4.6 60 14:19 30.04.2020
3940 Clear -4 1009 53 16093 4.6 50 13:56 30.04.2020
3941 Clear -4 1009 53 16093 4.6 50 13:56 30.04.2020
3942 Clear -4 1009 53 16093 4.6 50 13:38 30.04.2020
3943 Clear -4 1009 53 16093 4.6 50 13:19 30.04.2020
3944 Clear -4 1009 53 16093 2.6 50 12:41 30.04.2020
3945 Clear -4 1009 53 16093 2.6 50 12:21 30.04.2020
3946 Clear -4 1009 53 16093 3.6 50 11:58 30.04.2020
3947 Clear -3 1009 53 16093 3.6 50 11:37 30.04.2020
3948 Clear -4 1009 53 16093 3.6 50 11:18 30.04.2020
3949 Clear -3 1009 50 16093 4.1 50 10:54 30.04.2020
3950 Clear -3 1009 50 16093 4.1 50 10:36 30.04.2020
3951 Clear -3 1009 50 16093 4.1 50 10:18 30.04.2020
3952 Clear -3 1009 50 16093 4.6 50 09:41 30.04.2020
3953 Clear -3 1009 50 16093 4.6 50 09:22 30.04.2020
3954 Clear -2 1009 46 16093 5.7 30 08:49 30.04.2020
3955 Clear -2 1009 46 16093 5.7 30 08:27 30.04.2020
3956 Clear -2 1009 85 16093 6.2 40 07:58 30.04.2020
3957 Clear -1 1009 85 16093 6.2 40 07:39 30.04.2020
3958 Clear -1 1009 40 16093 7.2 40 07:20 30.04.2020
3959 Clear -1 1009 40 16093 7.2 40 06:33 30.04.2020
3960 Clear 0 1008 37 16093 5.7 40 05:47 30.04.2020
3961 Clear 0 1008 37 16093 5.7 40 05:26 30.04.2020
3962 Clear 1 1008 40 16093 5.7 40 04:25 30.04.2020
3963 Clear 2 1008 37 16093 6.2 40 02:55 30.04.2020
3964 Clear 2 1008 37 16093 6.2 40 02:28 30.04.2020
3965 Clear 3 1008 40 16093 6.2 30 01:38 30.04.2020
3966 Clear 3 1008 40 16093 5.1 50 00:54 30.04.2020
3967 Clear 3 1008 40 16093 5.1 50 00:25 30.04.2020
3968 Clear 3 1008 44 16093 3.6 30 23:59 29.04.2020
3969 Clear 3 1008 44 16093 3.6 30 23:59 29.04.2020
3970 Clear 3 1008 44 16093 3.6 30 23:59 29.04.2020
3971 Clear 3 1008 44 16093 3.6 30 23:59 29.04.2020
3972 Clear 3 1008 44 16093 3.6 30 23:41 29.04.2020
3973 Clear 3 1008 44 16093 3.6 30 23:23 29.04.2020
3974 Clear 2 1007 47 16093 3.6 360 22:58 29.04.2020
3975 Clear 2 1007 47 16093 3.6 360 22:39 29.04.2020
3976 Clear 2 1007 47 16093 3.6 360 22:19 29.04.2020
3977 Clear 1 1007 43 16093 4.1 20 21:39 29.04.2020
3978 Clear 2 1007 43 16093 4.1 20 21:20 29.04.2020
3979 Clear 1 1007 47 16093 5.1 10 20:59 29.04.2020
3980 Clear 1 1007 47 16093 5.1 10 20:40 29.04.2020
3981 Clear 1 1007 47 16093 5.1 10 20:19 29.04.2020
3982 Clouds 1 1007 73 16093 3.6 30 19:57 29.04.2020
3983 Clouds 0 1007 73 16093 3.6 30 19:39 29.04.2020
3984 Clouds 0 1007 80 16093 3.6 30 19:18 29.04.2020
3985 Clouds -1 1006 80 16093 6.7 40 18:42 29.04.2020
3986 Clouds 0 1006 87 16093 6.7 40 18:20 29.04.2020
3987 Clouds -1 1005 87 16093 3.1 50 17:56 29.04.2020
3988 Clouds -1 1005 87 16093 3.1 50 17:37 29.04.2020
3989 Clouds -1 1005 90 16093 3.1 50 17:18 29.04.2020
3990 Clouds 0 1004 55 16093 2.1 330 16:37 29.04.2020
3991 Clouds 0 1004 55 16093 2.1 330 16:19 29.04.2020
3992 Clouds 0 1004 55 16093 2.6 280 15:57 29.04.2020
3993 Clouds 0 1004 55 16093 2.6 280 15:38 29.04.2020
3994 Clouds 0 1004 55 16093 2.6 280 15:20 29.04.2020
3995 Clouds 1 1004 51 16093 2.1 290 14:45 29.04.2020
3996 Clouds 1 1004 51 16093 2.1 290 14:27 29.04.2020
3997 Clouds 1 1003 51 16093 3.1 320 13:59 29.04.2020
3998 Clouds 1 1003 51 16093 3.1 320 13:59 29.04.2020
3999 Clouds 1 1003 51 16093 3.1 320 13:40 29.04.2020
4000 Clouds 1 1003 51 16093 3.1 320 13:20 29.04.2020
4001 Clouds 2 1003 44 16093 2.6 310 12:56 29.04.2020
4002 Clouds 2 1003 44 16093 2.6 310 12:38 29.04.2020
4003 Clouds 2 1003 44 16093 2.6 310 12:38 29.04.2020
4004 Clouds 2 1003 44 16093 2.6 310 12:18 29.04.2020
4005 Clouds 2 1002 44 16093 2.6 270 11:39 29.04.2020
4006 Clouds 2 1002 44 16093 2.6 270 11:20 29.04.2020
4007 Clouds 2 1002 40 16093 2.6 300 10:55 29.04.2020
4008 Clouds 2 1002 40 16093 2.6 300 10:37 29.04.2020
4009 Clouds 2 1002 44 16093 3.1 280 10:18 29.04.2020
4010 Clouds 3 1002 44 16093 3.1 280 09:41 29.04.2020
4011 Clouds 2 1002 44 16093 3.1 280 09:22 29.04.2020
4012 Clouds 3 1001 35 16093 4.6 290 08:45 29.04.2020
4013 Clouds 3 1001 35 16093 4.6 290 08:27 29.04.2020
4014 Clouds 4 1001 35 16093 5.1 300 07:57 29.04.2020
4015 Clouds 4 1001 35 16093 5.1 300 07:38 29.04.2020
4016 Clouds 4 1001 35 16093 5.1 300 07:18 29.04.2020
4017 Clouds 5 1001 26 16093 2.6 280 06:48 29.04.2020
4018 Clouds 5 1001 26 16093 2.6 280 06:29 29.04.2020
4019 Clouds 5 1001 26 16093 2.6 280 06:29 29.04.2020
4020 Clouds 6 1001 28 14484 5.7 280 05:21 29.04.2020
4021 Clouds 6 1001 28 14484 5.7 280 05:21 29.04.2020
4022 Clouds 6 1001 33 14484 5.7 250 04:21 29.04.2020
4023 Clouds 6 1001 28 16093 7.2 260 03:59 29.04.2020
4024 Clouds 7 1001 28 16093 4.6 270 02:39 29.04.2020
4025 Clear 8 1001 30 16093 6.2 260 01:44 29.04.2020
4026 Clear 7 1001 30 16093 6.2 260 01:20 29.04.2020
4027 Clouds 7 1001 30 16093 6.7 270 00:39 29.04.2020
4028 Clouds 7 1001 30 16093 6.7 270 00:19 29.04.2020
4029 Clouds 6 1002 32 16093 5.1 230 23:48 28.04.2020
4030 Clouds 6 1002 32 16093 5.1 230 23:23 28.04.2020
4031 Clear 5 1002 41 16093 4.6 230 22:55 28.04.2020
4032 Clear 5 1002 41 16093 4.6 230 22:37 28.04.2020
4033 Clear 4 1002 41 16093 4.6 230 22:18 28.04.2020
4034 Clouds 4 1002 41 16093 3.44 251 21:54 28.04.2020
4035 Clouds 4 1002 41 16093 2.82 251 21:36 28.04.2020
4036 Clouds 3 1002 41 16093 2.71 246 21:18 28.04.2020
4037 Clear 2 1002 50 16093 2.71 246 20:40 28.04.2020
4038 Clear 1 1002 50 16093 2.74 245 20:21 28.04.2020
4039 Clear 0 1002 58 16093 1.5 90 19:58 28.04.2020
4040 Clear 0 1002 58 16093 1.5 90 19:40 28.04.2020
4041 Clear 0 1002 58 16093 1.5 90 19:21 28.04.2020
4042 Clear -1 1002 68 16093 2.6 90 18:58 28.04.2020
4043 Clear -1 1002 68 16093 2.6 90 18:38 28.04.2020
4044 Clear -2 1002 68 16093 2.6 90 18:19 28.04.2020
4045 Clear -3 1002 73 16093 2.1 70 17:38 28.04.2020
4046 Clear -4 1002 73 16093 2.1 70 17:20 28.04.2020
4047 Clear -4 1001 79 16093 2.6 60 16:59 28.04.2020
4048 Clear -4 1001 79 16093 2.6 60 16:40 28.04.2020
4049 Clear -4 1001 79 16093 2.6 60 16:22 28.04.2020
4050 Clear -4 1001 85 16093 2.6 80 15:57 28.04.2020
4051 Clear -4 1001 85 16093 2.6 80 15:39 28.04.2020
4052 Clear -4 1001 85 16093 2.6 80 15:39 28.04.2020
4053 Clear -4 1001 85 16093 2.6 80 15:20 28.04.2020
4054 Clear -4 1000 79 16093 1.8 240 14:57 28.04.2020
4055 Clear -3 1000 79 16093 1.8 240 14:39 28.04.2020
4056 Clear -4 1000 79 16093 1.96 239 14:19 28.04.2020
4057 Clear -3 1000 79 16093 1.96 239 13:57 28.04.2020
4058 Clear -3 1000 79 16093 1.96 239 13:37 28.04.2020
4059 Clear -2 1000 68 16093 1.98 236 13:19 28.04.2020
4060 Clear -2 1000 68 16093 1.98 236 12:43 28.04.2020
4061 Clear -2 1000 68 16093 1.95 237 12:23 28.04.2020
4062 Clear -1 999 93 16093 1.95 237 11:43 28.04.2020
4063 Clear -1 999 94 16093 1.89 242 11:24 28.04.2020
4064 Clear -1 999 47 16093 1.89 242 10:59 28.04.2020
4065 Clear -1 999 47 16093 1.89 242 10:39 28.04.2020
4066 Clear 0 999 47 16093 1.81 248 10:19 28.04.2020
4067 Clear 0 998 94 16093 1.5 270 09:55 28.04.2020
4068 Clear 0 998 94 16093 1.5 270 09:37 28.04.2020
4069 Clear 1 998 90 16093 1.5 270 09:19 28.04.2020
4070 Clear 2 998 47 16093 2.1 280 08:45 28.04.2020
4071 Clear 2 998 47 16093 2.1 280 08:26 28.04.2020
4072 Clear 3 998 30 14484 3.1 290 07:44 28.04.2020
4073 Clear 4 998 30 14484 3.1 290 07:19 28.04.2020
4074 Clear 5 997 28 14484 4.6 280 06:44 28.04.2020
4075 Clear 6 997 26 14484 4.1 300 05:57 28.04.2020
4076 Clear 6 997 26 14484 4.1 300 05:38 28.04.2020
4077 Clear 6 997 28 14484 2.1 300 04:39 28.04.2020
4078 Clear 7 997 28 14484 2.1 230 02:59 28.04.2020
4079 Clear 7 997 28 14484 2.1 230 02:27 28.04.2020
4080 Clear 7 997 33 16093 3.1 240 01:23 28.04.2020
4081 Clear 6 997 30 16093 3.1 200 00:51 28.04.2020
4082 Clear 6 997 30 16093 3.1 200 00:20 28.04.2020
4083 Clear 5 997 32 16093 2.6 260 23:44 27.04.2020
4084 Clear 5 997 32 16093 2.6 260 23:22 27.04.2020
4085 Clear 5 997 32 16093 2.6 250 22:55 27.04.2020
4086 Clear 4 997 32 16093 2.6 250 22:37 27.04.2020
4087 Clear 4 997 32 16093 2.6 250 22:18 27.04.2020
4088 Clear 4 997 40 16093 1.17 299 21:55 27.04.2020
4089 Clear 3 997 40 16093 1.17 299 21:37 27.04.2020
4090 Clear 3 997 40 16093 1 302 21:18 27.04.2020
4091 Clear 2 997 47 16093 1 302 20:43 27.04.2020
4092 Clear 1 997 47 16093 0.68 309 20:22 27.04.2020
4093 Clouds 1 996 37 16093 3.1 10 19:58 27.04.2020
4094 Clouds 1 996 37 16093 3.1 10 19:38 27.04.2020
4095 Clouds 0 996 40 16093 3.1 350 19:19 27.04.2020
4096 Clouds 0 996 40 16093 3.1 350 18:56 27.04.2020
4097 Clouds -1 996 40 16093 3.1 350 18:38 27.04.2020
4098 Clear -2 996 79 16093 0.61 18 18:19 27.04.2020
4099 Clear -3 996 79 16093 0.61 18 17:43 27.04.2020
4100 Clear -3 996 79 16093 0.89 12 17:21 27.04.2020
4101 Clear -3 996 73 16093 0.89 12 16:57 27.04.2020
4102 Clear -3 996 73 16093 0.89 12 16:38 27.04.2020
4103 Clear -3 996 73 16093 1.09 6 16:20 27.04.2020
4104 Clear -3 995 68 16093 1.09 6 15:56 27.04.2020
4105 Clear -3 995 68 16093 1.09 6 15:37 27.04.2020
4106 Clear -2 995 68 16093 0.97 333 15:18 27.04.2020
4107 Clear -1 995 92 16093 3.1 320 14:42 27.04.2020
4108 Clear -2 995 92 16093 3.1 320 14:22 27.04.2020
4109 Clear -2 995 37 16093 1.01 333 13:58 27.04.2020
4110 Clear -2 995 37 16093 1.01 333 13:39 27.04.2020
4111 Clear -1 995 37 16093 1.01 333 13:19 27.04.2020
4112 Clear -1 995 37 16093 3.1 320 12:44 27.04.2020
4113 Clear -1 995 37 16093 3.1 320 12:24 27.04.2020
4114 Clear 0 995 34 16093 3.6 330 11:59 27.04.2020
4115 Clear 0 995 34 16093 3.6 330 11:40 27.04.2020
4116 Clear 0 995 34 16093 3.6 330 11:19 27.04.2020
4117 Clear 1 994 32 16093 2.6 350 10:56 27.04.2020
4118 Clear 1 994 32 16093 2.6 350 10:37 27.04.2020
4119 Clear 1 994 29 16093 1.11 317 10:19 27.04.2020
4120 Clear 1 994 29 16093 1.11 317 09:43 27.04.2020
4121 Clear 2 994 29 16093 1.63 314 09:18 27.04.2020
4122 Clear 3 994 24 16093 2.6 350 08:53 27.04.2020
4123 Clear 5 994 24 16093 2.6 350 08:34 27.04.2020
4124 Clear 5 994 33 16093 2.6 280 07:58 27.04.2020
4125 Clear 5 994 33 16093 2.6 280 07:40 27.04.2020
4126 Clear 5 994 26 16093 3.1 240 07:19 27.04.2020
4127 Clear 6 994 26 16093 3.1 240 06:39 27.04.2020
4128 Clear 6 994 26 16093 3.1 240 06:21 27.04.2020
4129 Clear 7 994 17 16093 2.1 190 05:48 27.04.2020
4130 Clear 8 995 17 16093 2.13 299 04:41 27.04.2020
4131 Clear 7 995 22 16093 2.1 280 03:49 27.04.2020
4132 Clear 7 996 24 16093 2.1 270 02:41 27.04.2020
4133 Clear 6 996 26 16093 1.11 247 01:23 27.04.2020
4134 Clear 6 997 23 16093 1.5 280 00:46 27.04.2020
4135 Clear 6 997 23 16093 1.5 280 00:19 27.04.2020
4136 Clear 5 997 23 16093 1.59 140 23:55 26.04.2020
4137 Clear 5 997 23 16093 1.59 140 23:37 26.04.2020
4138 Clear 4 997 23 16093 1.59 140 23:18 26.04.2020
4139 Clear 4 998 23 16093 1.59 140 22:55 26.04.2020
4140 Clear 4 998 23 16093 1.59 140 22:37 26.04.2020
4141 Clear 4 998 23 16093 1.59 140 22:18 26.04.2020
4142 Clear 3 999 29 16093 2.1 110 21:56 26.04.2020
4143 Clear 2 999 29 16093 2.1 110 21:37 26.04.2020
4144 Clear 2 999 29 16093 2.1 110 21:18 26.04.2020
4145 Clear 1 999 34 16093 3.6 70 20:39 26.04.2020
4146 Clear 1 999 34 16093 3.6 70 20:20 26.04.2020
4147 Clear 0 1000 42 16093 3.1 60 19:59 26.04.2020
4148 Clear 0 1000 42 16093 3.1 60 19:38 26.04.2020
4149 Clear -1 1000 42 16093 3.1 60 19:19 26.04.2020
4150 Clear -2 1000 45 16093 4.1 60 18:45 26.04.2020
4151 Clear -3 1000 45 16093 4.1 60 18:25 26.04.2020
4152 Clear -4 1001 57 16093 4.1 60 17:58 26.04.2020
4153 Clear -4 1001 57 16093 4.1 60 17:39 26.04.2020
4154 Clear -4 1001 57 16093 4.1 60 17:21 26.04.2020
4155 Clear -5 1002 62 16093 4.1 50 16:42 26.04.2020
4156 Clear -5 1002 62 16093 4.1 50 16:24 26.04.2020
4157 Clear -5 1002 57 16093 4.6 50 15:59 26.04.2020
4158 Clear -5 1002 57 16093 4.6 50 15:59 26.04.2020
4159 Clear -4 1002 57 16093 4.6 50 15:41 26.04.2020
4160 Clear -5 1002 57 16093 4.6 50 15:21 26.04.2020
4161 Clear -5 1003 57 16093 4.1 50 14:57 26.04.2020
4162 Clear -5 1003 57 16093 4.1 50 14:38 26.04.2020
4163 Clear -4 1003 57 16093 4.1 50 14:18 26.04.2020
4164 Clear -4 1003 53 16093 4.1 60 13:56 26.04.2020
4165 Clear -4 1003 53 16093 4.1 60 13:38 26.04.2020
4166 Clear -4 1003 53 16093 4.1 60 13:18 26.04.2020
4167 Clear -3 1004 49 16093 4.1 60 12:41 26.04.2020
4168 Clear -3 1004 49 16093 4.1 60 12:22 26.04.2020
4169 Clear -3 1004 49 16093 3.6 60 11:59 26.04.2020
4170 Clear -3 1004 49 16093 3.6 60 11:40 26.04.2020
4171 Clear -3 1004 49 16093 3.6 60 11:22 26.04.2020
4172 Clear -2 1004 50 16093 4.1 70 10:57 26.04.2020
4173 Clear -2 1004 50 16093 4.1 70 10:39 26.04.2020
4174 Clear -2 1004 50 16093 4.1 70 10:21 26.04.2020
4175 Clear -2 1005 42 16093 3.1 60 09:41 26.04.2020
4176 Clear -2 1005 42 16093 3.1 60 09:41 26.04.2020
4177 Clear -2 1005 42 16093 3.1 60 09:22 26.04.2020
4178 Clear -1 1005 90 16093 3.6 50 08:59 26.04.2020
4179 Clear -1 1005 90 16093 3.6 50 08:40 26.04.2020
4180 Clear -1 1005 90 16093 3.6 50 08:20 26.04.2020
4181 Clear 0 1005 31 16093 3.6 60 07:47 26.04.2020
4182 Clear 1 1005 31 16093 3.6 60 07:21 26.04.2020
4183 Clear 1 1006 29 16093 4.1 40 06:45 26.04.2020
4184 Clear 2 1006 27 16093 3.1 30 05:59 26.04.2020
4185 Clear 2 1006 27 16093 3.1 30 05:41 26.04.2020
4186 Clear 3 1006 27 16093 3.1 30 05:22 26.04.2020
4187 Clear 3 1007 23 16093 3.1 60 04:23 26.04.2020
4188 Clear 3 1007 23 16093 3.6 40 03:32 26.04.2020
4189 Clear 3 1008 23 16093 2.6 30 02:32 26.04.2020
4190 Clear 3 1009 22 16093 4.6 90 01:52 26.04.2020
4191 Clear 3 1009 22 16093 4.6 90 01:27 26.04.2020
4192 Clear 2 1010 22 16093 2.1 70 00:40 26.04.2020
4193 Clear 2 1010 22 16093 2.1 70 00:19 26.04.2020
4194 Clear 1 1011 22 16093 5.1 80 23:39 25.04.2020
4195 Clear 1 1011 22 16093 5.1 80 23:21 25.04.2020
4196 Clear 1 1011 71 16093 5.7 50 22:58 25.04.2020
4197 Clear 0 1011 71 16093 5.7 50 22:40 25.04.2020
4198 Clear 0 1011 71 16093 5.7 50 22:19 25.04.2020
4199 Clear 0 1012 30 16093 4.6 70 21:56 25.04.2020
4200 Clear -1 1012 30 16093 4.6 70 21:36 25.04.2020
4201 Clear -2 1013 30 16093 5.7 70 21:18 25.04.2020
4202 Clear -2 1013 30 16093 5.7 70 20:42 25.04.2020
4203 Clear -2 1013 30 16093 5.7 70 20:22 25.04.2020
4204 Clear -3 1013 32 16093 6.2 60 19:56 25.04.2020
4205 Clear -3 1013 32 16093 6.2 60 19:38 25.04.2020
4206 Clear -3 1013 32 16093 6.2 60 19:19 25.04.2020
4207 Clear -4 1013 45 16093 5.1 60 18:42 25.04.2020
4208 Clear -4 1013 45 16093 5.1 60 18:21 25.04.2020
4209 Clear -5 1014 49 16093 4.6 60 17:58 25.04.2020
4210 Clear -5 1014 49 16093 4.6 60 17:39 25.04.2020
4211 Clear -5 1014 49 16093 4.6 60 17:20 25.04.2020
4212 Clear -6 1014 48 16093 3.6 60 16:58 25.04.2020
4213 Clear -6 1014 48 16093 3.6 60 16:40 25.04.2020
4214 Clear -6 1014 48 16093 3.6 60 16:21 25.04.2020
4215 Clear -6 1014 48 16093 3.6 60 15:42 25.04.2020
4216 Clear -6 1014 48 16093 3.6 60 15:21 25.04.2020
4217 Clear -6 1015 49 16093 3.6 70 14:58 25.04.2020
4218 Clear -6 1015 49 16093 3.6 70 14:39 25.04.2020
4219 Clear -6 1015 49 16093 3.6 70 14:20 25.04.2020
4220 Clear -5 1015 45 16093 4.1 60 13:55 25.04.2020
4221 Clear -5 1015 45 16093 4.1 60 13:37 25.04.2020
4222 Clear -5 1015 41 16093 3.6 50 13:18 25.04.2020
4223 Clear -5 1015 41 16093 3.6 50 12:54 25.04.2020
4224 Clear -4 1015 41 16093 3.6 50 12:36 25.04.2020
4225 Clear -4 1015 41 16093 3.6 50 12:18 25.04.2020
4226 Clear -4 1015 42 16093 4.6 60 11:41 25.04.2020
4227 Clear -4 1015 42 16093 4.6 60 11:23 25.04.2020
4228 Clear -4 1015 42 16093 4.6 60 11:23 25.04.2020
4229 Clear -3 1015 39 16093 4.1 50 10:55 25.04.2020
4230 Clear -3 1015 39 16093 4.1 50 10:37 25.04.2020
4231 Clear -3 1016 39 16093 4.6 40 10:18 25.04.2020
4232 Clear -3 1016 39 16093 4.6 40 09:41 25.04.2020
4233 Clear -3 1015 50 16093 4.6 40 09:21 25.04.2020
4234 Clear -2 1016 39 16093 4.1 40 08:55 25.04.2020
4235 Clear -2 1016 39 16093 4.1 40 08:36 25.04.2020
4236 Clear -2 1016 87 16093 5.1 30 08:18 25.04.2020
4237 Clear -1 1016 87 16093 5.1 30 07:42 25.04.2020
4238 Clear -1 1016 37 16093 6.7 30 07:19 25.04.2020
4239 Clear 0 1016 37 16093 6.7 30 06:42 25.04.2020
4240 Clear 1 1016 34 16093 5.7 50 05:44 25.04.2020
4241 Clear 1 1016 34 16093 5.7 50 05:26 25.04.2020
4242 Clear 1 1016 34 16093 5.7 40 04:24 25.04.2020
4243 Clear 2 1016 34 16093 4.1 30 02:44 25.04.2020
4244 Clear 2 1016 34 16093 4.1 30 02:19 25.04.2020
4245 Clear 2 1017 34 16093 3.6 30 01:49 25.04.2020
4246 Clear 2 1017 34 16093 3.6 30 01:19 25.04.2020
4247 Clear 2 1017 34 16093 3.1 50 00:46 25.04.2020
4248 Clear 2 1017 34 16093 3.1 50 00:28 25.04.2020
4249 Clear 2 1017 31 16093 5.1 20 23:42 24.04.2020
4250 Clear 2 1017 31 16093 5.1 20 23:21 24.04.2020
4251 Clear 2 1017 31 16093 6.2 20 22:41 24.04.2020
4252 Clear 1 1017 31 16093 6.2 20 22:21 24.04.2020
4253 Clear 1 1017 37 16093 5.1 50 21:59 24.04.2020
4254 Clear 1 1017 37 16093 5.1 50 21:41 24.04.2020
4255 Clear 1 1017 37 16093 5.1 50 21:23 24.04.2020
4256 Clear 1 1017 37 16093 5.1 50 21:23 24.04.2020
4257 Clear 1 1017 40 16093 4.6 40 20:59 24.04.2020
4258 Clear 0 1017 40 16093 4.6 40 20:41 24.04.2020
4259 Clear 0 1016 83 16093 4.6 40 20:19 24.04.2020
4260 Clear 0 1016 83 16093 4.6 40 19:57 24.04.2020
4261 Clear 0 1016 83 16093 4.6 40 19:38 24.04.2020
4262 Clear 0 1016 83 16093 4.6 40 19:20 24.04.2020
4263 Clear -1 1016 46 16093 3.1 60 18:40 24.04.2020
4264 Clear -1 1016 46 16093 3.1 60 18:22 24.04.2020
4265 Clear -2 1016 50 16093 1.88 18 17:54 24.04.2020
4266 Clear -3 1016 50 16093 1.88 18 17:36 24.04.2020
4267 Clear -3 1016 73 16093 1.88 18 17:18 24.04.2020
4268 Clear -4 1016 73 16093 1.88 18 16:41 24.04.2020
4269 Clear -4 1016 73 16093 1.88 18 16:22 24.04.2020
4270 Clear -4 1016 79 16093 1.5 40 15:59 24.04.2020
4271 Clear -4 1016 79 16093 1.5 40 15:39 24.04.2020
4272 Clear -4 1016 79 16093 1.5 40 15:19 24.04.2020
4273 Clear -3 1016 85 16093 1.6 6 14:40 24.04.2020
4274 Clear -3 1016 85 16093 1.6 6 14:40 24.04.2020
4275 Clear -3 1016 85 16093 1.53 3 14:22 24.04.2020
4276 Clear -3 1016 73 16093 1.53 3 13:57 24.04.2020
4277 Clear -3 1016 73 16093 1.53 3 13:57 24.04.2020
4278 Clear -3 1016 73 16093 1.53 3 13:39 24.04.2020
4279 Clear -2 1015 63 16093 1.53 3 13:20 24.04.2020
4280 Clear -2 1015 63 16093 1.53 3 12:42 24.04.2020
4281 Clear -2 1015 63 16093 1.39 346 12:24 24.04.2020
4282 Clear -2 1015 58 16093 1.39 346 11:58 24.04.2020
4283 Clear -2 1015 58 16093 1.39 346 11:39 24.04.2020
4284 Clear -1 1015 58 16093 1.39 346 11:20 24.04.2020
4285 Clouds -1 1015 95 16093 1.39 346 10:55 24.04.2020
4286 Clouds -1 1015 95 16093 1.39 346 10:37 24.04.2020
4287 Clouds -1 1015 95 16093 1.39 346 10:19 24.04.2020
4288 Clouds -1 1015 95 16093 2.1 40 09:45 24.04.2020
4289 Clouds 0 1015 86 16093 2.1 40 09:24 24.04.2020
4290 Clear 0 1014 51 16093 2.1 60 08:58 24.04.2020
4291 Clear 1 1014 51 16093 2.1 60 08:39 24.04.2020
4292 Clear 1 1014 51 16093 2.1 60 08:18 24.04.2020
4293 Clouds 2 1014 44 16093 2.6 60 07:46 24.04.2020
4294 Clouds 3 1014 44 16093 2.6 60 07:26 24.04.2020
4295 Clouds 3 1014 38 16093 3.6 330 06:57 24.04.2020
4296 Clouds 3 1014 38 16093 3.6 330 06:37 24.04.2020
4297 Clear 5 1014 38 16093 3.1 330 05:48 24.04.2020
4298 Clear 5 1013 38 16093 2.6 10 04:30 24.04.2020
4299 Clouds 6 1013 38 16093 2.1 306 03:19 24.04.2020
4300 Clouds 6 1013 35 16093 3.6 350 02:41 24.04.2020
4301 Clouds 6 1013 35 16093 3.6 350 02:20 24.04.2020
4302 Clouds 7 1013 38 16093 2.6 310 01:24 24.04.2020
4303 Clouds 7 1013 38 16093 2.6 240 00:39 24.04.2020
4304 Clouds 7 1013 38 16093 2.6 240 00:18 24.04.2020
4305 Clouds 6 1013 44 16093 2.6 250 23:44 23.04.2020
4306 Clouds 6 1013 44 16093 2.6 250 23:26 23.04.2020
4307 Clouds 6 1013 44 16093 2.6 250 23:26 23.04.2020
4308 Clouds 5 1013 41 16093 1.5 230 22:55 23.04.2020
4309 Clouds 5 1013 41 16093 1.5 230 22:37 23.04.2020
4310 Clouds 5 1013 41 16093 1.5 230 22:37 23.04.2020
4311 Clouds 4 1013 41 16093 1.5 230 22:18 23.04.2020
4312 Clouds 4 1013 64 16093 1.5 260 22:18 23.04.2020
4313 Clouds 3 1013 64 16093 1.5 260 21:56 23.04.2020
4314 Clouds 3 1013 64 16093 1.5 260 21:38 23.04.2020
4315 Clouds 3 1013 64 16093 1.5 260 21:20 23.04.2020
4316 Clouds 2 1012 78 16093 0.69 243 20:54 23.04.2020
4317 Clouds 1 1012 78 16093 0.69 243 20:36 23.04.2020
4318 Clouds 1 1012 78 16093 0.69 243 20:18 23.04.2020
4319 Clouds 1 1012 80 16093 0.69 243 19:41 23.04.2020
4320 Clouds 0 1012 80 16093 0.69 243 19:22 23.04.2020
4321 Clouds -1 1012 86 16093 0.69 243 18:57 23.04.2020
4322 Clouds -1 1012 86 16093 0.69 243 18:39 23.04.2020
4323 Clouds -2 1012 86 16093 0.71 218 18:21 23.04.2020
4324 Clouds -2 1012 86 16093 0.71 218 17:56 23.04.2020
4325 Clouds -2 1012 86 16093 0.71 218 17:38 23.04.2020
4326 Clouds -2 1012 86 16093 0.71 218 17:19 23.04.2020
4327 Clouds -2 1012 86 16093 0.71 218 16:43 23.04.2020
4328 Clear -2 1011 86 16093 0.71 218 16:21 23.04.2020
4329 Clear -2 1011 86 16093 0.71 218 15:43 23.04.2020
4330 Clear -2 1011 86 16093 0.81 239 15:24 23.04.2020
4331 Clouds -2 1011 86 16093 1.5 80 14:59 23.04.2020
4332 Clouds -3 1011 86 16093 1.5 80 14:40 23.04.2020
4333 Clouds -3 1011 86 16093 1.5 80 14:21 23.04.2020
4334 Clouds -3 1011 86 16093 0.68 222 13:58 23.04.2020
4335 Clouds -2 1011 86 16093 0.68 222 13:39 23.04.2020
4336 Clouds -2 1011 86 16093 0.68 222 13:20 23.04.2020
4337 Clear -2 1010 86 16093 0.68 222 12:57 23.04.2020
4338 Clear -2 1010 86 16093 0.68 222 12:38 23.04.2020
4339 Clear -1 1010 86 16093 0.88 254 12:20 23.04.2020
4340 Clear 0 1010 74 16093 2.1 260 11:46 23.04.2020
4341 Clear 0 1010 74 16093 2.1 260 11:27 23.04.2020
4342 Clear -1 1009 96 16093 0.88 254 10:57 23.04.2020
4343 Clear 0 1009 96 16093 0.88 254 10:39 23.04.2020
4344 Clear 1 1009 96 16093 0.88 254 10:19 23.04.2020
4345 Clear 1 1009 96 16093 0.96 251 09:38 23.04.2020
4346 Clear 2 1009 51 16093 3.1 240 09:18 23.04.2020
4347 Clear 2 1009 51 16093 3.1 240 08:47 23.04.2020
4348 Clear 3 1009 51 16093 3.1 240 08:29 23.04.2020
4349 Clear 3 1008 51 16093 3.6 270 07:47 23.04.2020
4350 Clear 4 1008 51 16093 3.6 270 07:24 23.04.2020
4351 Clear 5 1008 48 16093 4.6 270 06:58 23.04.2020
4352 Clear 5 1008 48 16093 4.6 270 06:40 23.04.2020
4353 Clear 6 1008 41 16093 6.2 250 05:33 23.04.2020
4354 Clear 7 1008 36 16093 1.5 140 04:54 23.04.2020
4355 Clear 7 1008 36 16093 5.1 220 02:41 23.04.2020
4356 Clear 6 1008 36 16093 5.1 220 02:22 23.04.2020
4357 Clear 7 1008 45 16093 2.1 200 01:38 23.04.2020
4358 Clear 6 1008 52 16093 2.6 260 00:50 23.04.2020
4359 Clear 5 1008 52 16093 2.6 260 00:25 23.04.2020
4360 Clear 5 1008 55 16093 2.6 210 23:53 22.04.2020
4361 Clear 5 1009 69 16093 1.5 200 23:26 22.04.2020
4362 Clear 4 1009 69 16093 1.5 200 22:59 22.04.2020
4363 Clear 4 1009 69 16093 1.5 200 22:39 22.04.2020
4364 Clear 3 1009 69 16093 1.5 200 22:19 22.04.2020
4365 Clear 2 1009 86 16093 1.35 264 21:57 22.04.2020
4366 Clear 2 1009 86 16093 1.35 264 21:39 22.04.2020
4367 Clear 2 1009 86 16093 0.86 261 21:20 22.04.2020
4368 Clear 2 1009 86 16093 0.86 261 21:20 22.04.2020
4369 Clouds 1 1009 76 16093 0.86 261 20:55 22.04.2020
4370 Clouds 0 1009 76 16093 0.86 261 20:37 22.04.2020
4371 Clouds 0 1009 76 16093 1.5 110 20:18 22.04.2020
4372 Clouds 0 1009 76 16093 1.5 110 19:55 22.04.2020
4373 Clouds 0 1009 92 16093 0.86 261 19:36 22.04.2020
4374 Clouds -1 1009 92 16093 0.86 261 19:18 22.04.2020
4375 Clouds -1 1009 92 16093 0.86 261 18:55 22.04.2020
4376 Clouds -1 1008 92 16093 1.5 50 18:37 22.04.2020
4377 Clouds -2 1008 86 16093 0.62 318 18:18 22.04.2020
4378 Clouds -2 1008 92 16093 0.62 318 17:42 22.04.2020
4379 Clouds -2 1008 92 16093 0.62 318 17:23 22.04.2020
4380 Clouds -2 1008 92 16093 0.62 318 16:47 22.04.2020
4381 Clouds -2 1008 92 16093 0.62 318 16:28 22.04.2020
4382 Clouds -2 1008 92 16093 0.62 318 15:59 22.04.2020
4383 Clouds -2 1008 92 16093 1.5 170 15:38 22.04.2020
4384 Clouds -2 1008 92 16093 1.5 170 15:19 22.04.2020
4385 Clouds -2 1008 86 16093 0.78 309 14:55 22.04.2020
4386 Clear -2 1008 86 16093 0.71 309 14:36 22.04.2020
4387 Clear -2 1008 86 16093 0.78 309 14:36 22.04.2020
4388 Clear -2 1008 86 16093 0.71 309 14:18 22.04.2020
4389 Clouds -1 1007 92 16093 2.1 260 13:43 22.04.2020
4390 Clouds -1 1007 92 16093 1.5 270 13:20 22.04.2020
4391 Clouds -1 1007 95 16093 2.1 300 12:43 22.04.2020
4392 Clouds -1 1007 92 16093 2.1 300 12:23 22.04.2020
4393 Clouds -1 1007 92 16093 2.6 270 11:58 22.04.2020
4394 Clouds -1 1007 92 16093 2.6 270 11:58 22.04.2020
4395 Clouds 0 1007 74 16093 2.1 280 11:39 22.04.2020
4396 Clouds 0 1007 74 16093 2.1 280 11:19 22.04.2020
4397 Clear 0 1007 74 16093 3.1 310 10:44 22.04.2020
4398 Clear 0 1007 74 16093 3.1 310 10:24 22.04.2020
4399 Clouds 0 1006 74 16093 3.1 290 09:55 22.04.2020
4400 Clouds 0 1006 74 16093 3.1 290 09:36 22.04.2020
4401 Clouds 1 1006 74 16093 3.1 290 09:18 22.04.2020
4402 Clouds 2 1006 69 16093 2.1 300 08:41 22.04.2020
4403 Clouds 2 1006 69 16093 2.1 300 08:41 22.04.2020
4404 Clouds 2 1006 69 16093 2.1 300 08:23 22.04.2020
4405 Clouds 2 1006 69 16093 2.1 320 07:58 22.04.2020
4406 Clouds 3 1006 69 16093 2.1 320 07:39 22.04.2020
4407 Clouds 3 1006 69 16093 2.1 320 07:19 22.04.2020
4408 Clouds 3 1005 64 16093 4.1 350 06:42 22.04.2020
4409 Clouds 4 1005 65 16093 2.1 330 05:40 22.04.2020
4410 Clouds 5 1005 87 16093 4.1 360 04:46 22.04.2020
4411 Clouds 5 1005 75 16093 4.1 340 03:40 22.04.2020
4412 Rain 5 1005 86 16093 1.5 260 02:28 22.04.2020
4413 Rain 5 1005 86 16093 1.5 260 02:28 22.04.2020
4414 Rain 5 1005 86 16093 2.6 250 01:41 22.04.2020
4415 Rain 5 1005 86 16093 2.6 250 01:21 22.04.2020
4416 Rain 5 1005 93 16093 2.1 240 00:41 22.04.2020
4417 Rain 5 1005 93 16093 2.1 240 00:20 22.04.2020
4418 Clouds 4 1005 93 16093 2.6 230 23:45 21.04.2020
4419 Clouds 4 1005 93 16093 2.6 230 23:23 21.04.2020
4420 Drizzle 4 1005 93 8047 2.1 220 22:58 21.04.2020
4421 Drizzle 4 1005 93 8047 1.5 240 22:39 21.04.2020
4422 Drizzle 4 1005 93 8047 1.5 240 22:20 21.04.2020
4423 Rain 4 1005 93 6437 1.08 323 21:55 21.04.2020
4424 Drizzle 3 1005 100 8047 1.5 240 21:37 21.04.2020
4425 Drizzle 3 1005 100 8047 1.5 240 21:18 21.04.2020
4426 Rain 3 1005 100 6437 1.5 230 20:40 21.04.2020
4427 Rain 3 1005 100 6437 1.5 230 20:22 21.04.2020
4428 Rain 3 1005 100 3219 0.62 304 19:58 21.04.2020
4429 Rain 2 1005 100 3219 0.62 304 19:38 21.04.2020
4430 Rain 2 1005 100 3219 0.87 311 19:38 21.04.2020
4431 Rain 2 1005 100 3219 0.87 311 19:18 21.04.2020
4432 Rain 2 1005 100 3219 0.62 304 18:55 21.04.2020
4433 Rain 2 1005 100 1006 0.62 304 18:36 21.04.2020
4434 Rain 2 1005 100 402 0.5 317 18:18 21.04.2020
4435 Rain 2 1005 100 402 0.72 302 17:39 21.04.2020
4436 Fog 2 1005 100 201 0.5 317 17:20 21.04.2020
4437 Rain 1 1005 100 201 0.5 317 16:57 21.04.2020
4438 Rain 1 1005 100 1609 0.72 302 16:37 21.04.2020
4439 Rain 1 1005 100 1609 0.72 302 16:18 21.04.2020
4440 Rain 2 1005 100 1810 0.5 317 15:55 21.04.2020
4441 Mist 2 1005 100 2615 0.72 302 15:37 21.04.2020
4442 Rain 2 1005 100 2615 0.5 290 15:19 21.04.2020
4443 Rain 2 1005 100 2615 0.5 290 14:45 21.04.2020
4444 Mist 2 1005 100 2615 0.5 290 14:24 21.04.2020
4445 Rain 2 1005 100 2816 0.5 290 13:56 21.04.2020
4446 Rain 2 1005 100 2414 0.5 290 13:38 21.04.2020
4447 Rain 2 1005 100 2414 0.5 290 13:18 21.04.2020
4448 Rain 2 1005 100 2414 0.5 290 13:18 21.04.2020
4449 Rain 2 1005 100 2414 0.5 290 13:18 21.04.2020
4450 Mist 2 1005 100 1810 0.5 290 12:39 21.04.2020
4451 Rain 2 1005 100 1810 0.28 276 12:19 21.04.2020
4452 Rain 3 1005 100 2615 0.28 276 11:57 21.04.2020
4453 Rain 3 1005 93 4426 0.28 276 11:39 21.04.2020
4454 Rain 3 1005 93 4426 0.28 276 11:19 21.04.2020
4455 Rain 3 1005 100 2213 0.28 276 10:59 21.04.2020
4456 Rain 3 1005 100 16093 0.28 276 10:40 21.04.2020
4457 Rain 3 1005 100 16093 0.28 276 10:22 21.04.2020
4458 Rain 3 1005 100 12874 0.28 276 09:58 21.04.2020
4459 Drizzle 3 1005 100 16093 0.28 276 09:36 21.04.2020
4460 Rain 3 1005 100 12874 0.5 271 09:18 21.04.2020
4461 Rain 4 1005 93 12874 0.5 271 08:43 21.04.2020
4462 Rain 3 1005 93 12874 0.5 271 08:25 21.04.2020
4463 Clouds 4 1005 93 16093 0.5 271 07:53 21.04.2020
4464 Clouds 4 1005 87 16093 0.5 271 07:27 21.04.2020
4465 Clouds 5 1005 81 16093 1.5 180 06:51 21.04.2020
4466 Clouds 5 1005 81 16093 1.5 180 06:33 21.04.2020
4467 Clouds 5 1005 81 16093 2.1 230 05:50 21.04.2020
4468 Clouds 6 1006 87 16093 0.5 325 04:57 21.04.2020
4469 Clouds 6 1006 81 16093 1.5 280 03:46 21.04.2020
4470 Clouds 6 1006 87 16093 0.24 279 02:42 21.04.2020
4471 Rain 5 1006 87 16093 0.24 279 01:31 21.04.2020
4472 Clouds 5 1006 93 16093 1.5 180 00:38 21.04.2020
4473 Clouds 4 1007 93 16093 1.5 170 00:18 21.04.2020
4474 Clouds 4 1007 93 16093 1.5 170 23:43 20.04.2020
4475 Rain 4 1007 93 16093 1.5 170 23:21 20.04.2020
4476 Rain 4 1007 100 11265 2.1 190 22:55 20.04.2020
4477 Rain 3 1007 100 11265 2.1 190 22:36 20.04.2020
4478 Rain 4 1007 100 11265 2.1 190 22:18 20.04.2020
4479 Rain 4 1007 100 11265 2.1 190 22:18 20.04.2020
4480 Rain 4 1007 100 12874 1.5 180 21:54 20.04.2020
4481 Rain 3 1007 93 8047 2.1 190 21:36 20.04.2020
4482 Rain 3 1007 100 6437 1.18 189 21:18 20.04.2020
4483 Rain 3 1007 100 6437 1.18 189 20:42 20.04.2020
4484 Rain 3 1007 100 6437 1.18 189 20:20 20.04.2020
4485 Rain 3 1007 100 4828 1.18 189 19:59 20.04.2020
4486 Rain 3 1007 100 4828 1.18 189 19:41 20.04.2020
4487 Rain 3 1007 100 4828 1.18 189 19:22 20.04.2020
4488 Rain 2 1007 100 1006 1.18 189 18:56 20.04.2020
4489 Rain 2 1007 93 1609 1.18 189 18:38 20.04.2020
4490 Rain 2 1007 93 1609 1.18 189 18:38 20.04.2020
4491 Rain 2 1006 100 1207 1.5 130 18:19 20.04.2020
4492 Drizzle 2 1007 100 603 1.49 203 17:54 20.04.2020
4493 Drizzle 2 1007 100 14484 1.5 120 17:36 20.04.2020
4494 Drizzle 2 1007 100 16093 1.49 203 17:18 20.04.2020
4495 Clouds 2 1007 100 16093 1.49 203 16:41 20.04.2020
4496 Rain 2 1007 100 16093 1.49 203 16:20 20.04.2020
4497 Rain 2 1007 100 16093 2.6 210 15:56 20.04.2020
4498 Rain 2 1007 100 14484 2.6 210 15:38 20.04.2020
4499 Clouds 2 1007 100 14484 2.6 210 15:19 20.04.2020
4500 Clouds 2 1007 100 16093 2.6 190 14:42 20.04.2020
4501 Clouds 2 1007 100 16093 2.6 190 14:19 20.04.2020
4502 Clouds 2 1007 100 16093 2.1 190 13:58 20.04.2020
4503 Clouds 3 1007 100 16093 2.1 190 13:39 20.04.2020
4504 Clouds 3 1007 100 16093 2.1 190 13:20 20.04.2020
4505 Clouds 3 1007 100 16093 2.6 220 12:44 20.04.2020
4506 Clouds 3 1007 100 16093 2.6 220 12:24 20.04.2020
4507 Clouds 3 1007 100 16093 2.1 210 11:58 20.04.2020
4508 Clouds 3 1007 100 16093 1.5 200 11:38 20.04.2020
4509 Clouds 3 1007 100 16093 1.5 200 11:19 20.04.2020
4510 Rain 3 1007 100 6437 1.5 150 10:55 20.04.2020
4511 Rain 3 1007 93 3017 1.91 229 10:36 20.04.2020
4512 Rain 4 1007 100 1810 1.91 229 10:18 20.04.2020
4513 Mist 3 1007 100 1810 1.91 229 09:44 20.04.2020
4514 Mist 4 1007 100 1810 2.74 234 09:25 20.04.2020
4515 Rain 4 1007 100 6437 2.85 222 08:58 20.04.2020
4516 Rain 4 1007 100 11265 2.85 222 08:40 20.04.2020
4517 Rain 4 1007 100 11265 2.85 222 08:18 20.04.2020
4518 Rain 4 1007 100 2414 2.85 222 07:52 20.04.2020
4519 Rain 4 1006 100 9656 2.85 222 07:28 20.04.2020
4520 Rain 5 1006 100 8047 2.85 222 06:39 20.04.2020
4521 Rain 5 1006 100 8047 2.87 231 06:20 20.04.2020
4522 Rain 5 1005 100 8047 3.1 210 05:22 20.04.2020
4523 Rain 8 1004 81 12874 1.5 230 03:30 20.04.2020
4524 Clouds 9 1004 87 14484 1.07 233 02:38 20.04.2020
4525 Clouds 9 1004 75 16093 1.11 240 01:31 20.04.2020
4526 Clouds 7 1005 93 16093 1.11 240 00:57 20.04.2020
4527 Clouds 6 1005 93 16093 1.22 53 00:27 20.04.2020
4528 Clouds 6 1005 100 16093 1.5 350 23:54 19.04.2020
4529 Clouds 6 1005 100 16093 1.5 350 23:36 19.04.2020
4530 Clouds 6 1005 100 16093 1.5 350 23:18 19.04.2020
4531 Rain 6 1006 100 11265 1.22 53 22:39 19.04.2020
4532 Rain 5 1006 100 11265 1.22 53 22:21 19.04.2020
4533 Rain 5 1006 100 14484 1.22 53 21:55 19.04.2020
4534 Clouds 5 1006 100 16093 1.05 46 21:37 19.04.2020
4535 Clouds 5 1007 93 16093 0.88 77 21:18 19.04.2020
4536 Clouds 5 1007 93 16093 0.88 77 20:41 19.04.2020
4537 Clouds 4 1007 93 16093 0.88 77 20:21 19.04.2020
4538 Clouds 4 1007 93 16093 0.88 77 19:58 19.04.2020
4539 Clouds 3 1007 93 16093 0.88 77 19:40 19.04.2020
4540 Clouds 4 1007 93 16093 0.88 77 19:22 19.04.2020
4541 Mist 3 1008 100 4828 0.88 77 18:58 19.04.2020
4542 Mist 4 1008 100 4828 0.88 77 18:39 19.04.2020
4543 Mist 3 1008 100 4828 0.92 86 18:20 19.04.2020
4544 Clouds 2 1009 100 16093 0.92 86 17:57 19.04.2020
4545 Clouds 2 1009 100 16093 0.92 86 17:38 19.04.2020
4546 Mist 3 1009 100 3219 0.92 86 17:20 19.04.2020
4547 Mist 3 1009 100 3219 0.92 86 16:56 19.04.2020
4548 Clouds 3 1009 100 16093 0.92 86 16:38 19.04.2020
4549 Clouds 3 1009 100 16093 0.92 86 16:19 19.04.2020
4550 Clouds 3 1010 100 14484 0.92 86 15:42 19.04.2020
4551 Clouds 3 1010 100 14484 0.92 86 15:42 19.04.2020
4552 Clouds 3 1010 100 14484 0.94 120 15:22 19.04.2020
4553 Clouds 3 1010 100 16093 0.94 120 14:55 19.04.2020
4554 Clouds 3 1010 100 16093 0.94 120 14:37 19.04.2020
4555 Clouds 3 1011 100 16093 0.94 110 14:18 19.04.2020
4556 Clouds 3 1011 100 16093 0.94 110 13:39 19.04.2020
4557 Clouds 3 1011 100 16093 0.94 110 13:20 19.04.2020
4558 Clouds 4 1011 100 16093 0.94 110 12:50 19.04.2020
4559 Clouds 4 1011 100 16093 0.91 123 12:25 19.04.2020
4560 Clouds 4 1011 100 16093 2.6 80 11:59 19.04.2020
4561 Clouds 4 1011 100 16093 2.6 80 11:37 19.04.2020
4562 Clouds 4 1011 100 16093 2.6 80 11:19 19.04.2020
4563 Clouds 4 1012 100 16093 0.91 123 10:56 19.04.2020
4564 Clouds 4 1012 100 16093 0.91 123 10:38 19.04.2020
4565 Clouds 4 1012 100 16093 0.91 123 10:19 19.04.2020
4566 Clouds 4 1012 100 16093 1.5 70 09:45 19.04.2020
4567 Clouds 4 1012 100 16093 1.5 70 09:27 19.04.2020
4568 Clouds 5 1012 93 16093 2.1 70 08:41 19.04.2020
4569 Clouds 5 1012 93 16093 2.1 70 08:23 19.04.2020
4570 Clouds 6 1012 87 16093 1 153 07:59 19.04.2020
4571 Clouds 5 1012 87 16093 1 153 07:41 19.04.2020
4572 Clouds 6 1012 87 16093 1.05 150 07:22 19.04.2020
4573 Clouds 7 1012 87 16093 0.85 130 06:29 19.04.2020
4574 Clouds 7 1013 81 16093 0.85 130 05:55 19.04.2020
4575 Clouds 8 1013 81 16093 0.85 130 04:43 19.04.2020
4576 Clouds 7 1014 100 16093 0.72 188 02:59 19.04.2020
4577 Clouds 6 1014 100 16093 0.9 187 02:21 19.04.2020
4578 Clouds 6 1014 100 16093 0.9 187 01:39 19.04.2020
4579 Clouds 5 1014 100 16093 1.5 200 00:49 19.04.2020
4580 Clouds 5 1014 100 14484 1.5 190 00:25 19.04.2020
4581 Mist 5 1014 93 9656 0.97 159 23:56 18.04.2020
4582 Rain 5 1015 100 11265 0.97 159 23:36 18.04.2020
4583 Mist 5 1015 100 8047 0.97 159 23:18 18.04.2020
4584 Rain 4 1015 100 8047 0.97 159 22:41 18.04.2020
4585 Rain 4 1015 100 8047 0.97 159 22:21 18.04.2020
4586 Rain 4 1015 93 8047 0.97 159 21:56 18.04.2020
4587 Rain 4 1015 100 3621 0.97 159 21:37 18.04.2020
4588 Rain 4 1015 100 3621 1.33 163 21:19 18.04.2020
4589 Rain 4 1015 100 9656 1.33 163 20:42 18.04.2020
4590 Rain 4 1015 100 9656 1.33 163 20:22 18.04.2020
4591 Rain 3 1015 100 11265 1.33 163 19:59 18.04.2020
4592 Rain 3 1015 100 11265 1.33 163 19:38 18.04.2020
4593 Rain 3 1015 100 11265 1.33 163 19:19 18.04.2020
4594 Rain 3 1015 100 8047 1.33 163 18:38 18.04.2020
4595 Rain 3 1015 100 8047 1.14 190 18:19 18.04.2020
4596 Rain 3 1015 93 9656 2.1 70 17:45 18.04.2020
4597 Mist 3 1015 93 9656 2.1 70 17:22 18.04.2020
4598 Clouds 2 1015 100 14484 2.1 80 16:58 18.04.2020
4599 Rain 2 1015 100 14484 2.1 80 16:39 18.04.2020
4600 Rain 3 1015 100 14484 2.1 80 16:21 18.04.2020
4601 Clouds 2 1016 100 14484 2.1 60 15:40 18.04.2020
4602 Clouds 3 1016 100 14484 2.1 60 15:22 18.04.2020
4603 Clouds 2 1016 100 14484 2.1 70 14:48 18.04.2020
4604 Rain 3 1016 100 14484 1.5 60 14:29 18.04.2020
4605 Rain 3 1016 100 11265 1.5 60 13:59 18.04.2020
4606 Rain 3 1016 100 12874 1.01 190 13:41 18.04.2020
4607 Rain 3 1016 100 12874 1.01 190 13:20 18.04.2020
4608 Rain 3 1016 100 6437 1.01 190 12:42 18.04.2020
4609 Mist 3 1016 100 6437 1.17 194 12:24 18.04.2020
4610 Rain 3 1015 93 16093 1.17 194 11:57 18.04.2020
4611 Rain 3 1015 93 16093 1.17 194 11:38 18.04.2020
4612 Rain 3 1015 93 16093 1.17 194 11:19 18.04.2020
4613 Rain 3 1015 93 16093 1.5 310 10:42 18.04.2020
4614 Rain 3 1015 93 16093 1.5 310 10:21 18.04.2020
4615 Rain 4 1016 93 16093 1.17 194 09:58 18.04.2020
4616 Rain 4 1016 93 16093 1.26 185 09:39 18.04.2020
4617 Rain 4 1016 100 8047 0.81 183 09:20 18.04.2020
4618 Rain 4 1016 100 8047 0.81 183 08:42 18.04.2020
4619 Rain 4 1016 100 8047 0.81 183 08:21 18.04.2020
4620 Rain 4 1016 93 11265 0.81 183 07:47 18.04.2020
4621 Rain 5 1016 93 11265 0.81 183 07:28 18.04.2020
4622 Rain 5 1016 93 14484 0.81 183 06:39 18.04.2020
4623 Rain 6 1016 81 11265 1.08 151 05:49 18.04.2020
4624 Rain 6 1017 75 9656 1.08 151 04:54 18.04.2020
4625 Rain 6 1017 75 9656 1.08 151 04:30 18.04.2020
4626 Rain 8 1017 65 14484 0.67 131 03:18 18.04.2020
4627 Clouds 8 1017 74 16093 0.53 153 02:40 18.04.2020
4628 Clouds 8 1018 74 12874 0.53 153 02:21 18.04.2020
4629 Clouds 8 1018 74 12874 0.53 153 01:43 18.04.2020
4630 Clouds 8 1018 74 12874 0.53 153 01:22 18.04.2020
4631 Clouds 7 1018 75 14484 2.1 150 00:24 18.04.2020
4632 Clouds 7 1019 75 14484 0.98 157 23:59 17.04.2020
4633 Clouds 7 1019 75 14484 0.98 157 23:40 17.04.2020
4634 Clouds 7 1019 75 14484 0.98 157 23:20 17.04.2020
4635 Clouds 6 1019 75 14484 0.98 157 22:58 17.04.2020
4636 Clouds 6 1019 75 14484 0.98 157 22:40 17.04.2020
4637 Clouds 6 1019 75 14484 0.98 157 22:20 17.04.2020
4638 Clouds 6 1019 75 14484 1.5 70 21:58 17.04.2020
4639 Clouds 6 1019 75 14484 1.5 70 21:39 17.04.2020
4640 Clouds 5 1019 81 14484 1.5 70 21:19 17.04.2020
4641 Clouds 4 1020 74 16093 1.23 125 20:55 17.04.2020
4642 Clouds 4 1020 74 16093 1.23 125 20:36 17.04.2020
4643 Clouds 4 1020 74 16093 1.23 125 20:18 17.04.2020
4644 Clouds 3 1020 81 16093 2.6 70 19:44 17.04.2020
4645 Rain 3 1020 81 16093 2.6 70 19:24 17.04.2020
4646 Rain 2 1021 81 16093 2.1 70 18:47 17.04.2020
4647 Clouds 1 1021 87 16093 2.1 70 18:25 17.04.2020
4648 Clouds 1 1021 87 16093 2.6 60 17:58 17.04.2020
4649 Clouds 1 1021 87 16093 2.6 60 17:37 17.04.2020
4650 Clouds 1 1021 87 16093 1.14 96 17:19 17.04.2020
4651 Clouds 1 1021 87 16093 1.14 96 16:44 17.04.2020
4652 Clouds 1 1021 87 16093 1.14 96 16:23 17.04.2020
4653 Clear 1 1021 87 16093 3.1 70 15:58 17.04.2020
4654 Clear 1 1021 87 16093 3.1 70 15:37 17.04.2020
4655 Clear 1 1021 87 16093 3.1 70 15:19 17.04.2020
4656 Clear 1 1021 87 16093 3.6 60 14:40 17.04.2020
4657 Clear 1 1022 87 16093 2.6 70 14:22 17.04.2020
4658 Clear 0 1022 87 16093 2.6 70 13:58 17.04.2020
4659 Clear 0 1022 87 16093 2.6 70 13:37 17.04.2020
4660 Clear 0 1023 87 16093 3.1 70 13:18 17.04.2020
4661 Clear 0 1023 87 16093 3.1 70 12:46 17.04.2020
4662 Clear 0 1023 87 16093 3.1 70 12:26 17.04.2020
4663 Clear 0 1023 87 16093 1.5 80 11:42 17.04.2020
4664 Clear 0 1023 87 16093 1.5 80 11:20 17.04.2020
4665 Clear 0 1023 87 16093 1.5 80 11:20 17.04.2020
4666 Clear 0 1023 86 16093 2.6 70 10:59 17.04.2020
4667 Clear 0 1023 86 16093 2.6 70 10:39 17.04.2020
4668 Clear 0 1023 86 16093 2.6 70 10:19 17.04.2020
4669 Clear 1 1023 86 16093 1.5 60 09:54 17.04.2020
4670 Clear 1 1023 86 16093 1.5 60 09:36 17.04.2020
4671 Clouds 2 1025 85 0 0.76 168 09:18 17.04.2020
4672 Clouds 2 1021 83 0 0.76 168 08:45 17.04.2020
4673 Clear 3 1023 75 16093 2.1 140 08:25 17.04.2020
4674 Clear 4 1023 75 16093 2.1 140 07:44 17.04.2020
4675 Clear 4 1023 75 16093 2.1 140 07:25 17.04.2020
4676 Clouds 5 1023 65 16093 2.6 220 06:57 17.04.2020
4677 Clouds 6 1023 65 16093 2.6 220 06:27 17.04.2020
4678 Clouds 6 1023 70 16093 4.1 230 05:38 17.04.2020
4679 Clouds 6 1023 75 16093 5.1 250 03:22 17.04.2020
4680 Clouds 6 1023 75 16093 5.1 250 03:22 17.04.2020
4681 Clouds 6 1023 75 16093 5.1 250 03:22 17.04.2020
4682 Clouds 6 1022 75 16093 6.2 240 02:49 17.04.2020
4683 Clouds 6 1022 80 16093 5.1 250 01:30 17.04.2020
4684 Clouds 5 1022 80 16093 6.2 270 00:59 17.04.2020
4685 Clouds 5 1021 80 16093 5.1 250 00:20 17.04.2020
4686 Clouds 5 1021 86 16093 5.7 270 23:46 16.04.2020
4687 Clouds 4 1021 86 16093 5.7 270 23:23 16.04.2020
4688 Clouds 5 1021 86 16093 4.1 260 22:59 16.04.2020
4689 Clouds 4 1020 93 16093 4.1 230 22:39 16.04.2020
4690 Clouds 4 1020 93 16093 4.1 230 22:39 16.04.2020
4691 Clouds 4 1020 93 16093 4.1 230 22:20 16.04.2020
4692 Clouds 4 1020 93 16093 6.2 220 21:56 16.04.2020
4693 Clouds 4 1020 93 16093 6.2 220 21:38 16.04.2020
4694 Clouds 4 1020 93 16093 6.2 220 21:38 16.04.2020
4695 Clouds 4 1020 93 16093 6.2 220 21:18 16.04.2020
4696 Clouds 3 1019 100 16093 5.1 220 20:41 16.04.2020
4697 Clouds 3 1019 100 16093 5.1 220 20:22 16.04.2020
4698 Rain 3 1019 100 14484 5.7 230 19:57 16.04.2020
4699 Rain 3 1019 100 14484 5.7 230 19:38 16.04.2020
4700 Rain 3 1018 100 12874 4.6 230 19:19 16.04.2020
4701 Rain 3 1018 100 12874 4.6 230 18:46 16.04.2020
4702 Rain 3 1018 100 12874 4.6 230 18:27 16.04.2020
4703 Rain 3 1018 100 14484 4.1 240 17:59 16.04.2020
4704 Rain 3 1018 100 14484 4.1 240 17:40 16.04.2020
4705 Rain 3 1018 100 14484 4.1 240 17:21 16.04.2020
4706 Rain 3 1017 93 14484 2.1 230 16:45 16.04.2020
4707 Rain 3 1017 93 14484 2.1 230 16:45 16.04.2020
4708 Rain 3 1017 93 14484 2.1 230 16:26 16.04.2020
4709 Rain 3 1017 93 16093 2.6 230 15:58 16.04.2020
4710 Rain 3 1017 93 16093 2.6 230 15:39 16.04.2020
4711 Rain 3 1017 93 16093 2.6 230 15:19 16.04.2020
4712 Clouds 3 1017 100 16093 1.5 260 14:45 16.04.2020
4713 Clouds 3 1017 100 16093 1.5 260 14:25 16.04.2020
4714 Rain 3 1016 100 6437 2.1 193 13:59 16.04.2020
4715 Rain 3 1016 100 12874 2.1 193 13:41 16.04.2020
4716 Rain 3 1016 100 12874 2.1 193 13:23 16.04.2020
4717 Rain 3 1016 100 12874 2.1 193 12:58 16.04.2020
4718 Rain 3 1016 100 11265 2.1 193 12:39 16.04.2020
4719 Rain 3 1016 100 11265 1.77 172 12:20 16.04.2020
4720 Rain 3 1016 100 11265 1.77 172 12:20 16.04.2020
4721 Rain 4 1016 100 12874 1.77 172 11:59 16.04.2020
4722 Rain 4 1016 100 16093 1.77 172 11:40 16.04.2020
4723 Rain 4 1016 100 16093 1.77 172 11:21 16.04.2020
4724 Rain 4 1015 93 6437 3.1 160 10:55 16.04.2020
4725 Rain 4 1015 100 4426 1.77 172 10:37 16.04.2020
4726 Rain 4 1015 100 4426 1.77 172 10:18 16.04.2020
4727 Rain 4 1015 86 11265 1.77 172 09:39 16.04.2020
4728 Rain 5 1015 86 11265 1.09 235 09:20 16.04.2020
4729 Rain 5 1015 70 12874 2.6 300 08:57 16.04.2020
4730 Rain 5 1015 70 12874 2.6 300 08:39 16.04.2020
4731 Rain 6 1015 70 12874 2.6 300 08:21 16.04.2020
4732 Clouds 6 1014 88 14484 4.6 250 07:44 16.04.2020
4733 Clouds 6 1014 89 14484 4.6 250 07:24 16.04.2020
4734 Clouds 9 1014 49 12874 2.6 230 06:42 16.04.2020
4735 Clouds 9 1014 49 12874 2.6 230 06:24 16.04.2020
4736 Clouds 9 1014 49 12874 0.44 154 04:54 16.04.2020
4737 Clouds 9 1014 49 14484 1.5 280 03:47 16.04.2020
4738 Clouds 10 1014 49 14484 1.5 280 03:22 16.04.2020
4739 Clouds 11 1015 37 16093 0.7 99 02:43 16.04.2020
4740 Clouds 11 1015 35 12874 1.5 130 01:59 16.04.2020
4741 Clouds 11 1015 35 12874 1.5 130 01:18 16.04.2020
4742 Clouds 11 1015 35 12874 1.5 130 01:18 16.04.2020
4743 Clouds 10 1016 40 12874 2.1 90 00:27 16.04.2020
4744 Clear 10 1017 39 14484 3.1 60 23:57 15.04.2020
4745 Clear 10 1017 39 14484 3.1 60 23:39 15.04.2020
4746 Clear 10 1017 39 14484 3.1 60 23:20 15.04.2020
4747 Clouds 7 1018 49 14484 2.6 60 22:40 15.04.2020
4748 Clouds 8 1018 49 14484 2.6 60 22:21 15.04.2020
4749 Clear 6 1019 64 16093 1.5 40 21:58 15.04.2020
4750 Clear 6 1019 64 16093 1.5 40 21:40 15.04.2020
4751 Clear 4 1019 64 16093 1.5 40 21:22 15.04.2020
4752 Clouds 3 1020 64 16093 1.29 83 20:57 15.04.2020
4753 Clouds 4 1020 64 16093 1.29 83 20:39 15.04.2020
4754 Clouds 3 1021 83 16093 1.29 83 20:21 15.04.2020
4755 Clouds 2 1021 83 16093 1.29 83 19:45 15.04.2020
4756 Clouds 2 1022 83 16093 1.29 83 19:21 15.04.2020
4757 Clouds 0 1022 83 16093 1.29 83 18:56 15.04.2020
4758 Clouds 0 1022 83 16093 1.29 83 18:37 15.04.2020
4759 Clear -1 1022 86 16093 1.32 74 18:19 15.04.2020
4760 Clear -2 1022 86 16093 1.32 74 17:40 15.04.2020
4761 Clear -2 1022 86 16093 1.32 74 17:40 15.04.2020
4762 Clear -2 1022 86 16093 1.32 74 17:21 15.04.2020
4763 Clear -3 1023 92 16093 1.32 74 16:58 15.04.2020
4764 Clouds -1 1023 79 16093 1.32 74 16:39 15.04.2020
4765 Clear -1 1023 86 16093 1.32 74 16:20 15.04.2020
4766 Clear -1 1023 86 16093 1.32 74 15:59 15.04.2020
4767 Clear -1 1023 86 16093 1.32 74 15:40 15.04.2020
4768 Clear -2 1023 86 16093 1.07 103 15:20 15.04.2020
4769 Clear -1 1023 92 16093 1.07 103 14:59 15.04.2020
4770 Clear -1 1023 92 16093 1.07 103 14:40 15.04.2020
4771 Clear -3 1023 92 16093 1.01 87 14:21 15.04.2020
4772 Clouds -2 1023 86 16093 1.5 20 13:58 15.04.2020
4773 Clouds -2 1023 86 16093 1.5 20 13:39 15.04.2020
4774 Clouds -2 1023 86 16093 1.5 20 13:20 15.04.2020
4775 Clouds -1 1023 74 16093 1.01 87 12:56 15.04.2020
4776 Clouds -1 1023 74 16093 1.01 87 12:38 15.04.2020
4777 Clouds -1 1023 74 16093 0.82 98 12:20 15.04.2020
4778 Clouds 0 1023 69 16093 3.1 90 11:44 15.04.2020
4779 Clear 0 1023 90 16093 0.82 98 11:25 15.04.2020
4780 Clear 0 1023 90 16093 0.82 98 10:58 15.04.2020
4781 Clouds 0 1023 90 16093 0.82 98 10:37 15.04.2020
4782 Clear 0 1023 74 16093 0.82 98 10:19 15.04.2020
4783 Clear 1 1023 74 16093 0.82 98 09:55 15.04.2020
4784 Clear 1 1023 74 16093 0.82 98 09:37 15.04.2020
4785 Clear 1 1023 74 16093 0.46 145 09:18 15.04.2020
4786 Clouds 1 1023 74 16093 0.46 145 08:41 15.04.2020
4787 Clear 4 1023 48 16093 0.46 145 08:21 15.04.2020
4788 Clear 5 1023 48 16093 0.46 145 07:56 15.04.2020
4789 Clear 6 1023 48 16093 0.46 145 07:36 15.04.2020
4790 Clouds 8 1023 49 11265 0.46 145 06:49 15.04.2020
4791 Clouds 8 1023 49 11265 0.19 197 06:20 15.04.2020
4792 Clouds 9 1023 45 11265 0.19 197 05:22 15.04.2020
4793 Clouds 8 1023 52 11265 1.5 290 04:45 15.04.2020
4794 Haze 10 1023 45 9656 1.5 230 03:51 15.04.2020
4795 Clouds 10 1023 34 16093 0.88 107 03:20 15.04.2020
4796 Clouds 9 1023 39 16093 0.88 107 02:39 15.04.2020
4797 Clouds 9 1023 39 11265 4.1 80 01:48 15.04.2020
4798 Clouds 9 1023 39 11265 4.1 80 01:22 15.04.2020
4799 Clear 9 1024 39 14484 2.6 80 00:37 15.04.2020
4800 Clear 9 1024 39 14484 2.6 80 00:19 15.04.2020
4801 Clear 7 1024 48 14484 5.7 70 23:55 14.04.2020
4802 Clear 7 1024 48 14484 5.7 70 23:55 14.04.2020
4803 Clear 7 1024 48 14484 5.7 70 23:36 14.04.2020
4804 Clear 7 1024 48 14484 5.7 70 23:18 14.04.2020
4805 Clouds 6 1025 56 14484 4.6 50 22:55 14.04.2020
4806 Clouds 6 1025 56 14484 4.6 50 22:37 14.04.2020
4807 Clouds 6 1025 56 14484 4.6 50 22:19 14.04.2020
4808 Clear 5 1026 60 12874 3.6 60 21:55 14.04.2020
4809 Clear 5 1026 60 12874 3.6 60 21:37 14.04.2020
4810 Clear 5 1026 60 12874 3.6 60 21:18 14.04.2020
4811 Clear 5 1026 60 12874 3.6 60 21:18 14.04.2020
4812 Clouds 2 1025 69 16093 3.6 70 20:41 14.04.2020
4813 Clear 1 1026 83 16093 3.1 60 20:22 14.04.2020
4814 Clear 0 1026 83 16093 3.1 60 19:59 14.04.2020
4815 Clear 0 1026 83 16093 3.1 60 19:40 14.04.2020
4816 Clear 0 1026 83 16093 3.1 60 19:21 14.04.2020
4817 Clear -1 1027 100 16093 4.1 70 18:57 14.04.2020
4818 Clear -1 1027 100 16093 4.1 70 18:38 14.04.2020
4819 Clear -3 1027 100 16093 4.1 70 18:19 14.04.2020
4820 Clear -4 1026 100 16093 4.1 60 17:56 14.04.2020
4821 Clear -4 1026 100 16093 4.1 60 17:37 14.04.2020
4822 Clear -4 1026 100 16093 4.1 60 17:37 14.04.2020
4823 Clear -4 1026 100 16093 4.1 60 17:19 14.04.2020
4824 Clear -4 1027 92 16093 3.6 60 16:42 14.04.2020
4825 Clear -4 1027 92 16093 3.6 60 16:24 14.04.2020
4826 Clear -4 1027 100 16093 2.27 66 15:58 14.04.2020
4827 Clear -4 1027 100 16093 2.27 66 15:39 14.04.2020
4828 Clear -4 1027 100 16093 1.4 82 15:21 14.04.2020
4829 Clear -4 1028 92 16093 1.4 82 14:58 14.04.2020
4830 Clear -4 1028 92 16093 1.48 83 14:40 14.04.2020
4831 Clear -4 1028 92 16093 1.4 82 14:21 14.04.2020
4832 Clear -3 1027 92 16093 2.6 60 13:56 14.04.2020
4833 Clear -3 1027 92 16093 2.6 60 13:37 14.04.2020
4834 Clear -3 1027 92 16093 2.6 60 13:19 14.04.2020
4835 Clear -3 1027 92 16093 2.1 50 12:41 14.04.2020
4836 Clear -2 1027 92 16093 2.1 50 12:20 14.04.2020
4837 Clear -1 1027 92 16093 1.12 98 11:55 14.04.2020
4838 Clear -1 1027 92 16093 1.12 98 11:36 14.04.2020
4839 Clear -1 1027 92 16093 1.12 98 11:18 14.04.2020
4840 Clear -1 1026 92 16093 1.12 98 10:43 14.04.2020
4841 Clear -1 1026 92 16093 1.12 98 10:23 14.04.2020
4842 Clouds 0 1027 80 16093 1.12 98 09:43 14.04.2020
4843 Clouds 0 1027 80 16093 1.25 232 09:25 14.04.2020
4844 Clouds 2 1027 80 16093 1.25 232 08:59 14.04.2020
4845 Clouds -1 1027 96 0 1.25 232 08:40 14.04.2020
4846 Clouds -1 1027 96 0 1.25 232 08:21 14.04.2020
4847 Clouds -1 1027 96 0 1.25 232 07:53 14.04.2020
4848 Clouds 2 1026 96 14484 3.1 240 07:29 14.04.2020
4849 Clouds -1 1027 96 0 1.25 232 06:48 14.04.2020
4850 Clouds 3 1024 81 14484 5.1 250 05:55 14.04.2020
4851 Rain 4 1023 81 12874 5.7 230 03:52 14.04.2020
4852 Clouds 5 1022 80 14484 7.2 260 02:54 14.04.2020
4853 Clouds 4 1021 80 14484 4.1 220 01:39 14.04.2020
4854 Clouds 5 1021 80 14484 4.1 220 01:18 14.04.2020
4855 Rain 3 1020 86 14484 4.1 250 00:36 14.04.2020
4856 Rain 4 1020 86 14484 4.1 250 00:18 14.04.2020
4857 Clouds 3 1019 86 11265 5.1 230 23:40 13.04.2020
4858 Clouds 2 1019 86 11265 5.1 230 23:22 13.04.2020
4859 Rain 2 1019 93 14484 3.1 200 22:56 13.04.2020
4860 Rain 2 1019 93 14484 4.1 210 22:38 13.04.2020
4861 Rain 2 1019 93 14484 4.1 210 22:20 13.04.2020
4862 Rain 2 1018 100 11265 3.1 210 21:55 13.04.2020
4863 Rain 2 1018 93 9656 2.6 190 21:36 13.04.2020
4864 Rain 2 1018 93 9656 2.6 190 21:18 13.04.2020
4865 Rain 2 1017 93 9656 2 202 20:41 13.04.2020
4866 Rain 2 1017 93 9656 2 202 20:20 13.04.2020
4867 Clouds 2 1017 93 11265 2 202 19:59 13.04.2020
4868 Rain 1 1017 100 12874 2.1 220 19:38 13.04.2020
4869 Rain 1 1017 100 12874 2.1 220 19:19 13.04.2020
4870 Rain 1 1017 100 12874 2.1 220 19:19 13.04.2020
4871 Rain 1 1017 100 14484 1.5 190 18:58 13.04.2020
4872 Rain 1 1016 100 12874 1.5 200 18:39 13.04.2020
4873 Rain 1 1016 100 12874 1.5 200 18:20 13.04.2020
4874 Rain 1 1016 100 12874 1.5 200 18:20 13.04.2020
4875 Rain 1 1016 100 9656 1.14 190 17:58 13.04.2020
4876 Rain 1 1016 100 9656 1.14 190 17:58 13.04.2020
4877 Rain 1 1016 100 9656 1.14 190 17:38 13.04.2020
4878 Rain 1 1016 100 9656 1.14 190 17:19 13.04.2020
4879 Clouds 1 1016 100 12874 1.14 190 16:58 13.04.2020
4880 Clouds 1 1016 100 12874 1.14 190 16:40 13.04.2020
4881 Rain 1 1016 100 12874 1.14 190 16:20 13.04.2020
4882 Rain 1 1016 100 11265 1.14 190 15:57 13.04.2020
4883 Rain 1 1015 100 11265 1.14 190 15:39 13.04.2020
4884 Rain 1 1015 100 11265 1.16 181 15:20 13.04.2020
4885 Rain 1 1015 89 11265 1.16 181 14:54 13.04.2020
4886 Rain 1 1015 89 11265 1.5 330 14:36 13.04.2020
4887 Clouds 2 1015 89 11265 1.5 330 14:18 13.04.2020
4888 Rain 2 1015 89 12874 2.6 310 13:54 13.04.2020
4889 Rain 2 1015 74 14484 2.6 310 13:36 13.04.2020
4890 Rain 2 1015 74 14484 2.6 310 13:18 13.04.2020
4891 Clouds 2 1015 74 16093 3.1 290 12:55 13.04.2020
4892 Clouds 2 1014 89 16093 0.94 184 12:37 13.04.2020
4893 Clouds 2 1014 89 16093 0.87 216 12:18 13.04.2020
4894 Clouds 3 1014 69 12874 2.1 290 11:41 13.04.2020
4895 Clouds 3 1014 69 12874 2.1 290 11:18 13.04.2020
4896 Clouds 3 1014 69 16093 0.87 216 10:56 13.04.2020
4897 Clouds 3 1014 69 16093 0.87 216 10:37 13.04.2020
4898 Clouds 3 1014 69 16093 0.87 216 10:19 13.04.2020
4899 Clouds 4 1014 69 16093 0.87 216 09:46 13.04.2020
4900 Clouds 4 1014 69 16093 0.51 64 09:26 13.04.2020
4901 Clouds 5 1014 74 16093 0.51 64 08:51 13.04.2020
4902 Clouds 5 1014 74 16093 0.51 64 08:31 13.04.2020
4903 Clouds 4 1014 64 14484 1.5 260 07:59 13.04.2020
4904 Clouds 4 1014 64 14484 1.5 260 07:39 13.04.2020
4905 Clouds 4 1014 64 14484 1.5 260 07:20 13.04.2020
4906 Clouds 6 1014 56 12874 1.5 300 06:47 13.04.2020
4907 Clouds 6 1014 56 12874 1.5 300 06:24 13.04.2020
4908 Clouds 7 1015 45 12874 0.2 304 05:31 13.04.2020
4909 Clouds 7 1015 60 12874 0.2 304 04:53 13.04.2020
4910 Clouds 7 1015 60 12874 0.2 304 04:23 13.04.2020
4911 Clouds 8 1015 36 11265 1.5 250 03:47 13.04.2020
4912 Clouds 7 1016 45 12874 2.1 250 02:59 13.04.2020
4913 Clouds 7 1016 45 12874 2.1 250 02:25 13.04.2020
4914 Clouds 6 1017 60 14484 2.1 270 01:42 13.04.2020
4915 Clouds 6 1017 60 14484 2.1 270 01:23 13.04.2020
4916 Clouds 6 1018 48 14484 2.1 270 00:42 13.04.2020
4917 Clouds 6 1018 48 14484 2.1 270 00:20 13.04.2020
4918 Clouds 6 1018 48 14484 2.1 270 00:20 13.04.2020
4919 Clouds 7 1018 33 14484 0.85 70 23:48 12.04.2020
4920 Clouds 7 1018 33 14484 0.85 70 23:23 12.04.2020
4921 Clear 3 1018 59 16093 1.5 250 22:58 12.04.2020
4922 Clear 4 1018 59 16093 1.5 250 22:37 12.04.2020
4923 Clear 3 1018 59 16093 1.5 250 22:19 12.04.2020
4924 Clouds 2 1019 47 16093 0.85 70 21:40 12.04.2020
4925 Clouds 2 1019 47 16093 1.2 57 21:21 12.04.2020
4926 Clear -1 1020 68 16093 1.2 57 20:58 12.04.2020
4927 Clear -1 1020 68 16093 1.2 57 20:39 12.04.2020
4928 Clear -1 1020 68 16093 1.2 57 20:39 12.04.2020
4929 Clear -1 1020 68 16093 1.2 57 20:21 12.04.2020
4930 Clear -3 1021 85 16093 1.2 57 19:56 12.04.2020
4931 Clear -3 1021 85 16093 1.2 57 19:37 12.04.2020
4932 Clear -3 1021 85 16093 1.2 57 19:18 12.04.2020
4933 Clear -3 1021 85 16093 1.2 57 19:18 12.04.2020
4934 Clear -3 1021 85 16093 1.2 57 18:41 12.04.2020
4935 Clear -5 1021 92 16093 0.92 72 18:22 12.04.2020
4936 Clear -5 1021 92 16093 0.92 72 17:57 12.04.2020
4937 Clear -5 1021 92 16093 0.92 72 17:38 12.04.2020
4938 Clear -5 1021 92 16093 0.92 72 17:38 12.04.2020
4939 Clear -5 1021 92 16093 0.92 72 17:20 12.04.2020
4940 Clouds -5 1021 85 16093 0.92 72 16:57 12.04.2020
4941 Clouds -5 1021 85 16093 0.92 72 16:38 12.04.2020
4942 Clouds -5 1021 85 16093 0.92 72 16:19 12.04.2020
4943 Clear -5 1022 85 16093 0.92 72 15:45 12.04.2020
4944 Clear -5 1022 85 16093 0.82 72 15:27 12.04.2020
4945 Clear -4 1022 85 16093 0.82 72 14:54 12.04.2020
4946 Clear -5 1022 85 16093 0.83 45 14:36 12.04.2020
4947 Clear -5 1022 85 16093 0.83 45 14:18 12.04.2020
4948 Clear -5 1023 92 16093 0.83 45 13:41 12.04.2020
4949 Clear -4 1023 92 16093 0.83 45 13:22 12.04.2020
4950 Clear -4 1023 85 16093 0.83 45 12:49 12.04.2020
4951 Clear -4 1023 85 16093 1.07 75 12:23 12.04.2020
4952 Clear -4 1023 85 16093 1.07 75 12:23 12.04.2020
4953 Clear -2 1023 79 16093 2.1 50 11:59 12.04.2020
4954 Clear -2 1023 79 16093 2.1 50 11:40 12.04.2020
4955 Clear -2 1023 79 16093 2.1 50 11:21 12.04.2020
4956 Clear -2 1023 79 16093 1.07 75 10:58 12.04.2020
4957 Clear -2 1023 79 16093 1.07 75 10:40 12.04.2020
4958 Clear -1 1023 79 16093 1.07 75 10:21 12.04.2020
4959 Clouds -2 1023 73 16093 1.07 75 09:59 12.04.2020
4960 Clouds -1 1023 73 16093 0.92 97 09:39 12.04.2020
4961 Clouds -2 1023 73 16093 0.37 53 09:21 12.04.2020
4962 Clear -1 1023 74 16093 0.37 53 08:52 12.04.2020
4963 Clear -1 1023 74 16093 0.37 53 08:33 12.04.2020
4964 Clouds 1 1023 55 14484 0.37 53 07:58 12.04.2020
4965 Clouds 1 1023 55 14484 0.37 53 07:40 12.04.2020
4966 Clouds 2 1023 55 14484 0.37 53 07:18 12.04.2020
4967 Clear 5 1023 51 12874 0.37 53 06:33 12.04.2020
4968 Clouds 6 1023 48 14484 1.5 280 05:50 12.04.2020
4969 Clouds 6 1023 48 14484 1.5 280 05:29 12.04.2020
4970 Clear 7 1024 41 14484 2.6 220 03:38 12.04.2020
4971 Clear 7 1024 41 14484 2.6 220 03:19 12.04.2020
4972 Clear 7 1025 36 14484 1.33 76 02:34 12.04.2020
4973 Clear 7 1026 30 14484 2.6 100 01:47 12.04.2020
4974 Clear 6 1027 35 16093 2.1 50 00:57 12.04.2020
4975 Clear 6 1027 35 16093 2.1 50 00:39 12.04.2020
4976 Clear 6 1027 35 16093 2.1 50 00:19 12.04.2020
4977 Clear 5 1028 38 16093 1.81 93 23:46 11.04.2020
4978 Clear 5 1028 38 16093 1.81 93 23:24 11.04.2020
4979 Clear 3 1029 47 16093 3.6 90 22:42 11.04.2020
4980 Clear 3 1029 47 16093 3.6 90 22:22 11.04.2020
4981 Clear 3 1029 47 16093 3.6 90 22:22 11.04.2020
4982 Clouds 0 1029 63 16093 3.1 40 21:57 11.04.2020
4983 Clouds 0 1029 63 16093 3.1 40 21:37 11.04.2020
4984 Clouds 0 1029 63 16093 3.1 40 21:37 11.04.2020
4985 Clear -2 1030 79 16093 1.65 87 21:19 11.04.2020
4986 Clear -4 1030 79 16093 1.65 87 20:58 11.04.2020
4987 Clear -3 1030 79 16093 1.65 87 20:39 11.04.2020
4988 Clear -3 1030 79 16093 1.65 87 20:20 11.04.2020
4989 Clear -5 1031 92 16093 1.65 87 19:58 11.04.2020
4990 Clear -5 1031 92 16093 1.65 87 19:39 11.04.2020
4991 Clear -5 1031 92 16093 1.65 87 19:19 11.04.2020
4992 Clear -6 1031 92 16093 1.65 87 18:57 11.04.2020
4993 Clear -8 1031 92 16093 1.65 87 18:39 11.04.2020
4994 Clear -10 1031 92 16093 1.65 64 18:20 11.04.2020
4995 Clear -10 1031 92 16093 1.65 64 17:59 11.04.2020
4996 Fog -9 1031 78 16093 1.65 64 17:40 11.04.2020
4997 Fog -8 1031 78 16093 1.65 64 17:21 11.04.2020
4998 Clouds -9 1031 92 16093 2.1 40 16:56 11.04.2020
4999 Clouds -9 1031 92 16093 2.1 40 16:38 11.04.2020
5000 Clouds -9 1031 92 16093 2.1 40 16:19 11.04.2020
5001 Clouds -8 1032 92 11265 2.1 10 15:39 11.04.2020
5002 Clouds -8 1032 92 11265 2.1 10 15:19 11.04.2020
5003 Clouds -8 1032 92 11265 1.14 85 14:43 11.04.2020
5004 Clouds -7 1032 92 11265 1.21 82 14:24 11.04.2020
5005 Clouds -7 1032 92 11265 1.21 82 14:24 11.04.2020
5006 Clouds -3 1032 79 16093 1.21 82 13:59 11.04.2020
5007 Clouds -3 1032 79 16093 1.21 82 13:40 11.04.2020
5008 Clouds -3 1032 79 16093 1.21 82 13:20 11.04.2020
5009 Clouds -1 1032 58 16093 1.5 200 12:42 11.04.2020
5010 Clouds -1 1032 58 16093 1.5 200 12:20 11.04.2020
5011 Clouds -2 1032 68 16093 1.12 137 11:58 11.04.2020
5012 Clouds -2 1032 68 16093 1.12 137 11:39 11.04.2020
5013 Clouds -2 1032 68 16093 1.12 137 11:19 11.04.2020
5014 Clouds -1 1032 63 16093 1.5 180 10:55 11.04.2020
5015 Clouds -1 1032 63 16093 1.5 180 10:36 11.04.2020
5016 Clouds -1 1032 63 16093 1.5 180 10:36 11.04.2020
5017 Clouds -1 1032 63 16093 1.5 180 10:18 11.04.2020
5018 Clouds -1 1031 63 16093 2.1 190 09:40 11.04.2020
5019 Clouds -1 1031 63 16093 2.1 190 09:40 11.04.2020
5020 Clouds -1 1031 63 16093 2.1 190 09:22 11.04.2020
5021 Clouds -1 1031 50 16093 1.5 190 08:51 11.04.2020
5022 Clouds -1 1031 86 16093 1.55 196 08:29 11.04.2020
5023 Clouds 0 1031 86 16093 1.55 196 07:56 11.04.2020
5024 Clouds 0 1031 86 16093 1.55 196 07:38 11.04.2020
5025 Clouds 0 1031 86 16093 1.55 196 07:19 11.04.2020
5026 Clouds 0 1031 86 16093 1.55 196 06:35 11.04.2020
5027 Clouds 1 1031 86 16093 4.6 240 05:56 11.04.2020
5028 Rain 1 1030 86 12874 2.91 226 03:48 11.04.2020
5029 Haze 0 1030 80 9656 3.38 213 02:51 11.04.2020
5030 Snow -1 1031 79 6437 3.08 207 01:26 11.04.2020
5031 Snow -2 1031 85 16093 2.6 70 00:55 11.04.2020
5032 Snow -3 1031 85 16093 2.6 70 00:37 11.04.2020
5033 Snow -3 1031 85 16093 2.6 70 00:18 11.04.2020
5034 Snow -4 1031 92 4023 3.6 50 23:41 10.04.2020
5035 Snow -5 1031 92 4023 3.6 50 23:19 10.04.2020
5036 Snow -6 1031 85 3017 3.1 50 22:57 10.04.2020
5037 Snow -6 1031 79 2414 3.1 50 22:37 10.04.2020
5038 Snow -6 1031 79 2414 3.1 50 22:19 10.04.2020
5039 Snow -7 1031 85 2012 2.1 50 21:41 10.04.2020
5040 Snow -8 1031 72 3017 2.1 60 21:21 10.04.2020
5041 Snow -8 1031 67 9656 1.5 60 20:57 10.04.2020
5042 Snow -9 1031 66 6437 3.1 50 20:38 10.04.2020
5043 Snow -9 1031 72 4426 2.1 60 20:19 10.04.2020
5044 Snow -10 1031 72 4426 2.1 60 19:55 10.04.2020
5045 Snow -10 1031 78 4828 1.5 60 19:37 10.04.2020
5046 Snow -10 1031 78 1207 2.1 360 19:18 10.04.2020
5047 Snow -10 1031 78 1207 2.1 360 18:55 10.04.2020
5048 Snow -10 1031 78 1207 2.1 360 18:37 10.04.2020
5049 Snow -11 1031 78 6437 1.5 40 18:18 10.04.2020
5050 Snow -11 1031 72 12874 1.42 129 17:56 10.04.2020
5051 Clouds -11 1031 66 16093 1.42 129 17:38 10.04.2020
5052 Clouds -11 1031 66 16093 1.42 129 17:18 10.04.2020
5053 Clouds -11 1031 71 16093 1.42 129 16:42 10.04.2020
5054 Clouds -11 1031 71 16093 1.42 129 16:23 10.04.2020
5055 Clouds -11 1031 71 16093 2.1 70 15:58 10.04.2020
5056 Clouds -12 1031 71 16093 2.1 70 15:39 10.04.2020
5057 Clouds -13 1031 71 16093 2.1 70 15:21 10.04.2020
5058 Clouds -13 1031 71 16093 1.16 125 14:58 10.04.2020
5059 Clouds -13 1031 71 16093 1.19 116 14:40 10.04.2020
5060 Clouds -14 1031 71 16093 1.19 116 14:21 10.04.2020
5061 Clouds -13 1031 71 16093 1.19 116 13:49 10.04.2020
5062 Clouds -14 1031 71 16093 1.19 116 13:23 10.04.2020
5063 Clear -13 1031 65 16093 2.1 70 12:59 10.04.2020
5064 Clear -13 1031 65 16093 2.1 70 12:41 10.04.2020
5065 Clear -13 1031 65 16093 2.1 70 12:21 10.04.2020
5066 Clear -13 1031 60 16093 3.1 80 11:43 10.04.2020
5067 Clear -13 1031 60 16093 3.1 80 11:24 10.04.2020
5068 Clear -13 1031 71 16093 1.56 105 10:58 10.04.2020
5069 Clear -13 1031 71 16093 1.56 105 10:39 10.04.2020
5070 Clear -13 1031 71 16093 1.56 105 10:21 10.04.2020
5071 Clear -11 1031 71 16093 1.56 105 09:43 10.04.2020
5072 Clear -11 1031 71 16093 1.4 111 09:23 10.04.2020
5073 Clear -10 1031 61 16093 1.4 111 08:50 10.04.2020
5074 Clear -9 1031 61 16093 1.4 111 08:27 10.04.2020
5075 Clear -9 1030 52 16093 1.4 111 07:58 10.04.2020
5076 Clear -9 1030 52 16093 1.4 111 07:40 10.04.2020
5077 Clear -8 1030 52 16093 1.4 111 07:21 10.04.2020
5078 Clear -6 1030 41 16093 2.6 190 06:39 10.04.2020
5079 Clear -5 1030 41 16093 2.6 190 06:21 10.04.2020
5080 Clear -5 1030 38 16093 4.1 190 05:33 10.04.2020
5081 Clear -5 1030 41 16093 4.1 200 04:56 10.04.2020
5082 Clear -5 1030 38 16093 3.6 200 03:36 10.04.2020
5083 Clear -5 1029 35 16093 5.1 190 02:52 10.04.2020
5084 Clear -5 1030 44 16093 3.6 220 02:34 10.04.2020
5085 Clear -6 1030 44 16093 3.6 220 01:50 10.04.2020
5086 Clear -6 1030 44 16093 3.6 220 01:28 10.04.2020
5087 Clear -6 1030 48 16093 4.6 230 00:47 10.04.2020
5088 Clear -7 1030 52 16093 4.6 200 00:22 10.04.2020
5089 Clear -7 1030 52 16093 4.6 200 23:44 09.04.2020
5090 Clear -7 1030 52 16093 4.6 200 23:44 09.04.2020
5091 Clear -7 1030 52 16093 4.6 200 23:24 09.04.2020
5092 Clear -8 1030 56 16093 3.1 200 22:59 09.04.2020
5093 Clear -8 1030 56 16093 3.1 200 22:59 09.04.2020
5094 Clear -8 1030 56 16093 3.1 200 22:40 09.04.2020
5095 Clear -8 1030 56 16093 3.1 200 22:22 09.04.2020
5096 Clear -8 1029 56 16093 4.1 220 21:42 09.04.2020
5097 Clear -9 1029 56 16093 4.1 220 21:24 09.04.2020
5098 Clouds -9 1028 52 16093 3.1 230 20:55 09.04.2020
5099 Clouds -9 1028 52 16093 3.1 230 20:37 09.04.2020
5100 Clouds -9 1028 52 16093 3.1 230 20:18 09.04.2020
5101 Clouds -10 1027 66 16093 3.1 200 19:40 09.04.2020
5102 Clouds -10 1027 66 16093 3.1 200 19:22 09.04.2020
5103 Clouds -11 1027 71 16093 1.5 200 18:42 09.04.2020
5104 Clouds -11 1027 71 16093 1.5 200 18:42 09.04.2020
5105 Clouds -13 1027 92 16093 1.58 219 18:21 09.04.2020
5106 Clouds -13 1026 84 16093 1.58 219 17:59 09.04.2020
5107 Clear -12 1026 84 16093 1.58 219 17:39 09.04.2020
5108 Clear -12 1026 84 16093 1.58 219 17:19 09.04.2020
5109 Clouds -11 1025 85 16093 2.6 210 16:40 09.04.2020
5110 Clouds -11 1025 85 16093 2.6 210 16:20 09.04.2020
5111 Clouds -10 1023 85 16093 4.1 250 15:57 09.04.2020
5112 Clouds -10 1023 85 16093 4.1 250 15:38 09.04.2020
5113 Clouds -10 1023 85 16093 4.1 250 15:19 09.04.2020
5114 Clouds -9 1022 78 16093 5.7 240 14:56 09.04.2020
5115 Clouds -9 1022 78 16093 5.7 240 14:38 09.04.2020
5116 Clouds -9 1022 78 16093 5.7 240 14:20 09.04.2020
5117 Clouds -9 1022 78 16093 5.7 240 14:20 09.04.2020
5118 Clouds -9 1022 78 16093 5.7 240 14:20 09.04.2020
5119 Clouds -9 1021 66 16093 2.81 248 13:42 09.04.2020
5120 Clouds -9 1021 66 16093 2.81 248 13:24 09.04.2020
5121 Clouds -9 1019 48 16093 4.1 230 12:55 09.04.2020
5122 Clouds -9 1019 48 16093 4.1 230 12:36 09.04.2020
5123 Clouds -8 1019 48 16093 4.1 230 12:18 09.04.2020
5124 Clouds -9 1018 66 16093 1.89 217 11:43 09.04.2020
5125 Clouds -9 1018 66 16093 1.89 217 11:20 09.04.2020
5126 Clouds -9 1018 66 16093 1.89 217 11:20 09.04.2020
5127 Clouds -9 1017 78 16093 1.89 217 10:59 09.04.2020
5128 Clouds -9 1017 78 16093 1.89 217 10:41 09.04.2020
5129 Clouds -9 1017 78 16093 1.89 217 10:21 09.04.2020
5130 Clouds -7 1016 66 16093 1.89 217 09:57 09.04.2020
5131 Clouds -7 1016 66 16093 1.87 211 09:39 09.04.2020
5132 Clouds -7 1016 66 16093 1.13 241 09:20 09.04.2020
5133 Clouds -6 1015 52 16093 1.13 241 08:44 09.04.2020
5134 Clouds -6 1015 52 16093 1.13 241 08:24 09.04.2020
5135 Clear -6 1014 45 16093 1.13 241 07:59 09.04.2020
5136 Clear -5 1014 45 16093 1.13 241 07:37 09.04.2020
5137 Clear -4 1013 49 16093 2.6 230 07:18 09.04.2020
5138 Clear -3 1013 49 16093 2.6 230 06:28 09.04.2020
5139 Clear -2 1013 49 16093 3.1 230 05:47 09.04.2020
5140 Clear -2 1013 49 16093 3.1 230 05:20 09.04.2020
5141 Clouds -1 1011 36 16093 4.1 200 02:35 09.04.2020
5142 Clouds -1 1010 39 16093 1.5 170 01:45 09.04.2020
5143 Clouds -1 1010 39 16093 1.5 170 01:27 09.04.2020
5144 Clear -2 1010 57 16093 2.6 240 00:45 09.04.2020
5145 Clear -3 1010 57 16093 2.6 240 00:21 09.04.2020
5146 Clear -4 1010 57 16093 1.5 240 23:59 08.04.2020
5147 Clear -4 1010 57 16093 1.5 240 23:41 08.04.2020
5148 Clear -4 1010 57 16093 1.5 240 23:41 08.04.2020
5149 Clear -4 1010 57 16093 1.5 240 23:22 08.04.2020
5150 Clear -5 1010 52 16093 2.1 240 22:44 08.04.2020
5151 Clear -5 1010 52 16093 2.1 240 22:25 08.04.2020
5152 Clear -6 1010 61 16093 1.3 309 21:57 08.04.2020
5153 Clear -5 1010 61 16093 1.3 309 21:57 08.04.2020
5154 Clear -8 1010 61 16093 0.76 359 21:39 08.04.2020
5155 Clear -8 1010 61 16093 0.49 10 21:21 08.04.2020
5156 -273 0 0 0 0 0 20:59 08.04.2020
5157 Clouds -8 1010 52 16093 0.49 10 20:40 08.04.2020
5158 Clear -12 1011 77 16093 0.49 10 20:21 08.04.2020
5159 Clear -14 1011 77 16093 0.49 10 19:59 08.04.2020
5160 Clear -13 1011 77 16093 0.49 10 19:40 08.04.2020
5161 Clear -16 1012 83 16093 0.49 10 19:21 08.04.2020
5162 Clear -17 1012 83 16093 0.49 10 18:45 08.04.2020
5163 Clear -17 1012 83 16093 0.49 10 18:45 08.04.2020
5164 Clear -17 1012 83 16093 1.59 43 18:26 08.04.2020
5165 Clear -17 1012 77 16093 1.5 70 17:57 08.04.2020
5166 Clear -17 1012 77 16093 1.5 70 17:38 08.04.2020
5167 Clear -17 1012 77 16093 1.5 70 17:19 08.04.2020
5168 Clouds -17 1012 71 16093 1.5 70 16:55 08.04.2020
5169 Clouds -17 1012 71 16093 1.5 70 16:37 08.04.2020
5170 Clear -16 1013 77 16093 2.1 50 16:19 08.04.2020
5171 Clear -15 1013 77 16093 1.5 40 15:38 08.04.2020
5172 Clear -16 1013 77 16093 1.5 40 15:20 08.04.2020
5173 Clear -16 1013 77 16093 1.5 40 14:54 08.04.2020
5174 Clear -16 1013 77 16093 1.5 40 14:36 08.04.2020
5175 Clear -16 1013 77 16093 1.5 40 14:18 08.04.2020
5176 Clear -15 1014 71 16093 1.5 30 13:43 08.04.2020
5177 Clear -15 1014 71 16093 1.5 30 13:43 08.04.2020
5178 Clear -15 1014 71 16093 1.5 30 13:21 08.04.2020
5179 Clear -16 1014 71 16093 1.66 54 12:43 08.04.2020
5180 Clear -15 1014 71 16093 1.29 72 12:19 08.04.2020
5181 Clear -14 1014 66 16093 2.6 80 11:59 08.04.2020
5182 Clear -13 1014 66 16093 2.6 80 11:40 08.04.2020
5183 Clear -13 1014 66 16093 2.6 80 11:22 08.04.2020
5184 Clear -11 1015 61 16093 3.6 70 10:57 08.04.2020
5185 Clear -11 1015 61 16093 3.6 70 10:39 08.04.2020
5186 Clear -11 1015 61 16093 3.6 70 10:20 08.04.2020
5187 Clear -10 1015 61 16093 3.1 70 09:56 08.04.2020
5188 Clear -10 1015 61 16093 3.1 70 09:38 08.04.2020
5189 Clear -9 1015 61 16093 3.1 70 09:18 08.04.2020
5190 Clouds -9 1016 56 16093 1.04 80 08:42 08.04.2020
5191 Clear -8 1016 41 16093 1.5 60 08:23 08.04.2020
5192 Clear -7 1016 41 16093 1.5 60 07:57 08.04.2020
5193 Clear -8 1016 41 16093 1.5 60 07:39 08.04.2020
5194 Clear -6 1016 41 16093 1.5 60 07:19 08.04.2020
5195 Clear -5 1017 41 14484 2.1 130 06:21 08.04.2020
5196 Clear -4 1017 41 16093 0.83 152 04:43 08.04.2020
5197 Clear -4 1018 41 16093 2.01 191 02:49 08.04.2020
5198 Clear -4 1018 41 16093 1.95 198 02:21 08.04.2020
5199 Clear -4 1019 49 16093 5.1 150 01:51 08.04.2020
5200 Clear -4 1019 49 16093 5.1 150 01:27 08.04.2020
5201 Clouds -4 1019 49 16093 2.6 150 00:41 08.04.2020
5202 Clouds -4 1019 49 16093 2.6 150 00:22 08.04.2020
5203 Clouds -6 1020 57 16093 1.5 170 23:40 07.04.2020
5204 Clouds -6 1020 57 16093 1.5 170 23:22 07.04.2020
5205 Clouds -7 1020 67 16093 2.1 140 22:58 07.04.2020
5206 Clouds -8 1020 67 16093 2.1 140 22:39 07.04.2020
5207 Clouds -8 1020 67 16093 2.1 140 22:20 07.04.2020
5208 Clouds -9 1020 72 16093 1.5 120 21:57 07.04.2020
5209 Clouds -9 1020 72 16093 1.5 120 21:39 07.04.2020
5210 Clouds -10 1020 72 16093 1.5 120 21:20 07.04.2020
5211 Snow -11 1020 85 6437 1.5 50 20:57 07.04.2020
5212 Snow -11 1020 85 6437 1.5 50 20:39 07.04.2020
5213 Snow -11 1020 85 6437 1.5 50 20:20 07.04.2020
5214 Snow -12 1020 85 11265 2.1 60 19:57 07.04.2020
5215 Snow -12 1020 85 11265 2.1 60 19:37 07.04.2020
5216 Snow -13 1020 92 12874 2.1 80 19:18 07.04.2020
5217 Snow -13 1020 92 12874 2.1 80 19:18 07.04.2020
5218 Clouds -13 1020 84 16093 1.5 50 18:57 07.04.2020
5219 Clouds -13 1020 92 16093 2.1 70 18:38 07.04.2020
5220 Clouds -14 1020 92 16093 2.1 70 18:19 07.04.2020
5221 Clouds -14 1019 84 16093 1.22 213 17:44 07.04.2020
5222 Clouds -14 1019 84 16093 1.22 213 17:21 07.04.2020
5223 Clouds -13 1019 85 16093 1.5 230 16:47 07.04.2020
5224 Clouds -13 1019 85 16093 1.5 230 16:29 07.04.2020
5225 Clouds -13 1019 85 16093 2.6 200 15:58 07.04.2020
5226 Clouds -13 1019 85 16093 2.6 200 15:40 07.04.2020
5227 Clouds -13 1018 85 16093 3.1 220 15:22 07.04.2020
5228 Clouds -12 1018 85 16093 3.1 220 14:41 07.04.2020
5229 Clouds -12 1018 85 16093 3.1 220 14:22 07.04.2020
5230 Clouds -12 1018 85 12874 2.6 210 13:57 07.04.2020
5231 Clouds -12 1018 85 12874 2.6 210 13:38 07.04.2020
5232 Clouds -12 1018 85 12874 2.6 210 13:18 07.04.2020
5233 Clouds -12 1017 78 16093 3.1 210 12:55 07.04.2020
5234 Clouds -12 1017 78 16093 3.1 210 12:36 07.04.2020
5235 Clouds -12 1017 78 16093 3.1 210 12:18 07.04.2020
5236 Clouds -12 1017 78 16093 3.6 240 11:44 07.04.2020
5237 Clouds -12 1017 78 16093 3.6 240 11:25 07.04.2020
5238 Clouds -12 1016 78 16093 4.1 250 10:58 07.04.2020
5239 Clouds -12 1016 78 16093 4.1 250 10:38 07.04.2020
5240 Clouds -12 1016 78 16093 4.1 250 10:19 07.04.2020
5241 Clouds -12 1016 78 16093 6.2 250 09:45 07.04.2020
5242 Clouds -12 1016 78 16093 6.2 250 09:19 07.04.2020
5243 Clouds -11 1015 78 16093 6.7 250 08:55 07.04.2020
5244 Snow -11 1015 85 8047 7.2 260 08:36 07.04.2020
5245 Snow -11 1015 85 8047 7.2 260 08:18 07.04.2020
5246 Snow -11 1014 92 1207 5.1 230 07:40 07.04.2020
5247 Snow -11 1014 92 1207 5.1 230 07:21 07.04.2020
5248 Snow -10 1014 85 805 5.1 260 06:51 07.04.2020
5249 Snow -10 1013 85 805 4.1 280 06:23 07.04.2020
5250 Snow -10 1013 78 4828 4.6 250 05:40 07.04.2020
5251 Mist -10 1013 78 8047 3.6 240 04:56 07.04.2020
5252 Clouds -10 1012 78 16093 8.2 250 03:31 07.04.2020
5253 Snow -10 1011 72 1609 6.2 260 02:59 07.04.2020
5254 Snow -10 1011 78 12874 6.7 280 01:57 07.04.2020
5255 Snow -10 1011 85 1006 6.2 250 01:29 07.04.2020
5256 Snow -9 1010 78 12874 8.2 240 00:29 07.04.2020
5257 Clouds -9 1009 66 16093 8.7 230 23:57 06.04.2020
5258 Snow -10 1009 66 8047 8.7 230 23:38 06.04.2020
5259 Snow -9 1009 66 8047 8.7 230 23:19 06.04.2020
5260 Snow -10 1009 78 11265 7.2 230 22:41 06.04.2020
5261 Snow -10 1009 78 11265 7.2 230 22:22 06.04.2020
5262 Snow -10 1009 85 402 6.7 260 21:58 06.04.2020
5263 Snow -10 1008 78 2816 5.1 220 21:39 06.04.2020
5264 Snow -10 1008 78 2816 5.1 220 21:19 06.04.2020
5265 Snow -10 1008 78 3219 6.7 230 20:55 06.04.2020
5266 Snow -10 1008 78 3219 6.7 230 20:55 06.04.2020
5267 Snow -10 1008 78 6437 4.6 250 20:37 06.04.2020
5268 Snow -10 1008 78 6437 4.6 250 20:19 06.04.2020
5269 Snow -10 1007 78 9656 8.7 250 19:41 06.04.2020
5270 Snow -10 1007 78 9656 8.7 250 19:23 06.04.2020
5271 Snow -10 1006 72 1609 10.8 250 18:59 06.04.2020
5272 Clouds -8 1005 72 16093 8.7 230 18:40 06.04.2020
5273 Clouds -9 1005 72 16093 8.7 230 18:22 06.04.2020
5274 Clouds -9 1004 72 16093 1.5 220 17:55 06.04.2020
5275 Clouds -10 1004 72 16093 1.5 220 17:36 06.04.2020
5276 Clouds -10 1004 72 16093 1.5 220 17:18 06.04.2020
5277 Clear -9 1004 66 16093 3.6 230 16:44 06.04.2020
5278 Clear -9 1004 66 16093 3.6 230 16:26 06.04.2020
5279 Clear -7 1004 67 16093 7.2 220 14:45 06.04.2020
5280 Clear -7 1004 67 16093 7.2 220 14:45 06.04.2020
5281 Clear -7 1004 67 16093 7.2 220 14:45 06.04.2020
5282 Clear -7 1004 67 16093 7.2 220 14:45 06.04.2020
5283 Clear -7 1004 67 16093 7.2 220 14:45 06.04.2020
5284 Clear -6 1003 67 16093 5.1 230 13:44 06.04.2020
5285 Clear -6 1003 67 16093 5.1 230 13:44 06.04.2020
5286 Clear -6 1003 67 16093 5.1 230 13:44 06.04.2020
5287 Clear -6 1003 67 16093 5.1 230 13:44 06.04.2020
5288 Clear -6 1003 67 16093 5.1 230 13:20 06.04.2020
5289 Clouds -6 1003 62 16093 4.6 220 12:26 06.04.2020
5290 Clouds -6 1003 62 16093 4.6 220 12:26 06.04.2020
5291 Clouds -6 1003 62 16093 4.6 220 12:26 06.04.2020
5292 Clouds -6 1003 62 16093 4.6 220 12:26 06.04.2020
5293 Clouds -6 1003 62 16093 4.6 220 12:26 06.04.2020
5294 Clouds -6 1003 53 16093 2.1 190 11:56 06.04.2020
5295 Clouds -6 1003 53 16093 2.1 190 11:36 06.04.2020
5296 Clouds -6 1003 53 16093 2.1 190 11:34 06.04.2020
5297 Clouds -6 1003 53 16093 2.1 190 11:34 06.04.2020
5298 Clouds -6 1003 53 16093 2.1 190 11:34 06.04.2020
5299 Clouds -6 1003 53 16093 2.1 190 11:34 06.04.2020
5300 Clear -6 1003 53 16093 3.6 250 10:52 06.04.2020
5301 Clear -6 1003 53 16093 3.6 250 10:52 06.04.2020
5302 Clear -6 1003 53 16093 3.6 250 10:52 06.04.2020
5303 Clear -6 1003 53 16093 3.6 250 10:52 06.04.2020
5304 Clear -6 1003 53 16093 3.6 250 10:52 06.04.2020
5305 Clear -6 1003 53 16093 3.6 250 10:22 06.04.2020
5306 Clear -6 1003 53 16093 3.6 250 10:22 06.04.2020
5307 Clouds -5 1003 67 16093 3.1 230 09:51 06.04.2020
5308 Clouds -5 1003 67 16093 3.1 230 09:51 06.04.2020
5309 Clouds -4 1003 67 16093 3.1 230 09:24 06.04.2020
5310 Clear -4 1003 58 16093 5.7 230 08:55 06.04.2020
5311 Clear -4 1003 58 16093 5.7 230 08:33 06.04.2020
5312 Clear -4 1003 58 16093 5.7 230 08:33 06.04.2020
5313 Clouds -3 1002 58 16093 3.6 210 07:55 06.04.2020
5314 Clouds -3 1002 58 16093 3.6 210 07:18 06.04.2020
5315 Clouds -2 1003 50 16093 7.7 270 06:25 06.04.2020
5316 Clouds -1 1002 91 16093 9.8 260 04:50 06.04.2020
5317 Clouds -1 1002 91 16093 9.8 260 04:50 06.04.2020
5318 Clouds 0 1002 91 16093 10.3 250 03:28 06.04.2020
5319 Clouds 0 1002 89 16093 5.7 230 02:48 06.04.2020
5320 Clouds 0 1002 89 16093 9.8 250 01:52 06.04.2020
5321 Snow 0 1002 89 16093 7.2 270 00:49 06.04.2020
5322 Snow 1 1002 89 16093 7.2 270 00:26 06.04.2020
5323 Snow 1 1002 87 16093 6.2 260 23:47 05.04.2020
5324 Snow 1 1002 74 16093 9.3 240 23:29 05.04.2020
5325 Snow 1 1002 74 16093 9.3 240 23:29 05.04.2020
5326 Snow 1 1002 74 16093 9.3 240 23:29 05.04.2020
5327 Snow 1 1001 74 16093 8.2 230 22:56 05.04.2020
5328 Rain 1 1001 74 16093 8.2 230 22:38 05.04.2020
5329 Rain 1 1001 74 16093 8.2 230 22:19 05.04.2020
5330 Rain 1 1001 80 16093 6.2 220 21:58 05.04.2020
5331 Rain 2 1001 80 16093 6.2 220 21:39 05.04.2020
5332 Rain 1 1001 80 16093 6.2 220 21:21 05.04.2020
5333 Rain 1 1001 80 16093 6.2 220 21:21 05.04.2020
5334 Rain 1 1001 80 16093 6.2 220 21:21 05.04.2020
5335 Rain 1 1001 90 16093 4.6 210 20:20 05.04.2020
5336 Rain 1 1001 90 16093 4.6 210 20:20 05.04.2020
5337 Clouds 0 1002 90 16093 6.2 210 19:41 05.04.2020
5338 Rain 1 1001 90 16093 5.1 220 19:22 05.04.2020
5339 Rain 1 1001 90 16093 5.1 220 19:22 05.04.2020
5340 Rain 1 1001 90 14484 4.6 210 18:45 05.04.2020
5341 Rain 1 1001 90 14484 4.6 210 18:45 05.04.2020
5342 Rain 1 1001 100 16093 3.6 220 17:58 05.04.2020
5343 Rain 1 1001 100 16093 3.6 220 17:39 05.04.2020
5344 Clouds 1 1001 100 11265 3.1 220 17:20 05.04.2020
5345 Clouds 0 1001 95 16093 2.37 189 16:44 05.04.2020
5346 Clouds 0 1001 95 16093 2.37 189 16:44 05.04.2020
5347 Clouds 0 1001 95 16093 2.37 189 16:44 05.04.2020
5348 Clouds 0 1001 95 16093 2.37 189 16:44 05.04.2020
5349 Clouds 0 1001 95 16093 2.37 189 16:44 05.04.2020
5350 Clouds 0 1001 100 16093 1.5 120 16:18 05.04.2020
5351 Clouds 0 1002 95 14484 1.5 160 15:43 05.04.2020
5352 Snow 0 1002 95 12874 2.37 189 15:24 05.04.2020
5353 Snow 0 1002 91 4023 1.1 158 14:47 05.04.2020
5354 Snow 0 1002 91 4023 1.1 158 14:47 05.04.2020
5355 Snow 0 1002 91 4023 1.1 158 14:47 05.04.2020
5356 Snow 0 1002 91 4023 1.1 158 14:47 05.04.2020
5357 Snow 0 1002 91 4023 1.1 158 14:47 05.04.2020
5358 Snow 0 1002 93 9656 1.04 162 13:44 05.04.2020
5359 Clouds 0 1003 93 16093 1.04 162 12:56 05.04.2020
5360 Snow 0 1003 100 16093 1.14 163 11:58 05.04.2020
5361 Snow 0 1003 100 16093 1.14 163 11:58 05.04.2020
5362 Snow 0 1003 100 16093 1.14 163 11:58 05.04.2020
5363 Snow 0 1003 100 16093 1.14 163 11:58 05.04.2020
5364 Clouds 0 1003 100 16093 1.14 163 11:37 05.04.2020
5365 Clouds 0 1003 90 16093 2.1 60 11:18 05.04.2020
5366 Clouds 0 1003 100 16093 3.1 70 10:42 05.04.2020
5367 Clouds 0 1004 100 16093 2.1 60 10:19 05.04.2020
5368 Clouds 0 1004 100 16093 2.1 60 10:19 05.04.2020
5369 Clouds 0 1005 100 16093 2.1 80 09:44 05.04.2020
5370 Clouds 0 1005 100 16093 2.1 80 09:25 05.04.2020
5371 Clouds 0 1005 100 16093 2.1 80 09:25 05.04.2020
5372 Clouds 0 1005 100 16093 2.1 80 09:25 05.04.2020
5373 Rain 0 1006 100 16093 2.6 50 07:47 05.04.2020
5374 Rain 0 1006 100 16093 2.6 50 07:46 05.04.2020
5375 Rain 0 1009 100 2615 2.1 110 04:52 05.04.2020
5376 Rain 0 1009 100 2615 2.1 110 04:52 05.04.2020
5377 Rain 1 1010 100 8047 2.6 160 03:35 05.04.2020
5378 Rain 1 1010 100 8047 2.6 160 03:35 05.04.2020
5379 Rain 1 1010 100 11265 1.82 162 02:52 05.04.2020
5380 Rain 1 1011 90 6437 2.6 150 01:48 05.04.2020
5381 Rain 1 1011 90 6437 2.6 150 01:30 05.04.2020
5382 Rain 1 1011 100 2414 1.5 120 00:47 05.04.2020
5383 Rain 1 1011 90 4023 2.6 130 00:22 05.04.2020
5384 Snow 1 1012 91 2414 2.1 90 23:57 04.04.2020
5385 Snow 0 1012 91 2414 2.1 90 23:38 04.04.2020
5386 Snow 0 1012 91 2414 2.6 100 23:19 04.04.2020
5387 Snow 0 1012 91 3219 2.6 80 22:55 04.04.2020
5388 Snow 0 1012 91 3219 2.6 80 22:37 04.04.2020
5389 Snow -1 1013 100 2213 2.1 110 22:19 04.04.2020
5390 Snow -1 1013 92 4426 2.1 90 21:54 04.04.2020
5391 Snow -1 1013 92 4426 2.1 90 21:36 04.04.2020
5392 Snow -2 1013 92 6437 2.1 110 21:18 04.04.2020
5393 Snow -2 1013 100 3621 2.1 70 20:42 04.04.2020
5394 Snow -2 1013 92 4023 2.6 90 20:23 04.04.2020
5395 Snow -3 1014 92 4426 2.1 70 19:58 04.04.2020
5396 Snow -3 1014 92 4426 2.1 70 19:37 04.04.2020
5397 Snow -3 1014 100 1609 1.5 60 19:19 04.04.2020
5398 Snow -3 1014 100 603 2.1 50 18:57 04.04.2020
5399 Snow -3 1014 100 603 2.1 50 18:38 04.04.2020
5400 Snow -3 1014 100 1810 2.6 70 18:19 04.04.2020
5401 Snow -3 1014 92 2816 2.1 90 17:56 04.04.2020
5402 Snow -3 1014 92 2816 2.1 90 17:38 04.04.2020
5403 Snow -3 1014 92 4023 2.6 80 17:18 04.04.2020
5404 Clouds -3 1015 100 12874 1.59 94 16:42 04.04.2020
5405 Clouds -3 1015 92 16093 1.46 104 16:23 04.04.2020
5406 Clouds -4 1015 100 16093 1.46 104 15:57 04.04.2020
5407 Clouds -4 1015 100 16093 1.46 104 15:38 04.04.2020
5408 Clouds -4 1015 100 16093 0.95 93 15:19 04.04.2020
5409 Clear -4 1015 100 16093 0.95 93 14:44 04.04.2020
5410 Clear -4 1015 100 16093 1.27 83 14:23 04.04.2020
5411 Clouds -4 1016 100 16093 1.27 83 13:57 04.04.2020
5412 Clouds -4 1016 100 16093 1.27 83 13:38 04.04.2020
5413 Clouds -4 1016 100 16093 1.27 83 13:20 04.04.2020
5414 Clear -4 1017 100 16093 1.5 60 12:55 04.04.2020
5415 Clear -4 1017 100 16093 1.5 60 12:55 04.04.2020
5416 Clear -4 1017 100 16093 1.5 60 12:36 04.04.2020
5417 Clear -5 1017 100 16093 1.5 60 12:18 04.04.2020
5418 Clear -4 1017 92 16093 1.42 112 11:40 04.04.2020
5419 Clear -5 1017 92 16093 1.42 112 11:21 04.04.2020
5420 Clear -5 1018 100 16093 2.1 60 10:58 04.04.2020
5421 Clear -4 1018 100 16093 2.1 60 10:40 04.04.2020
5422 Clear -4 1018 100 16093 2.1 60 10:21 04.04.2020
5423 Clear -4 1018 92 16093 1.42 112 09:55 04.04.2020
5424 Clear -4 1018 92 16093 1.42 112 09:37 04.04.2020
5425 Clear -4 1018 92 16093 0.68 191 09:19 04.04.2020
5426 Clouds -2 1019 92 16093 0.85 190 08:42 04.04.2020
5427 Clouds -2 1019 92 16093 0.85 190 08:23 04.04.2020
5428 Clouds -1 1019 95 16093 2.6 210 07:55 04.04.2020
5429 Clouds -1 1019 95 16093 2.6 210 07:37 04.04.2020
5430 Clouds -1 1019 95 16093 2.6 210 07:19 04.04.2020
5431 Clouds 0 1020 86 16093 1.5 230 06:22 04.04.2020
5432 Clouds 0 1019 88 16093 1.5 210 05:51 04.04.2020
5433 Snow 0 1019 88 16093 2.1 190 05:32 04.04.2020
5434 Clouds 0 1020 88 11265 2.1 210 04:34 04.04.2020
5435 Snow 1 1020 86 11265 3.1 230 03:55 04.04.2020
5436 Rain 1 1020 86 11265 3.1 230 03:27 04.04.2020
5437 Rain 1 1020 80 14484 2.1 220 02:42 04.04.2020
5438 Rain 1 1020 80 14484 2.1 220 02:24 04.04.2020
5439 Rain 1 1021 86 11265 3.1 230 01:27 04.04.2020
5440 Rain 1 1020 87 14484 1.5 260 00:57 04.04.2020
5441 Rain 1 1020 87 14484 1.5 260 00:30 04.04.2020
5442 Snow 1 1020 74 16093 2.6 200 23:56 03.04.2020
5443 Snow 1 1021 89 16093 2.1 270 23:37 03.04.2020
5444 Rain 1 1021 89 16093 1.5 270 23:18 03.04.2020
5445 Rain 0 1020 89 6437 1.64 264 22:40 03.04.2020
5446 Snow 0 1020 89 6437 1.64 264 22:19 03.04.2020
5447 Snow 0 1020 100 3219 1.64 264 21:56 03.04.2020
5448 Snow 0 1020 100 3219 1.64 264 21:56 03.04.2020
5449 Snow 0 1020 100 3219 1.64 264 21:37 03.04.2020
5450 Snow -1 1020 100 3219 1.1 257 21:19 03.04.2020
5451 Snow -1 1020 92 8047 1.1 257 20:55 03.04.2020
5452 Snow -1 1020 92 8047 1.1 257 20:36 03.04.2020
5453 Snow -1 1020 100 6437 1.1 257 20:18 03.04.2020
5454 Snow -2 1019 92 11265 1.1 257 19:54 03.04.2020
5455 Snow -2 1019 92 11265 1.1 257 19:36 03.04.2020
5456 Snow -2 1019 92 3219 1.1 257 19:18 03.04.2020
5457 Snow -2 1019 100 6437 1.1 257 18:56 03.04.2020
5458 Snow -3 1019 100 4426 1.1 257 18:38 03.04.2020
5459 Snow -3 1019 100 4426 0.51 285 18:19 03.04.2020
5460 Snow -3 1019 92 6437 0.51 285 17:40 03.04.2020
5461 Snow -3 1019 92 6437 0.51 285 17:19 03.04.2020
5462 Snow -3 1019 100 8047 0.51 285 16:55 03.04.2020
5463 Snow -3 1019 100 8047 0.51 285 16:55 03.04.2020
5464 Snow -3 1019 100 8047 0.51 285 16:36 03.04.2020
5465 Snow -3 1018 86 8047 1.5 340 16:18 03.04.2020
5466 Snow -3 1018 79 8047 0.51 285 15:41 03.04.2020
5467 Snow -2 1018 74 9656 0.61 28 15:22 03.04.2020
5468 Clouds -2 1018 74 16093 0.61 28 14:58 03.04.2020
5469 Clouds -3 1019 80 0 0.61 28 14:40 03.04.2020
5470 Clouds -3 1018 74 16093 2.1 60 14:21 03.04.2020
5471 Clouds -3 1018 74 16093 2.1 60 13:46 03.04.2020
5472 Clouds -3 1018 74 16093 2.1 60 13:27 03.04.2020
5473 Clouds -2 1018 68 16093 3.1 80 12:57 03.04.2020
5474 Clouds -2 1018 68 16093 3.1 80 12:39 03.04.2020
5475 Clouds -3 1018 68 16093 3.1 80 12:18 03.04.2020
5476 Clouds -3 1018 74 16093 2.6 80 11:55 03.04.2020
5477 Clouds -3 1018 74 16093 2.6 80 11:37 03.04.2020
5478 Clouds -3 1018 74 16093 2.6 80 11:18 03.04.2020
5479 Clouds -3 1019 68 16093 1.09 41 10:56 03.04.2020
5480 Clouds -3 1019 68 16093 1.09 41 10:37 03.04.2020
5481 Clouds -3 1019 68 16093 1.09 41 10:19 03.04.2020
5482 Clouds -2 1019 74 16093 1.09 41 09:56 03.04.2020
5483 Clouds -1 1019 74 16093 1.09 41 09:37 03.04.2020
5484 Clouds -1 1019 74 16093 1.05 49 09:19 03.04.2020
5485 Clouds -1 1020 63 16093 1.5 350 08:44 03.04.2020
5486 Clouds -1 1020 74 16093 1.05 49 08:25 03.04.2020
5487 Clouds -1 1020 74 16093 1.05 49 07:57 03.04.2020
5488 Clouds -1 1020 74 16093 1.05 49 07:39 03.04.2020
5489 Clouds -1 1020 74 16093 1.05 49 07:20 03.04.2020
5490 Snow 0 1021 96 16093 1.05 49 06:28 03.04.2020
5491 Clouds 1 1021 94 14484 1.02 94 05:43 03.04.2020
5492 Clouds 2 1022 50 14484 1.02 94 04:27 03.04.2020
5493 Clouds 1 1022 47 14484 2.1 230 03:33 03.04.2020
5494 Clouds 1 1023 43 14484 1.01 133 02:39 03.04.2020
5495 Clouds 0 1023 93 16093 0.98 121 01:25 03.04.2020
5496 Clouds 0 1024 93 16093 0.98 121 00:52 03.04.2020
5497 Clouds 0 1024 54 16093 2.6 240 00:32 03.04.2020
5498 Clouds -2 1024 63 16093 1.5 260 23:55 02.04.2020
5499 Clouds -2 1024 63 16093 1.5 260 23:37 02.04.2020
5500 Clouds -2 1024 63 16093 1.5 260 23:18 02.04.2020
5501 Clouds -2 1024 63 16093 1.5 260 23:18 02.04.2020
5502 Clouds -3 1024 62 16093 1.11 121 22:41 02.04.2020
5503 Clouds -2 1024 62 16093 1.11 121 22:22 02.04.2020
5504 Clouds -3 1024 67 16093 1.11 121 21:59 02.04.2020
5505 Clouds -3 1024 67 16093 1.11 121 21:37 02.04.2020
5506 Clouds -4 1024 67 16093 0.74 166 21:18 02.04.2020
5507 Clouds -5 1024 72 16093 0.63 160 20:45 02.04.2020
5508 Clouds -5 1024 72 16093 0.63 160 20:25 02.04.2020
5509 Clouds -7 1024 78 16093 0.63 160 19:59 02.04.2020
5510 Clouds -7 1024 78 16093 0.63 160 19:40 02.04.2020
5511 Clouds -7 1024 78 16093 0.63 160 19:20 02.04.2020
5512 Clouds -8 1024 78 16093 0.63 160 18:56 02.04.2020
5513 Clouds -7 1023 72 16093 0.63 160 18:37 02.04.2020
5514 Clouds -10 1024 78 16093 0.9 86 18:18 02.04.2020
5515 Clouds -9 1024 78 16093 0.9 86 17:43 02.04.2020
5516 Clouds -10 1024 78 16093 0.9 86 17:24 02.04.2020
5517 Clouds -8 1023 62 16093 0.9 86 16:58 02.04.2020
5518 Clouds -8 1023 62 16093 0.9 86 16:40 02.04.2020
5519 Clouds -9 1023 62 16093 0.9 86 16:22 02.04.2020
5520 Clouds -9 1024 57 16093 2.1 90 15:57 02.04.2020
5521 Clouds -9 1024 57 16093 2.1 90 15:39 02.04.2020
5522 Clouds -8 1024 57 16093 2.1 90 15:19 02.04.2020
5523 Clouds -7 1024 57 16093 2.1 60 14:57 02.04.2020
5524 Clouds -8 1024 57 16093 2.1 60 14:38 02.04.2020
5525 Clouds -8 1024 57 16093 2.1 60 14:19 02.04.2020
5526 Clouds -8 1024 53 16093 1.37 77 13:55 02.04.2020
5527 Clouds -7 1024 53 16093 1.37 77 13:37 02.04.2020
5528 Clouds -7 1024 53 16093 1.37 77 13:18 02.04.2020
5529 Clouds -7 1024 57 16093 1.37 77 12:46 02.04.2020
5530 Clouds -7 1024 57 16093 1.22 74 12:20 02.04.2020
5531 Clouds -7 1024 57 16093 1.5 70 11:58 02.04.2020
5532 Clouds -7 1024 57 16093 1.5 70 11:58 02.04.2020
5533 Clouds -7 1024 57 16093 1.5 70 11:39 02.04.2020
5534 Clouds -7 1024 57 16093 1.5 70 11:20 02.04.2020
5535 Clouds -7 1024 57 16093 1.5 70 11:20 02.04.2020
5536 Clouds -7 1024 57 16093 3.1 80 10:57 02.04.2020
5537 Clouds -7 1024 57 16093 3.1 80 10:38 02.04.2020
5538 Clouds -7 1024 57 16093 3.1 80 10:20 02.04.2020
5539 Clear -7 1024 67 16093 1.22 74 09:59 02.04.2020
5540 Clear -7 1024 67 16093 1.22 74 09:41 02.04.2020
5541 Clear -6 1024 67 16093 1.22 74 09:21 02.04.2020
5542 Clear -5 1024 53 16093 1.41 96 08:47 02.04.2020
5543 Clear -5 1024 53 16093 1.41 96 08:28 02.04.2020
5544 Clear -5 1024 62 16093 1.41 96 07:57 02.04.2020
5545 Clear -5 1024 62 16093 1.41 96 07:38 02.04.2020
5546 Clear -4 1024 62 16093 1.41 96 07:19 02.04.2020
5547 Clear -3 1024 53 16093 1.41 96 06:24 02.04.2020
5548 Clouds -1 1024 54 16093 2.6 250 05:46 02.04.2020
5549 Clouds 0 1024 93 16093 2.1 220 04:55 02.04.2020
5550 Clear 0 1025 33 16093 2.6 120 02:19 02.04.2020
5551 Clear 0 1026 30 16093 4.1 100 00:59 02.04.2020
5552 Clear 0 1026 30 16093 4.1 100 00:41 02.04.2020
5553 Clear -1 1026 30 16093 4.1 100 00:19 02.04.2020
5554 Clear -1 1026 30 16093 4.6 80 23:39 01.04.2020
5555 Clear -2 1026 30 16093 4.6 80 23:19 01.04.2020
5556 Clear -2 1027 32 16093 5.1 90 22:56 01.04.2020
5557 Clear -3 1027 32 16093 5.1 90 22:38 01.04.2020
5558 Clear -3 1027 32 16093 5.1 90 22:19 01.04.2020
5559 Clear -4 1028 41 16093 3.1 60 21:41 01.04.2020
5560 Clear -8 1028 41 16093 3.1 60 21:19 01.04.2020
5561 Clouds -10 1028 50 16093 3.1 40 20:56 01.04.2020
5562 Clouds -10 1028 50 16093 3.1 40 20:38 01.04.2020
5563 Clear -12 1029 60 16093 4.1 60 20:19 01.04.2020
5564 Clear -12 1029 60 16093 4.1 60 19:58 01.04.2020
5565 Clear -13 1029 60 16093 4.1 60 19:38 01.04.2020
5566 Clear -13 1029 60 16093 4.1 60 19:19 01.04.2020
5567 Clear -14 1029 60 16093 4.1 60 18:42 01.04.2020
5568 Clear -14 1029 60 16093 4.1 60 18:23 01.04.2020
5569 Clear -14 1029 60 16093 3.6 70 17:57 01.04.2020
5570 Clear -15 1029 60 16093 3.6 70 17:38 01.04.2020
5571 Clear -15 1029 60 16093 3.6 70 17:19 01.04.2020
5572 Clear -15 1029 60 16093 4.6 70 16:58 01.04.2020
5573 Clear -15 1029 60 16093 4.6 70 16:39 01.04.2020
5574 Clear -15 1029 60 16093 4.6 70 16:39 01.04.2020
5575 Clear -15 1029 60 16093 4.6 70 16:20 01.04.2020
5576 Clear -15 1029 60 16093 2.43 66 15:56 01.04.2020
5577 Clear -17 1029 60 16093 2.43 66 15:37 01.04.2020
5578 Clear -16 1029 60 16093 2 77 15:18 01.04.2020
5579 Clear -16 1029 65 16093 4.1 70 14:40 01.04.2020
5580 Clear -16 1029 65 16093 4.1 70 14:22 01.04.2020
5581 Clear -15 1029 65 16093 2.09 73 13:59 01.04.2020
5582 Clear -16 1029 65 16093 2.09 73 13:40 01.04.2020
5583 Clear -16 1029 65 16093 2.09 73 13:20 01.04.2020
5584 Clear -16 1029 77 16093 2.09 73 12:59 01.04.2020
5585 Clear -16 1029 77 16093 2.09 73 12:41 01.04.2020
5586 Clear -16 1029 77 16093 2.09 73 12:22 01.04.2020
5587 Clear -15 1029 65 16093 1.48 69 11:57 01.04.2020
5588 Clear -15 1029 65 16093 1.48 69 11:37 01.04.2020
5589 Clear -15 1029 65 16093 1.48 69 11:37 01.04.2020
5590 Clear -15 1029 65 16093 1.48 69 11:19 01.04.2020
5591 Clear -14 1029 71 16093 1.48 69 10:39 01.04.2020
5592 Clear -15 1029 71 16093 1.48 69 10:21 01.04.2020
5593 Clear -13 1028 65 16093 1.48 69 09:59 01.04.2020
5594 Clear -13 1028 65 16093 1.48 69 09:40 01.04.2020
5595 Clear -13 1028 65 16093 1.48 69 09:40 01.04.2020
5596 Clear -13 1028 65 16093 1.57 71 09:20 01.04.2020
5597 Clouds -12 1028 51 16093 1.17 103 08:54 01.04.2020
5598 Clouds -12 1028 51 16093 1.17 103 08:36 01.04.2020
5599 Clear -10 1027 52 16093 1.17 103 08:18 01.04.2020
5600 Clear -8 1027 52 16093 1.17 103 07:40 01.04.2020
5601 Clear -8 1027 52 16093 1.17 103 07:19 01.04.2020
5602 Clear -7 1027 41 16093 1.5 170 06:42 01.04.2020
5603 Clear -6 1027 41 16093 1.5 170 06:20 01.04.2020
5604 Clear -4 1026 35 16093 2.1 190 05:28 01.04.2020
5605 Clear -3 1026 32 16093 3.6 190 03:57 01.04.2020
5606 Clear -3 1026 32 16093 3.6 190 03:19 01.04.2020
5607 Clear -3 1025 35 16093 3.1 160 02:36 01.04.2020
5608 Clear -3 1025 30 16093 4.1 150 01:50 01.04.2020
5609 Clear -3 1025 30 16093 4.1 150 01:25 01.04.2020
5610 Clear -4 1025 29 16093 5.1 140 00:47 01.04.2020
5611 Clear -4 1025 29 16093 5.1 140 00:22 01.04.2020
5612 Clear -4 1025 32 16093 5.1 130 23:57 31.03.2020
5613 Clear -4 1025 32 16093 5.1 130 23:38 31.03.2020
5614 Clear -5 1025 32 16093 5.1 130 23:19 31.03.2020
5615 Clear -6 1025 29 16093 4.6 120 22:41 31.03.2020
5616 Clear -6 1025 31 16093 2.6 90 22:21 31.03.2020
5617 Clear -6 1025 31 16093 2.6 90 21:58 31.03.2020
5618 Clear -6 1025 31 16093 2.6 90 21:40 31.03.2020
5619 Clear -7 1025 31 16093 2.6 90 21:21 31.03.2020
5620 Clear -10 1024 39 16093 4.1 70 20:57 31.03.2020
5621 Clear -10 1024 39 16093 4.1 70 20:57 31.03.2020
5622 Clear -10 1024 39 16093 4.1 70 20:57 31.03.2020
5623 Clear -10 1024 39 16093 4.1 70 20:57 31.03.2020
5624 Clear -10 1024 39 16093 4.1 70 20:37 31.03.2020
5625 Clear -10 1024 36 16093 5.7 70 20:19 31.03.2020
5626 Clear -10 1024 36 16093 5.7 70 19:56 31.03.2020
5627 Clear -10 1024 36 16093 5.7 70 19:37 31.03.2020
5628 Clear -11 1024 46 16093 4.1 70 19:19 31.03.2020
5629 Clear -12 1024 46 16093 4.1 70 18:44 31.03.2020
5630 Clear -12 1024 46 16093 4.1 70 18:20 31.03.2020
5631 Clear -15 1024 39 16093 3.1 60 17:57 31.03.2020
5632 Clouds -16 1024 41 16093 2.6 30 17:39 31.03.2020
5633 Clouds -16 1024 41 16093 2.6 30 17:39 31.03.2020
5634 Clear -16 1024 42 16093 5.1 70 17:21 31.03.2020
5635 Clear -16 1024 42 16093 5.1 70 16:56 31.03.2020
5636 Clear -16 1024 42 16093 5.1 70 16:36 31.03.2020
5637 Clear -16 1024 42 16093 5.1 70 16:18 31.03.2020
5638 Clear -14 1024 39 16093 3.6 50 15:55 31.03.2020
5639 Clear -14 1024 39 16093 3.6 50 15:36 31.03.2020
5640 Clear -14 1024 39 16093 3.6 50 15:18 31.03.2020
5641 Clear -12 1023 36 16093 4.6 70 14:42 31.03.2020
5642 Clear -12 1023 36 16093 4.6 70 14:22 31.03.2020
5643 Clear -12 1023 36 16093 4.1 60 13:59 31.03.2020
5644 Clear -12 1023 36 16093 4.1 60 13:40 31.03.2020
5645 Clear -12 1023 36 16093 4.1 60 13:19 31.03.2020
5646 Clear -12 1023 36 16093 6.7 80 12:46 31.03.2020
5647 Clear -12 1023 36 16093 6.7 80 12:20 31.03.2020
5648 Clear -10 1024 39 16093 1.5 50 11:58 31.03.2020
5649 Clear -10 1024 39 16093 1.5 50 11:38 31.03.2020
5650 Clear -10 1024 39 16093 1.5 50 11:19 31.03.2020
5651 Clear -11 1023 40 16093 4.1 80 10:55 31.03.2020
5652 Clear -11 1023 40 16093 4.1 80 10:55 31.03.2020
5653 Clear -11 1023 40 16093 4.1 80 10:37 31.03.2020
5654 Clear -11 1023 40 16093 4.1 80 10:19 31.03.2020
5655 Clear -10 1024 37 16093 5.1 80 09:45 31.03.2020
5656 Clear -10 1024 37 16093 5.1 80 09:26 31.03.2020
5657 Clear -9 1023 40 16093 4.6 70 08:59 31.03.2020
5658 Clear -9 1023 40 16093 4.6 70 08:41 31.03.2020
5659 Clear -8 1023 40 16093 4.6 70 08:21 31.03.2020
5660 Clear -7 1023 37 16093 4.6 80 07:59 31.03.2020
5661 Clear -7 1023 37 16093 4.6 80 07:41 31.03.2020
5662 Clear -7 1023 37 16093 4.6 80 07:22 31.03.2020
5663 Clear -6 1023 35 16093 4.1 80 06:55 31.03.2020
5664 Clear -6 1023 35 16093 4.1 80 06:36 31.03.2020
5665 Clear -4 1023 27 16093 5.7 80 05:42 31.03.2020
5666 Clear -4 1023 27 16093 5.7 80 05:20 31.03.2020
5667 Clouds -4 1024 29 16093 6.2 80 02:40 31.03.2020
5668 Clear -4 1025 32 16093 5.7 70 01:47 31.03.2020
5669 Clear -4 1025 32 16093 5.7 70 01:19 31.03.2020
5670 Clouds -5 1025 29 16093 5.7 70 00:42 31.03.2020
5671 Clouds -6 1025 29 16093 5.7 70 00:19 31.03.2020
5672 Clouds -7 1026 34 16093 4.6 60 23:39 30.03.2020
5673 Clear -8 1027 36 16093 3.6 50 23:20 30.03.2020
5674 Clear -8 1027 36 16093 3.6 50 22:57 30.03.2020
5675 Clear -9 1027 36 16093 3.6 50 22:38 30.03.2020
5676 Clear -9 1027 36 16093 3.6 50 22:18 30.03.2020
5677 Clear -10 1027 46 16093 4.6 80 21:57 30.03.2020
5678 Clear -11 1027 46 16093 4.6 80 21:37 30.03.2020
5679 Clear -15 1027 46 16093 4.6 80 21:19 30.03.2020
5680 Clear -17 1028 54 16093 3.6 50 20:56 30.03.2020
5681 Clear -16 1028 54 16093 3.6 50 20:37 30.03.2020
5682 Clear -17 1028 54 16093 3.6 50 20:19 30.03.2020
5683 Clear -16 1028 58 16093 2.6 70 19:41 30.03.2020
5684 Clear -16 1028 58 16093 2.6 70 19:41 30.03.2020
5685 Clear -18 1028 58 16093 2.6 70 19:22 30.03.2020
5686 Clear -19 1028 64 16093 5.1 70 18:57 30.03.2020
5687 Clear -20 1028 64 16093 5.1 70 18:39 30.03.2020
5688 Clear -22 1028 64 16093 5.1 70 18:21 30.03.2020
5689 Clear -23 1028 64 16093 4.1 60 17:57 30.03.2020
5690 Clear -23 1028 64 16093 4.1 60 17:38 30.03.2020
5691 Clear -23 1028 64 16093 4.1 60 17:19 30.03.2020
5692 Clear -21 1028 64 16093 4.6 60 16:56 30.03.2020
5693 Clear -21 1028 64 16093 4.6 60 16:56 30.03.2020
5694 Clear -21 1028 64 16093 4.6 60 16:38 30.03.2020
5695 Clear -21 1028 64 16093 4.6 60 16:20 30.03.2020
5696 Clear -20 1028 54 16093 5.1 70 15:55 30.03.2020
5697 Clear -20 1028 54 16093 5.1 70 15:36 30.03.2020
5698 Clear -20 1028 54 16093 5.1 70 15:18 30.03.2020
5699 Clear -18 1028 54 16093 5.1 60 14:55 30.03.2020
5700 Clear -18 1028 54 16093 5.1 60 14:36 30.03.2020
5701 Clear -19 1028 54 16093 5.1 60 14:18 30.03.2020
5702 Clear -20 1028 59 16093 4.6 60 13:43 30.03.2020
5703 Clear -20 1028 59 16093 4.6 60 13:21 30.03.2020
5704 Clear -18 1028 54 16093 4.6 60 12:58 30.03.2020
5705 Clear -18 1028 54 16093 4.6 60 12:40 30.03.2020
5706 Clear -18 1028 54 16093 4.6 60 12:19 30.03.2020
5707 Clear -16 1028 50 16093 6.2 80 11:56 30.03.2020
5708 Clear -16 1028 50 16093 6.2 80 11:38 30.03.2020
5709 Clear -16 1028 50 16093 6.2 80 11:20 30.03.2020
5710 Clear -16 1028 54 16093 4.6 70 10:40 30.03.2020
5711 Clear -16 1028 54 16093 4.6 70 10:21 30.03.2020
5712 Clear -16 1028 50 16093 4.1 70 09:56 30.03.2020
5713 Clear -16 1028 50 16093 4.1 70 09:56 30.03.2020
5714 Clear -16 1028 50 16093 4.1 70 09:38 30.03.2020
5715 Clear -16 1028 50 16093 4.1 70 09:18 30.03.2020
5716 Clear -15 1027 46 16093 4.1 70 08:41 30.03.2020
5717 Clear -15 1027 46 16093 4.1 70 08:22 30.03.2020
5718 Clear -14 1027 46 16093 4.1 70 08:22 30.03.2020
5719 Clear -12 1027 39 16093 3.6 50 07:49 30.03.2020
5720 Clear -12 1027 39 16093 3.6 50 07:28 30.03.2020
5721 Clear -12 1026 36 16093 2.6 40 06:56 30.03.2020
5722 Clear -11 1026 36 16093 2.6 40 06:32 30.03.2020
5723 Clear -10 1026 36 16093 6.2 70 05:53 30.03.2020
5724 Clear -9 1026 36 16093 6.2 70 05:22 30.03.2020
5725 Clear -8 1026 31 16093 5.1 70 04:23 30.03.2020
5726 Clear -8 1026 31 16093 4.1 80 03:44 30.03.2020
5727 Clear -8 1026 34 16093 4.6 60 02:39 30.03.2020
5728 Clear -8 1026 34 16093 5.1 60 01:44 30.03.2020
5729 Clear -9 1026 36 16093 4.1 50 00:50 30.03.2020
5730 Clear -9 1026 36 16093 4.1 50 00:23 30.03.2020
5731 Clear -10 1026 40 16093 4.1 60 23:42 29.03.2020
5732 Clear -10 1026 40 16093 4.1 60 23:24 29.03.2020
5733 Clear -11 1026 39 0 4.6 80 22:58 29.03.2020
5734 Clear -11 1026 39 0 4.6 80 22:38 29.03.2020
5735 Clear -11 1026 39 0 4.6 80 22:19 29.03.2020
5736 Clear -12 1025 46 16093 5.1 60 21:56 29.03.2020
5737 Clear -12 1025 46 16093 5.1 60 21:36 29.03.2020
5738 Clear -13 1025 46 16093 5.1 60 21:18 29.03.2020
5739 Clear -13 1025 46 16093 3.1 70 20:54 29.03.2020
5740 Clear -14 1025 46 16093 3.1 70 20:36 29.03.2020
5741 Clear -14 1025 46 16093 3.1 70 20:18 29.03.2020
5742 Clear -15 1025 49 16093 4.1 70 19:42 29.03.2020
5743 Clear -15 1025 49 16093 4.1 70 19:24 29.03.2020
5744 Clear -16 1025 49 16093 4.1 50 18:58 29.03.2020
5745 Clear -16 1025 49 16093 4.1 50 18:40 29.03.2020
5746 Clear -17 1025 49 16093 4.1 50 18:20 29.03.2020
5747 Clear -17 1025 49 16093 4.1 50 18:20 29.03.2020
5748 Clear -17 1024 49 16093 4.1 40 17:58 29.03.2020
5749 Clear -17 1024 49 16093 4.1 40 17:40 29.03.2020
5750 Clear -17 1024 49 16093 4.1 40 17:22 29.03.2020
5751 Clear -18 1023 45 16093 2.1 50 16:58 29.03.2020
5752 Clear -18 1023 45 16093 2.1 50 16:39 29.03.2020
5753 Clear -18 1023 45 16093 2.1 50 16:21 29.03.2020
5754 Clear -18 1022 49 16093 3.6 70 15:58 29.03.2020
5755 Clear -18 1022 49 16093 3.6 70 15:39 29.03.2020
5756 Clear -18 1022 49 16093 3.6 70 15:19 29.03.2020
5757 Clear -21 1022 63 16093 2.5 29 14:55 29.03.2020
5758 Clear -21 1022 63 16093 2.5 29 14:36 29.03.2020
5759 Clear -21 1022 63 16093 2.5 29 14:36 29.03.2020
5760 Clear -20 1022 63 16093 2.5 29 14:18 29.03.2020
5761 Clear -18 1021 58 16093 2.37 30 13:42 29.03.2020
5762 Clear -18 1021 58 16093 2.37 30 13:22 29.03.2020
5763 Clear -17 1021 45 16093 2.37 30 12:58 29.03.2020
5764 Clear -17 1021 45 16093 2.37 30 12:39 29.03.2020
5765 Clear -17 1021 45 16093 3.03 26 12:19 29.03.2020
5766 Clear -16 1020 45 16093 4.1 50 11:59 29.03.2020
5767 Clear -16 1020 45 16093 4.1 50 11:38 29.03.2020
5768 Clear -16 1020 45 16093 4.1 50 11:19 29.03.2020
5769 Clear -15 1019 38 16093 3.03 26 10:39 29.03.2020
5770 Clear -15 1019 38 16093 3.03 26 10:20 29.03.2020
5771 Clear -15 1018 38 16093 4.1 50 09:56 29.03.2020
5772 Clear -15 1018 38 16093 4.1 50 09:38 29.03.2020
5773 Clear -15 1018 38 16093 4.1 50 09:18 29.03.2020
5774 Clear -15 1017 38 16093 3.6 80 08:43 29.03.2020
5775 Clear -15 1017 38 16093 3.6 80 08:25 29.03.2020
5776 Clear -14 1016 32 16093 4.6 30 07:47 29.03.2020
5777 Clear -14 1016 32 16093 4.6 30 07:23 29.03.2020
5778 Clear -12 1015 33 16093 3.1 40 06:34 29.03.2020
5779 Clear -10 1013 28 16093 6.7 40 04:56 29.03.2020
5780 Clear -8 1012 28 16093 6.2 50 03:41 29.03.2020
5781 Clear -8 1012 28 16093 6.2 50 03:20 29.03.2020
5782 Clear -8 1012 28 16093 3.6 60 01:40 29.03.2020
5783 Clear -8 1012 28 16093 3.6 60 01:21 29.03.2020
5784 Clear -8 1012 26 16093 6.7 80 00:40 29.03.2020
5785 Clear -8 1012 26 16093 6.7 80 00:19 29.03.2020
5786 Clear -8 1012 33 16093 5.1 50 23:41 28.03.2020
5787 Clear -8 1012 33 16093 5.1 50 23:41 28.03.2020
5788 Clear -9 1012 33 16093 5.1 50 23:22 28.03.2020
5789 Clear -10 1012 33 16093 5.1 60 22:44 28.03.2020
5790 Clear -10 1012 33 16093 5.1 60 22:22 28.03.2020
5791 Clear -11 1012 33 16093 4.6 70 21:57 28.03.2020
5792 Clear -11 1012 33 16093 4.6 70 21:57 28.03.2020
5793 Clear -11 1012 33 16093 4.6 70 21:57 28.03.2020
5794 Clear -11 1012 33 16093 4.6 70 21:39 28.03.2020
5795 Clear -11 1012 33 16093 4.6 70 21:20 28.03.2020
5796 Clouds -12 1012 32 16093 5.1 60 20:57 28.03.2020
5797 Clear -12 1012 42 16093 5.1 60 20:38 28.03.2020
5798 Clear -13 1012 42 16093 5.1 60 20:20 28.03.2020
5799 Clear -16 1012 45 16093 4.1 40 19:55 28.03.2020
5800 Clear -16 1012 45 16093 4.1 40 19:36 28.03.2020
5801 Clear -16 1012 45 16093 4.1 40 19:18 28.03.2020
5802 Clear -18 1012 49 16093 4.6 60 18:42 28.03.2020
5803 Clear -18 1012 49 16093 4.6 60 18:20 28.03.2020
5804 Clear -19 1012 53 16093 4.6 60 17:43 28.03.2020
5805 Clear -20 1012 53 16093 4.6 60 17:24 28.03.2020
5806 Clear -20 1012 49 16093 3.6 70 16:59 28.03.2020
5807 Clear -20 1012 49 16093 3.6 70 16:59 28.03.2020
5808 Clear -20 1012 49 16093 3.6 70 16:40 28.03.2020
5809 Clear -20 1012 49 16093 3.6 70 16:20 28.03.2020
5810 Clear -20 1012 58 16093 3.1 70 15:55 28.03.2020
5811 Clear -20 1012 58 16093 3.1 70 15:37 28.03.2020
5812 Clear -20 1012 58 16093 3.1 70 15:18 28.03.2020
5813 Clear -19 1012 58 16093 4.1 60 14:41 28.03.2020
5814 Clear -19 1012 58 16093 4.1 60 14:22 28.03.2020
5815 Clear -19 1012 53 16093 4.1 60 13:44 28.03.2020
5816 Clear -18 1012 53 16093 4.1 60 13:25 28.03.2020
5817 Clear -18 1012 53 16093 4.6 60 12:57 28.03.2020
5818 Clear -18 1012 53 16093 4.6 60 12:37 28.03.2020
5819 Clear -18 1012 53 16093 4.6 60 12:18 28.03.2020
5820 Clear -18 1013 53 16093 4.1 60 11:42 28.03.2020
5821 Clear -18 1013 53 16093 4.1 60 11:21 28.03.2020
5822 Clear -17 1013 54 16093 4.1 60 10:41 28.03.2020
5823 Clear -17 1013 54 16093 4.1 60 10:22 28.03.2020
5824 Clear -17 1013 54 16093 4.1 60 09:59 28.03.2020
5825 Clear -17 1013 54 16093 4.1 60 09:39 28.03.2020
5826 Clear -17 1013 54 16093 4.1 60 09:20 28.03.2020
5827 Clear -17 1013 54 16093 3.6 60 08:42 28.03.2020
5828 Clear -17 1013 54 16093 3.6 60 08:23 28.03.2020
5829 Clouds -15 1013 45 16093 6.2 50 07:52 28.03.2020
5830 Clouds -16 1013 45 16093 6.2 50 07:34 28.03.2020
5831 Clear -15 1013 50 16093 4.6 60 06:45 28.03.2020
5832 Clear -15 1013 50 16093 4.6 60 06:23 28.03.2020
5833 Clear -14 1013 46 16093 4.6 50 05:26 28.03.2020
5834 Clear -13 1013 43 16093 5.7 80 04:53 28.03.2020
5835 Clear -13 1013 43 16093 5.7 80 04:35 28.03.2020
5836 Clear -11 1014 36 16093 6.7 60 02:50 28.03.2020
5837 Clouds -11 1015 36 16093 7.2 60 01:47 28.03.2020
5838 Clear -11 1016 39 16093 6.7 70 01:23 28.03.2020
5839 Clear -11 1016 39 16093 6.7 70 00:47 28.03.2020
5840 Clear -11 1016 39 16093 6.7 70 00:24 28.03.2020
5841 Clear -11 1017 36 16093 7.2 70 23:44 27.03.2020
5842 Clear -11 1017 36 16093 7.2 70 23:25 27.03.2020
5843 Clear -12 1018 39 16093 6.2 60 22:57 27.03.2020
5844 Clear -12 1018 39 16093 6.2 60 22:39 27.03.2020
5845 Clear -12 1018 39 16093 6.2 60 22:20 27.03.2020
5846 Clear -13 1018 39 16093 6.7 80 21:58 27.03.2020
5847 Clear -13 1018 39 16093 6.7 80 21:40 27.03.2020
5848 Clear -13 1018 39 16093 6.7 80 21:22 27.03.2020
5849 Clear -14 1019 45 16093 8.2 60 20:55 27.03.2020
5850 Clear -15 1019 45 16093 8.2 60 20:37 27.03.2020
5851 Clear -15 1019 45 16093 8.2 60 20:19 27.03.2020
5852 Clear -16 1020 49 16093 6.2 70 19:43 27.03.2020
5853 Clear -16 1020 49 16093 6.2 70 19:23 27.03.2020
5854 Clear -18 1021 58 16093 3.1 50 18:57 27.03.2020
5855 Clear -18 1021 58 16093 3.1 50 18:38 27.03.2020
5856 Clear -19 1021 58 16093 3.1 50 18:20 27.03.2020
5857 Clear -19 1021 63 16093 2.1 60 17:40 27.03.2020
5858 Clear -21 1021 63 16093 2.1 60 17:20 27.03.2020
5859 Clear -21 1022 63 16093 3.1 70 16:57 27.03.2020
5860 Clear -20 1022 63 16093 3.1 70 16:38 27.03.2020
5861 Clear -21 1022 63 16093 3.1 70 16:20 27.03.2020
5862 Clear -21 1022 57 16093 2.6 20 15:42 27.03.2020
5863 Clear -22 1022 57 16093 2.6 20 15:24 27.03.2020
5864 Clear -20 1022 49 16093 4.1 360 14:48 27.03.2020
5865 Clear -20 1022 49 16093 4.1 360 14:27 27.03.2020
5866 Clear -19 1022 49 16093 2.6 360 13:58 27.03.2020
5867 Clear -19 1022 49 16093 2.6 360 13:40 27.03.2020
5868 Clear -19 1022 49 16093 2.6 360 13:21 27.03.2020
5869 Clear -20 1022 49 16093 4.1 360 12:57 27.03.2020
5870 Clear -19 1022 49 16093 4.1 360 12:39 27.03.2020
5871 Clear -19 1022 49 16093 4.1 360 12:19 27.03.2020
5872 Clear -19 1022 49 16093 3.6 360 11:41 27.03.2020
5873 Clear -19 1022 49 16093 3.6 360 11:23 27.03.2020
5874 Clear -19 1022 49 16093 3.6 360 11:23 27.03.2020
5875 Clear -18 1021 49 16093 4.1 360 10:55 27.03.2020
5876 Clear -18 1021 49 16093 4.1 360 10:37 27.03.2020
5877 Clear -18 1021 49 16093 4.1 360 10:19 27.03.2020
5878 Clear -17 1021 49 16093 4.6 350 09:57 27.03.2020
5879 Clear -17 1021 49 16093 4.6 350 09:37 27.03.2020
5880 Clear -17 1021 54 11265 2.59 19 09:18 27.03.2020
5881 Clear -16 1021 54 11265 2.59 19 08:56 27.03.2020
5882 Clear -16 1021 54 11265 2.59 19 08:38 27.03.2020
5883 Clear -16 1021 54 11265 2.34 359 08:20 27.03.2020
5884 Clear -15 1019 55 11265 2.6 40 07:50 27.03.2020
5885 Clear -15 1019 55 11265 2.6 40 07:24 27.03.2020
5886 Clouds -14 1018 46 11265 3.6 350 06:53 27.03.2020
5887 Clouds -13 1018 46 11265 3.6 350 06:35 27.03.2020
5888 Clouds -10 1016 40 11265 6.2 310 04:24 27.03.2020
5889 Clouds -8 1014 48 16093 6.2 350 02:32 27.03.2020
5890 Clouds -7 1013 57 16093 4.6 290 01:23 27.03.2020
5891 Clouds -6 1013 57 16093 4.6 290 00:48 27.03.2020
5892 Clouds -6 1013 57 16093 4.6 290 00:24 27.03.2020
5893 Clouds -6 1013 57 16093 7.2 280 23:44 26.03.2020
5894 Clouds -6 1013 57 16093 7.2 280 23:22 26.03.2020
5895 Clouds -6 1012 67 16093 5.7 250 22:58 26.03.2020
5896 Clouds -7 1012 67 16093 5.7 250 22:38 26.03.2020
5897 Clouds -7 1012 67 16093 5.7 250 22:19 26.03.2020
5898 Clouds -7 1011 62 16093 6.2 240 21:56 26.03.2020
5899 Clouds -7 1011 62 16093 6.2 240 21:37 26.03.2020
5900 Clouds -7 1011 62 16093 6.2 240 21:18 26.03.2020
5901 Clouds -7 1011 62 16093 5.1 240 20:56 26.03.2020
5902 Clouds -7 1011 62 16093 5.1 240 20:37 26.03.2020
5903 Clouds -7 1011 52 16093 6.7 270 20:19 26.03.2020
5904 Clouds -8 1010 67 16093 4.1 240 19:54 26.03.2020
5905 Clouds -8 1010 67 16093 4.1 240 19:36 26.03.2020
5906 Clouds -8 1010 67 16093 4.1 240 19:18 26.03.2020
5907 Clouds -8 1009 72 16093 6.2 240 18:41 26.03.2020
5908 Clouds -9 1009 72 16093 6.2 240 18:23 26.03.2020
5909 Clouds -8 1008 67 16093 6.7 250 17:55 26.03.2020
5910 Clouds -8 1008 67 16093 6.7 250 17:37 26.03.2020
5911 Clouds -7 1008 67 16093 6.7 250 17:18 26.03.2020
5912 Clouds -7 1008 57 16093 8.7 260 16:40 26.03.2020
5913 Clouds -7 1008 57 16093 8.7 260 16:21 26.03.2020
5914 Clouds -6 1007 53 16093 5.7 280 15:57 26.03.2020
5915 Clouds -6 1007 53 16093 5.7 280 15:38 26.03.2020
5916 Clouds -6 1007 53 16093 5.7 280 15:20 26.03.2020
5917 Clouds -5 1006 49 16093 7.7 260 14:55 26.03.2020
5918 Clouds -5 1006 49 16093 7.7 260 14:36 26.03.2020
5919 Clouds -5 1006 49 16093 7.7 260 14:18 26.03.2020
5920 Clouds -4 1006 58 16093 6.2 280 13:41 26.03.2020
5921 Clouds -4 1006 58 16093 6.2 280 13:22 26.03.2020
5922 Clouds -3 1005 63 16093 4.6 280 12:55 26.03.2020
5923 Clouds -3 1005 63 16093 4.6 280 12:37 26.03.2020
5924 Clouds -4 1005 63 16093 4.6 280 12:18 26.03.2020
5925 Clouds -3 1005 68 16093 1.5 210 11:44 26.03.2020
5926 Clouds -4 1005 68 16093 1.5 210 11:20 26.03.2020
5927 Clouds -4 1006 68 16093 1.5 190 10:42 26.03.2020
5928 Clouds -4 1006 68 16093 1.5 190 10:20 26.03.2020
5929 Clouds -4 1006 68 16093 3.6 270 09:59 26.03.2020
5930 Clouds -4 1006 68 16093 3.6 270 09:41 26.03.2020
5931 Clear -4 1006 79 11265 1.5 280 09:19 26.03.2020
5932 Clear -3 1006 79 11265 1.5 280 08:44 26.03.2020
5933 Clear -3 1006 79 11265 1.5 280 08:26 26.03.2020
5934 Clouds -3 1007 74 11265 3.1 270 07:57 26.03.2020
5935 Clouds -3 1007 74 11265 3.1 270 07:57 26.03.2020
5936 Clouds -2 1007 74 11265 3.1 270 07:38 26.03.2020
5937 Clouds -2 1007 74 11265 3.1 270 07:19 26.03.2020
5938 Clouds -1 1007 95 11265 4.6 270 06:35 26.03.2020
5939 Snow -1 1006 95 9656 3.6 300 05:51 26.03.2020
5940 Rain 0 1005 86 11265 3.6 270 03:47 26.03.2020
5941 Rain 0 1005 86 11265 3.6 260 03:26 26.03.2020
5942 Rain 1 1005 86 9656 4.6 310 02:52 26.03.2020
5943 Rain 1 1003 86 8047 4.6 310 01:19 26.03.2020
5944 Rain 1 1003 84 3219 4.6 310 00:33 26.03.2020
5945 Snow 1 1002 84 4828 5.7 240 23:44 25.03.2020
5946 Snow 1 1002 84 4828 5.7 240 23:26 25.03.2020
5947 Rain 1 1001 90 3219 5.1 240 22:56 25.03.2020
5948 Rain 1 1001 90 3219 5.1 240 22:37 25.03.2020
5949 Rain 1 1001 90 3219 5.1 240 22:19 25.03.2020
5950 Snow 0 1001 90 2414 5.7 230 21:54 25.03.2020
5951 Snow 0 1001 90 2414 5.7 230 21:36 25.03.2020
5952 Snow 0 1001 90 2414 5.7 230 21:18 25.03.2020
5953 Snow 0 1001 90 2414 5.7 230 20:39 25.03.2020
5954 Snow 0 1001 90 2414 5.7 230 20:19 25.03.2020
5955 Snow 0 1001 90 2414 6.2 230 19:56 25.03.2020
5956 Snow 0 1001 90 2414 6.2 230 19:38 25.03.2020
5957 Snow 0 1001 90 2414 6.2 230 19:19 25.03.2020
5958 Snow 0 1002 90 2012 3.6 220 18:43 25.03.2020
5959 Snow 0 1002 90 2012 3.6 220 18:25 25.03.2020
5960 Snow 0 1002 90 2012 4.1 230 17:59 25.03.2020
5961 Snow 0 1002 90 2012 4.1 230 17:41 25.03.2020
5962 Snow 0 1002 90 2012 4.1 230 17:22 25.03.2020
5963 Snow 0 1003 89 1609 5.7 230 16:58 25.03.2020
5964 Snow 0 1003 90 1609 5.7 230 16:39 25.03.2020
5965 Snow 0 1003 90 1609 5.7 230 16:20 25.03.2020
5966 Snow 0 1005 89 3219 5.7 230 15:43 25.03.2020
5967 Snow 0 1005 89 3219 5.7 230 15:21 25.03.2020
5968 Snow 0 1005 89 3219 5.7 220 14:57 25.03.2020
5969 Snow 0 1005 90 3219 5.7 220 14:39 25.03.2020
5970 Snow 0 1005 90 3219 5.7 220 14:20 25.03.2020
5971 Snow 0 1006 90 3219 5.1 220 13:44 25.03.2020
5972 Snow 0 1006 90 3219 5.1 220 13:24 25.03.2020
5973 Snow 0 1007 90 8047 4.1 220 12:39 25.03.2020
5974 Snow 0 1007 90 8047 4.1 220 12:21 25.03.2020
5975 Clouds 0 1008 90 16093 5.1 220 11:59 25.03.2020
5976 Clouds 0 1008 90 16093 5.1 220 11:40 25.03.2020
5977 Clouds 0 1009 90 16093 4.6 220 11:21 25.03.2020
5978 Rain 0 1008 89 0 3.12 259 10:58 25.03.2020
5979 Rain 0 1010 86 0 0.89 277 10:40 25.03.2020
5980 Clouds 0 1011 89 11265 4.1 230 10:19 25.03.2020
5981 Clouds 1 1011 89 11265 4.1 230 09:56 25.03.2020
5982 Clouds 0 1011 89 11265 4.1 230 09:38 25.03.2020
5983 Clouds 1 1011 89 11265 4.1 230 09:20 25.03.2020
5984 Clouds 0 1012 89 11265 4.6 230 08:42 25.03.2020
5985 Clouds 0 1012 89 11265 4.6 230 08:24 25.03.2020
5986 Clouds 0 1013 86 11265 3.1 210 07:57 25.03.2020
5987 Clouds 0 1013 86 11265 3.1 210 07:38 25.03.2020
5988 Clouds 0 1013 86 11265 3.1 210 07:18 25.03.2020
5989 Clouds 0 1013 86 11265 1.5 210 06:42 25.03.2020
5990 Snow 0 1014 86 11265 1.5 210 06:23 25.03.2020
5991 Clouds 0 1015 86 11265 3.6 210 05:47 25.03.2020
5992 Clouds 1 1016 80 11265 3.1 250 04:46 25.03.2020
5993 Clouds 1 1017 80 11265 3.6 240 03:58 25.03.2020
5994 Clouds 1 1017 80 11265 3.6 240 03:33 25.03.2020
5995 Clouds 1 1018 69 16093 5.1 240 01:41 25.03.2020
5996 Clouds 1 1019 80 16093 4.1 260 00:51 25.03.2020
5997 Clouds 1 1019 80 16093 4.1 260 00:30 25.03.2020
5998 Clouds 0 1019 80 16093 8.2 270 23:58 24.03.2020
5999 Clouds 0 1019 80 16093 8.2 270 23:39 24.03.2020
6000 Clouds 0 1019 80 16093 8.2 270 23:20 24.03.2020
6001 Clouds 0 1020 80 16093 8.7 260 22:54 24.03.2020
6002 Clouds 0 1020 80 16093 5.7 260 22:36 24.03.2020
6003 Clouds 0 1020 80 16093 5.7 260 22:18 24.03.2020
6004 Clouds 0 1020 74 16093 5.1 250 21:42 24.03.2020
6005 Clouds 0 1020 74 16093 5.1 250 21:19 24.03.2020
6006 Clouds 0 1020 74 16093 5.1 240 20:59 24.03.2020
6007 Clouds 0 1020 74 16093 5.1 240 20:41 24.03.2020
6008 Clouds 0 1019 74 16093 9.3 260 20:22 24.03.2020
6009 Clouds 1 1019 74 16093 9.3 260 19:48 24.03.2020
6010 Clouds 0 1019 74 16093 9.3 260 19:23 24.03.2020
6011 Rain 0 1020 80 16093 7.2 250 18:59 24.03.2020
6012 Rain 0 1020 80 16093 7.2 250 18:40 24.03.2020
6013 Rain 0 1020 80 16093 7.2 250 18:40 24.03.2020
6014 Rain 0 1020 80 16093 7.2 250 18:20 24.03.2020
6015 Clouds 0 1020 74 16093 8.2 250 17:58 24.03.2020
6016 Clouds 0 1020 74 16093 8.2 250 17:40 24.03.2020
6017 Clouds 0 1020 74 16093 8.2 250 17:22 24.03.2020
6018 Clouds 0 1020 74 16093 4.6 260 16:57 24.03.2020
6019 Clouds 0 1020 74 16093 4.6 260 16:38 24.03.2020
6020 Clouds 0 1020 74 16093 6.2 240 16:20 24.03.2020
6021 Rain 0 1021 80 16093 7.7 240 15:44 24.03.2020
6022 Rain 0 1021 80 16093 7.7 240 15:44 24.03.2020
6023 Rain 0 1021 80 16093 7.7 240 15:25 24.03.2020
6024 Clouds 0 1021 80 16093 7.7 240 14:57 24.03.2020
6025 Clouds 0 1021 80 16093 7.7 240 14:39 24.03.2020
6026 Rain -1 1021 80 16093 7.7 250 14:18 24.03.2020
6027 Rain 0 1021 80 16093 7.7 250 13:42 24.03.2020
6028 Rain 0 1021 80 16093 7.7 250 13:22 24.03.2020
6029 Clouds 0 1021 80 11265 7.2 240 12:47 24.03.2020
6030 Clouds 0 1021 80 11265 7.2 240 12:28 24.03.2020
6031 Rain 0 1022 80 11265 7.7 240 11:58 24.03.2020
6032 Rain 0 1022 80 11265 7.7 240 11:39 24.03.2020
6033 Rain 0 1022 80 11265 7.7 240 11:19 24.03.2020
6034 Clouds 0 1022 80 11265 6.2 250 10:42 24.03.2020
6035 Rain 0 1023 86 11265 6.2 250 10:19 24.03.2020
6036 Clouds 0 1022 80 16093 6.7 230 09:55 24.03.2020
6037 Clouds 0 1022 80 16093 6.7 230 09:37 24.03.2020
6038 Rain 0 1023 86 11265 8.7 240 09:19 24.03.2020
6039 Clouds 0 1023 86 11265 9.3 240 08:38 24.03.2020
6040 Rain 0 1023 86 11265 5.1 240 08:20 24.03.2020
6041 Clouds -1 1023 96 11265 5.1 220 07:47 24.03.2020
6042 Clouds -1 1023 96 11265 5.1 220 07:24 24.03.2020
6043 Snow -1 1023 96 9656 3.6 240 06:52 24.03.2020
6044 Snow -1 1024 96 3219 4.6 230 06:25 24.03.2020
6045 Snow -1 1024 96 1207 3.6 230 04:57 24.03.2020
6046 Rain 0 1023 74 4023 5.7 240 03:48 24.03.2020
6047 Rain 0 1024 86 11265 5.1 240 03:18 24.03.2020
6048 Rain 0 1025 86 9656 5.7 260 01:45 24.03.2020
6049 Snow 0 1025 96 4828 2.1 210 00:46 24.03.2020
6050 Clouds -1 1025 96 16093 4.6 230 00:24 24.03.2020
6051 Snow -1 1025 96 11265 4.1 200 23:44 23.03.2020
6052 Snow -2 1029 92 2414 2.1 210 23:26 23.03.2020
6053 Snow -2 1026 92 2414 3.6 240 22:55 23.03.2020
6054 Snow -2 1026 92 2414 3.6 240 22:55 23.03.2020
6055 Snow -3 1026 92 2213 4.3 242 22:37 23.03.2020
6056 Snow -3 1026 92 2213 4.3 242 22:19 23.03.2020
6057 Snow -3 1026 86 3219 4.3 242 21:43 23.03.2020
6058 Snow -4 1026 92 1207 2.1 50 21:20 23.03.2020
6059 Snow -5 1027 100 805 2.1 60 20:58 23.03.2020
6060 Snow -5 1027 100 805 2.1 60 20:39 23.03.2020
6061 Snow -5 1027 92 805 1.5 60 20:21 23.03.2020
6062 Snow -6 1027 92 2414 2.1 60 19:45 23.03.2020
6063 Snow -6 1027 100 1207 2.1 70 19:27 23.03.2020
6064 Snow -6 1027 85 805 2.1 30 18:59 23.03.2020
6065 Snow -6 1027 85 805 1.5 20 18:41 23.03.2020
6066 Snow -7 1027 85 805 1.5 20 18:21 23.03.2020
6067 Snow -7 1028 85 805 1.5 30 17:44 23.03.2020
6068 Snow -7 1029 92 805 2.1 60 17:22 23.03.2020
6069 Snow -8 1029 92 805 2.1 60 16:59 23.03.2020
6070 Snow -8 1029 92 805 2.1 60 16:41 23.03.2020
6071 Snow -8 1029 85 1609 2.1 50 16:23 23.03.2020
6072 Snow -8 1030 85 1207 1.64 180 15:42 23.03.2020
6073 Snow -8 1030 85 805 1.64 180 15:20 23.03.2020
6074 Snow -8 1030 85 1207 1.64 180 14:55 23.03.2020
6075 Snow -8 1030 85 1207 1.64 180 14:36 23.03.2020
6076 Snow -8 1031 85 1609 1.5 50 14:18 23.03.2020
6077 Snow -8 1031 85 3219 1.5 50 13:40 23.03.2020
6078 Snow -8 1031 85 3219 1.5 50 13:40 23.03.2020
6079 Snow -8 1031 85 1609 1.72 196 13:21 23.03.2020
6080 Snow -8 1031 85 1609 3.1 160 12:46 23.03.2020
6081 Snow -8 1032 85 2414 2.6 120 12:26 23.03.2020
6082 Snow -8 1032 92 1609 1.72 196 11:59 23.03.2020
6083 Snow -8 1032 92 1609 1.72 196 11:40 23.03.2020
6084 Snow -9 1032 92 1609 1.72 196 11:21 23.03.2020
6085 Snow -9 1033 85 2414 2.1 140 10:58 23.03.2020
6086 Snow -9 1033 85 2414 2.1 140 10:39 23.03.2020
6087 Snow -8 1033 85 3219 1.5 210 10:21 23.03.2020
6088 Snow -9 1033 85 4828 2.1 210 09:48 23.03.2020
6089 Snow -8 1033 85 4828 2.1 210 09:21 23.03.2020
6090 Snow -9 1033 85 4828 2.6 200 08:58 23.03.2020
6091 Snow -9 1033 85 4828 2.6 200 08:37 23.03.2020
6092 Snow -9 1033 85 4828 2.6 200 08:19 23.03.2020
6093 Snow -9 1033 85 4828 2.6 200 07:48 23.03.2020
6094 Snow -9 1033 79 4828 1.5 220 07:29 23.03.2020
6095 Snow -9 1034 85 3219 1.54 222 06:52 23.03.2020
6096 Snow -9 1033 73 8047 1.54 222 06:20 23.03.2020
6097 Clouds -8 1033 67 16093 3.1 240 05:34 23.03.2020
6098 Snow -8 1033 73 8047 2.6 0 03:45 23.03.2020
6099 Snow -8 1034 79 2615 4.6 230 02:37 23.03.2020
6100 Snow -7 1033 73 1609 5.7 260 01:34 23.03.2020
6101 Snow -7 1033 67 9656 7.7 280 00:40 23.03.2020
6102 Clouds -7 1033 67 16093 8.7 280 23:53 22.03.2020
6103 Clouds -7 1033 67 16093 8.7 280 23:27 22.03.2020
6104 Clouds -7 1034 67 16093 10.8 280 22:59 22.03.2020
6105 Clouds -7 1034 67 16093 10.8 280 22:39 22.03.2020
6106 Clouds -8 1034 67 16093 10.8 280 22:18 22.03.2020
6107 Clouds -8 1033 61 16093 9.3 250 21:40 22.03.2020
6108 Clouds -8 1033 61 16093 9.3 250 21:20 22.03.2020
6109 Clouds -8 1033 61 16093 8.2 270 20:58 22.03.2020
6110 Clouds -8 1033 61 16093 8.2 270 20:39 22.03.2020
6111 Clouds -8 1033 61 16093 8.2 270 20:21 22.03.2020
6112 Clouds -9 1032 61 16093 9.8 260 19:55 22.03.2020
6113 Clouds -9 1032 61 16093 9.8 260 19:37 22.03.2020
6114 Clouds -9 1032 61 16093 9.8 260 19:18 22.03.2020
6115 Clouds -8 1031 67 16093 7.2 260 18:56 22.03.2020
6116 Clouds -8 1031 67 16093 7.2 260 18:37 22.03.2020
6117 Clouds -8 1031 67 16093 7.2 260 18:18 22.03.2020
6118 Clouds -8 1030 67 16093 9.8 260 17:56 22.03.2020
6119 Clouds -8 1030 72 16093 11.3 270 17:36 22.03.2020
6120 Clouds -8 1030 72 16093 11.3 270 17:36 22.03.2020
6121 Clouds -8 1030 72 16093 11.3 270 17:36 22.03.2020
6122 Clouds -8 1030 72 16093 11.3 270 17:18 22.03.2020
6123 Clouds -8 1029 67 16093 9.3 260 16:54 22.03.2020
6124 Clouds -7 1029 67 16093 9.3 260 16:36 22.03.2020
6125 Clouds -8 1029 67 16093 9.3 260 16:18 22.03.2020
6126 Clouds -7 1027 73 16093 9.3 250 15:39 22.03.2020
6127 Clouds -5 1027 79 16093 8.7 250 14:48 22.03.2020
6128 Clouds -5 1026 68 16093 10.3 260 14:20 22.03.2020
6129 Clouds -4 1025 73 16093 10.3 260 13:58 22.03.2020
6130 Clouds -4 1025 73 16093 10.3 260 13:40 22.03.2020
6131 Clouds -4 1025 73 16093 5.1 230 13:19 22.03.2020
6132 Clear -4 1024 68 16093 6.7 250 12:47 22.03.2020
6133 Clear -4 1024 68 16093 6.7 250 12:23 22.03.2020
6134 Clouds -4 1023 73 16093 5.7 250 11:59 22.03.2020
6135 Clouds -4 1023 73 16093 5.7 250 11:41 22.03.2020
6136 Clouds -4 1023 73 16093 5.7 250 11:22 22.03.2020
6137 Clouds -3 1022 80 16093 7.7 270 10:54 22.03.2020
6138 Clouds -3 1022 80 16093 7.7 270 10:36 22.03.2020
6139 Clouds -3 1022 80 16093 7.7 270 10:18 22.03.2020
6140 Clouds -2 1021 80 16093 7.2 270 09:41 22.03.2020
6141 Clouds -2 1021 86 16093 7.7 260 09:19 22.03.2020
6142 Clouds -2 1020 86 16093 6.7 250 08:43 22.03.2020
6143 Clouds -1 1019 92 16093 7.7 240 08:24 22.03.2020
6144 Clouds -2 1019 92 16093 5.1 250 07:51 22.03.2020
6145 Clouds -2 1019 92 16093 3.6 220 07:23 22.03.2020
6146 Clouds -1 1018 92 16093 4.6 240 06:35 22.03.2020
6147 Clouds -1 1017 93 16093 3.6 230 05:31 22.03.2020
6148 Snow 0 1016 94 14484 4.1 230 03:25 22.03.2020
6149 Snow 0 1016 97 16093 5.1 220 01:26 22.03.2020
6150 Snow 0 1016 97 16093 3.6 230 00:47 22.03.2020
6151 Snow 1 1016 86 3219 3.1 0 00:25 22.03.2020
6152 Mist 0 1016 97 8047 2.6 209 23:43 21.03.2020
6153 Mist 0 1016 92 9656 1.6 180 23:19 21.03.2020
6154 Mist 0 1016 92 9656 1.6 180 23:19 21.03.2020
6155 Clouds -1 1017 92 16093 1.6 180 22:55 21.03.2020
6156 Snow -1 1016 86 4828 2.6 190 22:36 21.03.2020
6157 Snow -1 1016 86 4828 2.6 190 22:18 21.03.2020
6158 Snow -2 1016 92 2414 2.1 190 21:41 21.03.2020
6159 Snow -2 1017 92 2414 1.6 180 21:23 21.03.2020
6160 Snow -2 1017 100 3621 1.6 180 20:59 21.03.2020
6161 Snow -2 1017 100 3621 1.6 180 20:41 21.03.2020
6162 Snow -2 1017 92 2213 1.68 211 20:19 21.03.2020
6163 Snow -2 1017 92 1408 1.68 211 19:44 21.03.2020
6164 Snow -2 1017 100 2414 1.68 211 19:25 21.03.2020
6165 Snow -3 1018 92 1408 1.68 211 18:57 21.03.2020
6166 Snow -3 1018 92 1609 1.5 290 18:38 21.03.2020
6167 Snow -3 1018 92 1609 1.5 290 18:20 21.03.2020
6168 Snow -3 1018 92 1609 1.5 290 18:20 21.03.2020
6169 Snow -2 1018 86 805 1.5 250 17:55 21.03.2020
6170 Clouds -2 1018 79 16093 1.68 211 17:37 21.03.2020
6171 Clouds -3 1018 79 16093 0.95 58 17:18 21.03.2020
6172 Clouds -4 1018 79 16093 2.1 60 16:41 21.03.2020
6173 Clouds -3 1018 79 16093 2.1 60 16:19 21.03.2020
6174 Clouds -3 1020 79 16093 3.1 60 15:55 21.03.2020
6175 Clouds -3 1020 79 16093 3.1 60 15:37 21.03.2020
6176 Clouds -3 1020 79 16093 3.1 60 15:18 21.03.2020
6177 Clouds -3 1021 86 16093 3.6 70 14:54 21.03.2020
6178 Clouds -3 1021 86 16093 3.6 70 14:36 21.03.2020
6179 Clouds -3 1021 86 16093 3.6 70 14:18 21.03.2020
6180 Clouds -3 1023 74 16093 2.6 110 13:56 21.03.2020
6181 Clouds -3 1023 74 16093 2.6 110 13:38 21.03.2020
6182 Clouds -3 1023 68 16093 1.5 80 13:19 21.03.2020
6183 Clouds -3 1025 79 16093 2.1 60 12:39 21.03.2020
6184 Clouds -3 1025 79 16093 2.1 60 12:19 21.03.2020
6185 Clear -3 1026 85 16093 1.5 40 11:58 21.03.2020
6186 Clear -3 1026 85 16093 1.5 40 11:38 21.03.2020
6187 Clear -3 1026 85 16093 1.5 40 11:19 21.03.2020
6188 Clouds -2 1026 68 16093 1.5 150 10:57 21.03.2020
6189 Clouds -2 1026 68 16093 1.5 150 10:39 21.03.2020
6190 Clouds -2 1026 68 16093 1.5 150 10:20 21.03.2020
6191 Clouds -2 1026 95 16093 2.6 190 09:57 21.03.2020
6192 Clouds -1 1026 95 16093 2.6 190 09:37 21.03.2020
6193 Clouds -1 1026 95 16093 2.6 190 09:37 21.03.2020
6194 Clouds -1 1026 95 16093 2.6 190 09:19 21.03.2020
6195 Clouds -1 1026 95 16093 2.6 190 09:19 21.03.2020
6196 Clouds 0 1027 69 16093 4.1 210 08:44 21.03.2020
6197 Clouds 0 1027 69 16093 4.1 210 08:25 21.03.2020
6198 Clouds 0 1027 69 16093 4.6 220 07:52 21.03.2020
6199 Clouds 0 1027 69 16093 4.6 220 07:32 21.03.2020
6200 Clouds 1 1027 64 16093 6.2 230 06:49 21.03.2020
6201 Clouds 1 1027 64 16093 6.2 230 06:29 21.03.2020
6202 Clouds 1 1028 64 16093 6.2 230 05:50 21.03.2020
6203 Clouds 1 1028 64 16093 6.2 230 05:23 21.03.2020
6204 Clouds 2 1027 64 14484 7.2 230 03:32 21.03.2020
6205 Clouds 2 1027 55 16093 7.7 230 02:35 21.03.2020
6206 Clouds 2 1027 55 16093 9.8 250 01:40 21.03.2020
6207 Clouds 2 1027 55 16093 9.8 250 01:20 21.03.2020
6208 Clouds 2 1027 64 14484 7.7 240 00:38 21.03.2020
6209 Clouds 2 1027 64 16093 9.3 240 23:59 20.03.2020
6210 Clouds 2 1027 64 16093 9.3 240 23:40 20.03.2020
6211 Clouds 2 1027 64 16093 9.3 240 23:18 20.03.2020
6212 Clouds 2 1027 80 16093 7.2 250 22:43 20.03.2020
6213 Clouds 1 1027 80 16093 7.2 250 22:24 20.03.2020
6214 Snow 1 1027 80 16093 8.2 240 21:58 20.03.2020
6215 Snow 1 1027 80 16093 8.2 240 21:39 20.03.2020
6216 Clouds 1 1026 74 16093 6.7 230 21:19 20.03.2020
6217 Clouds 1 1025 74 16093 8.7 240 20:57 20.03.2020
6218 Clouds 1 1025 74 16093 8.7 240 20:39 20.03.2020
6219 Clouds 1 1025 74 16093 8.7 240 20:18 20.03.2020
6220 Clouds 0 1024 74 16093 8.7 230 19:46 20.03.2020
6221 Clouds 0 1024 74 16093 8.7 230 19:19 20.03.2020
6222 Clouds 0 1023 80 16093 7.7 240 18:56 20.03.2020
6223 Clouds 0 1023 80 16093 7.7 240 18:37 20.03.2020
6224 Clouds 0 1023 80 16093 7.7 240 18:19 20.03.2020
6225 Snow 0 1023 74 1609 4.6 240 17:41 20.03.2020
6226 Snow 0 1023 74 1609 4.6 240 17:22 20.03.2020
6227 Clouds 0 1023 86 16093 8.2 230 16:59 20.03.2020
6228 Clouds 0 1023 86 16093 8.2 230 16:41 20.03.2020
6229 Clouds 0 1023 86 16093 8.2 230 16:41 20.03.2020
6230 Snow 0 1022 80 4828 5.1 240 16:20 20.03.2020
6231 Snow 0 1023 80 8047 4.6 200 15:44 20.03.2020
6232 Clouds -1 1022 95 16093 8.2 230 15:22 20.03.2020
6233 Clouds 0 1021 95 14484 9.3 230 14:58 20.03.2020
6234 Clouds 0 1021 95 14484 9.3 230 14:58 20.03.2020
6235 Clouds 0 1021 95 14484 9.3 230 14:40 20.03.2020
6236 Snow 0 1021 80 4023 6.2 240 14:20 20.03.2020
6237 Clouds 0 1021 86 16093 9.3 240 13:48 20.03.2020
6238 Clouds 0 1021 86 16093 9.3 240 13:21 20.03.2020
6239 Clouds 0 1020 86 16093 7.7 230 12:57 20.03.2020
6240 Clouds 0 1020 86 16093 7.7 230 12:37 20.03.2020
6241 Clouds 0 1020 86 16093 7.7 230 12:18 20.03.2020
6242 Clouds 0 1020 86 16093 7.2 230 11:39 20.03.2020
6243 Clouds 0 1020 86 16093 7.2 230 11:20 20.03.2020
6244 Clouds 0 1019 95 16093 7.2 240 10:54 20.03.2020
6245 Clouds 0 1019 95 16093 7.2 240 10:36 20.03.2020
6246 Clouds 0 1019 95 16093 6.7 240 10:18 20.03.2020
6247 Snow 0 1019 95 11265 6.7 230 09:44 20.03.2020
6248 Clouds 0 1018 95 16093 5.7 240 09:20 20.03.2020
6249 Snow -1 1018 95 9656 5.7 230 08:43 20.03.2020
6250 Snow -1 1017 100 4828 3.1 220 08:23 20.03.2020
6251 Snow -1 1017 92 2816 2.1 190 07:57 20.03.2020
6252 Snow -1 1017 92 2816 2.1 190 07:38 20.03.2020
6253 Snow -1 1017 100 3219 1.5 220 07:19 20.03.2020
6254 Snow -1 1017 100 3219 1.5 220 07:19 20.03.2020
6255 Snow -1 1016 86 2816 2.17 195 06:42 20.03.2020
6256 Clouds -1 1016 98 16093 2.17 195 05:57 20.03.2020
6257 Clouds 0 1016 69 16093 1.57 161 04:27 20.03.2020
6258 Rain 1 1016 69 16093 1.57 161 02:43 20.03.2020
6259 Clouds 1 1016 64 16093 1.22 190 01:50 20.03.2020
6260 Clouds 1 1017 80 16093 1.5 250 00:38 20.03.2020
6261 Clouds 1 1017 69 16093 1.42 177 23:58 19.03.2020
6262 Clouds 1 1017 92 16093 2.1 20 23:40 19.03.2020
6263 Clouds 0 1018 74 16093 0.41 151 23:19 19.03.2020
6264 Clouds 0 1017 88 16093 2.1 20 23:19 19.03.2020
6265 Clouds 0 1018 74 16093 0.41 151 22:40 19.03.2020
6266 Clouds 0 1018 74 16093 0.41 151 22:22 19.03.2020
6267 Clouds -1 1018 79 16093 2.1 40 21:58 19.03.2020
6268 Clouds -1 1018 79 16093 2.1 40 21:38 19.03.2020
6269 Clouds -1 1018 79 16093 2.1 40 21:18 19.03.2020
6270 Clouds -2 1019 86 14484 1.5 70 20:43 19.03.2020
6271 Clouds -2 1019 86 14484 1.5 70 20:25 19.03.2020
6272 Clouds -4 1019 92 16093 0.91 128 19:59 19.03.2020
6273 Clouds -4 1019 92 16093 0.91 128 19:38 19.03.2020
6274 Clouds -4 1019 92 16093 0.91 128 19:20 19.03.2020
6275 Clear -4 1019 92 16093 2.1 70 18:57 19.03.2020
6276 Clear -4 1019 92 16093 2.1 70 18:57 19.03.2020
6277 Clear -5 1019 92 16093 2.1 70 18:38 19.03.2020
6278 Clouds -4 1019 85 16093 2.1 40 18:20 19.03.2020
6279 Clear -5 1020 92 16093 0.91 128 17:43 19.03.2020
6280 Clear -5 1020 92 16093 1.5 60 17:20 19.03.2020
6281 Clear -4 1020 92 16093 1.5 60 16:57 19.03.2020
6282 Clear -4 1020 92 16093 1.5 60 16:39 19.03.2020
6283 Clear -4 1020 92 16093 1.5 60 16:21 19.03.2020
6284 Clear -4 1020 92 16093 1.5 270 15:41 19.03.2020
6285 Clear -4 1020 92 16093 1.5 270 15:23 19.03.2020
6286 Clear -4 1019 85 16093 1.5 50 14:43 19.03.2020
6287 Clear -4 1019 85 16093 1.5 50 14:22 19.03.2020
6288 Clear -4 1020 92 16093 3.6 70 13:56 19.03.2020
6289 Clear -5 1020 92 16093 3.6 70 13:37 19.03.2020
6290 Clear -5 1020 92 16093 3.6 70 13:18 19.03.2020
6291 Clear -3 1022 86 16093 3.1 60 12:40 19.03.2020
6292 Clear -3 1022 86 16093 3.1 60 12:22 19.03.2020
6293 Clouds -3 1021 79 16093 4.6 60 11:57 19.03.2020
6294 Clear -3 1023 92 16093 4.1 60 11:38 19.03.2020
6295 Clear -3 1023 92 16093 4.1 60 11:19 19.03.2020
6296 Clear -4 1024 92 16093 4.1 70 10:41 19.03.2020
6297 Clear -4 1024 92 16093 4.1 70 10:20 19.03.2020
6298 Clear -4 1025 100 16093 2.6 70 09:57 19.03.2020
6299 Clear -4 1025 100 16093 2.6 70 09:37 19.03.2020
6300 Clear -4 1025 100 16093 2.6 70 09:18 19.03.2020
6301 Clear -4 1025 92 16093 2.6 70 08:42 19.03.2020
6302 Clear -4 1025 92 16093 2.6 70 08:42 19.03.2020
6303 Clear -4 1025 92 16093 2.6 70 08:21 19.03.2020
6304 Clear -3 1026 100 16093 2.1 80 07:46 19.03.2020
6305 Clear -3 1026 100 16093 2.1 80 07:28 19.03.2020
6306 Clear -2 1026 86 16093 0.96 126 06:48 19.03.2020
6307 Snow -2 1026 86 16093 0.96 126 05:49 19.03.2020
6308 Clouds 0 1026 69 16093 2.1 280 04:58 19.03.2020
6309 Snow 0 1026 69 16093 2.1 280 04:40 19.03.2020
6310 Clouds 1 1026 86 12874 3.6 240 02:50 19.03.2020
6311 Rain 1 1025 80 16093 5.7 240 01:25 19.03.2020
6312 Clouds 1 1025 93 16093 4.6 230 00:32 19.03.2020
6313 Clouds 1 1024 74 16093 6.2 250 23:57 18.03.2020
6314 Clouds 1 1024 93 16093 5.7 240 23:30 18.03.2020
6315 Snow 1 1024 74 14484 5.7 250 22:58 18.03.2020
6316 Snow 1 1024 94 14484 5.1 230 22:39 18.03.2020
6317 Snow 1 1024 94 14484 5.1 230 22:21 18.03.2020
6318 Clouds 1 1023 94 16093 3.6 220 21:42 18.03.2020
6319 Clouds 1 1023 94 16093 3.6 220 21:22 18.03.2020
6320 Clouds 1 1023 94 16093 4.6 230 20:59 18.03.2020
6321 Clouds 1 1023 94 16093 4.6 230 20:59 18.03.2020
6322 Clouds 0 1023 94 16093 4.6 230 20:40 18.03.2020
6323 Clouds 0 1023 94 16093 4.6 230 20:40 18.03.2020
6324 Snow 0 1022 86 9656 3.1 230 20:20 18.03.2020
6325 Snow 0 1021 86 3219 3.1 220 19:58 18.03.2020
6326 Snow 0 1021 86 3219 3.1 220 19:39 18.03.2020
6327 Snow -1 1021 86 2816 2.6 210 19:20 18.03.2020
6328 Snow -1 1021 96 4828 2.6 240 18:42 18.03.2020
6329 Snow -2 1021 92 2816 3.99 239 18:21 18.03.2020
6330 Snow -2 1020 92 4023 3.99 239 17:59 18.03.2020
6331 Snow -2 1020 92 4023 3.99 239 17:59 18.03.2020
6332 Snow -2 1020 100 3219 3.99 239 17:41 18.03.2020
6333 Snow -2 1020 100 3219 3.99 239 17:22 18.03.2020
6334 Snow -2 1020 92 3219 1.8 201 16:58 18.03.2020
6335 Snow -2 1020 92 3219 1.8 201 16:40 18.03.2020
6336 Snow -2 1019 92 3017 1.8 201 16:20 18.03.2020
6337 Snow -3 1019 100 14484 1.8 201 15:45 18.03.2020
6338 Snow -3 1018 100 11265 1.8 201 15:23 18.03.2020
6339 Clouds -2 1018 92 16093 2.1 240 14:58 18.03.2020
6340 Clouds -2 1018 92 16093 2.1 240 14:40 18.03.2020
6341 Clouds -2 1018 92 16093 2.6 230 14:20 18.03.2020
6342 Clouds -3 1017 92 14484 2.6 190 13:40 18.03.2020
6343 Clouds -2 1017 92 14484 2.6 190 13:19 18.03.2020
6344 Clouds -2 1016 100 16093 3.1 210 12:42 18.03.2020
6345 Clouds -2 1016 100 16093 3.1 210 12:21 18.03.2020
6346 Clouds -2 1016 100 16093 1.77 191 11:57 18.03.2020
6347 Snow -2 1015 100 6437 1.77 191 11:37 18.03.2020
6348 Snow -2 1015 100 6437 1.08 195 11:18 18.03.2020
6349 Snow -2 1015 86 4828 3.1 250 10:54 18.03.2020
6350 Snow -2 1014 98 3219 1.5 230 10:36 18.03.2020
6351 Snow -1 1014 98 3219 1.5 230 10:18 18.03.2020
6352 Clouds -1 1013 74 16093 1.08 195 09:41 18.03.2020
6353 Clouds -1 1013 74 16093 1.08 195 09:22 18.03.2020
6354 Clouds -1 1013 74 16093 1.08 195 08:40 18.03.2020
6355 Clouds -1 1013 74 16093 1.08 195 08:22 18.03.2020
6356 Clouds -1 1012 68 16093 1.04 222 07:59 18.03.2020
6357 Clouds -1 1012 68 16093 1.04 222 07:37 18.03.2020
6358 Clouds -1 1012 68 16093 1.04 222 07:19 18.03.2020
6359 Clouds -1 1012 94 16093 1.04 222 06:39 18.03.2020
6360 Clouds -1 1012 74 16093 1.04 222 05:43 18.03.2020
6361 Snow 0 1012 74 16093 0.74 260 04:58 18.03.2020
6362 Clouds 1 1012 51 16093 0.74 260 03:21 18.03.2020
6363 Rain 1 1013 55 16093 0.74 260 02:37 18.03.2020
6364 Rain 1 1013 55 16093 0.74 260 02:37 18.03.2020
6365 Rain 1 1013 55 16093 0.74 260 02:37 18.03.2020
6366 Rain 2 1013 50 16093 1.5 340 01:45 18.03.2020
6367 Rain 2 1013 50 16093 1.5 340 01:19 18.03.2020
6368 Clouds 2 1014 50 16093 0.41 228 00:22 18.03.2020
6369 Clouds 1 1015 91 16093 1.5 40 23:43 17.03.2020
6370 Clouds 0 1015 58 16093 2.6 360 23:22 17.03.2020
6371 Clear -1 1016 83 16093 2.1 40 22:47 17.03.2020
6372 Clear -1 1016 83 16093 2.1 40 22:28 17.03.2020
6373 Clear -2 1017 73 16093 3.1 60 21:57 17.03.2020
6374 Clear -2 1017 73 16093 3.1 60 21:36 17.03.2020
6375 Clear -2 1017 73 16093 3.1 60 21:18 17.03.2020
6376 Clear -3 1019 79 16093 3.6 80 20:38 17.03.2020
6377 Clear -6 1019 79 16093 3.6 80 20:19 17.03.2020
6378 Clouds -6 1019 85 16093 3.1 50 19:42 17.03.2020
6379 Clouds -7 1019 85 16093 3.1 50 19:21 17.03.2020
6380 Clear -9 1021 92 16093 4.6 60 18:59 17.03.2020
6381 Clear -9 1021 92 16093 4.6 60 18:40 17.03.2020
6382 Clear -9 1021 92 16093 4.6 60 18:22 17.03.2020
6383 Clear -10 1022 92 16093 4.1 60 17:59 17.03.2020
6384 Clear -10 1022 92 16093 4.1 60 17:39 17.03.2020
6385 Clear -11 1022 92 16093 4.1 60 17:19 17.03.2020
6386 Clear -11 1022 92 16093 2.6 70 16:43 17.03.2020
6387 Clear -11 1022 92 16093 2.6 70 16:19 17.03.2020
6388 Clear -11 1023 92 16093 3.1 60 15:48 17.03.2020
6389 Clear -11 1023 92 16093 3.1 60 15:23 17.03.2020
6390 Clear -11 1025 100 16093 3.1 80 14:49 17.03.2020
6391 Clear -10 1025 100 16093 3.1 80 14:30 17.03.2020
6392 Clear -10 1025 92 16093 3.1 50 13:59 17.03.2020
6393 Clear -11 1025 92 16093 3.1 50 13:41 17.03.2020
6394 Clear -11 1025 92 16093 3.1 50 13:22 17.03.2020
6395 Mist -11 1025 84 9656 2.2 42 12:47 17.03.2020
6396 Clear -10 1026 92 16093 3.1 60 12:25 17.03.2020
6397 Clear -9 1027 92 16093 2.6 70 11:57 17.03.2020
6398 Clear -9 1027 92 16093 2.6 70 11:39 17.03.2020
6399 Clear -9 1027 92 16093 2.6 70 11:20 17.03.2020
6400 Clear -9 1028 100 16093 3.1 50 10:54 17.03.2020
6401 Clear -9 1028 100 16093 3.1 50 10:36 17.03.2020
6402 Clear -9 1028 100 16093 3.1 50 10:18 17.03.2020
6403 Clear -7 1028 100 16093 2.6 60 09:45 17.03.2020
6404 Clear -7 1028 100 16093 2.6 60 09:45 17.03.2020
6405 Clear -6 1028 100 16093 2.6 60 09:20 17.03.2020
6406 Clear -6 1029 92 16093 2.6 70 08:57 17.03.2020
6407 Clear -6 1029 92 16093 2.6 70 08:39 17.03.2020
6408 Clear -5 1029 92 16093 2.6 70 08:18 17.03.2020
6409 Clouds -5 1029 85 16093 1.5 30 07:47 17.03.2020
6410 Clouds -4 1029 85 16093 2.1 70 07:20 17.03.2020
6411 Clouds -3 1029 85 16093 2.1 70 06:45 17.03.2020
6412 Clouds -4 1029 85 16093 2.1 70 06:24 17.03.2020
6413 Clouds -3 1030 92 16093 1.13 170 05:18 17.03.2020
6414 Clouds 0 1031 95 16093 1.5 170 03:26 17.03.2020
6415 Clouds -1 1031 80 14484 1.46 192 01:50 17.03.2020
6416 Clouds -1 1031 80 14484 1.46 192 01:29 17.03.2020
6417 Clouds 0 1032 80 14484 3.1 220 00:51 17.03.2020
6418 Clouds -1 1031 80 16093 4.6 200 23:52 16.03.2020
6419 Clouds -1 1032 80 14484 1.5 200 23:34 16.03.2020
6420 Clouds -2 1031 80 16093 2.1 0 22:55 16.03.2020
6421 Clouds -1 1032 86 14484 2.1 220 22:36 16.03.2020
6422 Clouds -2 1032 86 14484 2.1 220 22:18 16.03.2020
6423 Clouds -3 1032 86 14484 1.5 230 21:41 16.03.2020
6424 Clouds -3 1032 86 14484 1.5 230 21:23 16.03.2020
6425 Clouds -3 1032 86 16093 3.1 240 20:58 16.03.2020
6426 Clouds -3 1032 86 16093 3.1 240 20:38 16.03.2020
6427 Clouds -3 1032 86 16093 3.1 240 20:38 16.03.2020
6428 Clouds -3 1032 86 16093 3.1 240 20:20 16.03.2020
6429 Clouds -3 1031 74 14484 1.2 157 19:44 16.03.2020
6430 Clouds -4 1032 85 16093 1.2 157 19:23 16.03.2020
6431 Clouds -5 1031 92 16093 1.2 157 18:57 16.03.2020
6432 Clouds -5 1031 92 16093 1.2 157 18:38 16.03.2020
6433 Clouds -5 1031 92 16093 1.2 157 18:18 16.03.2020
6434 Snow -5 1031 79 16093 1.5 140 17:45 16.03.2020
6435 Clouds -5 1031 92 16093 1.2 157 17:24 16.03.2020
6436 Snow -4 1030 73 14484 6.2 250 16:49 16.03.2020
6437 Clouds -4 1031 92 16093 1.7 178 16:31 16.03.2020
6438 Snow -5 1031 92 16093 1.7 178 15:58 16.03.2020
6439 Snow -4 1031 92 16093 1.7 178 15:40 16.03.2020
6440 Clouds -5 1031 92 16093 1.7 178 15:20 16.03.2020
6441 Clouds -5 1031 92 16093 1.7 178 14:44 16.03.2020
6442 Clouds -5 1030 92 16093 1.62 187 14:20 16.03.2020
6443 Clouds -5 1030 92 16093 1.62 187 14:20 16.03.2020
6444 Snow -6 1030 92 8047 1.62 187 13:44 16.03.2020
6445 Snow -6 1030 85 9656 1.62 187 13:25 16.03.2020
6446 Snow -6 1030 85 11265 1.39 183 12:56 16.03.2020
6447 Snow -6 1030 79 14484 1.39 183 12:37 16.03.2020
6448 Snow -6 1030 79 14484 1.39 183 12:19 16.03.2020
6449 Clouds -6 1029 79 16093 1.39 183 11:42 16.03.2020
6450 Clouds -6 1029 79 16093 1.5 200 11:20 16.03.2020
6451 Clouds -6 1029 79 16093 2 181 10:43 16.03.2020
6452 Clouds -6 1029 85 16093 2 181 10:24 16.03.2020
6453 Clouds -5 1029 73 16093 2 181 09:47 16.03.2020
6454 Clouds -5 1029 73 16093 2 181 09:28 16.03.2020
6455 Clouds -5 1029 85 16093 2.1 210 08:59 16.03.2020
6456 Clouds -5 1029 85 16093 2.1 210 08:27 16.03.2020
6457 Clear -5 1029 85 16093 2.6 230 07:56 16.03.2020
6458 Clear -5 1029 85 16093 2.6 230 07:38 16.03.2020
6459 Clear -5 1029 85 16093 2.6 230 07:18 16.03.2020
6460 Clouds -4 1029 68 16093 1.51 181 06:27 16.03.2020
6461 Clouds -3 1029 79 16093 2.6 230 05:54 16.03.2020
6462 Snow -1 1029 86 16093 4.6 220 03:36 16.03.2020
6463 Rain 0 1030 80 16093 3.1 190 01:29 16.03.2020
6464 Clouds 0 1030 80 16093 1.23 219 00:43 16.03.2020
6465 Rain 0 1031 86 16093 1.23 219 23:49 15.03.2020
6466 Snow 0 1031 86 16093 0.45 198 23:23 15.03.2020
6467 Snow 0 1032 80 16093 1.5 50 22:58 15.03.2020
6468 Snow -1 1032 80 16093 1.5 50 22:38 15.03.2020
6469 Snow -1 1032 80 16093 1.5 50 22:20 15.03.2020
6470 Clouds -2 1033 86 16093 0.45 198 21:39 15.03.2020
6471 Clouds -2 1033 86 16093 0.45 198 21:20 15.03.2020
6472 Clouds -3 1032 85 16093 0.45 198 20:44 15.03.2020
6473 Clouds -3 1033 92 14484 0.86 46 20:22 15.03.2020
6474 Clouds -4 1033 92 12874 2.1 40 19:59 15.03.2020
6475 Clouds -4 1033 92 12874 2.1 40 19:59 15.03.2020
6476 Clouds -4 1033 92 12874 2.1 40 19:41 15.03.2020
6477 Snow -4 1033 92 8047 0.86 46 19:23 15.03.2020
6478 Snow -4 1033 85 8047 1.5 70 18:59 15.03.2020
6479 Snow -4 1033 85 8047 1.5 70 18:39 15.03.2020
6480 Snow -5 1034 100 8047 2.6 60 18:21 15.03.2020
6481 Snow -5 1034 92 8047 1.5 70 17:54 15.03.2020
6482 Snow -5 1035 92 4023 0.86 46 17:36 15.03.2020
6483 Snow -5 1035 92 4023 0.55 34 17:18 15.03.2020
6484 Snow -5 1035 92 6437 0.55 34 16:42 15.03.2020
6485 Snow -5 1035 92 6437 0.55 34 16:24 15.03.2020
6486 Snow -5 1035 92 6437 0.55 34 15:57 15.03.2020
6487 Snow -5 1035 92 6437 0.55 34 15:38 15.03.2020
6488 Snow -5 1035 92 6437 0.55 34 15:19 15.03.2020
6489 Snow -5 1035 85 3219 0.55 34 14:46 15.03.2020
6490 Snow -5 1035 85 3219 0.55 34 14:24 15.03.2020
6491 Snow -5 1036 92 9656 1.22 40 13:57 15.03.2020
6492 Snow -5 1036 92 9656 1.22 40 13:38 15.03.2020
6493 Snow -5 1036 92 9656 1.22 40 13:38 15.03.2020
6494 Snow -5 1036 92 9656 1.17 39 13:19 15.03.2020
6495 Clouds -5 1036 92 14484 1.17 39 12:43 15.03.2020
6496 Snow -5 1036 85 6437 2.1 40 12:25 15.03.2020
6497 Snow -5 1037 85 8047 2.6 60 11:54 15.03.2020
6498 Snow -5 1037 85 6437 2.6 50 11:36 15.03.2020
6499 Snow -5 1037 85 6437 2.6 50 11:18 15.03.2020
6500 Snow -5 1037 85 8047 2.1 50 10:41 15.03.2020
6501 Snow -5 1037 85 8047 2.1 50 10:23 15.03.2020
6502 Snow -5 1037 85 9656 1.5 50 09:59 15.03.2020
6503 Snow -5 1037 85 9656 1.5 50 09:39 15.03.2020
6504 Clouds -5 1037 79 16093 1.29 39 09:20 15.03.2020
6505 Clouds -5 1038 79 16093 1.29 39 08:41 15.03.2020
6506 Snow -5 1038 85 11265 0.81 73 08:20 15.03.2020
6507 Clouds -5 1037 85 16093 0.81 73 07:50 15.03.2020
6508 Snow -5 1038 73 12874 0.81 73 07:23 15.03.2020
6509 Clouds -5 1038 68 16093 1.5 70 06:44 15.03.2020
6510 Clouds -5 1038 62 16093 0.81 73 05:50 15.03.2020
6511 Clouds -5 1038 67 16093 0.77 122 04:58 15.03.2020
6512 Clouds -5 1038 67 16093 0.77 122 04:40 15.03.2020
6513 Clouds -4 1038 67 16093 0.77 122 04:21 15.03.2020
6514 Clouds -4 1038 62 16093 2.6 50 03:25 15.03.2020
6515 Clouds -4 1038 67 14484 2.1 60 02:36 15.03.2020
6516 Clouds -5 1039 67 16093 1.5 90 01:19 15.03.2020
6517 Clouds -5 1039 67 16093 1.41 178 00:42 15.03.2020
6518 Clouds -5 1039 67 16093 1.41 178 00:20 15.03.2020
6519 Clouds -6 1039 67 16093 1.5 80 23:41 14.03.2020
6520 Clouds -6 1039 67 16093 1.5 80 23:20 14.03.2020
6521 Clouds -6 1039 67 16093 2.6 50 22:57 14.03.2020
6522 Clouds -7 1039 67 16093 2.6 50 22:38 14.03.2020
6523 Clouds -7 1039 67 16093 2.6 50 22:20 14.03.2020
6524 Clouds -8 1039 72 16093 2.1 40 21:56 14.03.2020
6525 Clouds -8 1039 72 16093 2.1 40 21:36 14.03.2020
6526 Clouds -9 1039 72 16093 2.1 40 21:18 14.03.2020
6527 Clouds -9 1039 78 16093 1.57 178 20:58 14.03.2020
6528 Clouds -9 1039 78 16093 1.57 178 20:39 14.03.2020
6529 Clouds -10 1039 78 16093 1.53 159 20:18 14.03.2020
6530 Clouds -10 1039 78 16093 2.6 50 19:42 14.03.2020
6531 Clouds -11 1039 77 16093 1.53 159 19:24 14.03.2020
6532 Clouds -13 1039 84 16093 2.1 70 18:41 14.03.2020
6533 Clouds -14 1039 84 16093 2.1 70 18:22 14.03.2020
6534 Clouds -15 1039 77 16093 2.1 350 17:56 14.03.2020
6535 Clear -15 1039 91 16093 3.1 70 17:37 14.03.2020
6536 Clear -16 1039 91 16093 3.1 70 17:19 14.03.2020
6537 Clear -16 1039 84 16093 0.77 140 16:40 14.03.2020
6538 Clear -16 1039 84 16093 0.77 140 16:22 14.03.2020
6539 Clear -14 1039 84 16093 0.77 140 15:54 14.03.2020
6540 Clear -15 1039 84 16093 0.77 140 15:26 14.03.2020
6541 Clear -16 1039 84 16093 1.5 30 14:47 14.03.2020
6542 Clear -17 1039 84 16093 1.5 30 14:24 14.03.2020
6543 Clear -14 1039 84 16093 1.5 50 13:58 14.03.2020
6544 Clear -14 1039 84 16093 1.5 50 13:39 14.03.2020
6545 Clear -15 1039 84 16093 1.5 50 13:21 14.03.2020
6546 Clear -13 1039 84 16093 1.5 20 12:47 14.03.2020
6547 Clear -14 1039 84 16093 1.5 20 12:27 14.03.2020
6548 Clear -14 1039 77 16093 1.5 20 11:56 14.03.2020
6549 Clear -12 1039 84 16093 0.83 154 11:38 14.03.2020
6550 Clear -13 1039 91 16093 0.71 105 11:19 14.03.2020
6551 Clear -13 1039 91 16093 0.71 105 10:44 14.03.2020
6552 Clear -13 1039 91 16093 0.71 105 10:25 14.03.2020
6553 Clear -12 1039 84 16093 2.6 60 09:57 14.03.2020
6554 Clear -12 1039 84 16093 2.6 60 09:39 14.03.2020
6555 Clear -12 1039 84 16093 2.6 60 09:19 14.03.2020
6556 Clear -14 1039 84 16093 1.5 70 08:42 14.03.2020
6557 Clear -12 1039 84 16093 1.5 50 08:21 14.03.2020
6558 Clear -12 1040 84 16093 0.93 163 07:39 14.03.2020
6559 Clear -12 1040 84 16093 0.93 163 07:20 14.03.2020
6560 Clouds -13 1040 84 16093 0.93 163 06:41 14.03.2020
6561 Clear -12 1041 71 16093 0.93 163 05:47 14.03.2020
6562 Clear -12 1041 71 16093 0.93 163 05:47 14.03.2020
6563 Snow -7 1041 66 16093 0.89 180 04:43 14.03.2020
6564 Clouds -5 1041 49 16093 1.5 200 03:24 14.03.2020
6565 Clear -5 1041 57 16093 0.89 180 02:25 14.03.2020
6566 Clouds -5 1041 53 16093 1.05 159 01:19 14.03.2020
6567 Clear -7 1043 57 16093 1.01 161 23:56 13.03.2020
6568 Clear -7 1043 57 16093 1.01 161 23:31 13.03.2020
6569 Clouds -8 1043 61 16093 1.5 80 22:52 13.03.2020
6570 Clouds -9 1043 61 16093 1.5 80 22:27 13.03.2020
6571 Clear -10 1044 71 16093 2.1 70 21:54 13.03.2020
6572 Clear -10 1044 71 16093 2.1 70 21:36 13.03.2020
6573 Clear -11 1044 71 16093 2.1 70 21:18 13.03.2020
6574 Clear -13 1044 84 16093 1.75 155 20:41 13.03.2020
6575 Clear -14 1044 84 16093 1.67 150 20:22 13.03.2020
6576 Clear -14 1044 91 16093 0.91 169 19:49 13.03.2020
6577 Clear -15 1044 91 16093 0.91 169 19:31 13.03.2020
6578 Clouds -16 1044 84 16093 0.91 169 18:55 13.03.2020
6579 Clouds -15 1044 84 16093 0.91 169 18:36 13.03.2020
6580 Clouds -15 1044 84 16093 0.91 169 18:18 13.03.2020
6581 Clouds -14 1044 91 16093 0.91 169 17:41 13.03.2020
6582 Clouds -14 1044 91 16093 0.91 169 17:21 13.03.2020
6583 Clouds -15 1044 84 16093 1.27 65 16:55 13.03.2020
6584 Clouds -15 1044 84 16093 1.27 65 16:36 13.03.2020
6585 Clouds -15 1044 84 16093 1.27 65 16:18 13.03.2020
6586 Clouds -16 1044 84 16093 1.27 65 15:41 13.03.2020
6587 Clouds -15 1044 84 16093 1.27 65 15:20 13.03.2020
6588 Clouds -16 1044 84 16093 1.27 65 14:44 13.03.2020
6589 Clouds -16 1044 84 16093 1.27 65 14:44 13.03.2020
6590 -273 0 0 0 0 0 14:23 13.03.2020
6591 Clouds -17 1046 83 16093 0.72 54 13:58 13.03.2020
6592 Clouds -17 1046 83 16093 0.72 54 13:40 13.03.2020
6593 Clouds -17 1046 83 16093 0.72 54 13:20 13.03.2020
6594 Clear -17 1046 84 16093 0.94 54 12:55 13.03.2020
6595 Clear -17 1046 84 16093 0.94 54 12:55 13.03.2020
6596 Clear -16 1046 84 16093 0.94 54 12:37 13.03.2020
6597 Clear -17 1046 84 16093 0.94 54 12:18 13.03.2020
6598 Clouds -16 1047 83 16093 0.94 54 11:43 13.03.2020
6599 Clouds -16 1047 83 16093 0.75 124 11:25 13.03.2020
6600 Clouds -16 1047 84 16093 0.75 124 10:58 13.03.2020
6601 Clouds -16 1047 84 16093 0.75 124 10:39 13.03.2020
6602 Clouds -16 1047 84 16093 0.75 124 10:21 13.03.2020
6603 Clouds -16 1047 84 16093 0.75 124 09:44 13.03.2020
6604 Clouds -15 1047 84 16093 0.75 124 09:25 13.03.2020
6605 Clouds -15 1048 84 16093 0.75 124 08:48 13.03.2020
6606 Clouds -15 1048 84 16093 0.88 106 08:24 13.03.2020
6607 Clouds -15 1047 70 16093 0.57 48 07:59 13.03.2020
6608 Clouds -15 1047 70 16093 0.57 48 07:38 13.03.2020
6609 Clouds -15 1047 70 16093 0.57 48 07:20 13.03.2020
6610 Clouds -15 1048 84 16093 0.57 48 06:45 13.03.2020
6611 Clouds -15 1048 84 16093 0.57 48 06:19 13.03.2020
6612 Clouds -14 1047 77 16093 2.1 60 05:43 13.03.2020
6613 Clouds -13 1048 72 16093 2.1 60 04:39 13.03.2020
6614 Clouds -13 1048 71 16093 2.1 40 03:50 13.03.2020
6615 Clouds -13 1049 60 16093 2.1 10 01:49 13.03.2020
6616 Clouds -13 1049 60 16093 2.1 10 01:19 13.03.2020
6617 Clouds -13 1049 65 16093 1.32 170 00:56 13.03.2020
6618 Clouds -13 1049 65 16093 1.32 170 00:38 13.03.2020
6619 Clouds -13 1049 65 16093 1.32 170 00:18 13.03.2020
6620 Clouds -14 1050 65 16093 1.32 170 23:37 12.03.2020
6621 Clouds -15 1050 65 16093 1.21 152 23:18 12.03.2020
6622 Clouds -16 1050 77 16093 1.21 152 22:41 12.03.2020
6623 Clouds -16 1050 77 16093 1.21 152 22:23 12.03.2020
6624 Clouds -17 1050 83 16093 1.21 152 21:54 12.03.2020
6625 Clouds -18 1050 83 16093 1.21 152 21:36 12.03.2020
6626 Clouds -19 1049 76 16093 1.21 152 21:18 12.03.2020
6627 Clouds -20 1049 83 16093 1.21 152 20:42 12.03.2020
6628 Clouds -20 1014 83 0 0.88 113 20:19 12.03.2020
6629 Clouds -21 1015 85 0 0.88 113 19:42 12.03.2020
6630 Clouds -23 1049 75 16093 1.5 40 19:21 12.03.2020
6631 Clouds -23 1049 75 16093 1.5 40 19:21 12.03.2020
6632 Clear -23 1049 75 16093 0.88 113 18:45 12.03.2020
6633 Clear -23 1049 75 16093 0.88 113 18:25 12.03.2020
6634 Clouds -25 1049 75 16093 0.88 113 17:58 12.03.2020
6635 Clear -25 1048 75 16093 0.88 113 17:40 12.03.2020
6636 Clear -24 1048 75 16093 0.68 96 17:21 12.03.2020
6637 Clouds -24 1048 75 16093 0.68 96 16:58 12.03.2020
6638 Clouds -24 1048 75 16093 0.68 96 16:39 12.03.2020
6639 Clouds -23 1048 75 16093 0.68 96 16:20 12.03.2020
6640 Clouds -22 1047 83 16093 2.1 70 15:47 12.03.2020
6641 Clouds -23 1047 83 16093 2.1 70 15:27 12.03.2020
6642 Clouds -22 1046 76 16093 1.5 90 14:54 12.03.2020
6643 Snow -22 1047 75 9656 2.1 60 14:36 12.03.2020
6644 Snow -22 1047 75 9656 2.1 60 14:18 12.03.2020
6645 Clouds -21 1046 83 16093 0.66 150 13:38 12.03.2020
6646 Clouds -21 1046 83 16093 0.58 135 13:20 12.03.2020
6647 Clouds -21 1045 76 16093 2.6 150 12:43 12.03.2020
6648 Snow -22 1045 83 9656 2.1 70 12:23 12.03.2020
6649 Snow -21 1044 76 11265 0.58 135 11:59 12.03.2020
6650 Snow -22 1044 76 11265 0.58 135 11:39 12.03.2020
6651 Snow -21 1044 76 11265 0.58 135 11:21 12.03.2020
6652 Snow -21 1044 76 11265 0.58 135 11:21 12.03.2020
6653 Snow -21 1043 76 12874 0.62 143 10:59 12.03.2020
6654 Snow -21 1043 76 12874 0.62 143 10:41 12.03.2020
6655 Snow -21 1043 76 12874 0.62 143 10:22 12.03.2020
6656 Snow -21 1043 76 12874 0.62 143 10:22 12.03.2020
6657 Snow -21 1043 83 14484 0.62 143 09:49 12.03.2020
6658 Clouds -20 1043 76 16093 0.62 143 09:29 12.03.2020
6659 Snow -23 1042 83 14484 0.62 143 08:55 12.03.2020
6660 Snow -22 1042 83 14484 0.62 143 08:37 12.03.2020
6661 Snow -22 1042 75 16093 0.62 127 08:18 12.03.2020
6662 Snow -22 1042 83 14484 0.62 127 07:46 12.03.2020
6663 Snow -21 1041 76 11265 0.62 127 07:21 12.03.2020
6664 Clouds -20 1040 76 16093 0.62 127 05:59 12.03.2020
6665 Clouds -20 1040 69 16093 0.62 127 05:33 12.03.2020
6666 Clouds -17 1038 59 16093 1.02 191 02:54 12.03.2020
6667 Clouds -17 1038 54 16093 1.57 206 01:43 12.03.2020
6668 Clouds -18 1038 54 16093 1.57 206 01:21 12.03.2020
6669 Clouds -18 1037 53 16093 1.56 201 00:41 12.03.2020
6670 Clear -20 1038 83 16093 1.56 201 23:57 11.03.2020
6671 Clear -20 1038 83 16093 1.56 201 23:28 11.03.2020
6672 Clear -21 1037 83 16093 1.37 172 22:58 11.03.2020
6673 Clear -21 1037 83 16093 1.37 172 22:39 11.03.2020
6674 Clear -22 1037 83 16093 1.37 172 22:21 11.03.2020
6675 Clear -23 1037 75 16093 1.37 172 21:56 11.03.2020
6676 Clear -23 1037 75 16093 1.37 172 21:37 11.03.2020
6677 Clear -24 1037 75 16093 1.37 172 21:19 11.03.2020
6678 Clear -25 1036 74 16093 1.37 172 20:55 11.03.2020
6679 Clear -26 1036 74 16093 1.37 172 20:36 11.03.2020
6680 Clear -29 1036 74 16093 0.67 81 20:18 11.03.2020
6681 Clear -31 1036 73 16093 0.67 81 19:42 11.03.2020
6682 Clear -31 1036 73 16093 0.67 81 19:24 11.03.2020
6683 Mist -32 1034 66 9656 0.67 81 18:56 11.03.2020
6684 Clear -31 1035 66 16093 0.67 81 18:37 11.03.2020
6685<